<?xml version="1.0" encoding="UTF-8" standalone="no" ?>
<gpx xmlns="http://www.topografix.com/GPX/1/1" xmlns:xsi="http://www.w3.org/2001/XMLSchema-instance" xsi:schemaLocation="http://www.topografix.com/GPX/1/1 http://www.topografix.com/GPX/1/1/gpx.xsd" version="1.1" creator="VisuGPX - https://www.visugpx.com">
  <metadata>
    <name>sortie Clairefontaine en partant du poteau </name>
  </metadata>
  <trk>
    <name><![CDATA[sortie Clairefontaine en partant du poteau _1]]></name>
    <trkseg>
      <trkpt lat="48.60643" lon="1.95053">
        <ele>157.4</ele>
        <time>2025-12-29T11:08:35Z</time>
      </trkpt>
      <trkpt lat="48.60642" lon="1.95056">
        <ele>156.6</ele>
        <time>2025-12-29T11:08:36Z</time>
      </trkpt>
      <trkpt lat="48.60641" lon="1.9506">
        <ele>156</ele>
        <time>2025-12-29T11:08:37Z</time>
      </trkpt>
      <trkpt lat="48.6064" lon="1.95064">
        <ele>155.4</ele>
        <time>2025-12-29T11:08:38Z</time>
      </trkpt>
      <trkpt lat="48.6064" lon="1.95067">
        <ele>154.8</ele>
        <time>2025-12-29T11:08:39Z</time>
      </trkpt>
      <trkpt lat="48.60639" lon="1.95071">
        <ele>153.6</ele>
        <time>2025-12-29T11:08:41Z</time>
      </trkpt>
      <trkpt lat="48.60637" lon="1.95075">
        <ele>152.4</ele>
        <time>2025-12-29T11:08:43Z</time>
      </trkpt>
      <trkpt lat="48.60636" lon="1.95077">
        <ele>151</ele>
        <time>2025-12-29T11:08:46Z</time>
      </trkpt>
      <trkpt lat="48.60635" lon="1.9508">
        <ele>149.4</ele>
        <time>2025-12-29T11:08:49Z</time>
      </trkpt>
      <trkpt lat="48.60633" lon="1.95082">
        <ele>149</ele>
        <time>2025-12-29T11:08:50Z</time>
      </trkpt>
      <trkpt lat="48.6063" lon="1.95085">
        <ele>148</ele>
        <time>2025-12-29T11:08:52Z</time>
      </trkpt>
      <trkpt lat="48.60628" lon="1.95088">
        <ele>147</ele>
        <time>2025-12-29T11:08:54Z</time>
      </trkpt>
      <trkpt lat="48.60626" lon="1.95091">
        <ele>145.8</ele>
        <time>2025-12-29T11:08:56Z</time>
      </trkpt>
      <trkpt lat="48.60624" lon="1.95093">
        <ele>145.2</ele>
        <time>2025-12-29T11:08:57Z</time>
      </trkpt>
      <trkpt lat="48.60623" lon="1.95095">
        <ele>144.6</ele>
        <time>2025-12-29T11:08:58Z</time>
      </trkpt>
      <trkpt lat="48.60621" lon="1.95097">
        <ele>144.2</ele>
        <time>2025-12-29T11:08:59Z</time>
      </trkpt>
      <trkpt lat="48.6062" lon="1.951">
        <ele>143.2</ele>
        <time>2025-12-29T11:09:01Z</time>
      </trkpt>
      <trkpt lat="48.6062" lon="1.95103">
        <ele>141.6</ele>
        <time>2025-12-29T11:09:04Z</time>
      </trkpt>
      <trkpt lat="48.60622" lon="1.95105">
        <ele>139.6</ele>
        <time>2025-12-29T11:09:08Z</time>
      </trkpt>
      <trkpt lat="48.60621" lon="1.95107">
        <ele>139.2</ele>
        <time>2025-12-29T11:09:14Z</time>
      </trkpt>
      <trkpt lat="48.6062" lon="1.95111">
        <ele>138.4</ele>
        <time>2025-12-29T11:09:17Z</time>
      </trkpt>
      <trkpt lat="48.60619" lon="1.95114">
        <ele>138.2</ele>
        <time>2025-12-29T11:09:18Z</time>
      </trkpt>
      <trkpt lat="48.60618" lon="1.95117">
        <ele>137.6</ele>
        <time>2025-12-29T11:09:20Z</time>
      </trkpt>
      <trkpt lat="48.60616" lon="1.95121">
        <ele>137.2</ele>
        <time>2025-12-29T11:09:22Z</time>
      </trkpt>
      <trkpt lat="48.60614" lon="1.95125">
        <ele>136.2</ele>
        <time>2025-12-29T11:09:24Z</time>
      </trkpt>
      <trkpt lat="48.60613" lon="1.95128">
        <ele>135.4</ele>
        <time>2025-12-29T11:09:26Z</time>
      </trkpt>
      <trkpt lat="48.60612" lon="1.95132">
        <ele>134.6</ele>
        <time>2025-12-29T11:09:29Z</time>
      </trkpt>
      <trkpt lat="48.60611" lon="1.95134">
        <ele>134.2</ele>
        <time>2025-12-29T11:09:31Z</time>
      </trkpt>
      <trkpt lat="48.60609" lon="1.95138">
        <ele>134.6</ele>
        <time>2025-12-29T11:09:34Z</time>
      </trkpt>
      <trkpt lat="48.60608" lon="1.9514">
        <ele>134.2</ele>
        <time>2025-12-29T11:09:35Z</time>
      </trkpt>
      <trkpt lat="48.60605" lon="1.95145">
        <ele>133.6</ele>
        <time>2025-12-29T11:09:37Z</time>
      </trkpt>
      <trkpt lat="48.60603" lon="1.95147">
        <ele>133</ele>
        <time>2025-12-29T11:09:39Z</time>
      </trkpt>
      <trkpt lat="48.60601" lon="1.95149">
        <ele>132.4</ele>
        <time>2025-12-29T11:09:41Z</time>
      </trkpt>
      <trkpt lat="48.60599" lon="1.95151">
        <ele>131.6</ele>
        <time>2025-12-29T11:09:43Z</time>
      </trkpt>
      <trkpt lat="48.606" lon="1.95154">
        <ele>129.6</ele>
        <time>2025-12-29T11:09:50Z</time>
      </trkpt>
      <trkpt lat="48.60598" lon="1.95156">
        <ele>129.4</ele>
        <time>2025-12-29T11:09:51Z</time>
      </trkpt>
      <trkpt lat="48.60597" lon="1.95159">
        <ele>129.2</ele>
        <time>2025-12-29T11:09:52Z</time>
      </trkpt>
      <trkpt lat="48.60595" lon="1.95162">
        <ele>129.2</ele>
        <time>2025-12-29T11:09:53Z</time>
      </trkpt>
      <trkpt lat="48.60593" lon="1.95165">
        <ele>129</ele>
        <time>2025-12-29T11:09:54Z</time>
      </trkpt>
      <trkpt lat="48.60591" lon="1.95168">
        <ele>128.8</ele>
        <time>2025-12-29T11:09:55Z</time>
      </trkpt>
      <trkpt lat="48.60589" lon="1.95171">
        <ele>128.8</ele>
        <time>2025-12-29T11:09:56Z</time>
      </trkpt>
      <trkpt lat="48.60588" lon="1.95174">
        <ele>128.6</ele>
        <time>2025-12-29T11:09:57Z</time>
      </trkpt>
      <trkpt lat="48.60586" lon="1.95176">
        <ele>129.2</ele>
        <time>2025-12-29T11:09:58Z</time>
      </trkpt>
      <trkpt lat="48.60585" lon="1.95179">
        <ele>129.4</ele>
        <time>2025-12-29T11:09:59Z</time>
      </trkpt>
      <trkpt lat="48.60583" lon="1.95181">
        <ele>129.4</ele>
        <time>2025-12-29T11:10:00Z</time>
      </trkpt>
      <trkpt lat="48.60581" lon="1.95183">
        <ele>129.4</ele>
        <time>2025-12-29T11:10:01Z</time>
      </trkpt>
      <trkpt lat="48.60579" lon="1.95187">
        <ele>129.6</ele>
        <time>2025-12-29T11:10:03Z</time>
      </trkpt>
      <trkpt lat="48.60577" lon="1.9519">
        <ele>129.4</ele>
        <time>2025-12-29T11:10:05Z</time>
      </trkpt>
      <trkpt lat="48.60576" lon="1.95193">
        <ele>128.2</ele>
        <time>2025-12-29T11:10:07Z</time>
      </trkpt>
      <trkpt lat="48.60575" lon="1.95197">
        <ele>127.2</ele>
        <time>2025-12-29T11:10:09Z</time>
      </trkpt>
      <trkpt lat="48.60573" lon="1.952">
        <ele>126.4</ele>
        <time>2025-12-29T11:10:11Z</time>
      </trkpt>
      <trkpt lat="48.60572" lon="1.95202">
        <ele>124.6</ele>
        <time>2025-12-29T11:10:16Z</time>
      </trkpt>
      <trkpt lat="48.60571" lon="1.95205">
        <ele>123</ele>
        <time>2025-12-29T11:10:23Z</time>
      </trkpt>
      <trkpt lat="48.60568" lon="1.95213">
        <ele>123.4</ele>
        <time>2025-12-29T11:10:25Z</time>
      </trkpt>
      <trkpt lat="48.60567" lon="1.95215">
        <ele>123.6</ele>
        <time>2025-12-29T11:10:26Z</time>
      </trkpt>
      <trkpt lat="48.60565" lon="1.95218">
        <ele>123.8</ele>
        <time>2025-12-29T11:10:27Z</time>
      </trkpt>
      <trkpt lat="48.60564" lon="1.95221">
        <ele>124.2</ele>
        <time>2025-12-29T11:10:28Z</time>
      </trkpt>
      <trkpt lat="48.60562" lon="1.95224">
        <ele>124.4</ele>
        <time>2025-12-29T11:10:29Z</time>
      </trkpt>
      <trkpt lat="48.6056" lon="1.95226">
        <ele>124.2</ele>
        <time>2025-12-29T11:10:30Z</time>
      </trkpt>
      <trkpt lat="48.60559" lon="1.95229">
        <ele>123.8</ele>
        <time>2025-12-29T11:10:31Z</time>
      </trkpt>
      <trkpt lat="48.60557" lon="1.95231">
        <ele>123.8</ele>
        <time>2025-12-29T11:10:32Z</time>
      </trkpt>
      <trkpt lat="48.60555" lon="1.95235">
        <ele>124.2</ele>
        <time>2025-12-29T11:10:34Z</time>
      </trkpt>
      <trkpt lat="48.60554" lon="1.95237">
        <ele>124</ele>
        <time>2025-12-29T11:10:36Z</time>
      </trkpt>
      <trkpt lat="48.60554" lon="1.95241">
        <ele>125.4</ele>
        <time>2025-12-29T11:10:40Z</time>
      </trkpt>
      <trkpt lat="48.60553" lon="1.95244">
        <ele>126</ele>
        <time>2025-12-29T11:10:42Z</time>
      </trkpt>
      <trkpt lat="48.60552" lon="1.95248">
        <ele>126.2</ele>
        <time>2025-12-29T11:10:44Z</time>
      </trkpt>
      <trkpt lat="48.60551" lon="1.95252">
        <ele>126.4</ele>
        <time>2025-12-29T11:10:46Z</time>
      </trkpt>
      <trkpt lat="48.60549" lon="1.95255">
        <ele>126.2</ele>
        <time>2025-12-29T11:10:48Z</time>
      </trkpt>
      <trkpt lat="48.60548" lon="1.95258">
        <ele>126.2</ele>
        <time>2025-12-29T11:10:50Z</time>
      </trkpt>
      <trkpt lat="48.60547" lon="1.9526">
        <ele>126.2</ele>
        <time>2025-12-29T11:10:52Z</time>
      </trkpt>
      <trkpt lat="48.60545" lon="1.95262">
        <ele>126.2</ele>
        <time>2025-12-29T11:10:56Z</time>
      </trkpt>
      <trkpt lat="48.60543" lon="1.95262">
        <ele>125.8</ele>
        <time>2025-12-29T11:11:14Z</time>
      </trkpt>
      <trkpt lat="48.60542" lon="1.95265">
        <ele>125.8</ele>
        <time>2025-12-29T11:11:17Z</time>
      </trkpt>
      <trkpt lat="48.60541" lon="1.95267">
        <ele>126</ele>
        <time>2025-12-29T11:11:20Z</time>
      </trkpt>
      <trkpt lat="48.6054" lon="1.9527">
        <ele>126.4</ele>
        <time>2025-12-29T11:11:23Z</time>
      </trkpt>
      <trkpt lat="48.60539" lon="1.95273">
        <ele>126.6</ele>
        <time>2025-12-29T11:11:26Z</time>
      </trkpt>
      <trkpt lat="48.60539" lon="1.95276">
        <ele>126.6</ele>
        <time>2025-12-29T11:11:29Z</time>
      </trkpt>
      <trkpt lat="48.60537" lon="1.95279">
        <ele>126.8</ele>
        <time>2025-12-29T11:11:32Z</time>
      </trkpt>
      <trkpt lat="48.60536" lon="1.95282">
        <ele>127.6</ele>
        <time>2025-12-29T11:11:35Z</time>
      </trkpt>
      <trkpt lat="48.60533" lon="1.95285">
        <ele>128</ele>
        <time>2025-12-29T11:11:37Z</time>
      </trkpt>
      <trkpt lat="48.6053" lon="1.95291">
        <ele>128.2</ele>
        <time>2025-12-29T11:11:39Z</time>
      </trkpt>
      <trkpt lat="48.60528" lon="1.95293">
        <ele>128.4</ele>
        <time>2025-12-29T11:11:40Z</time>
      </trkpt>
      <trkpt lat="48.60527" lon="1.95295">
        <ele>128.8</ele>
        <time>2025-12-29T11:11:41Z</time>
      </trkpt>
      <trkpt lat="48.60526" lon="1.95297">
        <ele>129</ele>
        <time>2025-12-29T11:11:42Z</time>
      </trkpt>
      <trkpt lat="48.60524" lon="1.95301">
        <ele>129.4</ele>
        <time>2025-12-29T11:11:44Z</time>
      </trkpt>
      <trkpt lat="48.60524" lon="1.95305">
        <ele>129.8</ele>
        <time>2025-12-29T11:11:46Z</time>
      </trkpt>
      <trkpt lat="48.60523" lon="1.95308">
        <ele>129.6</ele>
        <time>2025-12-29T11:11:48Z</time>
      </trkpt>
      <trkpt lat="48.60522" lon="1.95311">
        <ele>129.2</ele>
        <time>2025-12-29T11:11:50Z</time>
      </trkpt>
      <trkpt lat="48.60521" lon="1.95314">
        <ele>129</ele>
        <time>2025-12-29T11:11:52Z</time>
      </trkpt>
      <trkpt lat="48.6052" lon="1.95318">
        <ele>128.8</ele>
        <time>2025-12-29T11:11:54Z</time>
      </trkpt>
      <trkpt lat="48.60518" lon="1.95322">
        <ele>128.6</ele>
        <time>2025-12-29T11:11:56Z</time>
      </trkpt>
      <trkpt lat="48.60517" lon="1.95325">
        <ele>128.4</ele>
        <time>2025-12-29T11:11:58Z</time>
      </trkpt>
      <trkpt lat="48.60515" lon="1.95329">
        <ele>127.8</ele>
        <time>2025-12-29T11:12:00Z</time>
      </trkpt>
      <trkpt lat="48.60513" lon="1.95332">
        <ele>127.4</ele>
        <time>2025-12-29T11:12:02Z</time>
      </trkpt>
      <trkpt lat="48.60511" lon="1.95335">
        <ele>127</ele>
        <time>2025-12-29T11:12:04Z</time>
      </trkpt>
      <trkpt lat="48.60509" lon="1.95339">
        <ele>126.8</ele>
        <time>2025-12-29T11:12:06Z</time>
      </trkpt>
      <trkpt lat="48.60508" lon="1.95342">
        <ele>126.6</ele>
        <time>2025-12-29T11:12:08Z</time>
      </trkpt>
      <trkpt lat="48.60507" lon="1.95345">
        <ele>126.4</ele>
        <time>2025-12-29T11:12:11Z</time>
      </trkpt>
      <trkpt lat="48.60505" lon="1.95349">
        <ele>126</ele>
        <time>2025-12-29T11:12:13Z</time>
      </trkpt>
      <trkpt lat="48.60504" lon="1.95352">
        <ele>125.6</ele>
        <time>2025-12-29T11:12:15Z</time>
      </trkpt>
      <trkpt lat="48.60503" lon="1.95355">
        <ele>125.2</ele>
        <time>2025-12-29T11:12:17Z</time>
      </trkpt>
      <trkpt lat="48.60501" lon="1.95358">
        <ele>124.8</ele>
        <time>2025-12-29T11:12:19Z</time>
      </trkpt>
      <trkpt lat="48.60499" lon="1.9536">
        <ele>124.4</ele>
        <time>2025-12-29T11:12:21Z</time>
      </trkpt>
      <trkpt lat="48.60497" lon="1.95363">
        <ele>124.6</ele>
        <time>2025-12-29T11:12:23Z</time>
      </trkpt>
      <trkpt lat="48.60495" lon="1.95367">
        <ele>125.8</ele>
        <time>2025-12-29T11:12:25Z</time>
      </trkpt>
      <trkpt lat="48.60494" lon="1.95369">
        <ele>126.4</ele>
        <time>2025-12-29T11:12:26Z</time>
      </trkpt>
      <trkpt lat="48.60492" lon="1.95373">
        <ele>127</ele>
        <time>2025-12-29T11:12:29Z</time>
      </trkpt>
      <trkpt lat="48.60491" lon="1.95375">
        <ele>127.2</ele>
        <time>2025-12-29T11:12:30Z</time>
      </trkpt>
      <trkpt lat="48.60489" lon="1.95381">
        <ele>127.8</ele>
        <time>2025-12-29T11:12:32Z</time>
      </trkpt>
      <trkpt lat="48.60488" lon="1.95384">
        <ele>128.8</ele>
        <time>2025-12-29T11:12:37Z</time>
      </trkpt>
      <trkpt lat="48.60487" lon="1.95387">
        <ele>129</ele>
        <time>2025-12-29T11:12:38Z</time>
      </trkpt>
      <trkpt lat="48.60485" lon="1.95391">
        <ele>129.4</ele>
        <time>2025-12-29T11:12:40Z</time>
      </trkpt>
      <trkpt lat="48.60483" lon="1.95393">
        <ele>129.6</ele>
        <time>2025-12-29T11:12:42Z</time>
      </trkpt>
      <trkpt lat="48.60481" lon="1.95394">
        <ele>130</ele>
        <time>2025-12-29T11:12:45Z</time>
      </trkpt>
      <trkpt lat="48.60479" lon="1.95395">
        <ele>130</ele>
        <time>2025-12-29T11:12:51Z</time>
      </trkpt>
      <trkpt lat="48.60478" lon="1.954">
        <ele>130</ele>
        <time>2025-12-29T11:12:53Z</time>
      </trkpt>
      <trkpt lat="48.60477" lon="1.95403">
        <ele>130</ele>
        <time>2025-12-29T11:12:54Z</time>
      </trkpt>
      <trkpt lat="48.60476" lon="1.95406">
        <ele>130</ele>
        <time>2025-12-29T11:12:55Z</time>
      </trkpt>
      <trkpt lat="48.60474" lon="1.95409">
        <ele>130.2</ele>
        <time>2025-12-29T11:12:56Z</time>
      </trkpt>
      <trkpt lat="48.60474" lon="1.95412">
        <ele>130.2</ele>
        <time>2025-12-29T11:12:57Z</time>
      </trkpt>
      <trkpt lat="48.60473" lon="1.95415">
        <ele>130.2</ele>
        <time>2025-12-29T11:12:58Z</time>
      </trkpt>
      <trkpt lat="48.60473" lon="1.95419">
        <ele>130.2</ele>
        <time>2025-12-29T11:13:00Z</time>
      </trkpt>
      <trkpt lat="48.60473" lon="1.95422">
        <ele>130.2</ele>
        <time>2025-12-29T11:13:03Z</time>
      </trkpt>
      <trkpt lat="48.60472" lon="1.95424">
        <ele>130.4</ele>
        <time>2025-12-29T11:13:08Z</time>
      </trkpt>
      <trkpt lat="48.60471" lon="1.95427">
        <ele>130.4</ele>
        <time>2025-12-29T11:13:11Z</time>
      </trkpt>
      <trkpt lat="48.60469" lon="1.95431">
        <ele>130.6</ele>
        <time>2025-12-29T11:13:15Z</time>
      </trkpt>
      <trkpt lat="48.60468" lon="1.95435">
        <ele>130.6</ele>
        <time>2025-12-29T11:13:19Z</time>
      </trkpt>
      <trkpt lat="48.60466" lon="1.95437">
        <ele>130.2</ele>
        <time>2025-12-29T11:13:21Z</time>
      </trkpt>
      <trkpt lat="48.60462" lon="1.9544">
        <ele>128.8</ele>
        <time>2025-12-29T11:13:25Z</time>
      </trkpt>
      <trkpt lat="48.6046" lon="1.95442">
        <ele>128</ele>
        <time>2025-12-29T11:13:27Z</time>
      </trkpt>
      <trkpt lat="48.60455" lon="1.95448">
        <ele>127.4</ele>
        <time>2025-12-29T11:13:29Z</time>
      </trkpt>
      <trkpt lat="48.60452" lon="1.95452">
        <ele>126.8</ele>
        <time>2025-12-29T11:13:31Z</time>
      </trkpt>
      <trkpt lat="48.60449" lon="1.95455">
        <ele>126.2</ele>
        <time>2025-12-29T11:13:33Z</time>
      </trkpt>
      <trkpt lat="48.60448" lon="1.95456">
        <ele>126</ele>
        <time>2025-12-29T11:13:34Z</time>
      </trkpt>
      <trkpt lat="48.60446" lon="1.95457">
        <ele>126</ele>
        <time>2025-12-29T11:13:35Z</time>
      </trkpt>
      <trkpt lat="48.60444" lon="1.95461">
        <ele>126.2</ele>
        <time>2025-12-29T11:13:37Z</time>
      </trkpt>
      <trkpt lat="48.60442" lon="1.95465">
        <ele>126.2</ele>
        <time>2025-12-29T11:13:40Z</time>
      </trkpt>
      <trkpt lat="48.6044" lon="1.95468">
        <ele>126.4</ele>
        <time>2025-12-29T11:13:41Z</time>
      </trkpt>
      <trkpt lat="48.60439" lon="1.9547">
        <ele>126.6</ele>
        <time>2025-12-29T11:13:42Z</time>
      </trkpt>
      <trkpt lat="48.60438" lon="1.95472">
        <ele>126.8</ele>
        <time>2025-12-29T11:13:43Z</time>
      </trkpt>
      <trkpt lat="48.60436" lon="1.95476">
        <ele>127.2</ele>
        <time>2025-12-29T11:13:44Z</time>
      </trkpt>
      <trkpt lat="48.60435" lon="1.95479">
        <ele>127.8</ele>
        <time>2025-12-29T11:13:46Z</time>
      </trkpt>
      <trkpt lat="48.60436" lon="1.95483">
        <ele>128.6</ele>
        <time>2025-12-29T11:13:49Z</time>
      </trkpt>
      <trkpt lat="48.60435" lon="1.95489">
        <ele>129.4</ele>
        <time>2025-12-29T11:13:52Z</time>
      </trkpt>
      <trkpt lat="48.60433" lon="1.95493">
        <ele>129.8</ele>
        <time>2025-12-29T11:13:54Z</time>
      </trkpt>
      <trkpt lat="48.60431" lon="1.95497">
        <ele>130.4</ele>
        <time>2025-12-29T11:13:57Z</time>
      </trkpt>
      <trkpt lat="48.60429" lon="1.95501">
        <ele>130.8</ele>
        <time>2025-12-29T11:13:59Z</time>
      </trkpt>
      <trkpt lat="48.60427" lon="1.95505">
        <ele>131</ele>
        <time>2025-12-29T11:14:00Z</time>
      </trkpt>
      <trkpt lat="48.60426" lon="1.95507">
        <ele>131.2</ele>
        <time>2025-12-29T11:14:01Z</time>
      </trkpt>
      <trkpt lat="48.60424" lon="1.95511">
        <ele>131.8</ele>
        <time>2025-12-29T11:14:03Z</time>
      </trkpt>
      <trkpt lat="48.60422" lon="1.95514">
        <ele>132</ele>
        <time>2025-12-29T11:14:04Z</time>
      </trkpt>
      <trkpt lat="48.60421" lon="1.95516">
        <ele>132.2</ele>
        <time>2025-12-29T11:14:05Z</time>
      </trkpt>
      <trkpt lat="48.6042" lon="1.95519">
        <ele>132.4</ele>
        <time>2025-12-29T11:14:06Z</time>
      </trkpt>
      <trkpt lat="48.60419" lon="1.95522">
        <ele>132.6</ele>
        <time>2025-12-29T11:14:07Z</time>
      </trkpt>
      <trkpt lat="48.60418" lon="1.95524">
        <ele>132.8</ele>
        <time>2025-12-29T11:14:08Z</time>
      </trkpt>
      <trkpt lat="48.60416" lon="1.95527">
        <ele>132.8</ele>
        <time>2025-12-29T11:14:09Z</time>
      </trkpt>
      <trkpt lat="48.60415" lon="1.95529">
        <ele>133</ele>
        <time>2025-12-29T11:14:10Z</time>
      </trkpt>
      <trkpt lat="48.60414" lon="1.95532">
        <ele>133.2</ele>
        <time>2025-12-29T11:14:11Z</time>
      </trkpt>
      <trkpt lat="48.60413" lon="1.95536">
        <ele>133.6</ele>
        <time>2025-12-29T11:14:13Z</time>
      </trkpt>
      <trkpt lat="48.60412" lon="1.95539">
        <ele>133.8</ele>
        <time>2025-12-29T11:14:15Z</time>
      </trkpt>
      <trkpt lat="48.6041" lon="1.95542">
        <ele>134</ele>
        <time>2025-12-29T11:14:17Z</time>
      </trkpt>
      <trkpt lat="48.60408" lon="1.95545">
        <ele>134.2</ele>
        <time>2025-12-29T11:14:19Z</time>
      </trkpt>
      <trkpt lat="48.60407" lon="1.95548">
        <ele>134.6</ele>
        <time>2025-12-29T11:14:22Z</time>
      </trkpt>
      <trkpt lat="48.60406" lon="1.95551">
        <ele>134.6</ele>
        <time>2025-12-29T11:14:25Z</time>
      </trkpt>
      <trkpt lat="48.60404" lon="1.95556">
        <ele>135.2</ele>
        <time>2025-12-29T11:14:28Z</time>
      </trkpt>
      <trkpt lat="48.60402" lon="1.9556">
        <ele>135.6</ele>
        <time>2025-12-29T11:14:30Z</time>
      </trkpt>
      <trkpt lat="48.60398" lon="1.95565">
        <ele>136.2</ele>
        <time>2025-12-29T11:14:32Z</time>
      </trkpt>
      <trkpt lat="48.60396" lon="1.95568">
        <ele>136.6</ele>
        <time>2025-12-29T11:14:34Z</time>
      </trkpt>
      <trkpt lat="48.60394" lon="1.95572">
        <ele>136.8</ele>
        <time>2025-12-29T11:14:36Z</time>
      </trkpt>
      <trkpt lat="48.60392" lon="1.95576">
        <ele>136.8</ele>
        <time>2025-12-29T11:14:38Z</time>
      </trkpt>
      <trkpt lat="48.6039" lon="1.9558">
        <ele>136.8</ele>
        <time>2025-12-29T11:14:40Z</time>
      </trkpt>
      <trkpt lat="48.60389" lon="1.95583">
        <ele>136.8</ele>
        <time>2025-12-29T11:14:42Z</time>
      </trkpt>
      <trkpt lat="48.60388" lon="1.95586">
        <ele>136.6</ele>
        <time>2025-12-29T11:14:45Z</time>
      </trkpt>
      <trkpt lat="48.60387" lon="1.95589">
        <ele>136.4</ele>
        <time>2025-12-29T11:14:47Z</time>
      </trkpt>
      <trkpt lat="48.60386" lon="1.95592">
        <ele>136.2</ele>
        <time>2025-12-29T11:14:49Z</time>
      </trkpt>
      <trkpt lat="48.60384" lon="1.95594">
        <ele>136</ele>
        <time>2025-12-29T11:14:53Z</time>
      </trkpt>
      <trkpt lat="48.60383" lon="1.95597">
        <ele>134.4</ele>
        <time>2025-12-29T11:14:58Z</time>
      </trkpt>
      <trkpt lat="48.60382" lon="1.956">
        <ele>133.6</ele>
        <time>2025-12-29T11:15:00Z</time>
      </trkpt>
      <trkpt lat="48.6038" lon="1.95603">
        <ele>133.4</ele>
        <time>2025-12-29T11:15:01Z</time>
      </trkpt>
      <trkpt lat="48.60379" lon="1.95606">
        <ele>132.8</ele>
        <time>2025-12-29T11:15:02Z</time>
      </trkpt>
      <trkpt lat="48.60378" lon="1.95608">
        <ele>132.4</ele>
        <time>2025-12-29T11:15:03Z</time>
      </trkpt>
      <trkpt lat="48.60376" lon="1.95611">
        <ele>132.2</ele>
        <time>2025-12-29T11:15:04Z</time>
      </trkpt>
      <trkpt lat="48.60375" lon="1.95613">
        <ele>131.8</ele>
        <time>2025-12-29T11:15:06Z</time>
      </trkpt>
      <trkpt lat="48.60374" lon="1.95616">
        <ele>131.4</ele>
        <time>2025-12-29T11:15:08Z</time>
      </trkpt>
      <trkpt lat="48.60373" lon="1.95618">
        <ele>131</ele>
        <time>2025-12-29T11:15:09Z</time>
      </trkpt>
      <trkpt lat="48.6037" lon="1.95623">
        <ele>130.4</ele>
        <time>2025-12-29T11:15:11Z</time>
      </trkpt>
      <trkpt lat="48.60369" lon="1.95626">
        <ele>130</ele>
        <time>2025-12-29T11:15:12Z</time>
      </trkpt>
      <trkpt lat="48.60367" lon="1.95628">
        <ele>129.4</ele>
        <time>2025-12-29T11:15:14Z</time>
      </trkpt>
      <trkpt lat="48.60365" lon="1.95631">
        <ele>128.8</ele>
        <time>2025-12-29T11:15:16Z</time>
      </trkpt>
      <trkpt lat="48.60364" lon="1.95634">
        <ele>128.4</ele>
        <time>2025-12-29T11:15:18Z</time>
      </trkpt>
      <trkpt lat="48.60362" lon="1.95638">
        <ele>127.8</ele>
        <time>2025-12-29T11:15:20Z</time>
      </trkpt>
      <trkpt lat="48.6036" lon="1.95642">
        <ele>127</ele>
        <time>2025-12-29T11:15:22Z</time>
      </trkpt>
      <trkpt lat="48.60358" lon="1.95645">
        <ele>126.4</ele>
        <time>2025-12-29T11:15:24Z</time>
      </trkpt>
      <trkpt lat="48.60357" lon="1.95649">
        <ele>126.4</ele>
        <time>2025-12-29T11:15:26Z</time>
      </trkpt>
      <trkpt lat="48.60357" lon="1.95652">
        <ele>126.6</ele>
        <time>2025-12-29T11:15:28Z</time>
      </trkpt>
      <trkpt lat="48.60355" lon="1.95657">
        <ele>126.8</ele>
        <time>2025-12-29T11:15:30Z</time>
      </trkpt>
      <trkpt lat="48.60354" lon="1.95661">
        <ele>127</ele>
        <time>2025-12-29T11:15:32Z</time>
      </trkpt>
      <trkpt lat="48.60352" lon="1.95664">
        <ele>127.4</ele>
        <time>2025-12-29T11:15:34Z</time>
      </trkpt>
      <trkpt lat="48.60351" lon="1.95667">
        <ele>127.6</ele>
        <time>2025-12-29T11:15:36Z</time>
      </trkpt>
      <trkpt lat="48.6035" lon="1.95671">
        <ele>127.8</ele>
        <time>2025-12-29T11:15:38Z</time>
      </trkpt>
      <trkpt lat="48.60349" lon="1.95675">
        <ele>127.8</ele>
        <time>2025-12-29T11:15:40Z</time>
      </trkpt>
      <trkpt lat="48.60348" lon="1.95678">
        <ele>128</ele>
        <time>2025-12-29T11:15:42Z</time>
      </trkpt>
      <trkpt lat="48.60347" lon="1.95681">
        <ele>128.2</ele>
        <time>2025-12-29T11:15:44Z</time>
      </trkpt>
      <trkpt lat="48.60346" lon="1.95684">
        <ele>128.4</ele>
        <time>2025-12-29T11:15:47Z</time>
      </trkpt>
      <trkpt lat="48.60344" lon="1.95688">
        <ele>128.6</ele>
        <time>2025-12-29T11:15:49Z</time>
      </trkpt>
      <trkpt lat="48.60342" lon="1.95692">
        <ele>128.6</ele>
        <time>2025-12-29T11:15:51Z</time>
      </trkpt>
      <trkpt lat="48.6034" lon="1.95696">
        <ele>128.8</ele>
        <time>2025-12-29T11:15:53Z</time>
      </trkpt>
      <trkpt lat="48.60339" lon="1.957">
        <ele>128.8</ele>
        <time>2025-12-29T11:15:55Z</time>
      </trkpt>
      <trkpt lat="48.60337" lon="1.95703">
        <ele>129</ele>
        <time>2025-12-29T11:15:57Z</time>
      </trkpt>
      <trkpt lat="48.60335" lon="1.95707">
        <ele>129</ele>
        <time>2025-12-29T11:15:59Z</time>
      </trkpt>
      <trkpt lat="48.60333" lon="1.9571">
        <ele>129.2</ele>
        <time>2025-12-29T11:16:01Z</time>
      </trkpt>
      <trkpt lat="48.60331" lon="1.95713">
        <ele>129.4</ele>
        <time>2025-12-29T11:16:03Z</time>
      </trkpt>
      <trkpt lat="48.60328" lon="1.95717">
        <ele>129.4</ele>
        <time>2025-12-29T11:16:06Z</time>
      </trkpt>
      <trkpt lat="48.60327" lon="1.95719">
        <ele>129.6</ele>
        <time>2025-12-29T11:16:07Z</time>
      </trkpt>
      <trkpt lat="48.60325" lon="1.95721">
        <ele>129.6</ele>
        <time>2025-12-29T11:16:08Z</time>
      </trkpt>
      <trkpt lat="48.60322" lon="1.95727">
        <ele>130</ele>
        <time>2025-12-29T11:16:10Z</time>
      </trkpt>
      <trkpt lat="48.60321" lon="1.95729">
        <ele>130.4</ele>
        <time>2025-12-29T11:16:11Z</time>
      </trkpt>
      <trkpt lat="48.60319" lon="1.95731">
        <ele>130.6</ele>
        <time>2025-12-29T11:16:12Z</time>
      </trkpt>
      <trkpt lat="48.60316" lon="1.95737">
        <ele>131.4</ele>
        <time>2025-12-29T11:16:14Z</time>
      </trkpt>
      <trkpt lat="48.60315" lon="1.9574">
        <ele>132</ele>
        <time>2025-12-29T11:16:16Z</time>
      </trkpt>
      <trkpt lat="48.60313" lon="1.95745">
        <ele>133.2</ele>
        <time>2025-12-29T11:16:20Z</time>
      </trkpt>
      <trkpt lat="48.60312" lon="1.95747">
        <ele>134.2</ele>
        <time>2025-12-29T11:16:24Z</time>
      </trkpt>
      <trkpt lat="48.6031" lon="1.9575">
        <ele>134.8</ele>
        <time>2025-12-29T11:16:27Z</time>
      </trkpt>
      <trkpt lat="48.6031" lon="1.95753">
        <ele>135.6</ele>
        <time>2025-12-29T11:16:30Z</time>
      </trkpt>
      <trkpt lat="48.6031" lon="1.95757">
        <ele>136.2</ele>
        <time>2025-12-29T11:16:33Z</time>
      </trkpt>
      <trkpt lat="48.60309" lon="1.9576">
        <ele>136</ele>
        <time>2025-12-29T11:16:36Z</time>
      </trkpt>
      <trkpt lat="48.60308" lon="1.95762">
        <ele>134.2</ele>
        <time>2025-12-29T11:16:38Z</time>
      </trkpt>
      <trkpt lat="48.60307" lon="1.95765">
        <ele>132.8</ele>
        <time>2025-12-29T11:16:40Z</time>
      </trkpt>
      <trkpt lat="48.60305" lon="1.95768">
        <ele>131.4</ele>
        <time>2025-12-29T11:16:42Z</time>
      </trkpt>
      <trkpt lat="48.60303" lon="1.95771">
        <ele>130.6</ele>
        <time>2025-12-29T11:16:46Z</time>
      </trkpt>
      <trkpt lat="48.60302" lon="1.95774">
        <ele>130.8</ele>
        <time>2025-12-29T11:16:48Z</time>
      </trkpt>
      <trkpt lat="48.60301" lon="1.95777">
        <ele>130.8</ele>
        <time>2025-12-29T11:16:49Z</time>
      </trkpt>
      <trkpt lat="48.603" lon="1.9578">
        <ele>131</ele>
        <time>2025-12-29T11:16:50Z</time>
      </trkpt>
      <trkpt lat="48.603" lon="1.95782">
        <ele>131.2</ele>
        <time>2025-12-29T11:16:53Z</time>
      </trkpt>
      <trkpt lat="48.60299" lon="1.95785">
        <ele>131.6</ele>
        <time>2025-12-29T11:16:56Z</time>
      </trkpt>
      <trkpt lat="48.60297" lon="1.95788">
        <ele>131.8</ele>
        <time>2025-12-29T11:16:59Z</time>
      </trkpt>
      <trkpt lat="48.60296" lon="1.95791">
        <ele>132</ele>
        <time>2025-12-29T11:17:03Z</time>
      </trkpt>
      <trkpt lat="48.60292" lon="1.95793">
        <ele>132.2</ele>
        <time>2025-12-29T11:17:05Z</time>
      </trkpt>
      <trkpt lat="48.60287" lon="1.95795">
        <ele>132.2</ele>
        <time>2025-12-29T11:17:07Z</time>
      </trkpt>
      <trkpt lat="48.60284" lon="1.95797">
        <ele>132.2</ele>
        <time>2025-12-29T11:17:08Z</time>
      </trkpt>
      <trkpt lat="48.60282" lon="1.95798">
        <ele>132.2</ele>
        <time>2025-12-29T11:17:09Z</time>
      </trkpt>
      <trkpt lat="48.6028" lon="1.958">
        <ele>132.2</ele>
        <time>2025-12-29T11:17:10Z</time>
      </trkpt>
      <trkpt lat="48.60277" lon="1.95803">
        <ele>132.4</ele>
        <time>2025-12-29T11:17:12Z</time>
      </trkpt>
      <trkpt lat="48.60276" lon="1.95806">
        <ele>132.4</ele>
        <time>2025-12-29T11:17:14Z</time>
      </trkpt>
      <trkpt lat="48.60275" lon="1.95809">
        <ele>132.6</ele>
        <time>2025-12-29T11:17:17Z</time>
      </trkpt>
      <trkpt lat="48.60273" lon="1.9581">
        <ele>132.8</ele>
        <time>2025-12-29T11:17:20Z</time>
      </trkpt>
      <trkpt lat="48.60271" lon="1.95811">
        <ele>132.8</ele>
        <time>2025-12-29T11:17:22Z</time>
      </trkpt>
      <trkpt lat="48.60269" lon="1.95812">
        <ele>133</ele>
        <time>2025-12-29T11:17:24Z</time>
      </trkpt>
      <trkpt lat="48.60267" lon="1.95813">
        <ele>134</ele>
        <time>2025-12-29T11:17:26Z</time>
      </trkpt>
      <trkpt lat="48.60264" lon="1.95813">
        <ele>135.4</ele>
        <time>2025-12-29T11:17:29Z</time>
      </trkpt>
      <trkpt lat="48.60262" lon="1.95813">
        <ele>136.4</ele>
        <time>2025-12-29T11:17:34Z</time>
      </trkpt>
      <trkpt lat="48.6026" lon="1.95814">
        <ele>136.6</ele>
        <time>2025-12-29T11:17:36Z</time>
      </trkpt>
      <trkpt lat="48.60258" lon="1.95815">
        <ele>136.8</ele>
        <time>2025-12-29T11:17:37Z</time>
      </trkpt>
      <trkpt lat="48.60255" lon="1.95816">
        <ele>135.4</ele>
        <time>2025-12-29T11:17:40Z</time>
      </trkpt>
      <trkpt lat="48.60252" lon="1.95818">
        <ele>134.2</ele>
        <time>2025-12-29T11:17:42Z</time>
      </trkpt>
      <trkpt lat="48.60248" lon="1.95819">
        <ele>133.2</ele>
        <time>2025-12-29T11:17:44Z</time>
      </trkpt>
      <trkpt lat="48.60246" lon="1.9582">
        <ele>132.6</ele>
        <time>2025-12-29T11:17:46Z</time>
      </trkpt>
      <trkpt lat="48.60243" lon="1.95822">
        <ele>132.4</ele>
        <time>2025-12-29T11:17:48Z</time>
      </trkpt>
      <trkpt lat="48.60241" lon="1.95823">
        <ele>132.2</ele>
        <time>2025-12-29T11:17:49Z</time>
      </trkpt>
      <trkpt lat="48.60239" lon="1.95825">
        <ele>132.2</ele>
        <time>2025-12-29T11:17:50Z</time>
      </trkpt>
      <trkpt lat="48.60237" lon="1.95826">
        <ele>132</ele>
        <time>2025-12-29T11:17:51Z</time>
      </trkpt>
      <trkpt lat="48.60235" lon="1.95828">
        <ele>132</ele>
        <time>2025-12-29T11:17:52Z</time>
      </trkpt>
      <trkpt lat="48.60233" lon="1.95831">
        <ele>132</ele>
        <time>2025-12-29T11:17:53Z</time>
      </trkpt>
      <trkpt lat="48.6023" lon="1.95833">
        <ele>132</ele>
        <time>2025-12-29T11:17:54Z</time>
      </trkpt>
      <trkpt lat="48.60229" lon="1.95834">
        <ele>131.8</ele>
        <time>2025-12-29T11:17:55Z</time>
      </trkpt>
      <trkpt lat="48.60227" lon="1.95836">
        <ele>131.8</ele>
        <time>2025-12-29T11:17:56Z</time>
      </trkpt>
      <trkpt lat="48.60224" lon="1.95838">
        <ele>132</ele>
        <time>2025-12-29T11:17:58Z</time>
      </trkpt>
      <trkpt lat="48.60221" lon="1.9584">
        <ele>132.2</ele>
        <time>2025-12-29T11:18:00Z</time>
      </trkpt>
      <trkpt lat="48.60219" lon="1.95842">
        <ele>132.4</ele>
        <time>2025-12-29T11:18:02Z</time>
      </trkpt>
      <trkpt lat="48.60217" lon="1.95843">
        <ele>132.4</ele>
        <time>2025-12-29T11:18:03Z</time>
      </trkpt>
      <trkpt lat="48.60214" lon="1.95846">
        <ele>132.6</ele>
        <time>2025-12-29T11:18:05Z</time>
      </trkpt>
      <trkpt lat="48.60212" lon="1.95847">
        <ele>133.2</ele>
        <time>2025-12-29T11:18:08Z</time>
      </trkpt>
      <trkpt lat="48.6021" lon="1.95849">
        <ele>133.8</ele>
        <time>2025-12-29T11:18:11Z</time>
      </trkpt>
      <trkpt lat="48.60207" lon="1.95851">
        <ele>134</ele>
        <time>2025-12-29T11:18:13Z</time>
      </trkpt>
      <trkpt lat="48.60204" lon="1.95852">
        <ele>134.4</ele>
        <time>2025-12-29T11:18:16Z</time>
      </trkpt>
      <trkpt lat="48.60201" lon="1.95853">
        <ele>134.8</ele>
        <time>2025-12-29T11:18:18Z</time>
      </trkpt>
      <trkpt lat="48.60198" lon="1.95854">
        <ele>135</ele>
        <time>2025-12-29T11:18:19Z</time>
      </trkpt>
      <trkpt lat="48.60196" lon="1.95854">
        <ele>134.4</ele>
        <time>2025-12-29T11:18:21Z</time>
      </trkpt>
      <trkpt lat="48.60194" lon="1.95855">
        <ele>134</ele>
        <time>2025-12-29T11:18:23Z</time>
      </trkpt>
      <trkpt lat="48.60192" lon="1.95856">
        <ele>134.4</ele>
        <time>2025-12-29T11:18:25Z</time>
      </trkpt>
      <trkpt lat="48.60189" lon="1.95858">
        <ele>134.8</ele>
        <time>2025-12-29T11:18:28Z</time>
      </trkpt>
      <trkpt lat="48.60186" lon="1.95858">
        <ele>135</ele>
        <time>2025-12-29T11:18:31Z</time>
      </trkpt>
      <trkpt lat="48.60182" lon="1.95858">
        <ele>135</ele>
        <time>2025-12-29T11:18:33Z</time>
      </trkpt>
      <trkpt lat="48.60179" lon="1.95858">
        <ele>134.8</ele>
        <time>2025-12-29T11:18:34Z</time>
      </trkpt>
      <trkpt lat="48.60176" lon="1.95859">
        <ele>134.8</ele>
        <time>2025-12-29T11:18:36Z</time>
      </trkpt>
      <trkpt lat="48.60172" lon="1.9586">
        <ele>134.6</ele>
        <time>2025-12-29T11:18:38Z</time>
      </trkpt>
      <trkpt lat="48.60169" lon="1.95861">
        <ele>133.6</ele>
        <time>2025-12-29T11:18:41Z</time>
      </trkpt>
      <trkpt lat="48.60166" lon="1.95862">
        <ele>133</ele>
        <time>2025-12-29T11:18:44Z</time>
      </trkpt>
      <trkpt lat="48.60163" lon="1.95862">
        <ele>132.8</ele>
        <time>2025-12-29T11:18:45Z</time>
      </trkpt>
      <trkpt lat="48.60159" lon="1.95862">
        <ele>132.4</ele>
        <time>2025-12-29T11:18:47Z</time>
      </trkpt>
      <trkpt lat="48.60156" lon="1.95863">
        <ele>132</ele>
        <time>2025-12-29T11:18:49Z</time>
      </trkpt>
      <trkpt lat="48.60154" lon="1.95864">
        <ele>131.4</ele>
        <time>2025-12-29T11:18:52Z</time>
      </trkpt>
      <trkpt lat="48.6015" lon="1.95866">
        <ele>130.8</ele>
        <time>2025-12-29T11:18:54Z</time>
      </trkpt>
      <trkpt lat="48.60146" lon="1.95869">
        <ele>130.4</ele>
        <time>2025-12-29T11:18:56Z</time>
      </trkpt>
      <trkpt lat="48.60142" lon="1.9587">
        <ele>133</ele>
        <time>2025-12-29T11:19:01Z</time>
      </trkpt>
      <trkpt lat="48.60138" lon="1.95867">
        <ele>133.2</ele>
        <time>2025-12-29T11:19:04Z</time>
      </trkpt>
      <trkpt lat="48.60136" lon="1.95867">
        <ele>133.4</ele>
        <time>2025-12-29T11:19:06Z</time>
      </trkpt>
      <trkpt lat="48.60134" lon="1.95867">
        <ele>133.6</ele>
        <time>2025-12-29T11:19:08Z</time>
      </trkpt>
      <trkpt lat="48.60132" lon="1.95867">
        <ele>133.8</ele>
        <time>2025-12-29T11:19:10Z</time>
      </trkpt>
      <trkpt lat="48.6013" lon="1.95867">
        <ele>134.4</ele>
        <time>2025-12-29T11:19:13Z</time>
      </trkpt>
      <trkpt lat="48.60128" lon="1.95867">
        <ele>134.8</ele>
        <time>2025-12-29T11:19:15Z</time>
      </trkpt>
      <trkpt lat="48.60126" lon="1.95868">
        <ele>135.2</ele>
        <time>2025-12-29T11:19:16Z</time>
      </trkpt>
      <trkpt lat="48.60124" lon="1.95867">
        <ele>134.4</ele>
        <time>2025-12-29T11:19:18Z</time>
      </trkpt>
      <trkpt lat="48.60121" lon="1.95867">
        <ele>133.6</ele>
        <time>2025-12-29T11:19:20Z</time>
      </trkpt>
      <trkpt lat="48.60118" lon="1.95866">
        <ele>133.8</ele>
        <time>2025-12-29T11:19:22Z</time>
      </trkpt>
      <trkpt lat="48.60116" lon="1.95866">
        <ele>134.6</ele>
        <time>2025-12-29T11:19:24Z</time>
      </trkpt>
      <trkpt lat="48.60114" lon="1.95864">
        <ele>135</ele>
        <time>2025-12-29T11:19:26Z</time>
      </trkpt>
      <trkpt lat="48.60113" lon="1.95861">
        <ele>135.6</ele>
        <time>2025-12-29T11:19:29Z</time>
      </trkpt>
      <trkpt lat="48.60111" lon="1.95859">
        <ele>135.8</ele>
        <time>2025-12-29T11:19:31Z</time>
      </trkpt>
      <trkpt lat="48.60108" lon="1.95856">
        <ele>136</ele>
        <time>2025-12-29T11:19:34Z</time>
      </trkpt>
      <trkpt lat="48.60108" lon="1.95854">
        <ele>135.6</ele>
        <time>2025-12-29T11:19:36Z</time>
      </trkpt>
      <trkpt lat="48.60106" lon="1.95852">
        <ele>134.8</ele>
        <time>2025-12-29T11:19:38Z</time>
      </trkpt>
      <trkpt lat="48.60102" lon="1.95851">
        <ele>134.2</ele>
        <time>2025-12-29T11:19:40Z</time>
      </trkpt>
      <trkpt lat="48.601" lon="1.95851">
        <ele>134</ele>
        <time>2025-12-29T11:19:41Z</time>
      </trkpt>
      <trkpt lat="48.60098" lon="1.95851">
        <ele>133.8</ele>
        <time>2025-12-29T11:19:42Z</time>
      </trkpt>
      <trkpt lat="48.60095" lon="1.95851">
        <ele>133.8</ele>
        <time>2025-12-29T11:19:43Z</time>
      </trkpt>
      <trkpt lat="48.60093" lon="1.95851">
        <ele>133.8</ele>
        <time>2025-12-29T11:19:44Z</time>
      </trkpt>
      <trkpt lat="48.60091" lon="1.95851">
        <ele>133.8</ele>
        <time>2025-12-29T11:19:45Z</time>
      </trkpt>
      <trkpt lat="48.60088" lon="1.9585">
        <ele>134</ele>
        <time>2025-12-29T11:19:46Z</time>
      </trkpt>
      <trkpt lat="48.60086" lon="1.9585">
        <ele>134.2</ele>
        <time>2025-12-29T11:19:47Z</time>
      </trkpt>
      <trkpt lat="48.60084" lon="1.95849">
        <ele>134.4</ele>
        <time>2025-12-29T11:19:48Z</time>
      </trkpt>
      <trkpt lat="48.60082" lon="1.95847">
        <ele>134.8</ele>
        <time>2025-12-29T11:19:50Z</time>
      </trkpt>
      <trkpt lat="48.60079" lon="1.95845">
        <ele>134.8</ele>
        <time>2025-12-29T11:19:52Z</time>
      </trkpt>
      <trkpt lat="48.60076" lon="1.95843">
        <ele>134.8</ele>
        <time>2025-12-29T11:19:54Z</time>
      </trkpt>
      <trkpt lat="48.60074" lon="1.95841">
        <ele>134.6</ele>
        <time>2025-12-29T11:19:56Z</time>
      </trkpt>
      <trkpt lat="48.60071" lon="1.95839">
        <ele>134.2</ele>
        <time>2025-12-29T11:19:58Z</time>
      </trkpt>
      <trkpt lat="48.60069" lon="1.95836">
        <ele>134</ele>
        <time>2025-12-29T11:20:00Z</time>
      </trkpt>
      <trkpt lat="48.60068" lon="1.95833">
        <ele>133.6</ele>
        <time>2025-12-29T11:20:02Z</time>
      </trkpt>
      <trkpt lat="48.60066" lon="1.9583">
        <ele>134.4</ele>
        <time>2025-12-29T11:20:04Z</time>
      </trkpt>
      <trkpt lat="48.60065" lon="1.95828">
        <ele>135.2</ele>
        <time>2025-12-29T11:20:06Z</time>
      </trkpt>
      <trkpt lat="48.60064" lon="1.95825">
        <ele>135</ele>
        <time>2025-12-29T11:20:09Z</time>
      </trkpt>
      <trkpt lat="48.60062" lon="1.95823">
        <ele>134.8</ele>
        <time>2025-12-29T11:20:11Z</time>
      </trkpt>
      <trkpt lat="48.60059" lon="1.95821">
        <ele>134.6</ele>
        <time>2025-12-29T11:20:13Z</time>
      </trkpt>
      <trkpt lat="48.60057" lon="1.95818">
        <ele>134.6</ele>
        <time>2025-12-29T11:20:15Z</time>
      </trkpt>
      <trkpt lat="48.60054" lon="1.95815">
        <ele>134.6</ele>
        <time>2025-12-29T11:20:17Z</time>
      </trkpt>
      <trkpt lat="48.60052" lon="1.95811">
        <ele>134.4</ele>
        <time>2025-12-29T11:20:19Z</time>
      </trkpt>
      <trkpt lat="48.60051" lon="1.95809">
        <ele>133.6</ele>
        <time>2025-12-29T11:20:21Z</time>
      </trkpt>
      <trkpt lat="48.60049" lon="1.95806">
        <ele>133</ele>
        <time>2025-12-29T11:20:23Z</time>
      </trkpt>
      <trkpt lat="48.60047" lon="1.95803">
        <ele>132.8</ele>
        <time>2025-12-29T11:20:25Z</time>
      </trkpt>
      <trkpt lat="48.60044" lon="1.95801">
        <ele>132.4</ele>
        <time>2025-12-29T11:20:27Z</time>
      </trkpt>
      <trkpt lat="48.60043" lon="1.95799">
        <ele>132.2</ele>
        <time>2025-12-29T11:20:29Z</time>
      </trkpt>
      <trkpt lat="48.6004" lon="1.95797">
        <ele>132.2</ele>
        <time>2025-12-29T11:20:31Z</time>
      </trkpt>
      <trkpt lat="48.60038" lon="1.95795">
        <ele>132.8</ele>
        <time>2025-12-29T11:20:33Z</time>
      </trkpt>
      <trkpt lat="48.60036" lon="1.95793">
        <ele>133</ele>
        <time>2025-12-29T11:20:35Z</time>
      </trkpt>
      <trkpt lat="48.60034" lon="1.9579">
        <ele>132.8</ele>
        <time>2025-12-29T11:20:37Z</time>
      </trkpt>
      <trkpt lat="48.60032" lon="1.95786">
        <ele>132.6</ele>
        <time>2025-12-29T11:20:39Z</time>
      </trkpt>
      <trkpt lat="48.60031" lon="1.95784">
        <ele>132.6</ele>
        <time>2025-12-29T11:20:40Z</time>
      </trkpt>
      <trkpt lat="48.60028" lon="1.95778">
        <ele>132.2</ele>
        <time>2025-12-29T11:20:43Z</time>
      </trkpt>
      <trkpt lat="48.60027" lon="1.95775">
        <ele>132</ele>
        <time>2025-12-29T11:20:45Z</time>
      </trkpt>
      <trkpt lat="48.60025" lon="1.95773">
        <ele>131.8</ele>
        <time>2025-12-29T11:20:47Z</time>
      </trkpt>
      <trkpt lat="48.60024" lon="1.9577">
        <ele>131.6</ele>
        <time>2025-12-29T11:20:50Z</time>
      </trkpt>
      <trkpt lat="48.60023" lon="1.95767">
        <ele>131.4</ele>
        <time>2025-12-29T11:20:52Z</time>
      </trkpt>
      <trkpt lat="48.60021" lon="1.95763">
        <ele>131.2</ele>
        <time>2025-12-29T11:20:55Z</time>
      </trkpt>
      <trkpt lat="48.6002" lon="1.95761">
        <ele>131.2</ele>
        <time>2025-12-29T11:20:57Z</time>
      </trkpt>
      <trkpt lat="48.60019" lon="1.95758">
        <ele>131.2</ele>
        <time>2025-12-29T11:20:59Z</time>
      </trkpt>
      <trkpt lat="48.60018" lon="1.95755">
        <ele>131</ele>
        <time>2025-12-29T11:21:01Z</time>
      </trkpt>
      <trkpt lat="48.60017" lon="1.95752">
        <ele>131</ele>
        <time>2025-12-29T11:21:03Z</time>
      </trkpt>
      <trkpt lat="48.60015" lon="1.95748">
        <ele>131</ele>
        <time>2025-12-29T11:21:05Z</time>
      </trkpt>
      <trkpt lat="48.60013" lon="1.95745">
        <ele>131</ele>
        <time>2025-12-29T11:21:07Z</time>
      </trkpt>
      <trkpt lat="48.60011" lon="1.95742">
        <ele>131</ele>
        <time>2025-12-29T11:21:09Z</time>
      </trkpt>
      <trkpt lat="48.60008" lon="1.95739">
        <ele>131</ele>
        <time>2025-12-29T11:21:11Z</time>
      </trkpt>
      <trkpt lat="48.60007" lon="1.95737">
        <ele>131</ele>
        <time>2025-12-29T11:21:12Z</time>
      </trkpt>
      <trkpt lat="48.60004" lon="1.95733">
        <ele>131.2</ele>
        <time>2025-12-29T11:21:14Z</time>
      </trkpt>
      <trkpt lat="48.60003" lon="1.95731">
        <ele>131.2</ele>
        <time>2025-12-29T11:21:15Z</time>
      </trkpt>
      <trkpt lat="48.60001" lon="1.95729">
        <ele>131.2</ele>
        <time>2025-12-29T11:21:16Z</time>
      </trkpt>
      <trkpt lat="48.59999" lon="1.95727">
        <ele>131.2</ele>
        <time>2025-12-29T11:21:17Z</time>
      </trkpt>
      <trkpt lat="48.59998" lon="1.95725">
        <ele>131.4</ele>
        <time>2025-12-29T11:21:18Z</time>
      </trkpt>
      <trkpt lat="48.59996" lon="1.95722">
        <ele>131.4</ele>
        <time>2025-12-29T11:21:19Z</time>
      </trkpt>
      <trkpt lat="48.59995" lon="1.9572">
        <ele>131.4</ele>
        <time>2025-12-29T11:21:20Z</time>
      </trkpt>
      <trkpt lat="48.59994" lon="1.95718">
        <ele>131.4</ele>
        <time>2025-12-29T11:21:21Z</time>
      </trkpt>
      <trkpt lat="48.59992" lon="1.95714">
        <ele>131.4</ele>
        <time>2025-12-29T11:21:23Z</time>
      </trkpt>
      <trkpt lat="48.5999" lon="1.95712">
        <ele>131.6</ele>
        <time>2025-12-29T11:21:26Z</time>
      </trkpt>
      <trkpt lat="48.59988" lon="1.9571">
        <ele>131.6</ele>
        <time>2025-12-29T11:21:30Z</time>
      </trkpt>
      <trkpt lat="48.59987" lon="1.95708">
        <ele>131.4</ele>
        <time>2025-12-29T11:21:32Z</time>
      </trkpt>
      <trkpt lat="48.59985" lon="1.95705">
        <ele>131.4</ele>
        <time>2025-12-29T11:21:34Z</time>
      </trkpt>
      <trkpt lat="48.59983" lon="1.95703">
        <ele>131.4</ele>
        <time>2025-12-29T11:21:36Z</time>
      </trkpt>
      <trkpt lat="48.59982" lon="1.95701">
        <ele>131.4</ele>
        <time>2025-12-29T11:21:38Z</time>
      </trkpt>
      <trkpt lat="48.5998" lon="1.957">
        <ele>131.4</ele>
        <time>2025-12-29T11:21:40Z</time>
      </trkpt>
      <trkpt lat="48.59978" lon="1.95699">
        <ele>131.4</ele>
        <time>2025-12-29T11:21:42Z</time>
      </trkpt>
      <trkpt lat="48.59976" lon="1.95697">
        <ele>131.6</ele>
        <time>2025-12-29T11:21:44Z</time>
      </trkpt>
      <trkpt lat="48.59974" lon="1.95695">
        <ele>131.6</ele>
        <time>2025-12-29T11:21:47Z</time>
      </trkpt>
      <trkpt lat="48.59972" lon="1.95693">
        <ele>131.6</ele>
        <time>2025-12-29T11:21:49Z</time>
      </trkpt>
      <trkpt lat="48.5997" lon="1.95691">
        <ele>131.6</ele>
        <time>2025-12-29T11:21:51Z</time>
      </trkpt>
      <trkpt lat="48.59968" lon="1.95689">
        <ele>131.8</ele>
        <time>2025-12-29T11:21:53Z</time>
      </trkpt>
      <trkpt lat="48.59965" lon="1.95689">
        <ele>131.8</ele>
        <time>2025-12-29T11:21:55Z</time>
      </trkpt>
      <trkpt lat="48.59963" lon="1.95689">
        <ele>132</ele>
        <time>2025-12-29T11:21:57Z</time>
      </trkpt>
      <trkpt lat="48.59959" lon="1.95689">
        <ele>132</ele>
        <time>2025-12-29T11:21:59Z</time>
      </trkpt>
      <trkpt lat="48.59956" lon="1.9569">
        <ele>132.2</ele>
        <time>2025-12-29T11:22:01Z</time>
      </trkpt>
      <trkpt lat="48.59954" lon="1.9569">
        <ele>132.2</ele>
        <time>2025-12-29T11:22:03Z</time>
      </trkpt>
      <trkpt lat="48.59952" lon="1.9569">
        <ele>132.4</ele>
        <time>2025-12-29T11:22:05Z</time>
      </trkpt>
      <trkpt lat="48.59949" lon="1.9569">
        <ele>132.4</ele>
        <time>2025-12-29T11:22:07Z</time>
      </trkpt>
      <trkpt lat="48.59947" lon="1.9569">
        <ele>132.6</ele>
        <time>2025-12-29T11:22:09Z</time>
      </trkpt>
      <trkpt lat="48.59945" lon="1.9569">
        <ele>132.6</ele>
        <time>2025-12-29T11:22:11Z</time>
      </trkpt>
      <trkpt lat="48.59942" lon="1.95691">
        <ele>132.6</ele>
        <time>2025-12-29T11:22:13Z</time>
      </trkpt>
      <trkpt lat="48.5994" lon="1.95692">
        <ele>132.8</ele>
        <time>2025-12-29T11:22:15Z</time>
      </trkpt>
      <trkpt lat="48.59939" lon="1.95693">
        <ele>132.8</ele>
        <time>2025-12-29T11:22:17Z</time>
      </trkpt>
      <trkpt lat="48.59936" lon="1.95693">
        <ele>132.8</ele>
        <time>2025-12-29T11:22:19Z</time>
      </trkpt>
      <trkpt lat="48.59933" lon="1.95694">
        <ele>133</ele>
        <time>2025-12-29T11:22:21Z</time>
      </trkpt>
      <trkpt lat="48.59931" lon="1.95695">
        <ele>133</ele>
        <time>2025-12-29T11:22:22Z</time>
      </trkpt>
      <trkpt lat="48.59929" lon="1.95696">
        <ele>133</ele>
        <time>2025-12-29T11:22:23Z</time>
      </trkpt>
      <trkpt lat="48.59926" lon="1.95697">
        <ele>133</ele>
        <time>2025-12-29T11:22:24Z</time>
      </trkpt>
      <trkpt lat="48.59924" lon="1.95698">
        <ele>133</ele>
        <time>2025-12-29T11:22:25Z</time>
      </trkpt>
      <trkpt lat="48.59922" lon="1.95698">
        <ele>133</ele>
        <time>2025-12-29T11:22:26Z</time>
      </trkpt>
      <trkpt lat="48.59919" lon="1.95699">
        <ele>133</ele>
        <time>2025-12-29T11:22:28Z</time>
      </trkpt>
      <trkpt lat="48.59916" lon="1.95698">
        <ele>133</ele>
        <time>2025-12-29T11:22:30Z</time>
      </trkpt>
      <trkpt lat="48.59915" lon="1.95696">
        <ele>132.8</ele>
        <time>2025-12-29T11:22:33Z</time>
      </trkpt>
      <trkpt lat="48.59913" lon="1.95694">
        <ele>132.8</ele>
        <time>2025-12-29T11:22:36Z</time>
      </trkpt>
      <trkpt lat="48.59911" lon="1.95693">
        <ele>133</ele>
        <time>2025-12-29T11:22:39Z</time>
      </trkpt>
      <trkpt lat="48.5991" lon="1.9569">
        <ele>133</ele>
        <time>2025-12-29T11:22:43Z</time>
      </trkpt>
      <trkpt lat="48.59908" lon="1.95689">
        <ele>133</ele>
        <time>2025-12-29T11:22:46Z</time>
      </trkpt>
      <trkpt lat="48.59905" lon="1.9569">
        <ele>133</ele>
        <time>2025-12-29T11:22:48Z</time>
      </trkpt>
      <trkpt lat="48.59903" lon="1.9569">
        <ele>133.2</ele>
        <time>2025-12-29T11:22:49Z</time>
      </trkpt>
      <trkpt lat="48.59901" lon="1.95691">
        <ele>133.2</ele>
        <time>2025-12-29T11:22:50Z</time>
      </trkpt>
      <trkpt lat="48.59897" lon="1.95692">
        <ele>133.2</ele>
        <time>2025-12-29T11:22:52Z</time>
      </trkpt>
      <trkpt lat="48.59894" lon="1.95692">
        <ele>133.4</ele>
        <time>2025-12-29T11:22:54Z</time>
      </trkpt>
      <trkpt lat="48.59891" lon="1.95692">
        <ele>133.4</ele>
        <time>2025-12-29T11:22:56Z</time>
      </trkpt>
      <trkpt lat="48.59888" lon="1.95692">
        <ele>133.4</ele>
        <time>2025-12-29T11:22:58Z</time>
      </trkpt>
      <trkpt lat="48.59885" lon="1.95692">
        <ele>133.6</ele>
        <time>2025-12-29T11:23:00Z</time>
      </trkpt>
      <trkpt lat="48.59882" lon="1.95692">
        <ele>133.6</ele>
        <time>2025-12-29T11:23:02Z</time>
      </trkpt>
      <trkpt lat="48.5988" lon="1.95691">
        <ele>133.8</ele>
        <time>2025-12-29T11:23:04Z</time>
      </trkpt>
      <trkpt lat="48.59877" lon="1.95691">
        <ele>133.8</ele>
        <time>2025-12-29T11:23:06Z</time>
      </trkpt>
      <trkpt lat="48.59875" lon="1.95691">
        <ele>133.8</ele>
        <time>2025-12-29T11:23:08Z</time>
      </trkpt>
      <trkpt lat="48.59872" lon="1.95691">
        <ele>133.8</ele>
        <time>2025-12-29T11:23:10Z</time>
      </trkpt>
      <trkpt lat="48.59868" lon="1.95692">
        <ele>133.8</ele>
        <time>2025-12-29T11:23:12Z</time>
      </trkpt>
      <trkpt lat="48.59866" lon="1.95692">
        <ele>134</ele>
        <time>2025-12-29T11:23:14Z</time>
      </trkpt>
      <trkpt lat="48.59863" lon="1.95692">
        <ele>134</ele>
        <time>2025-12-29T11:23:16Z</time>
      </trkpt>
      <trkpt lat="48.5986" lon="1.95692">
        <ele>134</ele>
        <time>2025-12-29T11:23:18Z</time>
      </trkpt>
      <trkpt lat="48.59858" lon="1.95692">
        <ele>133.8</ele>
        <time>2025-12-29T11:23:20Z</time>
      </trkpt>
      <trkpt lat="48.59856" lon="1.95692">
        <ele>133.8</ele>
        <time>2025-12-29T11:23:21Z</time>
      </trkpt>
      <trkpt lat="48.59854" lon="1.95693">
        <ele>133.6</ele>
        <time>2025-12-29T11:23:22Z</time>
      </trkpt>
      <trkpt lat="48.59852" lon="1.95694">
        <ele>133.6</ele>
        <time>2025-12-29T11:23:23Z</time>
      </trkpt>
      <trkpt lat="48.5985" lon="1.95696">
        <ele>133.6</ele>
        <time>2025-12-29T11:23:24Z</time>
      </trkpt>
      <trkpt lat="48.59848" lon="1.95697">
        <ele>133.4</ele>
        <time>2025-12-29T11:23:25Z</time>
      </trkpt>
      <trkpt lat="48.59846" lon="1.95698">
        <ele>133.4</ele>
        <time>2025-12-29T11:23:26Z</time>
      </trkpt>
      <trkpt lat="48.59844" lon="1.95698">
        <ele>133.2</ele>
        <time>2025-12-29T11:23:28Z</time>
      </trkpt>
      <trkpt lat="48.59842" lon="1.95699">
        <ele>133.2</ele>
        <time>2025-12-29T11:23:31Z</time>
      </trkpt>
      <trkpt lat="48.5984" lon="1.957">
        <ele>133</ele>
        <time>2025-12-29T11:23:33Z</time>
      </trkpt>
      <trkpt lat="48.59838" lon="1.95701">
        <ele>133</ele>
        <time>2025-12-29T11:23:34Z</time>
      </trkpt>
      <trkpt lat="48.59834" lon="1.95703">
        <ele>132.8</ele>
        <time>2025-12-29T11:23:36Z</time>
      </trkpt>
      <trkpt lat="48.59832" lon="1.95704">
        <ele>132.6</ele>
        <time>2025-12-29T11:23:37Z</time>
      </trkpt>
      <trkpt lat="48.5983" lon="1.95704">
        <ele>132.6</ele>
        <time>2025-12-29T11:23:39Z</time>
      </trkpt>
      <trkpt lat="48.59827" lon="1.95704">
        <ele>132.4</ele>
        <time>2025-12-29T11:23:41Z</time>
      </trkpt>
      <trkpt lat="48.59825" lon="1.95704">
        <ele>132.2</ele>
        <time>2025-12-29T11:23:43Z</time>
      </trkpt>
      <trkpt lat="48.59822" lon="1.95704">
        <ele>132</ele>
        <time>2025-12-29T11:23:45Z</time>
      </trkpt>
      <trkpt lat="48.59819" lon="1.95704">
        <ele>131.8</ele>
        <time>2025-12-29T11:23:47Z</time>
      </trkpt>
      <trkpt lat="48.59816" lon="1.95703">
        <ele>131.6</ele>
        <time>2025-12-29T11:23:49Z</time>
      </trkpt>
      <trkpt lat="48.59814" lon="1.95703">
        <ele>131.4</ele>
        <time>2025-12-29T11:23:51Z</time>
      </trkpt>
      <trkpt lat="48.59811" lon="1.95702">
        <ele>131.2</ele>
        <time>2025-12-29T11:23:53Z</time>
      </trkpt>
      <trkpt lat="48.59807" lon="1.95701">
        <ele>131.2</ele>
        <time>2025-12-29T11:23:55Z</time>
      </trkpt>
      <trkpt lat="48.59805" lon="1.95701">
        <ele>131</ele>
        <time>2025-12-29T11:23:56Z</time>
      </trkpt>
      <trkpt lat="48.59802" lon="1.95702">
        <ele>130.8</ele>
        <time>2025-12-29T11:23:58Z</time>
      </trkpt>
      <trkpt lat="48.59798" lon="1.95702">
        <ele>130.8</ele>
        <time>2025-12-29T11:24:00Z</time>
      </trkpt>
      <trkpt lat="48.59796" lon="1.95702">
        <ele>130.6</ele>
        <time>2025-12-29T11:24:02Z</time>
      </trkpt>
      <trkpt lat="48.59794" lon="1.95701">
        <ele>130.4</ele>
        <time>2025-12-29T11:24:04Z</time>
      </trkpt>
      <trkpt lat="48.59792" lon="1.95699">
        <ele>130</ele>
        <time>2025-12-29T11:24:06Z</time>
      </trkpt>
      <trkpt lat="48.5979" lon="1.95698">
        <ele>129.8</ele>
        <time>2025-12-29T11:24:08Z</time>
      </trkpt>
      <trkpt lat="48.59788" lon="1.95696">
        <ele>129.6</ele>
        <time>2025-12-29T11:24:10Z</time>
      </trkpt>
      <trkpt lat="48.59785" lon="1.95696">
        <ele>129.4</ele>
        <time>2025-12-29T11:24:12Z</time>
      </trkpt>
      <trkpt lat="48.59781" lon="1.95696">
        <ele>129.2</ele>
        <time>2025-12-29T11:24:14Z</time>
      </trkpt>
      <trkpt lat="48.59779" lon="1.95695">
        <ele>129</ele>
        <time>2025-12-29T11:24:16Z</time>
      </trkpt>
      <trkpt lat="48.59777" lon="1.95693">
        <ele>129</ele>
        <time>2025-12-29T11:24:18Z</time>
      </trkpt>
      <trkpt lat="48.59775" lon="1.95691">
        <ele>128.8</ele>
        <time>2025-12-29T11:24:20Z</time>
      </trkpt>
      <trkpt lat="48.59772" lon="1.9569">
        <ele>128.8</ele>
        <time>2025-12-29T11:24:22Z</time>
      </trkpt>
      <trkpt lat="48.59769" lon="1.95689">
        <ele>128.6</ele>
        <time>2025-12-29T11:24:24Z</time>
      </trkpt>
      <trkpt lat="48.59767" lon="1.95688">
        <ele>128.6</ele>
        <time>2025-12-29T11:24:26Z</time>
      </trkpt>
      <trkpt lat="48.59764" lon="1.95686">
        <ele>128.4</ele>
        <time>2025-12-29T11:24:28Z</time>
      </trkpt>
      <trkpt lat="48.59762" lon="1.95683">
        <ele>128.2</ele>
        <time>2025-12-29T11:24:30Z</time>
      </trkpt>
      <trkpt lat="48.5976" lon="1.95681">
        <ele>128</ele>
        <time>2025-12-29T11:24:32Z</time>
      </trkpt>
      <trkpt lat="48.59758" lon="1.9568">
        <ele>127.8</ele>
        <time>2025-12-29T11:24:34Z</time>
      </trkpt>
      <trkpt lat="48.59756" lon="1.95679">
        <ele>127.6</ele>
        <time>2025-12-29T11:24:36Z</time>
      </trkpt>
      <trkpt lat="48.59754" lon="1.95682">
        <ele>127.4</ele>
        <time>2025-12-29T11:24:41Z</time>
      </trkpt>
      <trkpt lat="48.59751" lon="1.95682">
        <ele>127.2</ele>
        <time>2025-12-29T11:24:46Z</time>
      </trkpt>
      <trkpt lat="48.59749" lon="1.95681">
        <ele>127.2</ele>
        <time>2025-12-29T11:24:48Z</time>
      </trkpt>
      <trkpt lat="48.59747" lon="1.9568">
        <ele>127</ele>
        <time>2025-12-29T11:24:50Z</time>
      </trkpt>
      <trkpt lat="48.59745" lon="1.95679">
        <ele>126.8</ele>
        <time>2025-12-29T11:24:52Z</time>
      </trkpt>
      <trkpt lat="48.59743" lon="1.95678">
        <ele>126.8</ele>
        <time>2025-12-29T11:24:54Z</time>
      </trkpt>
      <trkpt lat="48.5974" lon="1.95678">
        <ele>126.6</ele>
        <time>2025-12-29T11:24:56Z</time>
      </trkpt>
      <trkpt lat="48.59737" lon="1.95677">
        <ele>126.4</ele>
        <time>2025-12-29T11:24:58Z</time>
      </trkpt>
      <trkpt lat="48.59735" lon="1.95675">
        <ele>126.2</ele>
        <time>2025-12-29T11:25:00Z</time>
      </trkpt>
      <trkpt lat="48.59732" lon="1.95674">
        <ele>126</ele>
        <time>2025-12-29T11:25:02Z</time>
      </trkpt>
      <trkpt lat="48.59729" lon="1.95673">
        <ele>126</ele>
        <time>2025-12-29T11:25:04Z</time>
      </trkpt>
      <trkpt lat="48.59727" lon="1.95673">
        <ele>125.8</ele>
        <time>2025-12-29T11:25:06Z</time>
      </trkpt>
      <trkpt lat="48.59725" lon="1.95671">
        <ele>125.8</ele>
        <time>2025-12-29T11:25:08Z</time>
      </trkpt>
      <trkpt lat="48.59724" lon="1.95669">
        <ele>125.6</ele>
        <time>2025-12-29T11:25:10Z</time>
      </trkpt>
      <trkpt lat="48.59722" lon="1.95667">
        <ele>125.6</ele>
        <time>2025-12-29T11:25:12Z</time>
      </trkpt>
      <trkpt lat="48.59719" lon="1.95665">
        <ele>125.6</ele>
        <time>2025-12-29T11:25:14Z</time>
      </trkpt>
      <trkpt lat="48.59717" lon="1.95664">
        <ele>125.6</ele>
        <time>2025-12-29T11:25:16Z</time>
      </trkpt>
      <trkpt lat="48.59714" lon="1.95663">
        <ele>125.4</ele>
        <time>2025-12-29T11:25:18Z</time>
      </trkpt>
      <trkpt lat="48.59711" lon="1.95661">
        <ele>125.4</ele>
        <time>2025-12-29T11:25:20Z</time>
      </trkpt>
      <trkpt lat="48.59709" lon="1.95659">
        <ele>125.2</ele>
        <time>2025-12-29T11:25:22Z</time>
      </trkpt>
      <trkpt lat="48.59708" lon="1.95657">
        <ele>125.2</ele>
        <time>2025-12-29T11:25:24Z</time>
      </trkpt>
      <trkpt lat="48.59706" lon="1.95654">
        <ele>125</ele>
        <time>2025-12-29T11:25:27Z</time>
      </trkpt>
      <trkpt lat="48.59703" lon="1.95653">
        <ele>124.8</ele>
        <time>2025-12-29T11:25:29Z</time>
      </trkpt>
      <trkpt lat="48.597" lon="1.95652">
        <ele>124.6</ele>
        <time>2025-12-29T11:25:31Z</time>
      </trkpt>
      <trkpt lat="48.59699" lon="1.95651">
        <ele>124.6</ele>
        <time>2025-12-29T11:25:32Z</time>
      </trkpt>
      <trkpt lat="48.59695" lon="1.9565">
        <ele>124.6</ele>
        <time>2025-12-29T11:25:34Z</time>
      </trkpt>
      <trkpt lat="48.59693" lon="1.9565">
        <ele>124.6</ele>
        <time>2025-12-29T11:25:35Z</time>
      </trkpt>
      <trkpt lat="48.59689" lon="1.9565">
        <ele>124.4</ele>
        <time>2025-12-29T11:25:37Z</time>
      </trkpt>
      <trkpt lat="48.59686" lon="1.95649">
        <ele>124.2</ele>
        <time>2025-12-29T11:25:39Z</time>
      </trkpt>
      <trkpt lat="48.59684" lon="1.95649">
        <ele>124.2</ele>
        <time>2025-12-29T11:25:41Z</time>
      </trkpt>
      <trkpt lat="48.59683" lon="1.95648">
        <ele>124</ele>
        <time>2025-12-29T11:25:43Z</time>
      </trkpt>
      <trkpt lat="48.5968" lon="1.95647">
        <ele>124</ele>
        <time>2025-12-29T11:25:45Z</time>
      </trkpt>
      <trkpt lat="48.59678" lon="1.95645">
        <ele>124</ele>
        <time>2025-12-29T11:25:47Z</time>
      </trkpt>
      <trkpt lat="48.59676" lon="1.95643">
        <ele>123.8</ele>
        <time>2025-12-29T11:25:49Z</time>
      </trkpt>
      <trkpt lat="48.59673" lon="1.95642">
        <ele>123.8</ele>
        <time>2025-12-29T11:25:51Z</time>
      </trkpt>
      <trkpt lat="48.5967" lon="1.95641">
        <ele>123.8</ele>
        <time>2025-12-29T11:25:53Z</time>
      </trkpt>
      <trkpt lat="48.59667" lon="1.9564">
        <ele>123.6</ele>
        <time>2025-12-29T11:25:55Z</time>
      </trkpt>
      <trkpt lat="48.59664" lon="1.95641">
        <ele>123.6</ele>
        <time>2025-12-29T11:25:57Z</time>
      </trkpt>
      <trkpt lat="48.59661" lon="1.95641">
        <ele>123.6</ele>
        <time>2025-12-29T11:25:59Z</time>
      </trkpt>
      <trkpt lat="48.59659" lon="1.9564">
        <ele>123.4</ele>
        <time>2025-12-29T11:26:01Z</time>
      </trkpt>
      <trkpt lat="48.59657" lon="1.9564">
        <ele>123.2</ele>
        <time>2025-12-29T11:26:03Z</time>
      </trkpt>
      <trkpt lat="48.59655" lon="1.95639">
        <ele>123.2</ele>
        <time>2025-12-29T11:26:05Z</time>
      </trkpt>
      <trkpt lat="48.59653" lon="1.95638">
        <ele>123.2</ele>
        <time>2025-12-29T11:26:07Z</time>
      </trkpt>
      <trkpt lat="48.59652" lon="1.95638">
        <ele>123</ele>
        <time>2025-12-29T11:26:09Z</time>
      </trkpt>
      <trkpt lat="48.5965" lon="1.95638">
        <ele>123</ele>
        <time>2025-12-29T11:26:11Z</time>
      </trkpt>
      <trkpt lat="48.59647" lon="1.95639">
        <ele>123</ele>
        <time>2025-12-29T11:26:13Z</time>
      </trkpt>
      <trkpt lat="48.59645" lon="1.9564">
        <ele>123</ele>
        <time>2025-12-29T11:26:15Z</time>
      </trkpt>
      <trkpt lat="48.59643" lon="1.95641">
        <ele>123</ele>
        <time>2025-12-29T11:26:17Z</time>
      </trkpt>
      <trkpt lat="48.59641" lon="1.95642">
        <ele>123.2</ele>
        <time>2025-12-29T11:26:19Z</time>
      </trkpt>
      <trkpt lat="48.59639" lon="1.95643">
        <ele>123.2</ele>
        <time>2025-12-29T11:26:21Z</time>
      </trkpt>
      <trkpt lat="48.59637" lon="1.95644">
        <ele>123.2</ele>
        <time>2025-12-29T11:26:23Z</time>
      </trkpt>
      <trkpt lat="48.59634" lon="1.95645">
        <ele>123.2</ele>
        <time>2025-12-29T11:26:25Z</time>
      </trkpt>
      <trkpt lat="48.59631" lon="1.95646">
        <ele>123.2</ele>
        <time>2025-12-29T11:26:27Z</time>
      </trkpt>
      <trkpt lat="48.59629" lon="1.95646">
        <ele>123.2</ele>
        <time>2025-12-29T11:26:29Z</time>
      </trkpt>
      <trkpt lat="48.59626" lon="1.95647">
        <ele>123.2</ele>
        <time>2025-12-29T11:26:31Z</time>
      </trkpt>
      <trkpt lat="48.59623" lon="1.95648">
        <ele>123.4</ele>
        <time>2025-12-29T11:26:33Z</time>
      </trkpt>
      <trkpt lat="48.59621" lon="1.95648">
        <ele>123.4</ele>
        <time>2025-12-29T11:26:34Z</time>
      </trkpt>
      <trkpt lat="48.59618" lon="1.9565">
        <ele>123.6</ele>
        <time>2025-12-29T11:26:36Z</time>
      </trkpt>
      <trkpt lat="48.59616" lon="1.9565">
        <ele>123.6</ele>
        <time>2025-12-29T11:26:37Z</time>
      </trkpt>
      <trkpt lat="48.59612" lon="1.95651">
        <ele>123.8</ele>
        <time>2025-12-29T11:26:39Z</time>
      </trkpt>
      <trkpt lat="48.5961" lon="1.95651">
        <ele>123.8</ele>
        <time>2025-12-29T11:26:40Z</time>
      </trkpt>
      <trkpt lat="48.59608" lon="1.95652">
        <ele>123.8</ele>
        <time>2025-12-29T11:26:41Z</time>
      </trkpt>
      <trkpt lat="48.59606" lon="1.95652">
        <ele>123.8</ele>
        <time>2025-12-29T11:26:42Z</time>
      </trkpt>
      <trkpt lat="48.59604" lon="1.95652">
        <ele>123.8</ele>
        <time>2025-12-29T11:26:43Z</time>
      </trkpt>
      <trkpt lat="48.59602" lon="1.95652">
        <ele>123.8</ele>
        <time>2025-12-29T11:26:44Z</time>
      </trkpt>
      <trkpt lat="48.59598" lon="1.95652">
        <ele>123.8</ele>
        <time>2025-12-29T11:26:46Z</time>
      </trkpt>
      <trkpt lat="48.59596" lon="1.95652">
        <ele>123.6</ele>
        <time>2025-12-29T11:26:48Z</time>
      </trkpt>
      <trkpt lat="48.59594" lon="1.95652">
        <ele>123.6</ele>
        <time>2025-12-29T11:26:49Z</time>
      </trkpt>
      <trkpt lat="48.5959" lon="1.95651">
        <ele>123.6</ele>
        <time>2025-12-29T11:26:51Z</time>
      </trkpt>
      <trkpt lat="48.59588" lon="1.9565">
        <ele>123.4</ele>
        <time>2025-12-29T11:26:52Z</time>
      </trkpt>
      <trkpt lat="48.59585" lon="1.95649">
        <ele>123.2</ele>
        <time>2025-12-29T11:26:54Z</time>
      </trkpt>
      <trkpt lat="48.59582" lon="1.95647">
        <ele>123.2</ele>
        <time>2025-12-29T11:26:56Z</time>
      </trkpt>
      <trkpt lat="48.5958" lon="1.95645">
        <ele>123</ele>
        <time>2025-12-29T11:26:58Z</time>
      </trkpt>
      <trkpt lat="48.59578" lon="1.95643">
        <ele>123</ele>
        <time>2025-12-29T11:27:00Z</time>
      </trkpt>
      <trkpt lat="48.59574" lon="1.95641">
        <ele>122.8</ele>
        <time>2025-12-29T11:27:02Z</time>
      </trkpt>
      <trkpt lat="48.59572" lon="1.95639">
        <ele>122.8</ele>
        <time>2025-12-29T11:27:04Z</time>
      </trkpt>
      <trkpt lat="48.59569" lon="1.95637">
        <ele>122.8</ele>
        <time>2025-12-29T11:27:06Z</time>
      </trkpt>
      <trkpt lat="48.59566" lon="1.95635">
        <ele>122.8</ele>
        <time>2025-12-29T11:27:08Z</time>
      </trkpt>
      <trkpt lat="48.59562" lon="1.95634">
        <ele>122.8</ele>
        <time>2025-12-29T11:27:10Z</time>
      </trkpt>
      <trkpt lat="48.59559" lon="1.95633">
        <ele>122.8</ele>
        <time>2025-12-29T11:27:12Z</time>
      </trkpt>
      <trkpt lat="48.59556" lon="1.95632">
        <ele>122.8</ele>
        <time>2025-12-29T11:27:14Z</time>
      </trkpt>
      <trkpt lat="48.59553" lon="1.95631">
        <ele>123</ele>
        <time>2025-12-29T11:27:16Z</time>
      </trkpt>
      <trkpt lat="48.5955" lon="1.9563">
        <ele>123</ele>
        <time>2025-12-29T11:27:18Z</time>
      </trkpt>
      <trkpt lat="48.59548" lon="1.95628">
        <ele>123.2</ele>
        <time>2025-12-29T11:27:20Z</time>
      </trkpt>
      <trkpt lat="48.59546" lon="1.95627">
        <ele>123.2</ele>
        <time>2025-12-29T11:27:22Z</time>
      </trkpt>
      <trkpt lat="48.59542" lon="1.95625">
        <ele>123.4</ele>
        <time>2025-12-29T11:27:24Z</time>
      </trkpt>
      <trkpt lat="48.5954" lon="1.95623">
        <ele>123.4</ele>
        <time>2025-12-29T11:27:26Z</time>
      </trkpt>
      <trkpt lat="48.59538" lon="1.95622">
        <ele>123.4</ele>
        <time>2025-12-29T11:27:27Z</time>
      </trkpt>
      <trkpt lat="48.59535" lon="1.95619">
        <ele>123.4</ele>
        <time>2025-12-29T11:27:29Z</time>
      </trkpt>
      <trkpt lat="48.59533" lon="1.95618">
        <ele>123.4</ele>
        <time>2025-12-29T11:27:32Z</time>
      </trkpt>
      <trkpt lat="48.59532" lon="1.95615">
        <ele>123.2</ele>
        <time>2025-12-29T11:27:36Z</time>
      </trkpt>
      <trkpt lat="48.5953" lon="1.95613">
        <ele>123.2</ele>
        <time>2025-12-29T11:27:38Z</time>
      </trkpt>
      <trkpt lat="48.59528" lon="1.95611">
        <ele>123.2</ele>
        <time>2025-12-29T11:27:40Z</time>
      </trkpt>
      <trkpt lat="48.59526" lon="1.95608">
        <ele>123.2</ele>
        <time>2025-12-29T11:27:42Z</time>
      </trkpt>
      <trkpt lat="48.59523" lon="1.95605">
        <ele>123.2</ele>
        <time>2025-12-29T11:27:44Z</time>
      </trkpt>
      <trkpt lat="48.59521" lon="1.95603">
        <ele>123.2</ele>
        <time>2025-12-29T11:27:46Z</time>
      </trkpt>
      <trkpt lat="48.59519" lon="1.956">
        <ele>123.2</ele>
        <time>2025-12-29T11:27:48Z</time>
      </trkpt>
      <trkpt lat="48.59518" lon="1.95596">
        <ele>123.2</ele>
        <time>2025-12-29T11:27:50Z</time>
      </trkpt>
      <trkpt lat="48.59516" lon="1.95593">
        <ele>123.2</ele>
        <time>2025-12-29T11:27:52Z</time>
      </trkpt>
      <trkpt lat="48.59514" lon="1.9559">
        <ele>123.2</ele>
        <time>2025-12-29T11:27:54Z</time>
      </trkpt>
      <trkpt lat="48.59512" lon="1.95588">
        <ele>123.2</ele>
        <time>2025-12-29T11:27:56Z</time>
      </trkpt>
      <trkpt lat="48.5951" lon="1.95585">
        <ele>123.2</ele>
        <time>2025-12-29T11:27:58Z</time>
      </trkpt>
      <trkpt lat="48.59508" lon="1.95583">
        <ele>123.2</ele>
        <time>2025-12-29T11:28:00Z</time>
      </trkpt>
      <trkpt lat="48.59505" lon="1.95581">
        <ele>123.2</ele>
        <time>2025-12-29T11:28:02Z</time>
      </trkpt>
      <trkpt lat="48.59502" lon="1.95579">
        <ele>123.2</ele>
        <time>2025-12-29T11:28:04Z</time>
      </trkpt>
      <trkpt lat="48.595" lon="1.95577">
        <ele>123.2</ele>
        <time>2025-12-29T11:28:06Z</time>
      </trkpt>
      <trkpt lat="48.59497" lon="1.95575">
        <ele>123.2</ele>
        <time>2025-12-29T11:28:08Z</time>
      </trkpt>
      <trkpt lat="48.59494" lon="1.95573">
        <ele>123.4</ele>
        <time>2025-12-29T11:28:10Z</time>
      </trkpt>
      <trkpt lat="48.59492" lon="1.95572">
        <ele>123.4</ele>
        <time>2025-12-29T11:28:12Z</time>
      </trkpt>
      <trkpt lat="48.59491" lon="1.9557">
        <ele>123.6</ele>
        <time>2025-12-29T11:28:15Z</time>
      </trkpt>
      <trkpt lat="48.59488" lon="1.95567">
        <ele>124</ele>
        <time>2025-12-29T11:28:19Z</time>
      </trkpt>
      <trkpt lat="48.59487" lon="1.95566">
        <ele>124.2</ele>
        <time>2025-12-29T11:28:21Z</time>
      </trkpt>
      <trkpt lat="48.59485" lon="1.95564">
        <ele>124.2</ele>
        <time>2025-12-29T11:28:23Z</time>
      </trkpt>
      <trkpt lat="48.59483" lon="1.95562">
        <ele>124.4</ele>
        <time>2025-12-29T11:28:25Z</time>
      </trkpt>
      <trkpt lat="48.59481" lon="1.9556">
        <ele>124.4</ele>
        <time>2025-12-29T11:28:27Z</time>
      </trkpt>
      <trkpt lat="48.59478" lon="1.95558">
        <ele>124.6</ele>
        <time>2025-12-29T11:28:29Z</time>
      </trkpt>
      <trkpt lat="48.59476" lon="1.95557">
        <ele>124.6</ele>
        <time>2025-12-29T11:28:30Z</time>
      </trkpt>
      <trkpt lat="48.59473" lon="1.95555">
        <ele>124.6</ele>
        <time>2025-12-29T11:28:32Z</time>
      </trkpt>
      <trkpt lat="48.59471" lon="1.95554">
        <ele>124.8</ele>
        <time>2025-12-29T11:28:33Z</time>
      </trkpt>
      <trkpt lat="48.59467" lon="1.95551">
        <ele>124.8</ele>
        <time>2025-12-29T11:28:35Z</time>
      </trkpt>
      <trkpt lat="48.59464" lon="1.95549">
        <ele>124.8</ele>
        <time>2025-12-29T11:28:37Z</time>
      </trkpt>
      <trkpt lat="48.59461" lon="1.95547">
        <ele>125</ele>
        <time>2025-12-29T11:28:39Z</time>
      </trkpt>
      <trkpt lat="48.59458" lon="1.95545">
        <ele>125</ele>
        <time>2025-12-29T11:28:41Z</time>
      </trkpt>
      <trkpt lat="48.59456" lon="1.95543">
        <ele>125.2</ele>
        <time>2025-12-29T11:28:43Z</time>
      </trkpt>
      <trkpt lat="48.59455" lon="1.95541">
        <ele>125.4</ele>
        <time>2025-12-29T11:28:45Z</time>
      </trkpt>
      <trkpt lat="48.59453" lon="1.95538">
        <ele>125.4</ele>
        <time>2025-12-29T11:28:47Z</time>
      </trkpt>
      <trkpt lat="48.59451" lon="1.95536">
        <ele>125.6</ele>
        <time>2025-12-29T11:28:50Z</time>
      </trkpt>
      <trkpt lat="48.59449" lon="1.95536">
        <ele>125.8</ele>
        <time>2025-12-29T11:28:53Z</time>
      </trkpt>
      <trkpt lat="48.59445" lon="1.95535">
        <ele>125.8</ele>
        <time>2025-12-29T11:28:55Z</time>
      </trkpt>
      <trkpt lat="48.59443" lon="1.95535">
        <ele>126</ele>
        <time>2025-12-29T11:28:56Z</time>
      </trkpt>
      <trkpt lat="48.5944" lon="1.95532">
        <ele>126</ele>
        <time>2025-12-29T11:28:58Z</time>
      </trkpt>
      <trkpt lat="48.59439" lon="1.95531">
        <ele>126.2</ele>
        <time>2025-12-29T11:28:59Z</time>
      </trkpt>
      <trkpt lat="48.59436" lon="1.95528">
        <ele>126.2</ele>
        <time>2025-12-29T11:29:01Z</time>
      </trkpt>
      <trkpt lat="48.59435" lon="1.95526">
        <ele>126.4</ele>
        <time>2025-12-29T11:29:03Z</time>
      </trkpt>
      <trkpt lat="48.59433" lon="1.95524">
        <ele>126.6</ele>
        <time>2025-12-29T11:29:05Z</time>
      </trkpt>
      <trkpt lat="48.59431" lon="1.95523">
        <ele>126.6</ele>
        <time>2025-12-29T11:29:08Z</time>
      </trkpt>
      <trkpt lat="48.59429" lon="1.95521">
        <ele>126.6</ele>
        <time>2025-12-29T11:29:10Z</time>
      </trkpt>
      <trkpt lat="48.59428" lon="1.95519">
        <ele>126.6</ele>
        <time>2025-12-29T11:29:12Z</time>
      </trkpt>
      <trkpt lat="48.59425" lon="1.95516">
        <ele>126.4</ele>
        <time>2025-12-29T11:29:14Z</time>
      </trkpt>
      <trkpt lat="48.59423" lon="1.95514">
        <ele>126.4</ele>
        <time>2025-12-29T11:29:16Z</time>
      </trkpt>
      <trkpt lat="48.59421" lon="1.95511">
        <ele>126.4</ele>
        <time>2025-12-29T11:29:18Z</time>
      </trkpt>
      <trkpt lat="48.59419" lon="1.95508">
        <ele>126.4</ele>
        <time>2025-12-29T11:29:20Z</time>
      </trkpt>
      <trkpt lat="48.59416" lon="1.95505">
        <ele>126.6</ele>
        <time>2025-12-29T11:29:22Z</time>
      </trkpt>
      <trkpt lat="48.59415" lon="1.95503">
        <ele>126.6</ele>
        <time>2025-12-29T11:29:23Z</time>
      </trkpt>
      <trkpt lat="48.59413" lon="1.95501">
        <ele>126.6</ele>
        <time>2025-12-29T11:29:24Z</time>
      </trkpt>
      <trkpt lat="48.59411" lon="1.955">
        <ele>126.6</ele>
        <time>2025-12-29T11:29:25Z</time>
      </trkpt>
      <trkpt lat="48.5941" lon="1.95498">
        <ele>126.6</ele>
        <time>2025-12-29T11:29:26Z</time>
      </trkpt>
      <trkpt lat="48.59408" lon="1.95496">
        <ele>126.8</ele>
        <time>2025-12-29T11:29:27Z</time>
      </trkpt>
      <trkpt lat="48.59406" lon="1.95493">
        <ele>126.8</ele>
        <time>2025-12-29T11:29:28Z</time>
      </trkpt>
      <trkpt lat="48.59404" lon="1.95491">
        <ele>126.8</ele>
        <time>2025-12-29T11:29:29Z</time>
      </trkpt>
      <trkpt lat="48.59403" lon="1.95489">
        <ele>126.8</ele>
        <time>2025-12-29T11:29:30Z</time>
      </trkpt>
      <trkpt lat="48.59401" lon="1.95487">
        <ele>126.8</ele>
        <time>2025-12-29T11:29:31Z</time>
      </trkpt>
      <trkpt lat="48.594" lon="1.95485">
        <ele>126.8</ele>
        <time>2025-12-29T11:29:32Z</time>
      </trkpt>
      <trkpt lat="48.59397" lon="1.95482">
        <ele>127</ele>
        <time>2025-12-29T11:29:34Z</time>
      </trkpt>
      <trkpt lat="48.59395" lon="1.95479">
        <ele>127</ele>
        <time>2025-12-29T11:29:36Z</time>
      </trkpt>
      <trkpt lat="48.59393" lon="1.95477">
        <ele>127.2</ele>
        <time>2025-12-29T11:29:38Z</time>
      </trkpt>
      <trkpt lat="48.59391" lon="1.95474">
        <ele>127.2</ele>
        <time>2025-12-29T11:29:40Z</time>
      </trkpt>
      <trkpt lat="48.59389" lon="1.95471">
        <ele>127.2</ele>
        <time>2025-12-29T11:29:42Z</time>
      </trkpt>
      <trkpt lat="48.59387" lon="1.95469">
        <ele>127.2</ele>
        <time>2025-12-29T11:29:44Z</time>
      </trkpt>
      <trkpt lat="48.59385" lon="1.95467">
        <ele>127.4</ele>
        <time>2025-12-29T11:29:46Z</time>
      </trkpt>
      <trkpt lat="48.59383" lon="1.95465">
        <ele>127.4</ele>
        <time>2025-12-29T11:29:48Z</time>
      </trkpt>
      <trkpt lat="48.59381" lon="1.95463">
        <ele>127.4</ele>
        <time>2025-12-29T11:29:50Z</time>
      </trkpt>
      <trkpt lat="48.5938" lon="1.95462">
        <ele>127.4</ele>
        <time>2025-12-29T11:29:52Z</time>
      </trkpt>
      <trkpt lat="48.59378" lon="1.95461">
        <ele>127.4</ele>
        <time>2025-12-29T11:29:54Z</time>
      </trkpt>
      <trkpt lat="48.59375" lon="1.95459">
        <ele>127.2</ele>
        <time>2025-12-29T11:29:56Z</time>
      </trkpt>
      <trkpt lat="48.59372" lon="1.95455">
        <ele>127.2</ele>
        <time>2025-12-29T11:29:58Z</time>
      </trkpt>
      <trkpt lat="48.59371" lon="1.95453">
        <ele>127.2</ele>
        <time>2025-12-29T11:29:59Z</time>
      </trkpt>
      <trkpt lat="48.5937" lon="1.95451">
        <ele>127</ele>
        <time>2025-12-29T11:30:00Z</time>
      </trkpt>
      <trkpt lat="48.59367" lon="1.95447">
        <ele>127</ele>
        <time>2025-12-29T11:30:02Z</time>
      </trkpt>
      <trkpt lat="48.59365" lon="1.95444">
        <ele>126.8</ele>
        <time>2025-12-29T11:30:04Z</time>
      </trkpt>
      <trkpt lat="48.59363" lon="1.95441">
        <ele>126.8</ele>
        <time>2025-12-29T11:30:06Z</time>
      </trkpt>
      <trkpt lat="48.59361" lon="1.95438">
        <ele>126.6</ele>
        <time>2025-12-29T11:30:08Z</time>
      </trkpt>
      <trkpt lat="48.59359" lon="1.95437">
        <ele>126.6</ele>
        <time>2025-12-29T11:30:10Z</time>
      </trkpt>
      <trkpt lat="48.59357" lon="1.95435">
        <ele>126.6</ele>
        <time>2025-12-29T11:30:12Z</time>
      </trkpt>
      <trkpt lat="48.59356" lon="1.95432">
        <ele>126.6</ele>
        <time>2025-12-29T11:30:14Z</time>
      </trkpt>
      <trkpt lat="48.59355" lon="1.95429">
        <ele>126.4</ele>
        <time>2025-12-29T11:30:16Z</time>
      </trkpt>
      <trkpt lat="48.59355" lon="1.95424">
        <ele>126.6</ele>
        <time>2025-12-29T11:30:18Z</time>
      </trkpt>
      <trkpt lat="48.59355" lon="1.9542">
        <ele>126.6</ele>
        <time>2025-12-29T11:30:20Z</time>
      </trkpt>
      <trkpt lat="48.59354" lon="1.95416">
        <ele>126.6</ele>
        <time>2025-12-29T11:30:22Z</time>
      </trkpt>
      <trkpt lat="48.59351" lon="1.95413">
        <ele>126.6</ele>
        <time>2025-12-29T11:30:24Z</time>
      </trkpt>
      <trkpt lat="48.59348" lon="1.95412">
        <ele>126.6</ele>
        <time>2025-12-29T11:30:26Z</time>
      </trkpt>
      <trkpt lat="48.59345" lon="1.95411">
        <ele>126.8</ele>
        <time>2025-12-29T11:30:28Z</time>
      </trkpt>
      <trkpt lat="48.59343" lon="1.9541">
        <ele>126.8</ele>
        <time>2025-12-29T11:30:30Z</time>
      </trkpt>
      <trkpt lat="48.59341" lon="1.95408">
        <ele>127</ele>
        <time>2025-12-29T11:30:33Z</time>
      </trkpt>
      <trkpt lat="48.5934" lon="1.95406">
        <ele>127.2</ele>
        <time>2025-12-29T11:30:35Z</time>
      </trkpt>
      <trkpt lat="48.59339" lon="1.95403">
        <ele>127.2</ele>
        <time>2025-12-29T11:30:37Z</time>
      </trkpt>
      <trkpt lat="48.59336" lon="1.95401">
        <ele>127.4</ele>
        <time>2025-12-29T11:30:39Z</time>
      </trkpt>
      <trkpt lat="48.59333" lon="1.95399">
        <ele>127.4</ele>
        <time>2025-12-29T11:30:41Z</time>
      </trkpt>
      <trkpt lat="48.59331" lon="1.95397">
        <ele>127.6</ele>
        <time>2025-12-29T11:30:43Z</time>
      </trkpt>
      <trkpt lat="48.59328" lon="1.95396">
        <ele>127.6</ele>
        <time>2025-12-29T11:30:45Z</time>
      </trkpt>
      <trkpt lat="48.59326" lon="1.95395">
        <ele>127.6</ele>
        <time>2025-12-29T11:30:47Z</time>
      </trkpt>
      <trkpt lat="48.59324" lon="1.95393">
        <ele>127.8</ele>
        <time>2025-12-29T11:30:49Z</time>
      </trkpt>
      <trkpt lat="48.5932" lon="1.95391">
        <ele>127.8</ele>
        <time>2025-12-29T11:30:51Z</time>
      </trkpt>
      <trkpt lat="48.59318" lon="1.9539">
        <ele>127.8</ele>
        <time>2025-12-29T11:30:52Z</time>
      </trkpt>
      <trkpt lat="48.59316" lon="1.95389">
        <ele>128</ele>
        <time>2025-12-29T11:30:53Z</time>
      </trkpt>
      <trkpt lat="48.59313" lon="1.95388">
        <ele>128</ele>
        <time>2025-12-29T11:30:55Z</time>
      </trkpt>
      <trkpt lat="48.59311" lon="1.95387">
        <ele>128.2</ele>
        <time>2025-12-29T11:30:56Z</time>
      </trkpt>
      <trkpt lat="48.59308" lon="1.95386">
        <ele>128.2</ele>
        <time>2025-12-29T11:30:57Z</time>
      </trkpt>
      <trkpt lat="48.59306" lon="1.95385">
        <ele>128.2</ele>
        <time>2025-12-29T11:30:58Z</time>
      </trkpt>
      <trkpt lat="48.59304" lon="1.95383">
        <ele>128.2</ele>
        <time>2025-12-29T11:30:59Z</time>
      </trkpt>
      <trkpt lat="48.59302" lon="1.95382">
        <ele>128.2</ele>
        <time>2025-12-29T11:31:00Z</time>
      </trkpt>
      <trkpt lat="48.593" lon="1.9538">
        <ele>128.4</ele>
        <time>2025-12-29T11:31:01Z</time>
      </trkpt>
      <trkpt lat="48.59298" lon="1.95379">
        <ele>128.4</ele>
        <time>2025-12-29T11:31:02Z</time>
      </trkpt>
      <trkpt lat="48.59296" lon="1.95378">
        <ele>128.4</ele>
        <time>2025-12-29T11:31:03Z</time>
      </trkpt>
      <trkpt lat="48.59294" lon="1.95377">
        <ele>128.4</ele>
        <time>2025-12-29T11:31:04Z</time>
      </trkpt>
      <trkpt lat="48.59292" lon="1.95374">
        <ele>128.6</ele>
        <time>2025-12-29T11:31:06Z</time>
      </trkpt>
      <trkpt lat="48.5929" lon="1.95371">
        <ele>128.6</ele>
        <time>2025-12-29T11:31:08Z</time>
      </trkpt>
      <trkpt lat="48.59288" lon="1.95368">
        <ele>128.8</ele>
        <time>2025-12-29T11:31:10Z</time>
      </trkpt>
      <trkpt lat="48.59287" lon="1.95365">
        <ele>128.8</ele>
        <time>2025-12-29T11:31:12Z</time>
      </trkpt>
      <trkpt lat="48.59286" lon="1.95362">
        <ele>129</ele>
        <time>2025-12-29T11:31:14Z</time>
      </trkpt>
      <trkpt lat="48.59284" lon="1.95358">
        <ele>129</ele>
        <time>2025-12-29T11:31:16Z</time>
      </trkpt>
      <trkpt lat="48.59282" lon="1.95354">
        <ele>129.2</ele>
        <time>2025-12-29T11:31:18Z</time>
      </trkpt>
      <trkpt lat="48.59281" lon="1.95352">
        <ele>129.2</ele>
        <time>2025-12-29T11:31:19Z</time>
      </trkpt>
      <trkpt lat="48.59278" lon="1.95349">
        <ele>129.4</ele>
        <time>2025-12-29T11:31:21Z</time>
      </trkpt>
      <trkpt lat="48.59276" lon="1.95347">
        <ele>129.4</ele>
        <time>2025-12-29T11:31:22Z</time>
      </trkpt>
      <trkpt lat="48.59275" lon="1.95346">
        <ele>129.6</ele>
        <time>2025-12-29T11:31:23Z</time>
      </trkpt>
      <trkpt lat="48.59273" lon="1.95345">
        <ele>129.6</ele>
        <time>2025-12-29T11:31:24Z</time>
      </trkpt>
      <trkpt lat="48.5927" lon="1.95344">
        <ele>129.8</ele>
        <time>2025-12-29T11:31:25Z</time>
      </trkpt>
      <trkpt lat="48.59268" lon="1.95343">
        <ele>129.8</ele>
        <time>2025-12-29T11:31:26Z</time>
      </trkpt>
      <trkpt lat="48.59266" lon="1.95342">
        <ele>129.8</ele>
        <time>2025-12-29T11:31:27Z</time>
      </trkpt>
      <trkpt lat="48.59264" lon="1.95341">
        <ele>129.8</ele>
        <time>2025-12-29T11:31:28Z</time>
      </trkpt>
      <trkpt lat="48.59263" lon="1.95339">
        <ele>129.8</ele>
        <time>2025-12-29T11:31:29Z</time>
      </trkpt>
      <trkpt lat="48.59261" lon="1.95338">
        <ele>129.8</ele>
        <time>2025-12-29T11:31:30Z</time>
      </trkpt>
      <trkpt lat="48.59259" lon="1.95336">
        <ele>129.8</ele>
        <time>2025-12-29T11:31:31Z</time>
      </trkpt>
      <trkpt lat="48.59256" lon="1.95335">
        <ele>129.8</ele>
        <time>2025-12-29T11:31:32Z</time>
      </trkpt>
      <trkpt lat="48.59253" lon="1.95334">
        <ele>129.8</ele>
        <time>2025-12-29T11:31:33Z</time>
      </trkpt>
      <trkpt lat="48.5925" lon="1.95334">
        <ele>129.8</ele>
        <time>2025-12-29T11:31:34Z</time>
      </trkpt>
      <trkpt lat="48.59246" lon="1.95334">
        <ele>129.8</ele>
        <time>2025-12-29T11:31:35Z</time>
      </trkpt>
      <trkpt lat="48.59243" lon="1.95334">
        <ele>129.8</ele>
        <time>2025-12-29T11:31:36Z</time>
      </trkpt>
      <trkpt lat="48.5924" lon="1.95333">
        <ele>129.8</ele>
        <time>2025-12-29T11:31:37Z</time>
      </trkpt>
      <trkpt lat="48.59238" lon="1.95333">
        <ele>129.8</ele>
        <time>2025-12-29T11:31:38Z</time>
      </trkpt>
      <trkpt lat="48.59236" lon="1.95331">
        <ele>130</ele>
        <time>2025-12-29T11:31:39Z</time>
      </trkpt>
      <trkpt lat="48.59234" lon="1.9533">
        <ele>130</ele>
        <time>2025-12-29T11:31:40Z</time>
      </trkpt>
      <trkpt lat="48.59231" lon="1.95328">
        <ele>130</ele>
        <time>2025-12-29T11:31:41Z</time>
      </trkpt>
      <trkpt lat="48.59229" lon="1.95327">
        <ele>130</ele>
        <time>2025-12-29T11:31:42Z</time>
      </trkpt>
      <trkpt lat="48.59226" lon="1.95326">
        <ele>130</ele>
        <time>2025-12-29T11:31:43Z</time>
      </trkpt>
      <trkpt lat="48.59224" lon="1.95324">
        <ele>130</ele>
        <time>2025-12-29T11:31:44Z</time>
      </trkpt>
      <trkpt lat="48.59223" lon="1.9532">
        <ele>130</ele>
        <time>2025-12-29T11:31:46Z</time>
      </trkpt>
      <trkpt lat="48.59223" lon="1.95317">
        <ele>130</ele>
        <time>2025-12-29T11:31:48Z</time>
      </trkpt>
      <trkpt lat="48.59222" lon="1.95314">
        <ele>130.2</ele>
        <time>2025-12-29T11:31:50Z</time>
      </trkpt>
      <trkpt lat="48.5922" lon="1.95311">
        <ele>130.2</ele>
        <time>2025-12-29T11:31:52Z</time>
      </trkpt>
      <trkpt lat="48.59219" lon="1.9531">
        <ele>130.2</ele>
        <time>2025-12-29T11:31:53Z</time>
      </trkpt>
      <trkpt lat="48.59217" lon="1.95306">
        <ele>130.2</ele>
        <time>2025-12-29T11:31:55Z</time>
      </trkpt>
      <trkpt lat="48.59215" lon="1.95302">
        <ele>130.4</ele>
        <time>2025-12-29T11:31:57Z</time>
      </trkpt>
      <trkpt lat="48.59213" lon="1.953">
        <ele>130.4</ele>
        <time>2025-12-29T11:31:59Z</time>
      </trkpt>
      <trkpt lat="48.5921" lon="1.95301">
        <ele>130.4</ele>
        <time>2025-12-29T11:32:01Z</time>
      </trkpt>
      <trkpt lat="48.59207" lon="1.953">
        <ele>130.4</ele>
        <time>2025-12-29T11:32:03Z</time>
      </trkpt>
      <trkpt lat="48.59205" lon="1.953">
        <ele>130.4</ele>
        <time>2025-12-29T11:32:04Z</time>
      </trkpt>
      <trkpt lat="48.59203" lon="1.95298">
        <ele>130.4</ele>
        <time>2025-12-29T11:32:06Z</time>
      </trkpt>
      <trkpt lat="48.59201" lon="1.95298">
        <ele>130.4</ele>
        <time>2025-12-29T11:32:08Z</time>
      </trkpt>
      <trkpt lat="48.59198" lon="1.95299">
        <ele>130.4</ele>
        <time>2025-12-29T11:32:11Z</time>
      </trkpt>
      <trkpt lat="48.59196" lon="1.953">
        <ele>130.6</ele>
        <time>2025-12-29T11:32:13Z</time>
      </trkpt>
      <trkpt lat="48.59194" lon="1.95299">
        <ele>130.6</ele>
        <time>2025-12-29T11:32:15Z</time>
      </trkpt>
      <trkpt lat="48.59192" lon="1.95297">
        <ele>130.6</ele>
        <time>2025-12-29T11:32:17Z</time>
      </trkpt>
      <trkpt lat="48.59191" lon="1.95293">
        <ele>130.6</ele>
        <time>2025-12-29T11:32:19Z</time>
      </trkpt>
      <trkpt lat="48.5919" lon="1.95288">
        <ele>130.6</ele>
        <time>2025-12-29T11:32:21Z</time>
      </trkpt>
      <trkpt lat="48.59189" lon="1.95285">
        <ele>130.6</ele>
        <time>2025-12-29T11:32:23Z</time>
      </trkpt>
      <trkpt lat="48.59187" lon="1.95281">
        <ele>130.8</ele>
        <time>2025-12-29T11:32:25Z</time>
      </trkpt>
      <trkpt lat="48.59185" lon="1.95278">
        <ele>130.8</ele>
        <time>2025-12-29T11:32:27Z</time>
      </trkpt>
      <trkpt lat="48.59184" lon="1.95275">
        <ele>130.8</ele>
        <time>2025-12-29T11:32:29Z</time>
      </trkpt>
      <trkpt lat="48.59183" lon="1.95273">
        <ele>130.6</ele>
        <time>2025-12-29T11:32:31Z</time>
      </trkpt>
      <trkpt lat="48.59181" lon="1.95271">
        <ele>130.6</ele>
        <time>2025-12-29T11:32:33Z</time>
      </trkpt>
      <trkpt lat="48.59179" lon="1.95269">
        <ele>130.6</ele>
        <time>2025-12-29T11:32:35Z</time>
      </trkpt>
      <trkpt lat="48.59177" lon="1.95267">
        <ele>130.6</ele>
        <time>2025-12-29T11:32:37Z</time>
      </trkpt>
      <trkpt lat="48.59175" lon="1.95267">
        <ele>130.6</ele>
        <time>2025-12-29T11:32:38Z</time>
      </trkpt>
      <trkpt lat="48.59171" lon="1.95266">
        <ele>130.6</ele>
        <time>2025-12-29T11:32:40Z</time>
      </trkpt>
      <trkpt lat="48.59168" lon="1.95264">
        <ele>130.6</ele>
        <time>2025-12-29T11:32:42Z</time>
      </trkpt>
      <trkpt lat="48.59165" lon="1.95262">
        <ele>130.6</ele>
        <time>2025-12-29T11:32:44Z</time>
      </trkpt>
      <trkpt lat="48.59163" lon="1.9526">
        <ele>130.6</ele>
        <time>2025-12-29T11:32:46Z</time>
      </trkpt>
      <trkpt lat="48.5916" lon="1.95259">
        <ele>130.6</ele>
        <time>2025-12-29T11:32:48Z</time>
      </trkpt>
      <trkpt lat="48.59158" lon="1.95258">
        <ele>130.6</ele>
        <time>2025-12-29T11:32:49Z</time>
      </trkpt>
      <trkpt lat="48.59155" lon="1.95256">
        <ele>130.6</ele>
        <time>2025-12-29T11:32:51Z</time>
      </trkpt>
      <trkpt lat="48.59153" lon="1.95254">
        <ele>130.8</ele>
        <time>2025-12-29T11:32:53Z</time>
      </trkpt>
      <trkpt lat="48.5915" lon="1.95252">
        <ele>130.8</ele>
        <time>2025-12-29T11:32:55Z</time>
      </trkpt>
      <trkpt lat="48.59148" lon="1.9525">
        <ele>130.8</ele>
        <time>2025-12-29T11:32:57Z</time>
      </trkpt>
      <trkpt lat="48.59146" lon="1.95248">
        <ele>131</ele>
        <time>2025-12-29T11:32:59Z</time>
      </trkpt>
      <trkpt lat="48.59144" lon="1.95247">
        <ele>131</ele>
        <time>2025-12-29T11:33:01Z</time>
      </trkpt>
      <trkpt lat="48.59143" lon="1.95246">
        <ele>131.2</ele>
        <time>2025-12-29T11:33:03Z</time>
      </trkpt>
      <trkpt lat="48.59141" lon="1.95243">
        <ele>131.2</ele>
        <time>2025-12-29T11:33:05Z</time>
      </trkpt>
      <trkpt lat="48.59139" lon="1.9524">
        <ele>131.4</ele>
        <time>2025-12-29T11:33:07Z</time>
      </trkpt>
      <trkpt lat="48.59137" lon="1.95237">
        <ele>131.4</ele>
        <time>2025-12-29T11:33:09Z</time>
      </trkpt>
      <trkpt lat="48.59135" lon="1.95235">
        <ele>131.6</ele>
        <time>2025-12-29T11:33:11Z</time>
      </trkpt>
      <trkpt lat="48.59133" lon="1.95232">
        <ele>131.4</ele>
        <time>2025-12-29T11:33:13Z</time>
      </trkpt>
      <trkpt lat="48.59131" lon="1.95228">
        <ele>131.4</ele>
        <time>2025-12-29T11:33:15Z</time>
      </trkpt>
      <trkpt lat="48.59129" lon="1.95225">
        <ele>131.4</ele>
        <time>2025-12-29T11:33:17Z</time>
      </trkpt>
      <trkpt lat="48.59127" lon="1.95223">
        <ele>131.2</ele>
        <time>2025-12-29T11:33:19Z</time>
      </trkpt>
      <trkpt lat="48.59124" lon="1.95222">
        <ele>131.2</ele>
        <time>2025-12-29T11:33:21Z</time>
      </trkpt>
      <trkpt lat="48.59121" lon="1.9522">
        <ele>131.2</ele>
        <time>2025-12-29T11:33:23Z</time>
      </trkpt>
      <trkpt lat="48.59119" lon="1.95218">
        <ele>131</ele>
        <time>2025-12-29T11:33:25Z</time>
      </trkpt>
      <trkpt lat="48.59116" lon="1.95216">
        <ele>131</ele>
        <time>2025-12-29T11:33:27Z</time>
      </trkpt>
      <trkpt lat="48.59113" lon="1.95213">
        <ele>130.8</ele>
        <time>2025-12-29T11:33:29Z</time>
      </trkpt>
      <trkpt lat="48.5911" lon="1.95212">
        <ele>130.8</ele>
        <time>2025-12-29T11:33:30Z</time>
      </trkpt>
      <trkpt lat="48.59108" lon="1.9521">
        <ele>130.8</ele>
        <time>2025-12-29T11:33:31Z</time>
      </trkpt>
      <trkpt lat="48.59105" lon="1.95209">
        <ele>130.8</ele>
        <time>2025-12-29T11:33:32Z</time>
      </trkpt>
      <trkpt lat="48.59103" lon="1.95208">
        <ele>130.8</ele>
        <time>2025-12-29T11:33:33Z</time>
      </trkpt>
      <trkpt lat="48.591" lon="1.95206">
        <ele>130.8</ele>
        <time>2025-12-29T11:33:34Z</time>
      </trkpt>
      <trkpt lat="48.59097" lon="1.95205">
        <ele>130.8</ele>
        <time>2025-12-29T11:33:35Z</time>
      </trkpt>
      <trkpt lat="48.59095" lon="1.95204">
        <ele>130.8</ele>
        <time>2025-12-29T11:33:36Z</time>
      </trkpt>
      <trkpt lat="48.59093" lon="1.95203">
        <ele>130.8</ele>
        <time>2025-12-29T11:33:37Z</time>
      </trkpt>
      <trkpt lat="48.59091" lon="1.95201">
        <ele>130.8</ele>
        <time>2025-12-29T11:33:38Z</time>
      </trkpt>
      <trkpt lat="48.59089" lon="1.952">
        <ele>130.8</ele>
        <time>2025-12-29T11:33:39Z</time>
      </trkpt>
      <trkpt lat="48.59087" lon="1.95198">
        <ele>131</ele>
        <time>2025-12-29T11:33:40Z</time>
      </trkpt>
      <trkpt lat="48.59085" lon="1.95197">
        <ele>131</ele>
        <time>2025-12-29T11:33:41Z</time>
      </trkpt>
      <trkpt lat="48.59083" lon="1.95195">
        <ele>131</ele>
        <time>2025-12-29T11:33:42Z</time>
      </trkpt>
      <trkpt lat="48.59081" lon="1.95193">
        <ele>131</ele>
        <time>2025-12-29T11:33:43Z</time>
      </trkpt>
      <trkpt lat="48.59079" lon="1.9519">
        <ele>131</ele>
        <time>2025-12-29T11:33:44Z</time>
      </trkpt>
      <trkpt lat="48.59077" lon="1.95188">
        <ele>131.2</ele>
        <time>2025-12-29T11:33:45Z</time>
      </trkpt>
      <trkpt lat="48.59076" lon="1.95185">
        <ele>131.2</ele>
        <time>2025-12-29T11:33:46Z</time>
      </trkpt>
      <trkpt lat="48.59074" lon="1.95182">
        <ele>131.2</ele>
        <time>2025-12-29T11:33:47Z</time>
      </trkpt>
      <trkpt lat="48.59072" lon="1.9518">
        <ele>131.2</ele>
        <time>2025-12-29T11:33:48Z</time>
      </trkpt>
      <trkpt lat="48.5907" lon="1.95177">
        <ele>131.4</ele>
        <time>2025-12-29T11:33:49Z</time>
      </trkpt>
      <trkpt lat="48.59068" lon="1.95174">
        <ele>131.4</ele>
        <time>2025-12-29T11:33:50Z</time>
      </trkpt>
      <trkpt lat="48.59065" lon="1.95172">
        <ele>131.4</ele>
        <time>2025-12-29T11:33:51Z</time>
      </trkpt>
      <trkpt lat="48.59063" lon="1.95169">
        <ele>131.4</ele>
        <time>2025-12-29T11:33:52Z</time>
      </trkpt>
      <trkpt lat="48.59061" lon="1.95166">
        <ele>131.6</ele>
        <time>2025-12-29T11:33:53Z</time>
      </trkpt>
      <trkpt lat="48.59058" lon="1.95163">
        <ele>131.6</ele>
        <time>2025-12-29T11:33:54Z</time>
      </trkpt>
      <trkpt lat="48.59056" lon="1.9516">
        <ele>131.6</ele>
        <time>2025-12-29T11:33:55Z</time>
      </trkpt>
      <trkpt lat="48.59055" lon="1.95157">
        <ele>131.8</ele>
        <time>2025-12-29T11:33:56Z</time>
      </trkpt>
      <trkpt lat="48.59053" lon="1.95155">
        <ele>131.8</ele>
        <time>2025-12-29T11:33:57Z</time>
      </trkpt>
      <trkpt lat="48.59052" lon="1.95153">
        <ele>132</ele>
        <time>2025-12-29T11:33:58Z</time>
      </trkpt>
      <trkpt lat="48.5905" lon="1.9515">
        <ele>132</ele>
        <time>2025-12-29T11:33:59Z</time>
      </trkpt>
      <trkpt lat="48.59049" lon="1.95148">
        <ele>132.2</ele>
        <time>2025-12-29T11:34:00Z</time>
      </trkpt>
      <trkpt lat="48.59047" lon="1.95146">
        <ele>132.2</ele>
        <time>2025-12-29T11:34:01Z</time>
      </trkpt>
      <trkpt lat="48.59046" lon="1.95144">
        <ele>132.2</ele>
        <time>2025-12-29T11:34:02Z</time>
      </trkpt>
      <trkpt lat="48.59045" lon="1.95142">
        <ele>132.4</ele>
        <time>2025-12-29T11:34:03Z</time>
      </trkpt>
      <trkpt lat="48.59044" lon="1.9514">
        <ele>132.4</ele>
        <time>2025-12-29T11:34:04Z</time>
      </trkpt>
      <trkpt lat="48.59042" lon="1.95136">
        <ele>132.6</ele>
        <time>2025-12-29T11:34:06Z</time>
      </trkpt>
      <trkpt lat="48.59039" lon="1.95133">
        <ele>132.8</ele>
        <time>2025-12-29T11:34:08Z</time>
      </trkpt>
      <trkpt lat="48.59037" lon="1.9513">
        <ele>133</ele>
        <time>2025-12-29T11:34:10Z</time>
      </trkpt>
      <trkpt lat="48.59035" lon="1.95127">
        <ele>133.2</ele>
        <time>2025-12-29T11:34:12Z</time>
      </trkpt>
      <trkpt lat="48.59033" lon="1.95124">
        <ele>133.2</ele>
        <time>2025-12-29T11:34:14Z</time>
      </trkpt>
      <trkpt lat="48.59031" lon="1.95121">
        <ele>133.4</ele>
        <time>2025-12-29T11:34:16Z</time>
      </trkpt>
      <trkpt lat="48.59028" lon="1.95117">
        <ele>133.6</ele>
        <time>2025-12-29T11:34:18Z</time>
      </trkpt>
      <trkpt lat="48.59026" lon="1.95114">
        <ele>133.8</ele>
        <time>2025-12-29T11:34:20Z</time>
      </trkpt>
      <trkpt lat="48.59024" lon="1.95111">
        <ele>134</ele>
        <time>2025-12-29T11:34:22Z</time>
      </trkpt>
      <trkpt lat="48.59022" lon="1.95107">
        <ele>134.2</ele>
        <time>2025-12-29T11:34:24Z</time>
      </trkpt>
      <trkpt lat="48.59019" lon="1.95104">
        <ele>134.4</ele>
        <time>2025-12-29T11:34:26Z</time>
      </trkpt>
      <trkpt lat="48.59018" lon="1.95102">
        <ele>134.4</ele>
        <time>2025-12-29T11:34:27Z</time>
      </trkpt>
      <trkpt lat="48.59016" lon="1.95101">
        <ele>134.6</ele>
        <time>2025-12-29T11:34:28Z</time>
      </trkpt>
      <trkpt lat="48.59014" lon="1.95099">
        <ele>134.6</ele>
        <time>2025-12-29T11:34:29Z</time>
      </trkpt>
      <trkpt lat="48.59012" lon="1.95098">
        <ele>134.6</ele>
        <time>2025-12-29T11:34:30Z</time>
      </trkpt>
      <trkpt lat="48.5901" lon="1.95097">
        <ele>134.8</ele>
        <time>2025-12-29T11:34:31Z</time>
      </trkpt>
      <trkpt lat="48.59008" lon="1.95096">
        <ele>134.8</ele>
        <time>2025-12-29T11:34:32Z</time>
      </trkpt>
      <trkpt lat="48.59005" lon="1.95094">
        <ele>135</ele>
        <time>2025-12-29T11:34:33Z</time>
      </trkpt>
      <trkpt lat="48.59002" lon="1.95092">
        <ele>135</ele>
        <time>2025-12-29T11:34:34Z</time>
      </trkpt>
      <trkpt lat="48.58999" lon="1.9509">
        <ele>135.2</ele>
        <time>2025-12-29T11:34:35Z</time>
      </trkpt>
      <trkpt lat="48.58996" lon="1.95087">
        <ele>135.2</ele>
        <time>2025-12-29T11:34:36Z</time>
      </trkpt>
      <trkpt lat="48.58992" lon="1.95083">
        <ele>135.2</ele>
        <time>2025-12-29T11:34:37Z</time>
      </trkpt>
      <trkpt lat="48.58988" lon="1.95079">
        <ele>135.4</ele>
        <time>2025-12-29T11:34:38Z</time>
      </trkpt>
      <trkpt lat="48.58985" lon="1.95075">
        <ele>135.4</ele>
        <time>2025-12-29T11:34:39Z</time>
      </trkpt>
      <trkpt lat="48.58982" lon="1.9507">
        <ele>135.4</ele>
        <time>2025-12-29T11:34:40Z</time>
      </trkpt>
      <trkpt lat="48.58978" lon="1.95066">
        <ele>135.4</ele>
        <time>2025-12-29T11:34:41Z</time>
      </trkpt>
      <trkpt lat="48.58975" lon="1.95062">
        <ele>135.6</ele>
        <time>2025-12-29T11:34:42Z</time>
      </trkpt>
      <trkpt lat="48.58972" lon="1.95058">
        <ele>135.6</ele>
        <time>2025-12-29T11:34:43Z</time>
      </trkpt>
      <trkpt lat="48.58969" lon="1.95054">
        <ele>135.6</ele>
        <time>2025-12-29T11:34:44Z</time>
      </trkpt>
      <trkpt lat="48.58966" lon="1.95051">
        <ele>135.6</ele>
        <time>2025-12-29T11:34:45Z</time>
      </trkpt>
      <trkpt lat="48.58964" lon="1.95047">
        <ele>135.6</ele>
        <time>2025-12-29T11:34:46Z</time>
      </trkpt>
      <trkpt lat="48.58961" lon="1.95044">
        <ele>135.8</ele>
        <time>2025-12-29T11:34:47Z</time>
      </trkpt>
      <trkpt lat="48.58958" lon="1.9504">
        <ele>135.8</ele>
        <time>2025-12-29T11:34:48Z</time>
      </trkpt>
      <trkpt lat="48.58956" lon="1.95037">
        <ele>135.8</ele>
        <time>2025-12-29T11:34:49Z</time>
      </trkpt>
      <trkpt lat="48.58953" lon="1.95034">
        <ele>135.8</ele>
        <time>2025-12-29T11:34:50Z</time>
      </trkpt>
      <trkpt lat="48.5895" lon="1.95031">
        <ele>135.8</ele>
        <time>2025-12-29T11:34:51Z</time>
      </trkpt>
      <trkpt lat="48.58948" lon="1.95029">
        <ele>135.8</ele>
        <time>2025-12-29T11:34:52Z</time>
      </trkpt>
      <trkpt lat="48.58945" lon="1.95026">
        <ele>135.8</ele>
        <time>2025-12-29T11:34:53Z</time>
      </trkpt>
      <trkpt lat="48.58943" lon="1.95024">
        <ele>135.8</ele>
        <time>2025-12-29T11:34:54Z</time>
      </trkpt>
      <trkpt lat="48.5894" lon="1.95022">
        <ele>135.8</ele>
        <time>2025-12-29T11:34:55Z</time>
      </trkpt>
      <trkpt lat="48.58938" lon="1.95019">
        <ele>135.8</ele>
        <time>2025-12-29T11:34:56Z</time>
      </trkpt>
      <trkpt lat="48.58935" lon="1.95017">
        <ele>136</ele>
        <time>2025-12-29T11:34:57Z</time>
      </trkpt>
      <trkpt lat="48.58932" lon="1.95015">
        <ele>136</ele>
        <time>2025-12-29T11:34:58Z</time>
      </trkpt>
      <trkpt lat="48.58929" lon="1.95012">
        <ele>136</ele>
        <time>2025-12-29T11:34:59Z</time>
      </trkpt>
      <trkpt lat="48.58926" lon="1.95009">
        <ele>136</ele>
        <time>2025-12-29T11:35:00Z</time>
      </trkpt>
      <trkpt lat="48.58923" lon="1.95007">
        <ele>136</ele>
        <time>2025-12-29T11:35:01Z</time>
      </trkpt>
      <trkpt lat="48.5892" lon="1.95004">
        <ele>136</ele>
        <time>2025-12-29T11:35:02Z</time>
      </trkpt>
      <trkpt lat="48.58917" lon="1.95001">
        <ele>136</ele>
        <time>2025-12-29T11:35:03Z</time>
      </trkpt>
      <trkpt lat="48.58914" lon="1.94998">
        <ele>136</ele>
        <time>2025-12-29T11:35:04Z</time>
      </trkpt>
      <trkpt lat="48.58912" lon="1.94995">
        <ele>136</ele>
        <time>2025-12-29T11:35:05Z</time>
      </trkpt>
      <trkpt lat="48.5891" lon="1.94992">
        <ele>136</ele>
        <time>2025-12-29T11:35:06Z</time>
      </trkpt>
      <trkpt lat="48.58907" lon="1.9499">
        <ele>136</ele>
        <time>2025-12-29T11:35:07Z</time>
      </trkpt>
      <trkpt lat="48.58905" lon="1.94987">
        <ele>136</ele>
        <time>2025-12-29T11:35:08Z</time>
      </trkpt>
      <trkpt lat="48.58903" lon="1.94985">
        <ele>135.8</ele>
        <time>2025-12-29T11:35:09Z</time>
      </trkpt>
      <trkpt lat="48.589" lon="1.94983">
        <ele>135.8</ele>
        <time>2025-12-29T11:35:10Z</time>
      </trkpt>
      <trkpt lat="48.58897" lon="1.94981">
        <ele>136</ele>
        <time>2025-12-29T11:35:11Z</time>
      </trkpt>
      <trkpt lat="48.58894" lon="1.94979">
        <ele>136</ele>
        <time>2025-12-29T11:35:12Z</time>
      </trkpt>
      <trkpt lat="48.58891" lon="1.94977">
        <ele>136</ele>
        <time>2025-12-29T11:35:13Z</time>
      </trkpt>
      <trkpt lat="48.58888" lon="1.94975">
        <ele>136</ele>
        <time>2025-12-29T11:35:14Z</time>
      </trkpt>
      <trkpt lat="48.58885" lon="1.94973">
        <ele>136</ele>
        <time>2025-12-29T11:35:15Z</time>
      </trkpt>
      <trkpt lat="48.58882" lon="1.9497">
        <ele>136</ele>
        <time>2025-12-29T11:35:16Z</time>
      </trkpt>
      <trkpt lat="48.58879" lon="1.94967">
        <ele>136</ele>
        <time>2025-12-29T11:35:17Z</time>
      </trkpt>
      <trkpt lat="48.58876" lon="1.94964">
        <ele>136</ele>
        <time>2025-12-29T11:35:18Z</time>
      </trkpt>
      <trkpt lat="48.58873" lon="1.94961">
        <ele>136</ele>
        <time>2025-12-29T11:35:19Z</time>
      </trkpt>
      <trkpt lat="48.58871" lon="1.94958">
        <ele>136</ele>
        <time>2025-12-29T11:35:20Z</time>
      </trkpt>
      <trkpt lat="48.58869" lon="1.94955">
        <ele>136</ele>
        <time>2025-12-29T11:35:21Z</time>
      </trkpt>
      <trkpt lat="48.58867" lon="1.94953">
        <ele>136.2</ele>
        <time>2025-12-29T11:35:22Z</time>
      </trkpt>
      <trkpt lat="48.58865" lon="1.9495">
        <ele>136.2</ele>
        <time>2025-12-29T11:35:23Z</time>
      </trkpt>
      <trkpt lat="48.58863" lon="1.94947">
        <ele>136.2</ele>
        <time>2025-12-29T11:35:24Z</time>
      </trkpt>
      <trkpt lat="48.5886" lon="1.94944">
        <ele>136.2</ele>
        <time>2025-12-29T11:35:25Z</time>
      </trkpt>
      <trkpt lat="48.58858" lon="1.94941">
        <ele>136.2</ele>
        <time>2025-12-29T11:35:26Z</time>
      </trkpt>
      <trkpt lat="48.58855" lon="1.94938">
        <ele>136.4</ele>
        <time>2025-12-29T11:35:27Z</time>
      </trkpt>
      <trkpt lat="48.58852" lon="1.94934">
        <ele>136.4</ele>
        <time>2025-12-29T11:35:28Z</time>
      </trkpt>
      <trkpt lat="48.5885" lon="1.94931">
        <ele>136.4</ele>
        <time>2025-12-29T11:35:29Z</time>
      </trkpt>
      <trkpt lat="48.58847" lon="1.94928">
        <ele>136.6</ele>
        <time>2025-12-29T11:35:30Z</time>
      </trkpt>
      <trkpt lat="48.58843" lon="1.94925">
        <ele>136.6</ele>
        <time>2025-12-29T11:35:31Z</time>
      </trkpt>
      <trkpt lat="48.5884" lon="1.94923">
        <ele>136.6</ele>
        <time>2025-12-29T11:35:32Z</time>
      </trkpt>
      <trkpt lat="48.58837" lon="1.94921">
        <ele>136.8</ele>
        <time>2025-12-29T11:35:33Z</time>
      </trkpt>
      <trkpt lat="48.58834" lon="1.94919">
        <ele>136.8</ele>
        <time>2025-12-29T11:35:34Z</time>
      </trkpt>
      <trkpt lat="48.58831" lon="1.94918">
        <ele>136.8</ele>
        <time>2025-12-29T11:35:35Z</time>
      </trkpt>
      <trkpt lat="48.58829" lon="1.94917">
        <ele>137</ele>
        <time>2025-12-29T11:35:36Z</time>
      </trkpt>
      <trkpt lat="48.58827" lon="1.94916">
        <ele>137</ele>
        <time>2025-12-29T11:35:37Z</time>
      </trkpt>
      <trkpt lat="48.58825" lon="1.94913">
        <ele>137.2</ele>
        <time>2025-12-29T11:35:39Z</time>
      </trkpt>
      <trkpt lat="48.58823" lon="1.94911">
        <ele>137.4</ele>
        <time>2025-12-29T11:35:41Z</time>
      </trkpt>
      <trkpt lat="48.58821" lon="1.94908">
        <ele>137.6</ele>
        <time>2025-12-29T11:35:43Z</time>
      </trkpt>
      <trkpt lat="48.5882" lon="1.94906">
        <ele>137.8</ele>
        <time>2025-12-29T11:35:45Z</time>
      </trkpt>
      <trkpt lat="48.5882" lon="1.94904">
        <ele>138</ele>
        <time>2025-12-29T11:35:47Z</time>
      </trkpt>
      <trkpt lat="48.58819" lon="1.94901">
        <ele>138.2</ele>
        <time>2025-12-29T11:35:49Z</time>
      </trkpt>
      <trkpt lat="48.58817" lon="1.94897">
        <ele>138.4</ele>
        <time>2025-12-29T11:35:51Z</time>
      </trkpt>
      <trkpt lat="48.58817" lon="1.94893">
        <ele>138.8</ele>
        <time>2025-12-29T11:35:53Z</time>
      </trkpt>
      <trkpt lat="48.58815" lon="1.94891">
        <ele>139.2</ele>
        <time>2025-12-29T11:35:55Z</time>
      </trkpt>
      <trkpt lat="48.58814" lon="1.94888">
        <ele>139.6</ele>
        <time>2025-12-29T11:35:57Z</time>
      </trkpt>
      <trkpt lat="48.58813" lon="1.94884">
        <ele>140</ele>
        <time>2025-12-29T11:35:59Z</time>
      </trkpt>
      <trkpt lat="48.58813" lon="1.94881">
        <ele>140.2</ele>
        <time>2025-12-29T11:36:02Z</time>
      </trkpt>
      <trkpt lat="48.58815" lon="1.94882">
        <ele>141</ele>
        <time>2025-12-29T11:36:10Z</time>
      </trkpt>
      <trkpt lat="48.58818" lon="1.94881">
        <ele>141.4</ele>
        <time>2025-12-29T11:36:13Z</time>
      </trkpt>
      <trkpt lat="48.5882" lon="1.94881">
        <ele>141.8</ele>
        <time>2025-12-29T11:36:16Z</time>
      </trkpt>
      <trkpt lat="48.58822" lon="1.94882">
        <ele>142</ele>
        <time>2025-12-29T11:36:18Z</time>
      </trkpt>
      <trkpt lat="48.58824" lon="1.94882">
        <ele>142.2</ele>
        <time>2025-12-29T11:36:20Z</time>
      </trkpt>
      <trkpt lat="48.58826" lon="1.94882">
        <ele>142.4</ele>
        <time>2025-12-29T11:36:22Z</time>
      </trkpt>
      <trkpt lat="48.58828" lon="1.94882">
        <ele>142.4</ele>
        <time>2025-12-29T11:36:24Z</time>
      </trkpt>
      <trkpt lat="48.5883" lon="1.94883">
        <ele>142.6</ele>
        <time>2025-12-29T11:36:26Z</time>
      </trkpt>
      <trkpt lat="48.58832" lon="1.94884">
        <ele>142.6</ele>
        <time>2025-12-29T11:36:28Z</time>
      </trkpt>
      <trkpt lat="48.58835" lon="1.94885">
        <ele>142.6</ele>
        <time>2025-12-29T11:36:30Z</time>
      </trkpt>
      <trkpt lat="48.58838" lon="1.94887">
        <ele>142.6</ele>
        <time>2025-12-29T11:36:32Z</time>
      </trkpt>
      <trkpt lat="48.5884" lon="1.94888">
        <ele>142.6</ele>
        <time>2025-12-29T11:36:33Z</time>
      </trkpt>
      <trkpt lat="48.58842" lon="1.94889">
        <ele>142.6</ele>
        <time>2025-12-29T11:36:34Z</time>
      </trkpt>
      <trkpt lat="48.58844" lon="1.9489">
        <ele>142.6</ele>
        <time>2025-12-29T11:36:35Z</time>
      </trkpt>
      <trkpt lat="48.58846" lon="1.94891">
        <ele>142.6</ele>
        <time>2025-12-29T11:36:36Z</time>
      </trkpt>
      <trkpt lat="48.58849" lon="1.94892">
        <ele>142.4</ele>
        <time>2025-12-29T11:36:37Z</time>
      </trkpt>
      <trkpt lat="48.58851" lon="1.94894">
        <ele>142.4</ele>
        <time>2025-12-29T11:36:38Z</time>
      </trkpt>
      <trkpt lat="48.58853" lon="1.94895">
        <ele>142.4</ele>
        <time>2025-12-29T11:36:39Z</time>
      </trkpt>
      <trkpt lat="48.58855" lon="1.94897">
        <ele>142.4</ele>
        <time>2025-12-29T11:36:40Z</time>
      </trkpt>
      <trkpt lat="48.58858" lon="1.94899">
        <ele>142.4</ele>
        <time>2025-12-29T11:36:41Z</time>
      </trkpt>
      <trkpt lat="48.5886" lon="1.94902">
        <ele>142.2</ele>
        <time>2025-12-29T11:36:42Z</time>
      </trkpt>
      <trkpt lat="48.58862" lon="1.94904">
        <ele>142.2</ele>
        <time>2025-12-29T11:36:43Z</time>
      </trkpt>
      <trkpt lat="48.58865" lon="1.94906">
        <ele>142.2</ele>
        <time>2025-12-29T11:36:44Z</time>
      </trkpt>
      <trkpt lat="48.58867" lon="1.94908">
        <ele>142.2</ele>
        <time>2025-12-29T11:36:45Z</time>
      </trkpt>
      <trkpt lat="48.5887" lon="1.94911">
        <ele>142.2</ele>
        <time>2025-12-29T11:36:46Z</time>
      </trkpt>
      <trkpt lat="48.58872" lon="1.94913">
        <ele>142</ele>
        <time>2025-12-29T11:36:47Z</time>
      </trkpt>
      <trkpt lat="48.58875" lon="1.94916">
        <ele>142</ele>
        <time>2025-12-29T11:36:48Z</time>
      </trkpt>
      <trkpt lat="48.58878" lon="1.94918">
        <ele>142</ele>
        <time>2025-12-29T11:36:49Z</time>
      </trkpt>
      <trkpt lat="48.58881" lon="1.94921">
        <ele>141.8</ele>
        <time>2025-12-29T11:36:50Z</time>
      </trkpt>
      <trkpt lat="48.58884" lon="1.94924">
        <ele>141.8</ele>
        <time>2025-12-29T11:36:51Z</time>
      </trkpt>
      <trkpt lat="48.58887" lon="1.94926">
        <ele>141.8</ele>
        <time>2025-12-29T11:36:52Z</time>
      </trkpt>
      <trkpt lat="48.58891" lon="1.94929">
        <ele>141.6</ele>
        <time>2025-12-29T11:36:53Z</time>
      </trkpt>
      <trkpt lat="48.58893" lon="1.94932">
        <ele>141.6</ele>
        <time>2025-12-29T11:36:54Z</time>
      </trkpt>
      <trkpt lat="48.58897" lon="1.94934">
        <ele>141.6</ele>
        <time>2025-12-29T11:36:55Z</time>
      </trkpt>
      <trkpt lat="48.58899" lon="1.94936">
        <ele>141.4</ele>
        <time>2025-12-29T11:36:56Z</time>
      </trkpt>
      <trkpt lat="48.58901" lon="1.94939">
        <ele>141.4</ele>
        <time>2025-12-29T11:36:57Z</time>
      </trkpt>
      <trkpt lat="48.58904" lon="1.94941">
        <ele>141.2</ele>
        <time>2025-12-29T11:36:58Z</time>
      </trkpt>
      <trkpt lat="48.58907" lon="1.94944">
        <ele>141.2</ele>
        <time>2025-12-29T11:36:59Z</time>
      </trkpt>
      <trkpt lat="48.58908" lon="1.94946">
        <ele>141</ele>
        <time>2025-12-29T11:37:00Z</time>
      </trkpt>
      <trkpt lat="48.58911" lon="1.94949">
        <ele>141</ele>
        <time>2025-12-29T11:37:01Z</time>
      </trkpt>
      <trkpt lat="48.58913" lon="1.94951">
        <ele>140.8</ele>
        <time>2025-12-29T11:37:02Z</time>
      </trkpt>
      <trkpt lat="48.58915" lon="1.94954">
        <ele>140.8</ele>
        <time>2025-12-29T11:37:03Z</time>
      </trkpt>
      <trkpt lat="48.58916" lon="1.94957">
        <ele>140.6</ele>
        <time>2025-12-29T11:37:04Z</time>
      </trkpt>
      <trkpt lat="48.58918" lon="1.9496">
        <ele>140.6</ele>
        <time>2025-12-29T11:37:05Z</time>
      </trkpt>
      <trkpt lat="48.5892" lon="1.94962">
        <ele>140.4</ele>
        <time>2025-12-29T11:37:06Z</time>
      </trkpt>
      <trkpt lat="48.58922" lon="1.94964">
        <ele>140.4</ele>
        <time>2025-12-29T11:37:07Z</time>
      </trkpt>
      <trkpt lat="48.58925" lon="1.94967">
        <ele>140.2</ele>
        <time>2025-12-29T11:37:09Z</time>
      </trkpt>
      <trkpt lat="48.58927" lon="1.94968">
        <ele>140.2</ele>
        <time>2025-12-29T11:37:10Z</time>
      </trkpt>
      <trkpt lat="48.5893" lon="1.9497">
        <ele>140.2</ele>
        <time>2025-12-29T11:37:11Z</time>
      </trkpt>
      <trkpt lat="48.58931" lon="1.94972">
        <ele>140</ele>
        <time>2025-12-29T11:37:12Z</time>
      </trkpt>
      <trkpt lat="48.58934" lon="1.94974">
        <ele>140</ele>
        <time>2025-12-29T11:37:13Z</time>
      </trkpt>
      <trkpt lat="48.58936" lon="1.94976">
        <ele>140</ele>
        <time>2025-12-29T11:37:14Z</time>
      </trkpt>
      <trkpt lat="48.58938" lon="1.94979">
        <ele>139.8</ele>
        <time>2025-12-29T11:37:15Z</time>
      </trkpt>
      <trkpt lat="48.58939" lon="1.94981">
        <ele>139.8</ele>
        <time>2025-12-29T11:37:16Z</time>
      </trkpt>
      <trkpt lat="48.5894" lon="1.94983">
        <ele>139.8</ele>
        <time>2025-12-29T11:37:17Z</time>
      </trkpt>
      <trkpt lat="48.58942" lon="1.94986">
        <ele>139.8</ele>
        <time>2025-12-29T11:37:19Z</time>
      </trkpt>
      <trkpt lat="48.58944" lon="1.94988">
        <ele>139.6</ele>
        <time>2025-12-29T11:37:20Z</time>
      </trkpt>
      <trkpt lat="48.58946" lon="1.94993">
        <ele>139.6</ele>
        <time>2025-12-29T11:37:22Z</time>
      </trkpt>
      <trkpt lat="48.58948" lon="1.94996">
        <ele>139.6</ele>
        <time>2025-12-29T11:37:23Z</time>
      </trkpt>
      <trkpt lat="48.5895" lon="1.94998">
        <ele>139.4</ele>
        <time>2025-12-29T11:37:24Z</time>
      </trkpt>
      <trkpt lat="48.58952" lon="1.95001">
        <ele>139.4</ele>
        <time>2025-12-29T11:37:25Z</time>
      </trkpt>
      <trkpt lat="48.58955" lon="1.95005">
        <ele>139.4</ele>
        <time>2025-12-29T11:37:26Z</time>
      </trkpt>
      <trkpt lat="48.58956" lon="1.95008">
        <ele>139.2</ele>
        <time>2025-12-29T11:37:27Z</time>
      </trkpt>
      <trkpt lat="48.58959" lon="1.95011">
        <ele>139.2</ele>
        <time>2025-12-29T11:37:28Z</time>
      </trkpt>
      <trkpt lat="48.58961" lon="1.95014">
        <ele>139.2</ele>
        <time>2025-12-29T11:37:29Z</time>
      </trkpt>
      <trkpt lat="48.58964" lon="1.95018">
        <ele>139.2</ele>
        <time>2025-12-29T11:37:30Z</time>
      </trkpt>
      <trkpt lat="48.58966" lon="1.95021">
        <ele>139</ele>
        <time>2025-12-29T11:37:31Z</time>
      </trkpt>
      <trkpt lat="48.58969" lon="1.95025">
        <ele>139</ele>
        <time>2025-12-29T11:37:32Z</time>
      </trkpt>
      <trkpt lat="48.58972" lon="1.95028">
        <ele>139</ele>
        <time>2025-12-29T11:37:33Z</time>
      </trkpt>
      <trkpt lat="48.58974" lon="1.95032">
        <ele>139</ele>
        <time>2025-12-29T11:37:34Z</time>
      </trkpt>
      <trkpt lat="48.58978" lon="1.95036">
        <ele>139</ele>
        <time>2025-12-29T11:37:35Z</time>
      </trkpt>
      <trkpt lat="48.5898" lon="1.95039">
        <ele>139</ele>
        <time>2025-12-29T11:37:36Z</time>
      </trkpt>
      <trkpt lat="48.58983" lon="1.95043">
        <ele>138.8</ele>
        <time>2025-12-29T11:37:37Z</time>
      </trkpt>
      <trkpt lat="48.58985" lon="1.95047">
        <ele>138.8</ele>
        <time>2025-12-29T11:37:38Z</time>
      </trkpt>
      <trkpt lat="48.58988" lon="1.9505">
        <ele>138.8</ele>
        <time>2025-12-29T11:37:39Z</time>
      </trkpt>
      <trkpt lat="48.5899" lon="1.95053">
        <ele>138.8</ele>
        <time>2025-12-29T11:37:40Z</time>
      </trkpt>
      <trkpt lat="48.58991" lon="1.95056">
        <ele>138.6</ele>
        <time>2025-12-29T11:37:41Z</time>
      </trkpt>
      <trkpt lat="48.58993" lon="1.95059">
        <ele>138.6</ele>
        <time>2025-12-29T11:37:42Z</time>
      </trkpt>
      <trkpt lat="48.58995" lon="1.95061">
        <ele>138.6</ele>
        <time>2025-12-29T11:37:43Z</time>
      </trkpt>
      <trkpt lat="48.58997" lon="1.95063">
        <ele>138.4</ele>
        <time>2025-12-29T11:37:44Z</time>
      </trkpt>
      <trkpt lat="48.58999" lon="1.95066">
        <ele>138.4</ele>
        <time>2025-12-29T11:37:45Z</time>
      </trkpt>
      <trkpt lat="48.59001" lon="1.95069">
        <ele>138.2</ele>
        <time>2025-12-29T11:37:46Z</time>
      </trkpt>
      <trkpt lat="48.59003" lon="1.95072">
        <ele>138.2</ele>
        <time>2025-12-29T11:37:47Z</time>
      </trkpt>
      <trkpt lat="48.59005" lon="1.95075">
        <ele>138</ele>
        <time>2025-12-29T11:37:48Z</time>
      </trkpt>
      <trkpt lat="48.59008" lon="1.95078">
        <ele>138</ele>
        <time>2025-12-29T11:37:49Z</time>
      </trkpt>
      <trkpt lat="48.5901" lon="1.95081">
        <ele>138</ele>
        <time>2025-12-29T11:37:50Z</time>
      </trkpt>
      <trkpt lat="48.59013" lon="1.95084">
        <ele>137.8</ele>
        <time>2025-12-29T11:37:51Z</time>
      </trkpt>
      <trkpt lat="48.59016" lon="1.95087">
        <ele>137.8</ele>
        <time>2025-12-29T11:37:52Z</time>
      </trkpt>
      <trkpt lat="48.59019" lon="1.95089">
        <ele>137.6</ele>
        <time>2025-12-29T11:37:53Z</time>
      </trkpt>
      <trkpt lat="48.59021" lon="1.95092">
        <ele>137.6</ele>
        <time>2025-12-29T11:37:54Z</time>
      </trkpt>
      <trkpt lat="48.59024" lon="1.95095">
        <ele>137.6</ele>
        <time>2025-12-29T11:37:55Z</time>
      </trkpt>
      <trkpt lat="48.59028" lon="1.95097">
        <ele>137.4</ele>
        <time>2025-12-29T11:37:56Z</time>
      </trkpt>
      <trkpt lat="48.5903" lon="1.951">
        <ele>137.2</ele>
        <time>2025-12-29T11:37:57Z</time>
      </trkpt>
      <trkpt lat="48.59034" lon="1.95103">
        <ele>137.2</ele>
        <time>2025-12-29T11:37:58Z</time>
      </trkpt>
      <trkpt lat="48.59036" lon="1.95105">
        <ele>137</ele>
        <time>2025-12-29T11:37:59Z</time>
      </trkpt>
      <trkpt lat="48.59038" lon="1.95108">
        <ele>136.8</ele>
        <time>2025-12-29T11:38:00Z</time>
      </trkpt>
      <trkpt lat="48.59042" lon="1.95114">
        <ele>136.6</ele>
        <time>2025-12-29T11:38:02Z</time>
      </trkpt>
      <trkpt lat="48.59044" lon="1.95116">
        <ele>136.6</ele>
        <time>2025-12-29T11:38:03Z</time>
      </trkpt>
      <trkpt lat="48.59045" lon="1.95118">
        <ele>136.4</ele>
        <time>2025-12-29T11:38:05Z</time>
      </trkpt>
      <trkpt lat="48.59047" lon="1.95117">
        <ele>136.2</ele>
        <time>2025-12-29T11:38:09Z</time>
      </trkpt>
      <trkpt lat="48.59049" lon="1.95116">
        <ele>136.2</ele>
        <time>2025-12-29T11:38:11Z</time>
      </trkpt>
      <trkpt lat="48.59051" lon="1.95114">
        <ele>136.2</ele>
        <time>2025-12-29T11:38:13Z</time>
      </trkpt>
      <trkpt lat="48.59053" lon="1.95111">
        <ele>136.2</ele>
        <time>2025-12-29T11:38:15Z</time>
      </trkpt>
      <trkpt lat="48.59056" lon="1.95108">
        <ele>136.2</ele>
        <time>2025-12-29T11:38:17Z</time>
      </trkpt>
      <trkpt lat="48.59058" lon="1.95106">
        <ele>136</ele>
        <time>2025-12-29T11:38:19Z</time>
      </trkpt>
      <trkpt lat="48.59059" lon="1.95103">
        <ele>136</ele>
        <time>2025-12-29T11:38:21Z</time>
      </trkpt>
      <trkpt lat="48.59061" lon="1.95102">
        <ele>135.8</ele>
        <time>2025-12-29T11:38:23Z</time>
      </trkpt>
      <trkpt lat="48.59062" lon="1.951">
        <ele>135.6</ele>
        <time>2025-12-29T11:38:30Z</time>
      </trkpt>
      <trkpt lat="48.59064" lon="1.95098">
        <ele>135.6</ele>
        <time>2025-12-29T11:38:32Z</time>
      </trkpt>
      <trkpt lat="48.59066" lon="1.95096">
        <ele>135.4</ele>
        <time>2025-12-29T11:38:34Z</time>
      </trkpt>
      <trkpt lat="48.59068" lon="1.95093">
        <ele>135.2</ele>
        <time>2025-12-29T11:38:36Z</time>
      </trkpt>
      <trkpt lat="48.5907" lon="1.95091">
        <ele>135.2</ele>
        <time>2025-12-29T11:38:37Z</time>
      </trkpt>
      <trkpt lat="48.59073" lon="1.95088">
        <ele>135</ele>
        <time>2025-12-29T11:38:39Z</time>
      </trkpt>
      <trkpt lat="48.59075" lon="1.95084">
        <ele>135</ele>
        <time>2025-12-29T11:38:41Z</time>
      </trkpt>
      <trkpt lat="48.59078" lon="1.9508">
        <ele>135</ele>
        <time>2025-12-29T11:38:43Z</time>
      </trkpt>
      <trkpt lat="48.59079" lon="1.95078">
        <ele>134.8</ele>
        <time>2025-12-29T11:38:44Z</time>
      </trkpt>
      <trkpt lat="48.59081" lon="1.95076">
        <ele>134.8</ele>
        <time>2025-12-29T11:38:45Z</time>
      </trkpt>
      <trkpt lat="48.59082" lon="1.95074">
        <ele>134.8</ele>
        <time>2025-12-29T11:38:46Z</time>
      </trkpt>
      <trkpt lat="48.59084" lon="1.95072">
        <ele>134.8</ele>
        <time>2025-12-29T11:38:47Z</time>
      </trkpt>
      <trkpt lat="48.59085" lon="1.9507">
        <ele>134.8</ele>
        <time>2025-12-29T11:38:48Z</time>
      </trkpt>
      <trkpt lat="48.59087" lon="1.95068">
        <ele>134.8</ele>
        <time>2025-12-29T11:38:49Z</time>
      </trkpt>
      <trkpt lat="48.59089" lon="1.95065">
        <ele>134.6</ele>
        <time>2025-12-29T11:38:51Z</time>
      </trkpt>
      <trkpt lat="48.59091" lon="1.95062">
        <ele>134.6</ele>
        <time>2025-12-29T11:38:53Z</time>
      </trkpt>
      <trkpt lat="48.59092" lon="1.9506">
        <ele>134.6</ele>
        <time>2025-12-29T11:38:57Z</time>
      </trkpt>
      <trkpt lat="48.59093" lon="1.95057">
        <ele>134.4</ele>
        <time>2025-12-29T11:39:00Z</time>
      </trkpt>
      <trkpt lat="48.59095" lon="1.95054">
        <ele>134.4</ele>
        <time>2025-12-29T11:39:02Z</time>
      </trkpt>
      <trkpt lat="48.59097" lon="1.95052">
        <ele>134.2</ele>
        <time>2025-12-29T11:39:05Z</time>
      </trkpt>
      <trkpt lat="48.59099" lon="1.9505">
        <ele>134.2</ele>
        <time>2025-12-29T11:39:08Z</time>
      </trkpt>
      <trkpt lat="48.59102" lon="1.95047">
        <ele>134.2</ele>
        <time>2025-12-29T11:39:10Z</time>
      </trkpt>
      <trkpt lat="48.59105" lon="1.95044">
        <ele>134.2</ele>
        <time>2025-12-29T11:39:12Z</time>
      </trkpt>
      <trkpt lat="48.59107" lon="1.95042">
        <ele>134.2</ele>
        <time>2025-12-29T11:39:14Z</time>
      </trkpt>
      <trkpt lat="48.59109" lon="1.95039">
        <ele>134.2</ele>
        <time>2025-12-29T11:39:16Z</time>
      </trkpt>
      <trkpt lat="48.59111" lon="1.95037">
        <ele>134.4</ele>
        <time>2025-12-29T11:39:18Z</time>
      </trkpt>
      <trkpt lat="48.59113" lon="1.95034">
        <ele>134.4</ele>
        <time>2025-12-29T11:39:20Z</time>
      </trkpt>
      <trkpt lat="48.59115" lon="1.95032">
        <ele>134.2</ele>
        <time>2025-12-29T11:39:22Z</time>
      </trkpt>
      <trkpt lat="48.59116" lon="1.9503">
        <ele>134.2</ele>
        <time>2025-12-29T11:39:24Z</time>
      </trkpt>
      <trkpt lat="48.59118" lon="1.95026">
        <ele>134</ele>
        <time>2025-12-29T11:39:26Z</time>
      </trkpt>
      <trkpt lat="48.5912" lon="1.95022">
        <ele>134</ele>
        <time>2025-12-29T11:39:28Z</time>
      </trkpt>
      <trkpt lat="48.59121" lon="1.9502">
        <ele>133.8</ele>
        <time>2025-12-29T11:39:30Z</time>
      </trkpt>
      <trkpt lat="48.59122" lon="1.95017">
        <ele>133.8</ele>
        <time>2025-12-29T11:39:33Z</time>
      </trkpt>
      <trkpt lat="48.59123" lon="1.95014">
        <ele>133.6</ele>
        <time>2025-12-29T11:39:35Z</time>
      </trkpt>
      <trkpt lat="48.59125" lon="1.95012">
        <ele>133.6</ele>
        <time>2025-12-29T11:39:37Z</time>
      </trkpt>
      <trkpt lat="48.59127" lon="1.95009">
        <ele>133.6</ele>
        <time>2025-12-29T11:39:39Z</time>
      </trkpt>
      <trkpt lat="48.59129" lon="1.95006">
        <ele>133.6</ele>
        <time>2025-12-29T11:39:41Z</time>
      </trkpt>
      <trkpt lat="48.59131" lon="1.95004">
        <ele>133.6</ele>
        <time>2025-12-29T11:39:42Z</time>
      </trkpt>
      <trkpt lat="48.59132" lon="1.95002">
        <ele>133.6</ele>
        <time>2025-12-29T11:39:43Z</time>
      </trkpt>
      <trkpt lat="48.59134" lon="1.95">
        <ele>133.6</ele>
        <time>2025-12-29T11:39:44Z</time>
      </trkpt>
      <trkpt lat="48.59136" lon="1.94996">
        <ele>133.6</ele>
        <time>2025-12-29T11:39:46Z</time>
      </trkpt>
      <trkpt lat="48.59139" lon="1.94992">
        <ele>133.6</ele>
        <time>2025-12-29T11:39:48Z</time>
      </trkpt>
      <trkpt lat="48.5914" lon="1.9499">
        <ele>133.6</ele>
        <time>2025-12-29T11:39:49Z</time>
      </trkpt>
      <trkpt lat="48.59142" lon="1.94988">
        <ele>133.6</ele>
        <time>2025-12-29T11:39:50Z</time>
      </trkpt>
      <trkpt lat="48.59143" lon="1.94986">
        <ele>133.6</ele>
        <time>2025-12-29T11:39:51Z</time>
      </trkpt>
      <trkpt lat="48.59145" lon="1.94984">
        <ele>133.6</ele>
        <time>2025-12-29T11:39:52Z</time>
      </trkpt>
      <trkpt lat="48.59147" lon="1.94982">
        <ele>133.6</ele>
        <time>2025-12-29T11:39:53Z</time>
      </trkpt>
      <trkpt lat="48.59148" lon="1.9498">
        <ele>133.6</ele>
        <time>2025-12-29T11:39:54Z</time>
      </trkpt>
      <trkpt lat="48.5915" lon="1.94978">
        <ele>133.6</ele>
        <time>2025-12-29T11:39:55Z</time>
      </trkpt>
      <trkpt lat="48.59151" lon="1.94976">
        <ele>133.8</ele>
        <time>2025-12-29T11:39:56Z</time>
      </trkpt>
      <trkpt lat="48.59153" lon="1.94974">
        <ele>133.8</ele>
        <time>2025-12-29T11:39:57Z</time>
      </trkpt>
      <trkpt lat="48.59155" lon="1.94972">
        <ele>133.8</ele>
        <time>2025-12-29T11:39:58Z</time>
      </trkpt>
      <trkpt lat="48.59156" lon="1.94971">
        <ele>133.8</ele>
        <time>2025-12-29T11:39:59Z</time>
      </trkpt>
      <trkpt lat="48.59159" lon="1.94969">
        <ele>133.8</ele>
        <time>2025-12-29T11:40:01Z</time>
        <extensions>
          <gpxtpx:TrackPointExtension xmlns:gpxtpx="http://www.garmin.com/xmlschemas/TrackPointExtension/v1">
            <gpxtpx:hr>100</gpxtpx:hr>
          </gpxtpx:TrackPointExtension>
        </extensions>
      </trkpt>
      <trkpt lat="48.59161" lon="1.94968">
        <ele>133.8</ele>
        <time>2025-12-29T11:40:03Z</time>
        <extensions>
          <gpxtpx:TrackPointExtension xmlns:gpxtpx="http://www.garmin.com/xmlschemas/TrackPointExtension/v1">
            <gpxtpx:hr>100</gpxtpx:hr>
          </gpxtpx:TrackPointExtension>
        </extensions>
      </trkpt>
      <trkpt lat="48.59164" lon="1.94966">
        <ele>133.8</ele>
        <time>2025-12-29T11:40:06Z</time>
        <extensions>
          <gpxtpx:TrackPointExtension xmlns:gpxtpx="http://www.garmin.com/xmlschemas/TrackPointExtension/v1">
            <gpxtpx:hr>100</gpxtpx:hr>
          </gpxtpx:TrackPointExtension>
        </extensions>
      </trkpt>
      <trkpt lat="48.59165" lon="1.94964">
        <ele>133.8</ele>
        <time>2025-12-29T11:40:08Z</time>
        <extensions>
          <gpxtpx:TrackPointExtension xmlns:gpxtpx="http://www.garmin.com/xmlschemas/TrackPointExtension/v1">
            <gpxtpx:hr>100</gpxtpx:hr>
          </gpxtpx:TrackPointExtension>
        </extensions>
      </trkpt>
      <trkpt lat="48.59167" lon="1.94962">
        <ele>133.6</ele>
        <time>2025-12-29T11:40:11Z</time>
        <extensions>
          <gpxtpx:TrackPointExtension xmlns:gpxtpx="http://www.garmin.com/xmlschemas/TrackPointExtension/v1">
            <gpxtpx:hr>100</gpxtpx:hr>
          </gpxtpx:TrackPointExtension>
        </extensions>
      </trkpt>
      <trkpt lat="48.59167" lon="1.94959">
        <ele>133.6</ele>
        <time>2025-12-29T11:40:15Z</time>
        <extensions>
          <gpxtpx:TrackPointExtension xmlns:gpxtpx="http://www.garmin.com/xmlschemas/TrackPointExtension/v1">
            <gpxtpx:hr>100</gpxtpx:hr>
          </gpxtpx:TrackPointExtension>
        </extensions>
      </trkpt>
      <trkpt lat="48.59169" lon="1.94955">
        <ele>133.4</ele>
        <time>2025-12-29T11:40:18Z</time>
        <extensions>
          <gpxtpx:TrackPointExtension xmlns:gpxtpx="http://www.garmin.com/xmlschemas/TrackPointExtension/v1">
            <gpxtpx:hr>100</gpxtpx:hr>
          </gpxtpx:TrackPointExtension>
        </extensions>
      </trkpt>
      <trkpt lat="48.59171" lon="1.94952">
        <ele>133.2</ele>
        <time>2025-12-29T11:40:20Z</time>
        <extensions>
          <gpxtpx:TrackPointExtension xmlns:gpxtpx="http://www.garmin.com/xmlschemas/TrackPointExtension/v1">
            <gpxtpx:hr>100</gpxtpx:hr>
          </gpxtpx:TrackPointExtension>
        </extensions>
      </trkpt>
      <trkpt lat="48.59173" lon="1.94948">
        <ele>133.2</ele>
        <time>2025-12-29T11:40:22Z</time>
        <extensions>
          <gpxtpx:TrackPointExtension xmlns:gpxtpx="http://www.garmin.com/xmlschemas/TrackPointExtension/v1">
            <gpxtpx:hr>100</gpxtpx:hr>
          </gpxtpx:TrackPointExtension>
        </extensions>
      </trkpt>
      <trkpt lat="48.59176" lon="1.94946">
        <ele>133</ele>
        <time>2025-12-29T11:40:24Z</time>
        <extensions>
          <gpxtpx:TrackPointExtension xmlns:gpxtpx="http://www.garmin.com/xmlschemas/TrackPointExtension/v1">
            <gpxtpx:hr>100</gpxtpx:hr>
          </gpxtpx:TrackPointExtension>
        </extensions>
      </trkpt>
      <trkpt lat="48.59179" lon="1.94943">
        <ele>133</ele>
        <time>2025-12-29T11:40:26Z</time>
        <extensions>
          <gpxtpx:TrackPointExtension xmlns:gpxtpx="http://www.garmin.com/xmlschemas/TrackPointExtension/v1">
            <gpxtpx:hr>101</gpxtpx:hr>
          </gpxtpx:TrackPointExtension>
        </extensions>
      </trkpt>
      <trkpt lat="48.5918" lon="1.94941">
        <ele>133</ele>
        <time>2025-12-29T11:40:27Z</time>
        <extensions>
          <gpxtpx:TrackPointExtension xmlns:gpxtpx="http://www.garmin.com/xmlschemas/TrackPointExtension/v1">
            <gpxtpx:hr>102</gpxtpx:hr>
          </gpxtpx:TrackPointExtension>
        </extensions>
      </trkpt>
      <trkpt lat="48.59181" lon="1.94939">
        <ele>133</ele>
        <time>2025-12-29T11:40:28Z</time>
        <extensions>
          <gpxtpx:TrackPointExtension xmlns:gpxtpx="http://www.garmin.com/xmlschemas/TrackPointExtension/v1">
            <gpxtpx:hr>103</gpxtpx:hr>
          </gpxtpx:TrackPointExtension>
        </extensions>
      </trkpt>
      <trkpt lat="48.59183" lon="1.94937">
        <ele>133</ele>
        <time>2025-12-29T11:40:29Z</time>
        <extensions>
          <gpxtpx:TrackPointExtension xmlns:gpxtpx="http://www.garmin.com/xmlschemas/TrackPointExtension/v1">
            <gpxtpx:hr>104</gpxtpx:hr>
          </gpxtpx:TrackPointExtension>
        </extensions>
      </trkpt>
      <trkpt lat="48.59185" lon="1.94934">
        <ele>133</ele>
        <time>2025-12-29T11:40:30Z</time>
        <extensions>
          <gpxtpx:TrackPointExtension xmlns:gpxtpx="http://www.garmin.com/xmlschemas/TrackPointExtension/v1">
            <gpxtpx:hr>105</gpxtpx:hr>
          </gpxtpx:TrackPointExtension>
        </extensions>
      </trkpt>
      <trkpt lat="48.59186" lon="1.94932">
        <ele>133</ele>
        <time>2025-12-29T11:40:31Z</time>
        <extensions>
          <gpxtpx:TrackPointExtension xmlns:gpxtpx="http://www.garmin.com/xmlschemas/TrackPointExtension/v1">
            <gpxtpx:hr>106</gpxtpx:hr>
          </gpxtpx:TrackPointExtension>
        </extensions>
      </trkpt>
      <trkpt lat="48.59188" lon="1.9493">
        <ele>132.8</ele>
        <time>2025-12-29T11:40:32Z</time>
        <extensions>
          <gpxtpx:TrackPointExtension xmlns:gpxtpx="http://www.garmin.com/xmlschemas/TrackPointExtension/v1">
            <gpxtpx:hr>106</gpxtpx:hr>
          </gpxtpx:TrackPointExtension>
        </extensions>
      </trkpt>
      <trkpt lat="48.5919" lon="1.94926">
        <ele>132.8</ele>
        <time>2025-12-29T11:40:34Z</time>
        <extensions>
          <gpxtpx:TrackPointExtension xmlns:gpxtpx="http://www.garmin.com/xmlschemas/TrackPointExtension/v1">
            <gpxtpx:hr>106</gpxtpx:hr>
          </gpxtpx:TrackPointExtension>
        </extensions>
      </trkpt>
      <trkpt lat="48.59192" lon="1.94923">
        <ele>132.6</ele>
        <time>2025-12-29T11:40:36Z</time>
        <extensions>
          <gpxtpx:TrackPointExtension xmlns:gpxtpx="http://www.garmin.com/xmlschemas/TrackPointExtension/v1">
            <gpxtpx:hr>106</gpxtpx:hr>
          </gpxtpx:TrackPointExtension>
        </extensions>
      </trkpt>
      <trkpt lat="48.59193" lon="1.94921">
        <ele>132.6</ele>
        <time>2025-12-29T11:40:38Z</time>
        <extensions>
          <gpxtpx:TrackPointExtension xmlns:gpxtpx="http://www.garmin.com/xmlschemas/TrackPointExtension/v1">
            <gpxtpx:hr>106</gpxtpx:hr>
          </gpxtpx:TrackPointExtension>
        </extensions>
      </trkpt>
      <trkpt lat="48.59195" lon="1.94919">
        <ele>132.6</ele>
        <time>2025-12-29T11:40:40Z</time>
        <extensions>
          <gpxtpx:TrackPointExtension xmlns:gpxtpx="http://www.garmin.com/xmlschemas/TrackPointExtension/v1">
            <gpxtpx:hr>107</gpxtpx:hr>
          </gpxtpx:TrackPointExtension>
        </extensions>
      </trkpt>
      <trkpt lat="48.59196" lon="1.94917">
        <ele>132.6</ele>
        <time>2025-12-29T11:40:42Z</time>
        <extensions>
          <gpxtpx:TrackPointExtension xmlns:gpxtpx="http://www.garmin.com/xmlschemas/TrackPointExtension/v1">
            <gpxtpx:hr>107</gpxtpx:hr>
          </gpxtpx:TrackPointExtension>
        </extensions>
      </trkpt>
      <trkpt lat="48.59198" lon="1.94915">
        <ele>132.6</ele>
        <time>2025-12-29T11:40:44Z</time>
        <extensions>
          <gpxtpx:TrackPointExtension xmlns:gpxtpx="http://www.garmin.com/xmlschemas/TrackPointExtension/v1">
            <gpxtpx:hr>107</gpxtpx:hr>
          </gpxtpx:TrackPointExtension>
        </extensions>
      </trkpt>
      <trkpt lat="48.592" lon="1.94913">
        <ele>132.6</ele>
        <time>2025-12-29T11:40:46Z</time>
        <extensions>
          <gpxtpx:TrackPointExtension xmlns:gpxtpx="http://www.garmin.com/xmlschemas/TrackPointExtension/v1">
            <gpxtpx:hr>107</gpxtpx:hr>
          </gpxtpx:TrackPointExtension>
        </extensions>
      </trkpt>
      <trkpt lat="48.59202" lon="1.94911">
        <ele>132.6</ele>
        <time>2025-12-29T11:40:49Z</time>
        <extensions>
          <gpxtpx:TrackPointExtension xmlns:gpxtpx="http://www.garmin.com/xmlschemas/TrackPointExtension/v1">
            <gpxtpx:hr>106</gpxtpx:hr>
          </gpxtpx:TrackPointExtension>
        </extensions>
      </trkpt>
      <trkpt lat="48.59204" lon="1.94907">
        <ele>132.4</ele>
        <time>2025-12-29T11:40:51Z</time>
        <extensions>
          <gpxtpx:TrackPointExtension xmlns:gpxtpx="http://www.garmin.com/xmlschemas/TrackPointExtension/v1">
            <gpxtpx:hr>106</gpxtpx:hr>
          </gpxtpx:TrackPointExtension>
        </extensions>
      </trkpt>
      <trkpt lat="48.59206" lon="1.94903">
        <ele>132.4</ele>
        <time>2025-12-29T11:40:53Z</time>
        <extensions>
          <gpxtpx:TrackPointExtension xmlns:gpxtpx="http://www.garmin.com/xmlschemas/TrackPointExtension/v1">
            <gpxtpx:hr>106</gpxtpx:hr>
          </gpxtpx:TrackPointExtension>
        </extensions>
      </trkpt>
      <trkpt lat="48.59208" lon="1.94901">
        <ele>132.4</ele>
        <time>2025-12-29T11:40:54Z</time>
        <extensions>
          <gpxtpx:TrackPointExtension xmlns:gpxtpx="http://www.garmin.com/xmlschemas/TrackPointExtension/v1">
            <gpxtpx:hr>106</gpxtpx:hr>
          </gpxtpx:TrackPointExtension>
        </extensions>
      </trkpt>
      <trkpt lat="48.5921" lon="1.94898">
        <ele>132.4</ele>
        <time>2025-12-29T11:40:55Z</time>
        <extensions>
          <gpxtpx:TrackPointExtension xmlns:gpxtpx="http://www.garmin.com/xmlschemas/TrackPointExtension/v1">
            <gpxtpx:hr>107</gpxtpx:hr>
          </gpxtpx:TrackPointExtension>
        </extensions>
      </trkpt>
      <trkpt lat="48.59211" lon="1.94896">
        <ele>132.4</ele>
        <time>2025-12-29T11:40:56Z</time>
        <extensions>
          <gpxtpx:TrackPointExtension xmlns:gpxtpx="http://www.garmin.com/xmlschemas/TrackPointExtension/v1">
            <gpxtpx:hr>107</gpxtpx:hr>
          </gpxtpx:TrackPointExtension>
        </extensions>
      </trkpt>
      <trkpt lat="48.59213" lon="1.94894">
        <ele>132.4</ele>
        <time>2025-12-29T11:40:57Z</time>
        <extensions>
          <gpxtpx:TrackPointExtension xmlns:gpxtpx="http://www.garmin.com/xmlschemas/TrackPointExtension/v1">
            <gpxtpx:hr>107</gpxtpx:hr>
          </gpxtpx:TrackPointExtension>
        </extensions>
      </trkpt>
      <trkpt lat="48.59214" lon="1.94891">
        <ele>132.4</ele>
        <time>2025-12-29T11:40:58Z</time>
        <extensions>
          <gpxtpx:TrackPointExtension xmlns:gpxtpx="http://www.garmin.com/xmlschemas/TrackPointExtension/v1">
            <gpxtpx:hr>107</gpxtpx:hr>
          </gpxtpx:TrackPointExtension>
        </extensions>
      </trkpt>
      <trkpt lat="48.59216" lon="1.94888">
        <ele>132.4</ele>
        <time>2025-12-29T11:41:00Z</time>
        <extensions>
          <gpxtpx:TrackPointExtension xmlns:gpxtpx="http://www.garmin.com/xmlschemas/TrackPointExtension/v1">
            <gpxtpx:hr>107</gpxtpx:hr>
          </gpxtpx:TrackPointExtension>
        </extensions>
      </trkpt>
      <trkpt lat="48.59218" lon="1.94886">
        <ele>132.4</ele>
        <time>2025-12-29T11:41:02Z</time>
        <extensions>
          <gpxtpx:TrackPointExtension xmlns:gpxtpx="http://www.garmin.com/xmlschemas/TrackPointExtension/v1">
            <gpxtpx:hr>107</gpxtpx:hr>
          </gpxtpx:TrackPointExtension>
        </extensions>
      </trkpt>
      <trkpt lat="48.5922" lon="1.94883">
        <ele>132.6</ele>
        <time>2025-12-29T11:41:04Z</time>
        <extensions>
          <gpxtpx:TrackPointExtension xmlns:gpxtpx="http://www.garmin.com/xmlschemas/TrackPointExtension/v1">
            <gpxtpx:hr>107</gpxtpx:hr>
          </gpxtpx:TrackPointExtension>
        </extensions>
      </trkpt>
      <trkpt lat="48.59222" lon="1.94881">
        <ele>132.6</ele>
        <time>2025-12-29T11:41:06Z</time>
        <extensions>
          <gpxtpx:TrackPointExtension xmlns:gpxtpx="http://www.garmin.com/xmlschemas/TrackPointExtension/v1">
            <gpxtpx:hr>107</gpxtpx:hr>
          </gpxtpx:TrackPointExtension>
        </extensions>
      </trkpt>
      <trkpt lat="48.59224" lon="1.9488">
        <ele>132.6</ele>
        <time>2025-12-29T11:41:08Z</time>
        <extensions>
          <gpxtpx:TrackPointExtension xmlns:gpxtpx="http://www.garmin.com/xmlschemas/TrackPointExtension/v1">
            <gpxtpx:hr>107</gpxtpx:hr>
          </gpxtpx:TrackPointExtension>
        </extensions>
      </trkpt>
      <trkpt lat="48.59226" lon="1.94878">
        <ele>132.8</ele>
        <time>2025-12-29T11:41:10Z</time>
        <extensions>
          <gpxtpx:TrackPointExtension xmlns:gpxtpx="http://www.garmin.com/xmlschemas/TrackPointExtension/v1">
            <gpxtpx:hr>107</gpxtpx:hr>
          </gpxtpx:TrackPointExtension>
        </extensions>
      </trkpt>
      <trkpt lat="48.59228" lon="1.94876">
        <ele>133</ele>
        <time>2025-12-29T11:41:12Z</time>
        <extensions>
          <gpxtpx:TrackPointExtension xmlns:gpxtpx="http://www.garmin.com/xmlschemas/TrackPointExtension/v1">
            <gpxtpx:hr>107</gpxtpx:hr>
          </gpxtpx:TrackPointExtension>
        </extensions>
      </trkpt>
      <trkpt lat="48.5923" lon="1.94873">
        <ele>133.2</ele>
        <time>2025-12-29T11:41:14Z</time>
        <extensions>
          <gpxtpx:TrackPointExtension xmlns:gpxtpx="http://www.garmin.com/xmlschemas/TrackPointExtension/v1">
            <gpxtpx:hr>107</gpxtpx:hr>
          </gpxtpx:TrackPointExtension>
        </extensions>
      </trkpt>
      <trkpt lat="48.59232" lon="1.9487">
        <ele>133.4</ele>
        <time>2025-12-29T11:41:16Z</time>
        <extensions>
          <gpxtpx:TrackPointExtension xmlns:gpxtpx="http://www.garmin.com/xmlschemas/TrackPointExtension/v1">
            <gpxtpx:hr>107</gpxtpx:hr>
          </gpxtpx:TrackPointExtension>
        </extensions>
      </trkpt>
      <trkpt lat="48.59234" lon="1.94867">
        <ele>133.6</ele>
        <time>2025-12-29T11:41:18Z</time>
      </trkpt>
      <trkpt lat="48.59235" lon="1.94864">
        <ele>133.6</ele>
        <time>2025-12-29T11:41:20Z</time>
      </trkpt>
      <trkpt lat="48.59236" lon="1.94861">
        <ele>133.6</ele>
        <time>2025-12-29T11:41:22Z</time>
      </trkpt>
      <trkpt lat="48.59239" lon="1.94857">
        <ele>133.8</ele>
        <time>2025-12-29T11:41:24Z</time>
      </trkpt>
      <trkpt lat="48.5924" lon="1.94855">
        <ele>133.8</ele>
        <time>2025-12-29T11:41:25Z</time>
      </trkpt>
      <trkpt lat="48.59243" lon="1.94851">
        <ele>133.8</ele>
        <time>2025-12-29T11:41:27Z</time>
      </trkpt>
      <trkpt lat="48.59245" lon="1.94848">
        <ele>133.8</ele>
        <time>2025-12-29T11:41:29Z</time>
      </trkpt>
      <trkpt lat="48.59247" lon="1.94845">
        <ele>133.8</ele>
        <time>2025-12-29T11:41:31Z</time>
      </trkpt>
      <trkpt lat="48.59248" lon="1.94844">
        <ele>133.8</ele>
        <time>2025-12-29T11:41:33Z</time>
      </trkpt>
      <trkpt lat="48.5925" lon="1.94842">
        <ele>133.8</ele>
        <time>2025-12-29T11:41:37Z</time>
      </trkpt>
      <trkpt lat="48.59252" lon="1.9484">
        <ele>133.6</ele>
        <time>2025-12-29T11:41:39Z</time>
      </trkpt>
      <trkpt lat="48.59255" lon="1.94836">
        <ele>133.6</ele>
        <time>2025-12-29T11:41:41Z</time>
      </trkpt>
      <trkpt lat="48.59257" lon="1.94834">
        <ele>133.4</ele>
        <time>2025-12-29T11:41:42Z</time>
      </trkpt>
      <trkpt lat="48.59258" lon="1.94832">
        <ele>133.4</ele>
        <time>2025-12-29T11:41:43Z</time>
      </trkpt>
      <trkpt lat="48.5926" lon="1.94831">
        <ele>133.4</ele>
        <time>2025-12-29T11:41:44Z</time>
      </trkpt>
      <trkpt lat="48.59262" lon="1.94828">
        <ele>133.4</ele>
        <time>2025-12-29T11:41:46Z</time>
      </trkpt>
      <trkpt lat="48.59264" lon="1.94825">
        <ele>133.2</ele>
        <time>2025-12-29T11:41:48Z</time>
      </trkpt>
      <trkpt lat="48.59265" lon="1.94823">
        <ele>133.2</ele>
        <time>2025-12-29T11:41:50Z</time>
      </trkpt>
      <trkpt lat="48.59268" lon="1.9482">
        <ele>133.2</ele>
        <time>2025-12-29T11:41:52Z</time>
      </trkpt>
      <trkpt lat="48.59269" lon="1.94818">
        <ele>133.2</ele>
        <time>2025-12-29T11:41:54Z</time>
      </trkpt>
      <trkpt lat="48.59271" lon="1.94816">
        <ele>133.2</ele>
        <time>2025-12-29T11:41:56Z</time>
      </trkpt>
      <trkpt lat="48.59274" lon="1.94814">
        <ele>133.2</ele>
        <time>2025-12-29T11:41:58Z</time>
      </trkpt>
      <trkpt lat="48.59276" lon="1.94812">
        <ele>133.2</ele>
        <time>2025-12-29T11:42:00Z</time>
      </trkpt>
      <trkpt lat="48.59278" lon="1.94811">
        <ele>133.2</ele>
        <time>2025-12-29T11:42:01Z</time>
      </trkpt>
      <trkpt lat="48.5928" lon="1.9481">
        <ele>133.2</ele>
        <time>2025-12-29T11:42:02Z</time>
      </trkpt>
      <trkpt lat="48.59282" lon="1.94808">
        <ele>133.2</ele>
        <time>2025-12-29T11:42:03Z</time>
      </trkpt>
      <trkpt lat="48.59284" lon="1.94807">
        <ele>133.2</ele>
        <time>2025-12-29T11:42:04Z</time>
      </trkpt>
      <trkpt lat="48.59285" lon="1.94805">
        <ele>133.2</ele>
        <time>2025-12-29T11:42:05Z</time>
      </trkpt>
      <trkpt lat="48.59287" lon="1.94803">
        <ele>133.4</ele>
        <time>2025-12-29T11:42:07Z</time>
      </trkpt>
      <trkpt lat="48.5929" lon="1.94801">
        <ele>133.4</ele>
        <time>2025-12-29T11:42:09Z</time>
      </trkpt>
      <trkpt lat="48.59292" lon="1.94801">
        <ele>133.4</ele>
        <time>2025-12-29T11:42:12Z</time>
      </trkpt>
      <trkpt lat="48.59293" lon="1.948">
        <ele>133.6</ele>
        <time>2025-12-29T11:42:17Z</time>
      </trkpt>
      <trkpt lat="48.59295" lon="1.94798">
        <ele>133.6</ele>
        <time>2025-12-29T11:42:20Z</time>
      </trkpt>
      <trkpt lat="48.59296" lon="1.94796">
        <ele>133.8</ele>
        <time>2025-12-29T11:42:24Z</time>
      </trkpt>
      <trkpt lat="48.59298" lon="1.94797">
        <ele>133.8</ele>
        <time>2025-12-29T11:42:27Z</time>
        <extensions>
          <gpxtpx:TrackPointExtension xmlns:gpxtpx="http://www.garmin.com/xmlschemas/TrackPointExtension/v1">
            <gpxtpx:hr>104</gpxtpx:hr>
          </gpxtpx:TrackPointExtension>
        </extensions>
      </trkpt>
      <trkpt lat="48.593" lon="1.948">
        <ele>133.6</ele>
        <time>2025-12-29T11:42:29Z</time>
        <extensions>
          <gpxtpx:TrackPointExtension xmlns:gpxtpx="http://www.garmin.com/xmlschemas/TrackPointExtension/v1">
            <gpxtpx:hr>104</gpxtpx:hr>
          </gpxtpx:TrackPointExtension>
        </extensions>
      </trkpt>
      <trkpt lat="48.59301" lon="1.94804">
        <ele>133.6</ele>
        <time>2025-12-29T11:42:31Z</time>
        <extensions>
          <gpxtpx:TrackPointExtension xmlns:gpxtpx="http://www.garmin.com/xmlschemas/TrackPointExtension/v1">
            <gpxtpx:hr>104</gpxtpx:hr>
          </gpxtpx:TrackPointExtension>
        </extensions>
      </trkpt>
      <trkpt lat="48.59303" lon="1.94803">
        <ele>133.4</ele>
        <time>2025-12-29T11:42:39Z</time>
        <extensions>
          <gpxtpx:TrackPointExtension xmlns:gpxtpx="http://www.garmin.com/xmlschemas/TrackPointExtension/v1">
            <gpxtpx:hr>93</gpxtpx:hr>
          </gpxtpx:TrackPointExtension>
        </extensions>
      </trkpt>
      <trkpt lat="48.59305" lon="1.94802">
        <ele>133.6</ele>
        <time>2025-12-29T11:42:41Z</time>
        <extensions>
          <gpxtpx:TrackPointExtension xmlns:gpxtpx="http://www.garmin.com/xmlschemas/TrackPointExtension/v1">
            <gpxtpx:hr>92</gpxtpx:hr>
          </gpxtpx:TrackPointExtension>
        </extensions>
      </trkpt>
      <trkpt lat="48.59308" lon="1.94801">
        <ele>133.6</ele>
        <time>2025-12-29T11:42:43Z</time>
        <extensions>
          <gpxtpx:TrackPointExtension xmlns:gpxtpx="http://www.garmin.com/xmlschemas/TrackPointExtension/v1">
            <gpxtpx:hr>91</gpxtpx:hr>
          </gpxtpx:TrackPointExtension>
        </extensions>
      </trkpt>
      <trkpt lat="48.59309" lon="1.94801">
        <ele>133.6</ele>
        <time>2025-12-29T11:42:45Z</time>
        <extensions>
          <gpxtpx:TrackPointExtension xmlns:gpxtpx="http://www.garmin.com/xmlschemas/TrackPointExtension/v1">
            <gpxtpx:hr>91</gpxtpx:hr>
          </gpxtpx:TrackPointExtension>
        </extensions>
      </trkpt>
      <trkpt lat="48.5931" lon="1.94798">
        <ele>133.8</ele>
        <time>2025-12-29T11:42:51Z</time>
        <extensions>
          <gpxtpx:TrackPointExtension xmlns:gpxtpx="http://www.garmin.com/xmlschemas/TrackPointExtension/v1">
            <gpxtpx:hr>92</gpxtpx:hr>
          </gpxtpx:TrackPointExtension>
        </extensions>
      </trkpt>
      <trkpt lat="48.59311" lon="1.94796">
        <ele>133.8</ele>
        <time>2025-12-29T11:42:53Z</time>
        <extensions>
          <gpxtpx:TrackPointExtension xmlns:gpxtpx="http://www.garmin.com/xmlschemas/TrackPointExtension/v1">
            <gpxtpx:hr>92</gpxtpx:hr>
          </gpxtpx:TrackPointExtension>
        </extensions>
      </trkpt>
      <trkpt lat="48.59312" lon="1.94793">
        <ele>134</ele>
        <time>2025-12-29T11:42:55Z</time>
        <extensions>
          <gpxtpx:TrackPointExtension xmlns:gpxtpx="http://www.garmin.com/xmlschemas/TrackPointExtension/v1">
            <gpxtpx:hr>92</gpxtpx:hr>
          </gpxtpx:TrackPointExtension>
        </extensions>
      </trkpt>
      <trkpt lat="48.59315" lon="1.9479">
        <ele>134</ele>
        <time>2025-12-29T11:42:57Z</time>
        <extensions>
          <gpxtpx:TrackPointExtension xmlns:gpxtpx="http://www.garmin.com/xmlschemas/TrackPointExtension/v1">
            <gpxtpx:hr>92</gpxtpx:hr>
          </gpxtpx:TrackPointExtension>
        </extensions>
      </trkpt>
      <trkpt lat="48.59317" lon="1.94786">
        <ele>134.2</ele>
        <time>2025-12-29T11:42:59Z</time>
      </trkpt>
      <trkpt lat="48.5932" lon="1.94782">
        <ele>134.4</ele>
        <time>2025-12-29T11:43:01Z</time>
      </trkpt>
      <trkpt lat="48.59322" lon="1.94779">
        <ele>134.6</ele>
        <time>2025-12-29T11:43:03Z</time>
      </trkpt>
      <trkpt lat="48.59324" lon="1.94777">
        <ele>134.6</ele>
        <time>2025-12-29T11:43:04Z</time>
      </trkpt>
      <trkpt lat="48.59326" lon="1.94775">
        <ele>134.8</ele>
        <time>2025-12-29T11:43:06Z</time>
      </trkpt>
      <trkpt lat="48.59328" lon="1.94773">
        <ele>135</ele>
        <time>2025-12-29T11:43:08Z</time>
      </trkpt>
      <trkpt lat="48.5933" lon="1.9477">
        <ele>135.2</ele>
        <time>2025-12-29T11:43:10Z</time>
      </trkpt>
      <trkpt lat="48.59332" lon="1.94767">
        <ele>135.4</ele>
        <time>2025-12-29T11:43:12Z</time>
      </trkpt>
      <trkpt lat="48.59333" lon="1.94764">
        <ele>135.6</ele>
        <time>2025-12-29T11:43:14Z</time>
      </trkpt>
      <trkpt lat="48.59336" lon="1.94761">
        <ele>135.6</ele>
        <time>2025-12-29T11:43:16Z</time>
      </trkpt>
      <trkpt lat="48.59338" lon="1.94759">
        <ele>135.8</ele>
        <time>2025-12-29T11:43:18Z</time>
      </trkpt>
      <trkpt lat="48.5934" lon="1.94757">
        <ele>135.8</ele>
        <time>2025-12-29T11:43:20Z</time>
      </trkpt>
      <trkpt lat="48.59342" lon="1.94755">
        <ele>136</ele>
        <time>2025-12-29T11:43:23Z</time>
      </trkpt>
      <trkpt lat="48.59343" lon="1.94751">
        <ele>136</ele>
        <time>2025-12-29T11:43:27Z</time>
      </trkpt>
      <trkpt lat="48.59345" lon="1.94748">
        <ele>136</ele>
        <time>2025-12-29T11:43:28Z</time>
      </trkpt>
      <trkpt lat="48.59346" lon="1.94746">
        <ele>136</ele>
        <time>2025-12-29T11:43:29Z</time>
      </trkpt>
      <trkpt lat="48.59348" lon="1.94743">
        <ele>136</ele>
        <time>2025-12-29T11:43:30Z</time>
      </trkpt>
      <trkpt lat="48.5935" lon="1.9474">
        <ele>136</ele>
        <time>2025-12-29T11:43:31Z</time>
      </trkpt>
      <trkpt lat="48.59352" lon="1.94737">
        <ele>136</ele>
        <time>2025-12-29T11:43:32Z</time>
      </trkpt>
      <trkpt lat="48.59354" lon="1.94735">
        <ele>136</ele>
        <time>2025-12-29T11:43:33Z</time>
      </trkpt>
      <trkpt lat="48.59356" lon="1.94733">
        <ele>136</ele>
        <time>2025-12-29T11:43:34Z</time>
      </trkpt>
      <trkpt lat="48.59357" lon="1.94731">
        <ele>136</ele>
        <time>2025-12-29T11:43:35Z</time>
      </trkpt>
      <trkpt lat="48.59359" lon="1.9473">
        <ele>136</ele>
        <time>2025-12-29T11:43:36Z</time>
      </trkpt>
      <trkpt lat="48.59361" lon="1.94728">
        <ele>136</ele>
        <time>2025-12-29T11:43:38Z</time>
      </trkpt>
      <trkpt lat="48.59364" lon="1.94727">
        <ele>136</ele>
        <time>2025-12-29T11:43:40Z</time>
      </trkpt>
      <trkpt lat="48.59366" lon="1.94726">
        <ele>136</ele>
        <time>2025-12-29T11:43:43Z</time>
      </trkpt>
      <trkpt lat="48.59367" lon="1.94723">
        <ele>135.4</ele>
        <time>2025-12-29T11:43:50Z</time>
      </trkpt>
      <trkpt lat="48.59369" lon="1.9472">
        <ele>135.2</ele>
        <time>2025-12-29T11:43:52Z</time>
      </trkpt>
      <trkpt lat="48.59372" lon="1.94717">
        <ele>135.2</ele>
        <time>2025-12-29T11:43:54Z</time>
      </trkpt>
      <trkpt lat="48.59373" lon="1.94716">
        <ele>135</ele>
        <time>2025-12-29T11:43:55Z</time>
      </trkpt>
      <trkpt lat="48.59377" lon="1.94716">
        <ele>135</ele>
        <time>2025-12-29T11:43:57Z</time>
      </trkpt>
      <trkpt lat="48.59379" lon="1.94716">
        <ele>134.8</ele>
        <time>2025-12-29T11:43:58Z</time>
      </trkpt>
      <trkpt lat="48.59381" lon="1.94716">
        <ele>134.8</ele>
        <time>2025-12-29T11:43:59Z</time>
      </trkpt>
      <trkpt lat="48.59384" lon="1.94715">
        <ele>134.6</ele>
        <time>2025-12-29T11:44:01Z</time>
      </trkpt>
      <trkpt lat="48.59387" lon="1.94712">
        <ele>134.6</ele>
        <time>2025-12-29T11:44:03Z</time>
      </trkpt>
      <trkpt lat="48.59389" lon="1.94708">
        <ele>134.6</ele>
        <time>2025-12-29T11:44:05Z</time>
      </trkpt>
      <trkpt lat="48.59391" lon="1.94706">
        <ele>134.6</ele>
        <time>2025-12-29T11:44:06Z</time>
      </trkpt>
      <trkpt lat="48.59392" lon="1.94704">
        <ele>134.6</ele>
        <time>2025-12-29T11:44:07Z</time>
      </trkpt>
      <trkpt lat="48.59395" lon="1.94701">
        <ele>134.6</ele>
        <time>2025-12-29T11:44:09Z</time>
      </trkpt>
      <trkpt lat="48.59398" lon="1.94699">
        <ele>134.6</ele>
        <time>2025-12-29T11:44:11Z</time>
      </trkpt>
      <trkpt lat="48.594" lon="1.94699">
        <ele>134.4</ele>
        <time>2025-12-29T11:44:12Z</time>
      </trkpt>
      <trkpt lat="48.59402" lon="1.94698">
        <ele>134.4</ele>
        <time>2025-12-29T11:44:13Z</time>
      </trkpt>
      <trkpt lat="48.59405" lon="1.94697">
        <ele>134.4</ele>
        <time>2025-12-29T11:44:15Z</time>
      </trkpt>
      <trkpt lat="48.59406" lon="1.94695">
        <ele>133.8</ele>
        <time>2025-12-29T11:44:23Z</time>
      </trkpt>
      <trkpt lat="48.59407" lon="1.94692">
        <ele>133.6</ele>
        <time>2025-12-29T11:44:26Z</time>
      </trkpt>
      <trkpt lat="48.59409" lon="1.9469">
        <ele>133.6</ele>
        <time>2025-12-29T11:44:28Z</time>
      </trkpt>
      <trkpt lat="48.59411" lon="1.94689">
        <ele>133.4</ele>
        <time>2025-12-29T11:44:31Z</time>
      </trkpt>
      <trkpt lat="48.59413" lon="1.94687">
        <ele>133.2</ele>
        <time>2025-12-29T11:44:33Z</time>
      </trkpt>
      <trkpt lat="48.59416" lon="1.94685">
        <ele>133.2</ele>
        <time>2025-12-29T11:44:35Z</time>
      </trkpt>
      <trkpt lat="48.59417" lon="1.94683">
        <ele>133.2</ele>
        <time>2025-12-29T11:44:36Z</time>
      </trkpt>
      <trkpt lat="48.59419" lon="1.94682">
        <ele>133.2</ele>
        <time>2025-12-29T11:44:37Z</time>
      </trkpt>
      <trkpt lat="48.59421" lon="1.9468">
        <ele>133.2</ele>
        <time>2025-12-29T11:44:38Z</time>
      </trkpt>
      <trkpt lat="48.59422" lon="1.94678">
        <ele>133.2</ele>
        <time>2025-12-29T11:44:39Z</time>
      </trkpt>
      <trkpt lat="48.59424" lon="1.94675">
        <ele>133</ele>
        <time>2025-12-29T11:44:41Z</time>
      </trkpt>
      <trkpt lat="48.59425" lon="1.94672">
        <ele>133</ele>
        <time>2025-12-29T11:44:44Z</time>
      </trkpt>
      <trkpt lat="48.59426" lon="1.94669">
        <ele>133</ele>
        <time>2025-12-29T11:44:46Z</time>
      </trkpt>
      <trkpt lat="48.59425" lon="1.94666">
        <ele>132.8</ele>
        <time>2025-12-29T11:44:48Z</time>
      </trkpt>
      <trkpt lat="48.59425" lon="1.94663">
        <ele>132.6</ele>
        <time>2025-12-29T11:44:50Z</time>
      </trkpt>
      <trkpt lat="48.59426" lon="1.9466">
        <ele>132.6</ele>
        <time>2025-12-29T11:44:52Z</time>
      </trkpt>
      <trkpt lat="48.59429" lon="1.94658">
        <ele>132.4</ele>
        <time>2025-12-29T11:44:54Z</time>
      </trkpt>
      <trkpt lat="48.59432" lon="1.94658">
        <ele>132.4</ele>
        <time>2025-12-29T11:44:56Z</time>
      </trkpt>
      <trkpt lat="48.59435" lon="1.94656">
        <ele>132.2</ele>
        <time>2025-12-29T11:44:58Z</time>
      </trkpt>
      <trkpt lat="48.59436" lon="1.94655">
        <ele>132.2</ele>
        <time>2025-12-29T11:44:59Z</time>
      </trkpt>
      <trkpt lat="48.59439" lon="1.94651">
        <ele>132</ele>
        <time>2025-12-29T11:45:01Z</time>
      </trkpt>
      <trkpt lat="48.59441" lon="1.94649">
        <ele>131.8</ele>
        <time>2025-12-29T11:45:02Z</time>
      </trkpt>
      <trkpt lat="48.59443" lon="1.94647">
        <ele>131.8</ele>
        <time>2025-12-29T11:45:03Z</time>
      </trkpt>
      <trkpt lat="48.59445" lon="1.94644">
        <ele>131.6</ele>
        <time>2025-12-29T11:45:04Z</time>
      </trkpt>
      <trkpt lat="48.59447" lon="1.94641">
        <ele>131.4</ele>
        <time>2025-12-29T11:45:05Z</time>
      </trkpt>
      <trkpt lat="48.59449" lon="1.94639">
        <ele>131.4</ele>
        <time>2025-12-29T11:45:06Z</time>
      </trkpt>
      <trkpt lat="48.59451" lon="1.94637">
        <ele>131.2</ele>
        <time>2025-12-29T11:45:07Z</time>
      </trkpt>
      <trkpt lat="48.59453" lon="1.94636">
        <ele>131.2</ele>
        <time>2025-12-29T11:45:08Z</time>
      </trkpt>
      <trkpt lat="48.59455" lon="1.94634">
        <ele>131</ele>
        <time>2025-12-29T11:45:10Z</time>
      </trkpt>
      <trkpt lat="48.59457" lon="1.94632">
        <ele>131</ele>
        <time>2025-12-29T11:45:12Z</time>
      </trkpt>
      <trkpt lat="48.59458" lon="1.9463">
        <ele>131</ele>
        <time>2025-12-29T11:45:14Z</time>
      </trkpt>
      <trkpt lat="48.5946" lon="1.94626">
        <ele>130.8</ele>
        <time>2025-12-29T11:45:16Z</time>
      </trkpt>
      <trkpt lat="48.59461" lon="1.94622">
        <ele>130.6</ele>
        <time>2025-12-29T11:45:18Z</time>
      </trkpt>
      <trkpt lat="48.59463" lon="1.9462">
        <ele>130.6</ele>
        <time>2025-12-29T11:45:19Z</time>
      </trkpt>
      <trkpt lat="48.59464" lon="1.94618">
        <ele>130.6</ele>
        <time>2025-12-29T11:45:20Z</time>
      </trkpt>
      <trkpt lat="48.59466" lon="1.94614">
        <ele>130.4</ele>
        <time>2025-12-29T11:45:22Z</time>
      </trkpt>
      <trkpt lat="48.59468" lon="1.9461">
        <ele>130.4</ele>
        <time>2025-12-29T11:45:24Z</time>
      </trkpt>
      <trkpt lat="48.59471" lon="1.94609">
        <ele>130.4</ele>
        <time>2025-12-29T11:45:26Z</time>
      </trkpt>
      <trkpt lat="48.59474" lon="1.94608">
        <ele>130.4</ele>
        <time>2025-12-29T11:45:28Z</time>
      </trkpt>
      <trkpt lat="48.59476" lon="1.94605">
        <ele>130.4</ele>
        <time>2025-12-29T11:45:35Z</time>
      </trkpt>
      <trkpt lat="48.59479" lon="1.94603">
        <ele>130.4</ele>
        <time>2025-12-29T11:45:37Z</time>
      </trkpt>
      <trkpt lat="48.59483" lon="1.94601">
        <ele>130.6</ele>
        <time>2025-12-29T11:45:39Z</time>
      </trkpt>
      <trkpt lat="48.59486" lon="1.94599">
        <ele>130.6</ele>
        <time>2025-12-29T11:45:41Z</time>
      </trkpt>
      <trkpt lat="48.59488" lon="1.94597">
        <ele>130.6</ele>
        <time>2025-12-29T11:45:42Z</time>
      </trkpt>
      <trkpt lat="48.59491" lon="1.94593">
        <ele>130.8</ele>
        <time>2025-12-29T11:45:44Z</time>
      </trkpt>
      <trkpt lat="48.59492" lon="1.94591">
        <ele>130.8</ele>
        <time>2025-12-29T11:45:45Z</time>
      </trkpt>
      <trkpt lat="48.59494" lon="1.94589">
        <ele>130.8</ele>
        <time>2025-12-29T11:45:46Z</time>
      </trkpt>
      <trkpt lat="48.59496" lon="1.94588">
        <ele>130.8</ele>
        <time>2025-12-29T11:45:47Z</time>
      </trkpt>
      <trkpt lat="48.59498" lon="1.94584">
        <ele>130.8</ele>
        <time>2025-12-29T11:45:49Z</time>
      </trkpt>
      <trkpt lat="48.59499" lon="1.94582">
        <ele>130.8</ele>
        <time>2025-12-29T11:45:51Z</time>
      </trkpt>
      <trkpt lat="48.595" lon="1.94579">
        <ele>130.8</ele>
        <time>2025-12-29T11:45:54Z</time>
      </trkpt>
      <trkpt lat="48.59502" lon="1.94577">
        <ele>130.6</ele>
        <time>2025-12-29T11:45:59Z</time>
      </trkpt>
      <trkpt lat="48.59504" lon="1.94576">
        <ele>130.6</ele>
        <time>2025-12-29T11:46:04Z</time>
      </trkpt>
      <trkpt lat="48.59506" lon="1.94575">
        <ele>130.6</ele>
        <time>2025-12-29T11:46:06Z</time>
      </trkpt>
      <trkpt lat="48.59508" lon="1.94573">
        <ele>130.6</ele>
        <time>2025-12-29T11:46:08Z</time>
      </trkpt>
      <trkpt lat="48.59511" lon="1.94571">
        <ele>130.6</ele>
        <time>2025-12-29T11:46:10Z</time>
      </trkpt>
      <trkpt lat="48.59514" lon="1.94569">
        <ele>130.6</ele>
        <time>2025-12-29T11:46:12Z</time>
      </trkpt>
      <trkpt lat="48.59516" lon="1.94567">
        <ele>130.6</ele>
        <time>2025-12-29T11:46:14Z</time>
      </trkpt>
      <trkpt lat="48.59519" lon="1.94566">
        <ele>130.8</ele>
        <time>2025-12-29T11:46:15Z</time>
      </trkpt>
      <trkpt lat="48.59521" lon="1.94565">
        <ele>130.8</ele>
        <time>2025-12-29T11:46:16Z</time>
      </trkpt>
      <trkpt lat="48.59523" lon="1.94564">
        <ele>130.8</ele>
        <time>2025-12-29T11:46:17Z</time>
      </trkpt>
      <trkpt lat="48.59525" lon="1.94564">
        <ele>130.8</ele>
        <time>2025-12-29T11:46:18Z</time>
      </trkpt>
      <trkpt lat="48.59527" lon="1.94563">
        <ele>130.8</ele>
        <time>2025-12-29T11:46:19Z</time>
      </trkpt>
      <trkpt lat="48.59529" lon="1.94562">
        <ele>130.8</ele>
        <time>2025-12-29T11:46:20Z</time>
      </trkpt>
      <trkpt lat="48.59531" lon="1.94562">
        <ele>130.8</ele>
        <time>2025-12-29T11:46:21Z</time>
      </trkpt>
      <trkpt lat="48.59532" lon="1.9456">
        <ele>130.8</ele>
        <time>2025-12-29T11:46:22Z</time>
      </trkpt>
      <trkpt lat="48.59534" lon="1.94559">
        <ele>131</ele>
        <time>2025-12-29T11:46:23Z</time>
      </trkpt>
      <trkpt lat="48.59537" lon="1.94557">
        <ele>131</ele>
        <time>2025-12-29T11:46:24Z</time>
      </trkpt>
      <trkpt lat="48.59539" lon="1.94556">
        <ele>131</ele>
        <time>2025-12-29T11:46:25Z</time>
      </trkpt>
      <trkpt lat="48.5954" lon="1.94554">
        <ele>131</ele>
        <time>2025-12-29T11:46:26Z</time>
      </trkpt>
      <trkpt lat="48.59542" lon="1.94553">
        <ele>131</ele>
        <time>2025-12-29T11:46:27Z</time>
      </trkpt>
      <trkpt lat="48.59544" lon="1.94551">
        <ele>131</ele>
        <time>2025-12-29T11:46:28Z</time>
      </trkpt>
      <trkpt lat="48.59546" lon="1.9455">
        <ele>131</ele>
        <time>2025-12-29T11:46:29Z</time>
      </trkpt>
      <trkpt lat="48.59547" lon="1.94548">
        <ele>131</ele>
        <time>2025-12-29T11:46:30Z</time>
      </trkpt>
      <trkpt lat="48.59549" lon="1.94546">
        <ele>131.2</ele>
        <time>2025-12-29T11:46:32Z</time>
      </trkpt>
      <trkpt lat="48.5955" lon="1.94544">
        <ele>131.2</ele>
        <time>2025-12-29T11:46:35Z</time>
      </trkpt>
      <trkpt lat="48.59552" lon="1.94542">
        <ele>131.2</ele>
        <time>2025-12-29T11:46:37Z</time>
      </trkpt>
      <trkpt lat="48.59554" lon="1.94539">
        <ele>131.2</ele>
        <time>2025-12-29T11:46:39Z</time>
      </trkpt>
      <trkpt lat="48.59556" lon="1.94536">
        <ele>131.4</ele>
        <time>2025-12-29T11:46:40Z</time>
      </trkpt>
      <trkpt lat="48.59557" lon="1.94534">
        <ele>131.4</ele>
        <time>2025-12-29T11:46:41Z</time>
      </trkpt>
      <trkpt lat="48.59559" lon="1.94532">
        <ele>131.4</ele>
        <time>2025-12-29T11:46:42Z</time>
      </trkpt>
      <trkpt lat="48.59561" lon="1.9453">
        <ele>131.4</ele>
        <time>2025-12-29T11:46:43Z</time>
      </trkpt>
      <trkpt lat="48.59564" lon="1.94527">
        <ele>131.6</ele>
        <time>2025-12-29T11:46:45Z</time>
      </trkpt>
      <trkpt lat="48.59567" lon="1.94525">
        <ele>131.6</ele>
        <time>2025-12-29T11:46:47Z</time>
      </trkpt>
      <trkpt lat="48.5957" lon="1.94524">
        <ele>131.6</ele>
        <time>2025-12-29T11:46:49Z</time>
      </trkpt>
      <trkpt lat="48.59573" lon="1.94522">
        <ele>131.6</ele>
        <time>2025-12-29T11:46:51Z</time>
      </trkpt>
      <trkpt lat="48.59576" lon="1.9452">
        <ele>131.6</ele>
        <time>2025-12-29T11:46:53Z</time>
      </trkpt>
      <trkpt lat="48.59578" lon="1.94519">
        <ele>131.6</ele>
        <time>2025-12-29T11:46:55Z</time>
      </trkpt>
      <trkpt lat="48.5958" lon="1.94517">
        <ele>131.6</ele>
        <time>2025-12-29T11:46:57Z</time>
      </trkpt>
      <trkpt lat="48.59582" lon="1.94515">
        <ele>131.6</ele>
        <time>2025-12-29T11:46:59Z</time>
      </trkpt>
      <trkpt lat="48.59584" lon="1.94512">
        <ele>131.6</ele>
        <time>2025-12-29T11:47:01Z</time>
      </trkpt>
      <trkpt lat="48.59586" lon="1.9451">
        <ele>131.6</ele>
        <time>2025-12-29T11:47:02Z</time>
      </trkpt>
      <trkpt lat="48.59588" lon="1.94508">
        <ele>131.6</ele>
        <time>2025-12-29T11:47:03Z</time>
      </trkpt>
      <trkpt lat="48.59589" lon="1.94506">
        <ele>131.6</ele>
        <time>2025-12-29T11:47:04Z</time>
      </trkpt>
      <trkpt lat="48.59591" lon="1.94505">
        <ele>131.6</ele>
        <time>2025-12-29T11:47:05Z</time>
      </trkpt>
      <trkpt lat="48.59593" lon="1.94503">
        <ele>131.6</ele>
        <time>2025-12-29T11:47:06Z</time>
      </trkpt>
      <trkpt lat="48.59595" lon="1.94501">
        <ele>131.6</ele>
        <time>2025-12-29T11:47:07Z</time>
      </trkpt>
      <trkpt lat="48.59597" lon="1.945">
        <ele>131.6</ele>
        <time>2025-12-29T11:47:08Z</time>
      </trkpt>
      <trkpt lat="48.596" lon="1.94497">
        <ele>131.6</ele>
        <time>2025-12-29T11:47:10Z</time>
      </trkpt>
      <trkpt lat="48.59603" lon="1.94497">
        <ele>131.4</ele>
        <time>2025-12-29T11:47:12Z</time>
      </trkpt>
      <trkpt lat="48.59605" lon="1.94498">
        <ele>131.2</ele>
        <time>2025-12-29T11:47:15Z</time>
      </trkpt>
      <trkpt lat="48.59606" lon="1.94495">
        <ele>130.8</ele>
        <time>2025-12-29T11:47:24Z</time>
      </trkpt>
      <trkpt lat="48.59608" lon="1.94492">
        <ele>130.6</ele>
        <time>2025-12-29T11:47:26Z</time>
      </trkpt>
      <trkpt lat="48.5961" lon="1.9449">
        <ele>130.6</ele>
        <time>2025-12-29T11:47:27Z</time>
      </trkpt>
      <trkpt lat="48.59612" lon="1.94489">
        <ele>130.6</ele>
        <time>2025-12-29T11:47:28Z</time>
      </trkpt>
      <trkpt lat="48.59613" lon="1.94487">
        <ele>130.6</ele>
        <time>2025-12-29T11:47:29Z</time>
      </trkpt>
      <trkpt lat="48.59615" lon="1.94486">
        <ele>130.4</ele>
        <time>2025-12-29T11:47:30Z</time>
      </trkpt>
      <trkpt lat="48.59617" lon="1.94484">
        <ele>130.4</ele>
        <time>2025-12-29T11:47:31Z</time>
      </trkpt>
      <trkpt lat="48.5962" lon="1.94482">
        <ele>130.4</ele>
        <time>2025-12-29T11:47:33Z</time>
      </trkpt>
      <trkpt lat="48.59622" lon="1.9448">
        <ele>130.2</ele>
        <time>2025-12-29T11:47:35Z</time>
      </trkpt>
      <trkpt lat="48.59623" lon="1.94477">
        <ele>130.2</ele>
        <time>2025-12-29T11:47:37Z</time>
      </trkpt>
      <trkpt lat="48.59625" lon="1.94474">
        <ele>130</ele>
        <time>2025-12-29T11:47:40Z</time>
      </trkpt>
      <trkpt lat="48.59626" lon="1.94471">
        <ele>129.8</ele>
        <time>2025-12-29T11:47:43Z</time>
      </trkpt>
      <trkpt lat="48.59628" lon="1.94469">
        <ele>129.6</ele>
        <time>2025-12-29T11:47:46Z</time>
      </trkpt>
      <trkpt lat="48.59629" lon="1.94467">
        <ele>129.6</ele>
        <time>2025-12-29T11:47:48Z</time>
      </trkpt>
      <trkpt lat="48.59631" lon="1.94467">
        <ele>129.4</ele>
        <time>2025-12-29T11:47:50Z</time>
      </trkpt>
      <trkpt lat="48.59633" lon="1.94466">
        <ele>129.4</ele>
        <time>2025-12-29T11:47:52Z</time>
      </trkpt>
      <trkpt lat="48.59635" lon="1.94465">
        <ele>129.2</ele>
        <time>2025-12-29T11:47:55Z</time>
      </trkpt>
      <trkpt lat="48.59636" lon="1.94463">
        <ele>129.4</ele>
        <time>2025-12-29T11:47:57Z</time>
      </trkpt>
      <trkpt lat="48.59638" lon="1.94459">
        <ele>129.4</ele>
        <time>2025-12-29T11:47:59Z</time>
      </trkpt>
      <trkpt lat="48.59639" lon="1.94457">
        <ele>129.4</ele>
        <time>2025-12-29T11:48:00Z</time>
      </trkpt>
      <trkpt lat="48.59641" lon="1.94453">
        <ele>129.4</ele>
        <time>2025-12-29T11:48:02Z</time>
      </trkpt>
      <trkpt lat="48.59644" lon="1.94449">
        <ele>129.6</ele>
        <time>2025-12-29T11:48:04Z</time>
      </trkpt>
      <trkpt lat="48.59645" lon="1.94446">
        <ele>129.6</ele>
        <time>2025-12-29T11:48:06Z</time>
      </trkpt>
      <trkpt lat="48.59647" lon="1.94443">
        <ele>129.6</ele>
        <time>2025-12-29T11:48:08Z</time>
      </trkpt>
      <trkpt lat="48.59649" lon="1.9444">
        <ele>129.6</ele>
        <time>2025-12-29T11:48:10Z</time>
      </trkpt>
      <trkpt lat="48.59652" lon="1.94437">
        <ele>129.8</ele>
        <time>2025-12-29T11:48:12Z</time>
      </trkpt>
      <trkpt lat="48.59654" lon="1.94435">
        <ele>129.8</ele>
        <time>2025-12-29T11:48:14Z</time>
      </trkpt>
      <trkpt lat="48.59654" lon="1.94432">
        <ele>130</ele>
        <time>2025-12-29T11:48:17Z</time>
      </trkpt>
      <trkpt lat="48.59654" lon="1.94427">
        <ele>130.4</ele>
        <time>2025-12-29T11:48:20Z</time>
      </trkpt>
      <trkpt lat="48.59656" lon="1.94424">
        <ele>130.6</ele>
        <time>2025-12-29T11:48:22Z</time>
      </trkpt>
      <trkpt lat="48.59657" lon="1.94422">
        <ele>130.6</ele>
        <time>2025-12-29T11:48:23Z</time>
      </trkpt>
      <trkpt lat="48.59659" lon="1.9442">
        <ele>130.8</ele>
        <time>2025-12-29T11:48:24Z</time>
      </trkpt>
      <trkpt lat="48.59661" lon="1.94418">
        <ele>130.8</ele>
        <time>2025-12-29T11:48:25Z</time>
      </trkpt>
      <trkpt lat="48.59662" lon="1.94416">
        <ele>131</ele>
        <time>2025-12-29T11:48:26Z</time>
      </trkpt>
      <trkpt lat="48.59664" lon="1.94413">
        <ele>131.2</ele>
        <time>2025-12-29T11:48:28Z</time>
      </trkpt>
      <trkpt lat="48.59665" lon="1.9441">
        <ele>131.4</ele>
        <time>2025-12-29T11:48:31Z</time>
      </trkpt>
      <trkpt lat="48.59667" lon="1.94408">
        <ele>131.8</ele>
        <time>2025-12-29T11:48:36Z</time>
      </trkpt>
      <trkpt lat="48.59669" lon="1.94405">
        <ele>132</ele>
        <time>2025-12-29T11:48:38Z</time>
      </trkpt>
      <trkpt lat="48.59671" lon="1.94403">
        <ele>132</ele>
        <time>2025-12-29T11:48:39Z</time>
      </trkpt>
      <trkpt lat="48.59674" lon="1.94401">
        <ele>132.2</ele>
        <time>2025-12-29T11:48:40Z</time>
      </trkpt>
      <trkpt lat="48.59676" lon="1.94398">
        <ele>132.2</ele>
        <time>2025-12-29T11:48:41Z</time>
      </trkpt>
      <trkpt lat="48.59678" lon="1.94396">
        <ele>132.2</ele>
        <time>2025-12-29T11:48:42Z</time>
      </trkpt>
      <trkpt lat="48.5968" lon="1.94394">
        <ele>132.4</ele>
        <time>2025-12-29T11:48:43Z</time>
      </trkpt>
      <trkpt lat="48.59682" lon="1.94391">
        <ele>132.4</ele>
        <time>2025-12-29T11:48:44Z</time>
      </trkpt>
      <trkpt lat="48.59684" lon="1.94389">
        <ele>132.4</ele>
        <time>2025-12-29T11:48:45Z</time>
      </trkpt>
      <trkpt lat="48.59685" lon="1.94388">
        <ele>132.6</ele>
        <time>2025-12-29T11:48:46Z</time>
      </trkpt>
      <trkpt lat="48.59687" lon="1.94386">
        <ele>132.6</ele>
        <time>2025-12-29T11:48:47Z</time>
      </trkpt>
      <trkpt lat="48.5969" lon="1.94383">
        <ele>132.6</ele>
        <time>2025-12-29T11:48:49Z</time>
      </trkpt>
      <trkpt lat="48.59692" lon="1.94381">
        <ele>132.6</ele>
        <time>2025-12-29T11:48:50Z</time>
      </trkpt>
      <trkpt lat="48.59693" lon="1.9438">
        <ele>132.6</ele>
        <time>2025-12-29T11:48:51Z</time>
      </trkpt>
      <trkpt lat="48.59695" lon="1.94378">
        <ele>132.8</ele>
        <time>2025-12-29T11:48:52Z</time>
      </trkpt>
      <trkpt lat="48.59697" lon="1.94377">
        <ele>132.8</ele>
        <time>2025-12-29T11:48:53Z</time>
      </trkpt>
      <trkpt lat="48.597" lon="1.94375">
        <ele>132.8</ele>
        <time>2025-12-29T11:48:54Z</time>
      </trkpt>
      <trkpt lat="48.59702" lon="1.94373">
        <ele>132.8</ele>
        <time>2025-12-29T11:48:55Z</time>
      </trkpt>
      <trkpt lat="48.59703" lon="1.94371">
        <ele>133</ele>
        <time>2025-12-29T11:48:56Z</time>
      </trkpt>
      <trkpt lat="48.59705" lon="1.94369">
        <ele>133</ele>
        <time>2025-12-29T11:48:57Z</time>
      </trkpt>
      <trkpt lat="48.59706" lon="1.94367">
        <ele>133</ele>
        <time>2025-12-29T11:48:58Z</time>
      </trkpt>
      <trkpt lat="48.59708" lon="1.94363">
        <ele>133.2</ele>
        <time>2025-12-29T11:49:00Z</time>
      </trkpt>
      <trkpt lat="48.5971" lon="1.9436">
        <ele>133.4</ele>
        <time>2025-12-29T11:49:02Z</time>
      </trkpt>
      <trkpt lat="48.59712" lon="1.94357">
        <ele>133.6</ele>
        <time>2025-12-29T11:49:04Z</time>
      </trkpt>
      <trkpt lat="48.59713" lon="1.94353">
        <ele>133.6</ele>
        <time>2025-12-29T11:49:06Z</time>
      </trkpt>
      <trkpt lat="48.59713" lon="1.9435">
        <ele>133.6</ele>
        <time>2025-12-29T11:49:08Z</time>
      </trkpt>
      <trkpt lat="48.59715" lon="1.94347">
        <ele>133.8</ele>
        <time>2025-12-29T11:49:10Z</time>
      </trkpt>
      <trkpt lat="48.59717" lon="1.94345">
        <ele>133.8</ele>
        <time>2025-12-29T11:49:12Z</time>
      </trkpt>
      <trkpt lat="48.59719" lon="1.94343">
        <ele>133.8</ele>
        <time>2025-12-29T11:49:13Z</time>
      </trkpt>
      <trkpt lat="48.59721" lon="1.94342">
        <ele>134</ele>
        <time>2025-12-29T11:49:14Z</time>
      </trkpt>
      <trkpt lat="48.59723" lon="1.9434">
        <ele>134</ele>
        <time>2025-12-29T11:49:15Z</time>
      </trkpt>
      <trkpt lat="48.59725" lon="1.94338">
        <ele>134</ele>
        <time>2025-12-29T11:49:16Z</time>
      </trkpt>
      <trkpt lat="48.59727" lon="1.94337">
        <ele>134</ele>
        <time>2025-12-29T11:49:17Z</time>
      </trkpt>
      <trkpt lat="48.59729" lon="1.94335">
        <ele>134.2</ele>
        <time>2025-12-29T11:49:18Z</time>
      </trkpt>
      <trkpt lat="48.59731" lon="1.94333">
        <ele>134.2</ele>
        <time>2025-12-29T11:49:19Z</time>
      </trkpt>
      <trkpt lat="48.59733" lon="1.94332">
        <ele>134.4</ele>
        <time>2025-12-29T11:49:20Z</time>
      </trkpt>
      <trkpt lat="48.59734" lon="1.94329">
        <ele>134.4</ele>
        <time>2025-12-29T11:49:21Z</time>
      </trkpt>
      <trkpt lat="48.59736" lon="1.94327">
        <ele>134.4</ele>
        <time>2025-12-29T11:49:22Z</time>
      </trkpt>
      <trkpt lat="48.59738" lon="1.94323">
        <ele>134.6</ele>
        <time>2025-12-29T11:49:24Z</time>
      </trkpt>
      <trkpt lat="48.5974" lon="1.94318">
        <ele>135</ele>
        <time>2025-12-29T11:49:27Z</time>
      </trkpt>
      <trkpt lat="48.59742" lon="1.94314">
        <ele>135</ele>
        <time>2025-12-29T11:49:29Z</time>
      </trkpt>
      <trkpt lat="48.59745" lon="1.94307">
        <ele>135.2</ele>
        <time>2025-12-29T11:49:31Z</time>
      </trkpt>
      <trkpt lat="48.59746" lon="1.94305">
        <ele>135.2</ele>
        <time>2025-12-29T11:49:32Z</time>
      </trkpt>
      <trkpt lat="48.59747" lon="1.94302">
        <ele>135.4</ele>
        <time>2025-12-29T11:49:34Z</time>
      </trkpt>
      <trkpt lat="48.59748" lon="1.94299">
        <ele>135.6</ele>
        <time>2025-12-29T11:49:36Z</time>
      </trkpt>
      <trkpt lat="48.5975" lon="1.94296">
        <ele>135.6</ele>
        <time>2025-12-29T11:49:38Z</time>
      </trkpt>
      <trkpt lat="48.59752" lon="1.94293">
        <ele>135.6</ele>
        <time>2025-12-29T11:49:40Z</time>
      </trkpt>
      <trkpt lat="48.59754" lon="1.9429">
        <ele>135.6</ele>
        <time>2025-12-29T11:49:42Z</time>
      </trkpt>
      <trkpt lat="48.59756" lon="1.94288">
        <ele>135.6</ele>
        <time>2025-12-29T11:49:44Z</time>
      </trkpt>
      <trkpt lat="48.59759" lon="1.94285">
        <ele>135.6</ele>
        <time>2025-12-29T11:49:46Z</time>
      </trkpt>
      <trkpt lat="48.59762" lon="1.94283">
        <ele>135.8</ele>
        <time>2025-12-29T11:49:48Z</time>
      </trkpt>
      <trkpt lat="48.59764" lon="1.9428">
        <ele>135.6</ele>
        <time>2025-12-29T11:49:50Z</time>
      </trkpt>
      <trkpt lat="48.59766" lon="1.94277">
        <ele>135.6</ele>
        <time>2025-12-29T11:49:52Z</time>
      </trkpt>
      <trkpt lat="48.59767" lon="1.94274">
        <ele>135.6</ele>
        <time>2025-12-29T11:49:54Z</time>
      </trkpt>
      <trkpt lat="48.59768" lon="1.94271">
        <ele>135.6</ele>
        <time>2025-12-29T11:49:56Z</time>
      </trkpt>
      <trkpt lat="48.59767" lon="1.94268">
        <ele>135.6</ele>
        <time>2025-12-29T11:49:58Z</time>
      </trkpt>
      <trkpt lat="48.59766" lon="1.94264">
        <ele>135.4</ele>
        <time>2025-12-29T11:50:01Z</time>
      </trkpt>
      <trkpt lat="48.59766" lon="1.94261">
        <ele>135.4</ele>
        <time>2025-12-29T11:50:03Z</time>
      </trkpt>
      <trkpt lat="48.59767" lon="1.94257">
        <ele>135.2</ele>
        <time>2025-12-29T11:50:05Z</time>
      </trkpt>
      <trkpt lat="48.59768" lon="1.94254">
        <ele>135.2</ele>
        <time>2025-12-29T11:50:06Z</time>
      </trkpt>
      <trkpt lat="48.59768" lon="1.94251">
        <ele>135.2</ele>
        <time>2025-12-29T11:50:07Z</time>
      </trkpt>
      <trkpt lat="48.59769" lon="1.94249">
        <ele>135.2</ele>
        <time>2025-12-29T11:50:08Z</time>
      </trkpt>
      <trkpt lat="48.59771" lon="1.94246">
        <ele>135.2</ele>
        <time>2025-12-29T11:50:09Z</time>
      </trkpt>
      <trkpt lat="48.59772" lon="1.94241">
        <ele>135.2</ele>
        <time>2025-12-29T11:50:11Z</time>
      </trkpt>
      <trkpt lat="48.59774" lon="1.94237">
        <ele>135.2</ele>
        <time>2025-12-29T11:50:13Z</time>
      </trkpt>
      <trkpt lat="48.59775" lon="1.94233">
        <ele>135.2</ele>
        <time>2025-12-29T11:50:15Z</time>
      </trkpt>
      <trkpt lat="48.59777" lon="1.94229">
        <ele>135.2</ele>
        <time>2025-12-29T11:50:17Z</time>
      </trkpt>
      <trkpt lat="48.59779" lon="1.94226">
        <ele>135.2</ele>
        <time>2025-12-29T11:50:19Z</time>
      </trkpt>
      <trkpt lat="48.59781" lon="1.94223">
        <ele>135.2</ele>
        <time>2025-12-29T11:50:21Z</time>
      </trkpt>
      <trkpt lat="48.59782" lon="1.94221">
        <ele>135.2</ele>
        <time>2025-12-29T11:50:23Z</time>
      </trkpt>
      <trkpt lat="48.59782" lon="1.94217">
        <ele>135.2</ele>
        <time>2025-12-29T11:50:26Z</time>
      </trkpt>
      <trkpt lat="48.59783" lon="1.94214">
        <ele>135.4</ele>
        <time>2025-12-29T11:50:30Z</time>
      </trkpt>
      <trkpt lat="48.59784" lon="1.94211">
        <ele>135.4</ele>
        <time>2025-12-29T11:50:32Z</time>
      </trkpt>
      <trkpt lat="48.59784" lon="1.94207">
        <ele>135.4</ele>
        <time>2025-12-29T11:50:34Z</time>
      </trkpt>
      <trkpt lat="48.59785" lon="1.94203">
        <ele>135.4</ele>
        <time>2025-12-29T11:50:36Z</time>
      </trkpt>
      <trkpt lat="48.59786" lon="1.942">
        <ele>135.4</ele>
        <time>2025-12-29T11:50:38Z</time>
      </trkpt>
      <trkpt lat="48.59788" lon="1.94197">
        <ele>135.6</ele>
        <time>2025-12-29T11:50:40Z</time>
      </trkpt>
      <trkpt lat="48.5979" lon="1.94194">
        <ele>135.6</ele>
        <time>2025-12-29T11:50:42Z</time>
      </trkpt>
      <trkpt lat="48.59792" lon="1.94192">
        <ele>135.8</ele>
        <time>2025-12-29T11:50:44Z</time>
      </trkpt>
      <trkpt lat="48.59793" lon="1.94189">
        <ele>135.8</ele>
        <time>2025-12-29T11:50:46Z</time>
      </trkpt>
      <trkpt lat="48.59793" lon="1.94186">
        <ele>135.8</ele>
        <time>2025-12-29T11:50:48Z</time>
      </trkpt>
      <trkpt lat="48.59792" lon="1.94183">
        <ele>135.8</ele>
        <time>2025-12-29T11:50:50Z</time>
      </trkpt>
      <trkpt lat="48.59791" lon="1.9418">
        <ele>135.8</ele>
        <time>2025-12-29T11:50:52Z</time>
      </trkpt>
      <trkpt lat="48.59792" lon="1.94176">
        <ele>135.8</ele>
        <time>2025-12-29T11:50:54Z</time>
      </trkpt>
      <trkpt lat="48.59794" lon="1.94171">
        <ele>136</ele>
        <time>2025-12-29T11:50:56Z</time>
      </trkpt>
      <trkpt lat="48.59796" lon="1.94166">
        <ele>136</ele>
        <time>2025-12-29T11:50:58Z</time>
      </trkpt>
      <trkpt lat="48.59797" lon="1.94162">
        <ele>136</ele>
        <time>2025-12-29T11:51:00Z</time>
      </trkpt>
      <trkpt lat="48.59798" lon="1.94158">
        <ele>136</ele>
        <time>2025-12-29T11:51:02Z</time>
      </trkpt>
      <trkpt lat="48.59799" lon="1.94155">
        <ele>136</ele>
        <time>2025-12-29T11:51:04Z</time>
      </trkpt>
      <trkpt lat="48.598" lon="1.94152">
        <ele>136</ele>
        <time>2025-12-29T11:51:06Z</time>
      </trkpt>
      <trkpt lat="48.59801" lon="1.94149">
        <ele>136</ele>
        <time>2025-12-29T11:51:08Z</time>
      </trkpt>
      <trkpt lat="48.59803" lon="1.94145">
        <ele>136</ele>
        <time>2025-12-29T11:51:10Z</time>
      </trkpt>
      <trkpt lat="48.59804" lon="1.94143">
        <ele>136</ele>
        <time>2025-12-29T11:51:11Z</time>
      </trkpt>
      <trkpt lat="48.59805" lon="1.94141">
        <ele>136</ele>
        <time>2025-12-29T11:51:12Z</time>
      </trkpt>
      <trkpt lat="48.59808" lon="1.94137">
        <ele>136</ele>
        <time>2025-12-29T11:51:14Z</time>
      </trkpt>
      <trkpt lat="48.59809" lon="1.94133">
        <ele>136</ele>
        <time>2025-12-29T11:51:16Z</time>
      </trkpt>
      <trkpt lat="48.5981" lon="1.94131">
        <ele>136</ele>
        <time>2025-12-29T11:51:18Z</time>
      </trkpt>
      <trkpt lat="48.59808" lon="1.94127">
        <ele>136</ele>
        <time>2025-12-29T11:51:21Z</time>
      </trkpt>
      <trkpt lat="48.59807" lon="1.94124">
        <ele>136</ele>
        <time>2025-12-29T11:51:23Z</time>
      </trkpt>
      <trkpt lat="48.59806" lon="1.94121">
        <ele>135.8</ele>
        <time>2025-12-29T11:51:25Z</time>
      </trkpt>
      <trkpt lat="48.59806" lon="1.94117">
        <ele>135.8</ele>
        <time>2025-12-29T11:51:27Z</time>
      </trkpt>
      <trkpt lat="48.59807" lon="1.94113">
        <ele>135.6</ele>
        <time>2025-12-29T11:51:29Z</time>
      </trkpt>
      <trkpt lat="48.59807" lon="1.94109">
        <ele>135.6</ele>
        <time>2025-12-29T11:51:31Z</time>
      </trkpt>
      <trkpt lat="48.59807" lon="1.94106">
        <ele>135.6</ele>
        <time>2025-12-29T11:51:33Z</time>
      </trkpt>
      <trkpt lat="48.59806" lon="1.94103">
        <ele>135.4</ele>
        <time>2025-12-29T11:51:35Z</time>
      </trkpt>
      <trkpt lat="48.59807" lon="1.94098">
        <ele>135.4</ele>
        <time>2025-12-29T11:51:37Z</time>
      </trkpt>
      <trkpt lat="48.59808" lon="1.94096">
        <ele>135.4</ele>
        <time>2025-12-29T11:51:38Z</time>
      </trkpt>
      <trkpt lat="48.59809" lon="1.94092">
        <ele>135.4</ele>
        <time>2025-12-29T11:51:40Z</time>
      </trkpt>
      <trkpt lat="48.5981" lon="1.94088">
        <ele>135.2</ele>
        <time>2025-12-29T11:51:42Z</time>
      </trkpt>
      <trkpt lat="48.5981" lon="1.94085">
        <ele>135.2</ele>
        <time>2025-12-29T11:51:44Z</time>
      </trkpt>
      <trkpt lat="48.59811" lon="1.94081">
        <ele>135.2</ele>
        <time>2025-12-29T11:51:46Z</time>
      </trkpt>
      <trkpt lat="48.59812" lon="1.94078">
        <ele>135</ele>
        <time>2025-12-29T11:51:48Z</time>
      </trkpt>
      <trkpt lat="48.59813" lon="1.94075">
        <ele>135</ele>
        <time>2025-12-29T11:51:50Z</time>
      </trkpt>
      <trkpt lat="48.59815" lon="1.94071">
        <ele>135</ele>
        <time>2025-12-29T11:51:52Z</time>
      </trkpt>
      <trkpt lat="48.59818" lon="1.94066">
        <ele>134.8</ele>
        <time>2025-12-29T11:51:54Z</time>
      </trkpt>
      <trkpt lat="48.5982" lon="1.94062">
        <ele>134.8</ele>
        <time>2025-12-29T11:51:56Z</time>
      </trkpt>
      <trkpt lat="48.5982" lon="1.94058">
        <ele>134.8</ele>
        <time>2025-12-29T11:51:58Z</time>
      </trkpt>
      <trkpt lat="48.59822" lon="1.94053">
        <ele>134.6</ele>
        <time>2025-12-29T11:52:00Z</time>
      </trkpt>
      <trkpt lat="48.59824" lon="1.94049">
        <ele>134.6</ele>
        <time>2025-12-29T11:52:02Z</time>
      </trkpt>
      <trkpt lat="48.59825" lon="1.94046">
        <ele>134.4</ele>
        <time>2025-12-29T11:52:03Z</time>
      </trkpt>
      <trkpt lat="48.59826" lon="1.94044">
        <ele>134.4</ele>
        <time>2025-12-29T11:52:04Z</time>
      </trkpt>
      <trkpt lat="48.59828" lon="1.94041">
        <ele>134.4</ele>
        <time>2025-12-29T11:52:05Z</time>
      </trkpt>
      <trkpt lat="48.59829" lon="1.94037">
        <ele>134.2</ele>
        <time>2025-12-29T11:52:07Z</time>
      </trkpt>
      <trkpt lat="48.5983" lon="1.94034">
        <ele>134.2</ele>
        <time>2025-12-29T11:52:09Z</time>
      </trkpt>
      <trkpt lat="48.5983" lon="1.94031">
        <ele>134</ele>
        <time>2025-12-29T11:52:11Z</time>
      </trkpt>
      <trkpt lat="48.59828" lon="1.94027">
        <ele>133.8</ele>
        <time>2025-12-29T11:52:13Z</time>
      </trkpt>
      <trkpt lat="48.59828" lon="1.94024">
        <ele>133.6</ele>
        <time>2025-12-29T11:52:15Z</time>
      </trkpt>
      <trkpt lat="48.59829" lon="1.94021">
        <ele>133.4</ele>
        <time>2025-12-29T11:52:17Z</time>
      </trkpt>
      <trkpt lat="48.59831" lon="1.94018">
        <ele>133.2</ele>
        <time>2025-12-29T11:52:19Z</time>
      </trkpt>
      <trkpt lat="48.59833" lon="1.94015">
        <ele>133</ele>
        <time>2025-12-29T11:52:21Z</time>
      </trkpt>
      <trkpt lat="48.59834" lon="1.94011">
        <ele>132.8</ele>
        <time>2025-12-29T11:52:23Z</time>
      </trkpt>
      <trkpt lat="48.59836" lon="1.94008">
        <ele>132.6</ele>
        <time>2025-12-29T11:52:25Z</time>
      </trkpt>
      <trkpt lat="48.59836" lon="1.94003">
        <ele>132.4</ele>
        <time>2025-12-29T11:52:27Z</time>
      </trkpt>
      <trkpt lat="48.59838" lon="1.93999">
        <ele>132.2</ele>
        <time>2025-12-29T11:52:29Z</time>
      </trkpt>
      <trkpt lat="48.59839" lon="1.93996">
        <ele>132</ele>
        <time>2025-12-29T11:52:31Z</time>
      </trkpt>
      <trkpt lat="48.59841" lon="1.93993">
        <ele>131.8</ele>
        <time>2025-12-29T11:52:33Z</time>
      </trkpt>
      <trkpt lat="48.59843" lon="1.9399">
        <ele>131.4</ele>
        <time>2025-12-29T11:52:35Z</time>
      </trkpt>
      <trkpt lat="48.59845" lon="1.93987">
        <ele>131.2</ele>
        <time>2025-12-29T11:52:37Z</time>
      </trkpt>
      <trkpt lat="48.59845" lon="1.93984">
        <ele>130.4</ele>
        <time>2025-12-29T11:52:44Z</time>
      </trkpt>
      <trkpt lat="48.59844" lon="1.9398">
        <ele>130</ele>
        <time>2025-12-29T11:52:46Z</time>
      </trkpt>
      <trkpt lat="48.59844" lon="1.93976">
        <ele>129.8</ele>
        <time>2025-12-29T11:52:48Z</time>
      </trkpt>
      <trkpt lat="48.59844" lon="1.93971">
        <ele>129.6</ele>
        <time>2025-12-29T11:52:50Z</time>
      </trkpt>
      <trkpt lat="48.59844" lon="1.93968">
        <ele>129.4</ele>
        <time>2025-12-29T11:52:51Z</time>
      </trkpt>
      <trkpt lat="48.59844" lon="1.93964">
        <ele>129.4</ele>
        <time>2025-12-29T11:52:52Z</time>
      </trkpt>
      <trkpt lat="48.59843" lon="1.9396">
        <ele>129.2</ele>
        <time>2025-12-29T11:52:53Z</time>
      </trkpt>
      <trkpt lat="48.59842" lon="1.93956">
        <ele>129.2</ele>
        <time>2025-12-29T11:52:54Z</time>
      </trkpt>
      <trkpt lat="48.59842" lon="1.93951">
        <ele>129</ele>
        <time>2025-12-29T11:52:55Z</time>
      </trkpt>
      <trkpt lat="48.59841" lon="1.93947">
        <ele>129</ele>
        <time>2025-12-29T11:52:56Z</time>
      </trkpt>
      <trkpt lat="48.5984" lon="1.93942">
        <ele>128.8</ele>
        <time>2025-12-29T11:52:57Z</time>
      </trkpt>
      <trkpt lat="48.5984" lon="1.93939">
        <ele>128.8</ele>
        <time>2025-12-29T11:52:58Z</time>
      </trkpt>
      <trkpt lat="48.5984" lon="1.93936">
        <ele>128.8</ele>
        <time>2025-12-29T11:52:59Z</time>
      </trkpt>
      <trkpt lat="48.5984" lon="1.93933">
        <ele>128.6</ele>
        <time>2025-12-29T11:53:00Z</time>
      </trkpt>
      <trkpt lat="48.59841" lon="1.93928">
        <ele>128.6</ele>
        <time>2025-12-29T11:53:02Z</time>
      </trkpt>
      <trkpt lat="48.59842" lon="1.93923">
        <ele>128.4</ele>
        <time>2025-12-29T11:53:04Z</time>
      </trkpt>
      <trkpt lat="48.59842" lon="1.9392">
        <ele>128.4</ele>
        <time>2025-12-29T11:53:05Z</time>
      </trkpt>
      <trkpt lat="48.59842" lon="1.93917">
        <ele>128.4</ele>
        <time>2025-12-29T11:53:06Z</time>
      </trkpt>
      <trkpt lat="48.59842" lon="1.93914">
        <ele>128.2</ele>
        <time>2025-12-29T11:53:07Z</time>
      </trkpt>
      <trkpt lat="48.59842" lon="1.9391">
        <ele>128.2</ele>
        <time>2025-12-29T11:53:08Z</time>
      </trkpt>
      <trkpt lat="48.59841" lon="1.93908">
        <ele>128</ele>
        <time>2025-12-29T11:53:09Z</time>
      </trkpt>
      <trkpt lat="48.5984" lon="1.93905">
        <ele>128</ele>
        <time>2025-12-29T11:53:10Z</time>
      </trkpt>
      <trkpt lat="48.59839" lon="1.93902">
        <ele>128</ele>
        <time>2025-12-29T11:53:11Z</time>
      </trkpt>
      <trkpt lat="48.59838" lon="1.93899">
        <ele>127.8</ele>
        <time>2025-12-29T11:53:12Z</time>
      </trkpt>
      <trkpt lat="48.59837" lon="1.93896">
        <ele>127.8</ele>
        <time>2025-12-29T11:53:13Z</time>
      </trkpt>
      <trkpt lat="48.59836" lon="1.93892">
        <ele>127.8</ele>
        <time>2025-12-29T11:53:14Z</time>
      </trkpt>
      <trkpt lat="48.59835" lon="1.93888">
        <ele>127.6</ele>
        <time>2025-12-29T11:53:15Z</time>
      </trkpt>
      <trkpt lat="48.59834" lon="1.93884">
        <ele>127.6</ele>
        <time>2025-12-29T11:53:16Z</time>
      </trkpt>
      <trkpt lat="48.59833" lon="1.93879">
        <ele>127.6</ele>
        <time>2025-12-29T11:53:17Z</time>
      </trkpt>
      <trkpt lat="48.59832" lon="1.93874">
        <ele>127.6</ele>
        <time>2025-12-29T11:53:18Z</time>
      </trkpt>
      <trkpt lat="48.59831" lon="1.93868">
        <ele>127.6</ele>
        <time>2025-12-29T11:53:19Z</time>
      </trkpt>
      <trkpt lat="48.5983" lon="1.93863">
        <ele>127.4</ele>
        <time>2025-12-29T11:53:20Z</time>
      </trkpt>
      <trkpt lat="48.59828" lon="1.93858">
        <ele>127.4</ele>
        <time>2025-12-29T11:53:21Z</time>
      </trkpt>
      <trkpt lat="48.59827" lon="1.93853">
        <ele>127.4</ele>
        <time>2025-12-29T11:53:22Z</time>
      </trkpt>
      <trkpt lat="48.59826" lon="1.93848">
        <ele>127.4</ele>
        <time>2025-12-29T11:53:23Z</time>
      </trkpt>
      <trkpt lat="48.59824" lon="1.93844">
        <ele>127.2</ele>
        <time>2025-12-29T11:53:24Z</time>
      </trkpt>
      <trkpt lat="48.59823" lon="1.93839">
        <ele>127.2</ele>
        <time>2025-12-29T11:53:25Z</time>
      </trkpt>
      <trkpt lat="48.59821" lon="1.93835">
        <ele>127.2</ele>
        <time>2025-12-29T11:53:26Z</time>
      </trkpt>
      <trkpt lat="48.5982" lon="1.93832">
        <ele>127.2</ele>
        <time>2025-12-29T11:53:27Z</time>
      </trkpt>
      <trkpt lat="48.5982" lon="1.93828">
        <ele>127.2</ele>
        <time>2025-12-29T11:53:28Z</time>
      </trkpt>
      <trkpt lat="48.59818" lon="1.93824">
        <ele>127</ele>
        <time>2025-12-29T11:53:29Z</time>
      </trkpt>
      <trkpt lat="48.59818" lon="1.9382">
        <ele>127</ele>
        <time>2025-12-29T11:53:30Z</time>
      </trkpt>
      <trkpt lat="48.59816" lon="1.93816">
        <ele>127</ele>
        <time>2025-12-29T11:53:31Z</time>
      </trkpt>
      <trkpt lat="48.59814" lon="1.93812">
        <ele>127</ele>
        <time>2025-12-29T11:53:32Z</time>
      </trkpt>
      <trkpt lat="48.59812" lon="1.93808">
        <ele>127</ele>
        <time>2025-12-29T11:53:33Z</time>
      </trkpt>
      <trkpt lat="48.5981" lon="1.93804">
        <ele>127</ele>
        <time>2025-12-29T11:53:34Z</time>
      </trkpt>
      <trkpt lat="48.59808" lon="1.93799">
        <ele>127</ele>
        <time>2025-12-29T11:53:35Z</time>
      </trkpt>
      <trkpt lat="48.59806" lon="1.93795">
        <ele>126.8</ele>
        <time>2025-12-29T11:53:36Z</time>
      </trkpt>
      <trkpt lat="48.59804" lon="1.9379">
        <ele>126.8</ele>
        <time>2025-12-29T11:53:37Z</time>
      </trkpt>
      <trkpt lat="48.59802" lon="1.93785">
        <ele>126.8</ele>
        <time>2025-12-29T11:53:38Z</time>
      </trkpt>
      <trkpt lat="48.59801" lon="1.9378">
        <ele>126.8</ele>
        <time>2025-12-29T11:53:39Z</time>
      </trkpt>
      <trkpt lat="48.59799" lon="1.93776">
        <ele>126.8</ele>
        <time>2025-12-29T11:53:40Z</time>
      </trkpt>
      <trkpt lat="48.59797" lon="1.93771">
        <ele>126.8</ele>
        <time>2025-12-29T11:53:41Z</time>
      </trkpt>
      <trkpt lat="48.59796" lon="1.93766">
        <ele>126.8</ele>
        <time>2025-12-29T11:53:42Z</time>
      </trkpt>
      <trkpt lat="48.59795" lon="1.93761">
        <ele>126.8</ele>
        <time>2025-12-29T11:53:43Z</time>
      </trkpt>
      <trkpt lat="48.59793" lon="1.93756">
        <ele>126.8</ele>
        <time>2025-12-29T11:53:44Z</time>
      </trkpt>
      <trkpt lat="48.59792" lon="1.9375">
        <ele>126.8</ele>
        <time>2025-12-29T11:53:45Z</time>
      </trkpt>
      <trkpt lat="48.5979" lon="1.93745">
        <ele>126.8</ele>
        <time>2025-12-29T11:53:46Z</time>
      </trkpt>
      <trkpt lat="48.59788" lon="1.93739">
        <ele>126.8</ele>
        <time>2025-12-29T11:53:47Z</time>
      </trkpt>
      <trkpt lat="48.59788" lon="1.93733">
        <ele>126.8</ele>
        <time>2025-12-29T11:53:48Z</time>
      </trkpt>
      <trkpt lat="48.59786" lon="1.93727">
        <ele>126.8</ele>
        <time>2025-12-29T11:53:49Z</time>
      </trkpt>
      <trkpt lat="48.59786" lon="1.93722">
        <ele>126.8</ele>
        <time>2025-12-29T11:53:50Z</time>
      </trkpt>
      <trkpt lat="48.59785" lon="1.93716">
        <ele>126.8</ele>
        <time>2025-12-29T11:53:51Z</time>
      </trkpt>
      <trkpt lat="48.59785" lon="1.93711">
        <ele>126.8</ele>
        <time>2025-12-29T11:53:52Z</time>
      </trkpt>
      <trkpt lat="48.59785" lon="1.93705">
        <ele>126.8</ele>
        <time>2025-12-29T11:53:53Z</time>
      </trkpt>
      <trkpt lat="48.59786" lon="1.937">
        <ele>126.8</ele>
        <time>2025-12-29T11:53:54Z</time>
      </trkpt>
      <trkpt lat="48.59786" lon="1.93696">
        <ele>126.8</ele>
        <time>2025-12-29T11:53:55Z</time>
      </trkpt>
      <trkpt lat="48.59786" lon="1.93691">
        <ele>126.8</ele>
        <time>2025-12-29T11:53:56Z</time>
      </trkpt>
      <trkpt lat="48.59786" lon="1.93686">
        <ele>126.8</ele>
        <time>2025-12-29T11:53:57Z</time>
      </trkpt>
      <trkpt lat="48.59786" lon="1.93681">
        <ele>126.6</ele>
        <time>2025-12-29T11:53:58Z</time>
      </trkpt>
      <trkpt lat="48.59786" lon="1.93675">
        <ele>126.6</ele>
        <time>2025-12-29T11:53:59Z</time>
      </trkpt>
      <trkpt lat="48.59786" lon="1.9367">
        <ele>126.6</ele>
        <time>2025-12-29T11:54:00Z</time>
      </trkpt>
      <trkpt lat="48.59786" lon="1.93664">
        <ele>126.6</ele>
        <time>2025-12-29T11:54:01Z</time>
      </trkpt>
      <trkpt lat="48.59785" lon="1.93658">
        <ele>126.6</ele>
        <time>2025-12-29T11:54:02Z</time>
      </trkpt>
      <trkpt lat="48.59785" lon="1.93652">
        <ele>126.6</ele>
        <time>2025-12-29T11:54:03Z</time>
      </trkpt>
      <trkpt lat="48.59785" lon="1.93646">
        <ele>126.6</ele>
        <time>2025-12-29T11:54:04Z</time>
      </trkpt>
      <trkpt lat="48.59785" lon="1.93641">
        <ele>126.6</ele>
        <time>2025-12-29T11:54:05Z</time>
      </trkpt>
      <trkpt lat="48.59784" lon="1.93636">
        <ele>126.6</ele>
        <time>2025-12-29T11:54:06Z</time>
      </trkpt>
      <trkpt lat="48.59784" lon="1.93632">
        <ele>126.6</ele>
        <time>2025-12-29T11:54:07Z</time>
      </trkpt>
      <trkpt lat="48.59783" lon="1.93628">
        <ele>126.6</ele>
        <time>2025-12-29T11:54:08Z</time>
      </trkpt>
      <trkpt lat="48.59783" lon="1.93623">
        <ele>126.4</ele>
        <time>2025-12-29T11:54:09Z</time>
      </trkpt>
      <trkpt lat="48.59783" lon="1.93619">
        <ele>126.4</ele>
        <time>2025-12-29T11:54:10Z</time>
      </trkpt>
      <trkpt lat="48.59784" lon="1.93615">
        <ele>126.4</ele>
        <time>2025-12-29T11:54:11Z</time>
      </trkpt>
      <trkpt lat="48.59784" lon="1.93611">
        <ele>126.4</ele>
        <time>2025-12-29T11:54:12Z</time>
      </trkpt>
      <trkpt lat="48.59784" lon="1.93607">
        <ele>126.4</ele>
        <time>2025-12-29T11:54:13Z</time>
      </trkpt>
      <trkpt lat="48.59784" lon="1.93604">
        <ele>126.4</ele>
        <time>2025-12-29T11:54:14Z</time>
      </trkpt>
      <trkpt lat="48.59784" lon="1.936">
        <ele>126.2</ele>
        <time>2025-12-29T11:54:15Z</time>
      </trkpt>
      <trkpt lat="48.59784" lon="1.93596">
        <ele>126.2</ele>
        <time>2025-12-29T11:54:16Z</time>
      </trkpt>
      <trkpt lat="48.59784" lon="1.93593">
        <ele>126.2</ele>
        <time>2025-12-29T11:54:17Z</time>
      </trkpt>
      <trkpt lat="48.59783" lon="1.93589">
        <ele>126.2</ele>
        <time>2025-12-29T11:54:18Z</time>
      </trkpt>
      <trkpt lat="48.59782" lon="1.93585">
        <ele>126.2</ele>
        <time>2025-12-29T11:54:19Z</time>
      </trkpt>
      <trkpt lat="48.5978" lon="1.93582">
        <ele>126</ele>
        <time>2025-12-29T11:54:20Z</time>
      </trkpt>
      <trkpt lat="48.59777" lon="1.93578">
        <ele>126</ele>
        <time>2025-12-29T11:54:21Z</time>
      </trkpt>
      <trkpt lat="48.59774" lon="1.93574">
        <ele>126</ele>
        <time>2025-12-29T11:54:22Z</time>
      </trkpt>
      <trkpt lat="48.59771" lon="1.93571">
        <ele>126</ele>
        <time>2025-12-29T11:54:24Z</time>
      </trkpt>
      <trkpt lat="48.59769" lon="1.93567">
        <ele>126</ele>
        <time>2025-12-29T11:54:25Z</time>
      </trkpt>
      <trkpt lat="48.59767" lon="1.93563">
        <ele>126</ele>
        <time>2025-12-29T11:54:26Z</time>
      </trkpt>
      <trkpt lat="48.59766" lon="1.93559">
        <ele>126</ele>
        <time>2025-12-29T11:54:27Z</time>
      </trkpt>
      <trkpt lat="48.59765" lon="1.93552">
        <ele>126</ele>
        <time>2025-12-29T11:54:28Z</time>
      </trkpt>
      <trkpt lat="48.59765" lon="1.93549">
        <ele>125.8</ele>
        <time>2025-12-29T11:54:29Z</time>
      </trkpt>
      <trkpt lat="48.59765" lon="1.93544">
        <ele>125.8</ele>
        <time>2025-12-29T11:54:31Z</time>
      </trkpt>
      <trkpt lat="48.59764" lon="1.9354">
        <ele>125.8</ele>
        <time>2025-12-29T11:54:33Z</time>
      </trkpt>
      <trkpt lat="48.59763" lon="1.93537">
        <ele>125.8</ele>
        <time>2025-12-29T11:54:35Z</time>
      </trkpt>
      <trkpt lat="48.59763" lon="1.93533">
        <ele>125.8</ele>
        <time>2025-12-29T11:54:37Z</time>
      </trkpt>
      <trkpt lat="48.59762" lon="1.9353">
        <ele>125.8</ele>
        <time>2025-12-29T11:54:40Z</time>
      </trkpt>
      <trkpt lat="48.59763" lon="1.93528">
        <ele>125.8</ele>
        <time>2025-12-29T11:54:44Z</time>
      </trkpt>
      <trkpt lat="48.59763" lon="1.93524">
        <ele>125.8</ele>
        <time>2025-12-29T11:54:48Z</time>
      </trkpt>
      <trkpt lat="48.59762" lon="1.93522">
        <ele>125.8</ele>
        <time>2025-12-29T11:54:51Z</time>
      </trkpt>
      <trkpt lat="48.59761" lon="1.93519">
        <ele>126</ele>
        <time>2025-12-29T11:54:53Z</time>
      </trkpt>
      <trkpt lat="48.5976" lon="1.93516">
        <ele>126</ele>
        <time>2025-12-29T11:54:55Z</time>
      </trkpt>
      <trkpt lat="48.59757" lon="1.93511">
        <ele>126</ele>
        <time>2025-12-29T11:54:57Z</time>
      </trkpt>
      <trkpt lat="48.59755" lon="1.93508">
        <ele>126</ele>
        <time>2025-12-29T11:54:58Z</time>
      </trkpt>
      <trkpt lat="48.59753" lon="1.93504">
        <ele>126</ele>
        <time>2025-12-29T11:54:59Z</time>
      </trkpt>
      <trkpt lat="48.5975" lon="1.93501">
        <ele>126</ele>
        <time>2025-12-29T11:55:00Z</time>
      </trkpt>
      <trkpt lat="48.59747" lon="1.93497">
        <ele>126</ele>
        <time>2025-12-29T11:55:01Z</time>
      </trkpt>
      <trkpt lat="48.59743" lon="1.93493">
        <ele>126</ele>
        <time>2025-12-29T11:55:02Z</time>
      </trkpt>
      <trkpt lat="48.5974" lon="1.9349">
        <ele>126</ele>
        <time>2025-12-29T11:55:03Z</time>
      </trkpt>
      <trkpt lat="48.59736" lon="1.93486">
        <ele>126</ele>
        <time>2025-12-29T11:55:04Z</time>
      </trkpt>
      <trkpt lat="48.59733" lon="1.93483">
        <ele>126</ele>
        <time>2025-12-29T11:55:05Z</time>
      </trkpt>
      <trkpt lat="48.59731" lon="1.93479">
        <ele>126</ele>
        <time>2025-12-29T11:55:06Z</time>
      </trkpt>
      <trkpt lat="48.59729" lon="1.93476">
        <ele>126</ele>
        <time>2025-12-29T11:55:07Z</time>
      </trkpt>
      <trkpt lat="48.59727" lon="1.93472">
        <ele>126</ele>
        <time>2025-12-29T11:55:08Z</time>
      </trkpt>
      <trkpt lat="48.59726" lon="1.93469">
        <ele>126</ele>
        <time>2025-12-29T11:55:09Z</time>
      </trkpt>
      <trkpt lat="48.59725" lon="1.93465">
        <ele>126</ele>
        <time>2025-12-29T11:55:10Z</time>
      </trkpt>
      <trkpt lat="48.59724" lon="1.93461">
        <ele>126</ele>
        <time>2025-12-29T11:55:11Z</time>
      </trkpt>
      <trkpt lat="48.59722" lon="1.93458">
        <ele>126</ele>
        <time>2025-12-29T11:55:12Z</time>
      </trkpt>
      <trkpt lat="48.5972" lon="1.93454">
        <ele>126</ele>
        <time>2025-12-29T11:55:13Z</time>
      </trkpt>
      <trkpt lat="48.59718" lon="1.9345">
        <ele>126</ele>
        <time>2025-12-29T11:55:14Z</time>
      </trkpt>
      <trkpt lat="48.59716" lon="1.93446">
        <ele>126</ele>
        <time>2025-12-29T11:55:15Z</time>
      </trkpt>
      <trkpt lat="48.59713" lon="1.93442">
        <ele>126</ele>
        <time>2025-12-29T11:55:16Z</time>
      </trkpt>
      <trkpt lat="48.59709" lon="1.93438">
        <ele>126</ele>
        <time>2025-12-29T11:55:17Z</time>
      </trkpt>
      <trkpt lat="48.59706" lon="1.93434">
        <ele>126</ele>
        <time>2025-12-29T11:55:18Z</time>
      </trkpt>
      <trkpt lat="48.59701" lon="1.9343">
        <ele>126</ele>
        <time>2025-12-29T11:55:19Z</time>
      </trkpt>
      <trkpt lat="48.59697" lon="1.93427">
        <ele>126</ele>
        <time>2025-12-29T11:55:20Z</time>
      </trkpt>
      <trkpt lat="48.59693" lon="1.93423">
        <ele>126</ele>
        <time>2025-12-29T11:55:21Z</time>
      </trkpt>
      <trkpt lat="48.59689" lon="1.9342">
        <ele>126</ele>
        <time>2025-12-29T11:55:22Z</time>
      </trkpt>
      <trkpt lat="48.59686" lon="1.93416">
        <ele>126</ele>
        <time>2025-12-29T11:55:23Z</time>
      </trkpt>
      <trkpt lat="48.59684" lon="1.93413">
        <ele>126</ele>
        <time>2025-12-29T11:55:24Z</time>
      </trkpt>
      <trkpt lat="48.59683" lon="1.93409">
        <ele>126</ele>
        <time>2025-12-29T11:55:25Z</time>
      </trkpt>
      <trkpt lat="48.59682" lon="1.93405">
        <ele>126</ele>
        <time>2025-12-29T11:55:26Z</time>
      </trkpt>
      <trkpt lat="48.59682" lon="1.93402">
        <ele>126</ele>
        <time>2025-12-29T11:55:27Z</time>
      </trkpt>
      <trkpt lat="48.59683" lon="1.93399">
        <ele>126</ele>
        <time>2025-12-29T11:55:28Z</time>
      </trkpt>
      <trkpt lat="48.59683" lon="1.93396">
        <ele>126</ele>
        <time>2025-12-29T11:55:29Z</time>
      </trkpt>
      <trkpt lat="48.59684" lon="1.93393">
        <ele>126</ele>
        <time>2025-12-29T11:55:30Z</time>
      </trkpt>
      <trkpt lat="48.59684" lon="1.9339">
        <ele>126</ele>
        <time>2025-12-29T11:55:31Z</time>
      </trkpt>
      <trkpt lat="48.59684" lon="1.93387">
        <ele>126</ele>
        <time>2025-12-29T11:55:32Z</time>
      </trkpt>
      <trkpt lat="48.59684" lon="1.93383">
        <ele>126</ele>
        <time>2025-12-29T11:55:33Z</time>
      </trkpt>
      <trkpt lat="48.59684" lon="1.93379">
        <ele>126</ele>
        <time>2025-12-29T11:55:34Z</time>
      </trkpt>
      <trkpt lat="48.59683" lon="1.93374">
        <ele>126</ele>
        <time>2025-12-29T11:55:35Z</time>
      </trkpt>
      <trkpt lat="48.59683" lon="1.93369">
        <ele>126</ele>
        <time>2025-12-29T11:55:36Z</time>
      </trkpt>
      <trkpt lat="48.59682" lon="1.93364">
        <ele>126</ele>
        <time>2025-12-29T11:55:37Z</time>
      </trkpt>
      <trkpt lat="48.59681" lon="1.93359">
        <ele>126</ele>
        <time>2025-12-29T11:55:38Z</time>
      </trkpt>
      <trkpt lat="48.59681" lon="1.93353">
        <ele>126</ele>
        <time>2025-12-29T11:55:39Z</time>
      </trkpt>
      <trkpt lat="48.5968" lon="1.93348">
        <ele>126</ele>
        <time>2025-12-29T11:55:40Z</time>
      </trkpt>
      <trkpt lat="48.5968" lon="1.93343">
        <ele>126</ele>
        <time>2025-12-29T11:55:41Z</time>
      </trkpt>
      <trkpt lat="48.59679" lon="1.93338">
        <ele>126</ele>
        <time>2025-12-29T11:55:42Z</time>
      </trkpt>
      <trkpt lat="48.59679" lon="1.93333">
        <ele>126</ele>
        <time>2025-12-29T11:55:43Z</time>
      </trkpt>
      <trkpt lat="48.59678" lon="1.93328">
        <ele>126</ele>
        <time>2025-12-29T11:55:44Z</time>
      </trkpt>
      <trkpt lat="48.59677" lon="1.93323">
        <ele>126</ele>
        <time>2025-12-29T11:55:45Z</time>
      </trkpt>
      <trkpt lat="48.59677" lon="1.93312">
        <ele>125.8</ele>
        <time>2025-12-29T11:55:47Z</time>
      </trkpt>
      <trkpt lat="48.59677" lon="1.93308">
        <ele>125.8</ele>
        <time>2025-12-29T11:55:48Z</time>
      </trkpt>
      <trkpt lat="48.59677" lon="1.93304">
        <ele>125.8</ele>
        <time>2025-12-29T11:55:49Z</time>
      </trkpt>
      <trkpt lat="48.59677" lon="1.93301">
        <ele>125.8</ele>
        <time>2025-12-29T11:55:50Z</time>
      </trkpt>
      <trkpt lat="48.59677" lon="1.93296">
        <ele>125.8</ele>
        <time>2025-12-29T11:55:52Z</time>
      </trkpt>
      <trkpt lat="48.59676" lon="1.93291">
        <ele>125.8</ele>
        <time>2025-12-29T11:55:54Z</time>
      </trkpt>
      <trkpt lat="48.59676" lon="1.93287">
        <ele>125.8</ele>
        <time>2025-12-29T11:55:56Z</time>
      </trkpt>
      <trkpt lat="48.59675" lon="1.93282">
        <ele>125.8</ele>
        <time>2025-12-29T11:55:58Z</time>
      </trkpt>
      <trkpt lat="48.59674" lon="1.93278">
        <ele>125.6</ele>
        <time>2025-12-29T11:56:00Z</time>
      </trkpt>
      <trkpt lat="48.59673" lon="1.93273">
        <ele>125.6</ele>
        <time>2025-12-29T11:56:02Z</time>
      </trkpt>
      <trkpt lat="48.59672" lon="1.93271">
        <ele>125.6</ele>
        <time>2025-12-29T11:56:03Z</time>
      </trkpt>
      <trkpt lat="48.59671" lon="1.93268">
        <ele>125.6</ele>
        <time>2025-12-29T11:56:04Z</time>
      </trkpt>
      <trkpt lat="48.5967" lon="1.93265">
        <ele>125.6</ele>
        <time>2025-12-29T11:56:05Z</time>
      </trkpt>
      <trkpt lat="48.59669" lon="1.93262">
        <ele>125.6</ele>
        <time>2025-12-29T11:56:06Z</time>
      </trkpt>
      <trkpt lat="48.59668" lon="1.93259">
        <ele>125.6</ele>
        <time>2025-12-29T11:56:07Z</time>
      </trkpt>
      <trkpt lat="48.59667" lon="1.93256">
        <ele>125.6</ele>
        <time>2025-12-29T11:56:08Z</time>
      </trkpt>
      <trkpt lat="48.59666" lon="1.93253">
        <ele>125.4</ele>
        <time>2025-12-29T11:56:09Z</time>
      </trkpt>
      <trkpt lat="48.59664" lon="1.93249">
        <ele>125.4</ele>
        <time>2025-12-29T11:56:11Z</time>
      </trkpt>
      <trkpt lat="48.59661" lon="1.93246">
        <ele>125.4</ele>
        <time>2025-12-29T11:56:13Z</time>
      </trkpt>
      <trkpt lat="48.5966" lon="1.93244">
        <ele>125.4</ele>
        <time>2025-12-29T11:56:14Z</time>
      </trkpt>
      <trkpt lat="48.59657" lon="1.93241">
        <ele>125.4</ele>
        <time>2025-12-29T11:56:16Z</time>
      </trkpt>
      <trkpt lat="48.59655" lon="1.93238">
        <ele>125.2</ele>
        <time>2025-12-29T11:56:18Z</time>
      </trkpt>
      <trkpt lat="48.59653" lon="1.93236">
        <ele>125.2</ele>
        <time>2025-12-29T11:56:20Z</time>
      </trkpt>
      <trkpt lat="48.59652" lon="1.93233">
        <ele>125.2</ele>
        <time>2025-12-29T11:56:22Z</time>
      </trkpt>
      <trkpt lat="48.59651" lon="1.9323">
        <ele>125</ele>
        <time>2025-12-29T11:56:24Z</time>
      </trkpt>
      <trkpt lat="48.59649" lon="1.93226">
        <ele>124.8</ele>
        <time>2025-12-29T11:56:26Z</time>
      </trkpt>
      <trkpt lat="48.59648" lon="1.93223">
        <ele>124.8</ele>
        <time>2025-12-29T11:56:28Z</time>
      </trkpt>
      <trkpt lat="48.59647" lon="1.93219">
        <ele>124.6</ele>
        <time>2025-12-29T11:56:30Z</time>
      </trkpt>
      <trkpt lat="48.59646" lon="1.93215">
        <ele>124.6</ele>
        <time>2025-12-29T11:56:32Z</time>
      </trkpt>
      <trkpt lat="48.59645" lon="1.93212">
        <ele>124.4</ele>
        <time>2025-12-29T11:56:34Z</time>
      </trkpt>
      <trkpt lat="48.59643" lon="1.93208">
        <ele>124.4</ele>
        <time>2025-12-29T11:56:36Z</time>
      </trkpt>
      <trkpt lat="48.59642" lon="1.93206">
        <ele>124.4</ele>
        <time>2025-12-29T11:56:37Z</time>
      </trkpt>
      <trkpt lat="48.59639" lon="1.93202">
        <ele>124.4</ele>
        <time>2025-12-29T11:56:39Z</time>
      </trkpt>
      <trkpt lat="48.59637" lon="1.93199">
        <ele>124.6</ele>
        <time>2025-12-29T11:56:41Z</time>
      </trkpt>
      <trkpt lat="48.59635" lon="1.93196">
        <ele>124.6</ele>
        <time>2025-12-29T11:56:43Z</time>
      </trkpt>
      <trkpt lat="48.59634" lon="1.93191">
        <ele>124.8</ele>
        <time>2025-12-29T11:56:45Z</time>
      </trkpt>
      <trkpt lat="48.59633" lon="1.93187">
        <ele>124.8</ele>
        <time>2025-12-29T11:56:47Z</time>
      </trkpt>
      <trkpt lat="48.59633" lon="1.93184">
        <ele>125</ele>
        <time>2025-12-29T11:56:49Z</time>
      </trkpt>
      <trkpt lat="48.59631" lon="1.93182">
        <ele>125</ele>
        <time>2025-12-29T11:56:51Z</time>
      </trkpt>
      <trkpt lat="48.5963" lon="1.93179">
        <ele>125</ele>
        <time>2025-12-29T11:56:53Z</time>
      </trkpt>
      <trkpt lat="48.59628" lon="1.93176">
        <ele>125.2</ele>
        <time>2025-12-29T11:56:55Z</time>
      </trkpt>
      <trkpt lat="48.59627" lon="1.93172">
        <ele>125.2</ele>
        <time>2025-12-29T11:56:57Z</time>
      </trkpt>
      <trkpt lat="48.59626" lon="1.9317">
        <ele>125.2</ele>
        <time>2025-12-29T11:56:58Z</time>
      </trkpt>
      <trkpt lat="48.59625" lon="1.93166">
        <ele>125.4</ele>
        <time>2025-12-29T11:57:00Z</time>
      </trkpt>
      <trkpt lat="48.59623" lon="1.93162">
        <ele>125.4</ele>
        <time>2025-12-29T11:57:02Z</time>
      </trkpt>
      <trkpt lat="48.59622" lon="1.93159">
        <ele>125.4</ele>
        <time>2025-12-29T11:57:04Z</time>
      </trkpt>
      <trkpt lat="48.59621" lon="1.93156">
        <ele>125.4</ele>
        <time>2025-12-29T11:57:06Z</time>
      </trkpt>
      <trkpt lat="48.5962" lon="1.93154">
        <ele>125.6</ele>
        <time>2025-12-29T11:57:08Z</time>
      </trkpt>
      <trkpt lat="48.59619" lon="1.93151">
        <ele>125.6</ele>
        <time>2025-12-29T11:57:10Z</time>
      </trkpt>
      <trkpt lat="48.59618" lon="1.93148">
        <ele>125.6</ele>
        <time>2025-12-29T11:57:12Z</time>
      </trkpt>
      <trkpt lat="48.59618" lon="1.93143">
        <ele>125.6</ele>
        <time>2025-12-29T11:57:14Z</time>
      </trkpt>
      <trkpt lat="48.59618" lon="1.93138">
        <ele>125.6</ele>
        <time>2025-12-29T11:57:16Z</time>
      </trkpt>
      <trkpt lat="48.59618" lon="1.93133">
        <ele>125.8</ele>
        <time>2025-12-29T11:57:18Z</time>
      </trkpt>
      <trkpt lat="48.59617" lon="1.93129">
        <ele>125.8</ele>
        <time>2025-12-29T11:57:20Z</time>
      </trkpt>
      <trkpt lat="48.59616" lon="1.93125">
        <ele>125.8</ele>
        <time>2025-12-29T11:57:22Z</time>
      </trkpt>
      <trkpt lat="48.59614" lon="1.93121">
        <ele>125.8</ele>
        <time>2025-12-29T11:57:24Z</time>
      </trkpt>
      <trkpt lat="48.59612" lon="1.93117">
        <ele>126</ele>
        <time>2025-12-29T11:57:26Z</time>
      </trkpt>
      <trkpt lat="48.5961" lon="1.93113">
        <ele>126</ele>
        <time>2025-12-29T11:57:28Z</time>
      </trkpt>
      <trkpt lat="48.59608" lon="1.93111">
        <ele>126</ele>
        <time>2025-12-29T11:57:29Z</time>
      </trkpt>
      <trkpt lat="48.59607" lon="1.93107">
        <ele>126</ele>
        <time>2025-12-29T11:57:31Z</time>
      </trkpt>
      <trkpt lat="48.59606" lon="1.93103">
        <ele>126</ele>
        <time>2025-12-29T11:57:33Z</time>
      </trkpt>
      <trkpt lat="48.59605" lon="1.931">
        <ele>126</ele>
        <time>2025-12-29T11:57:35Z</time>
      </trkpt>
      <trkpt lat="48.59604" lon="1.93097">
        <ele>126</ele>
        <time>2025-12-29T11:57:37Z</time>
      </trkpt>
      <trkpt lat="48.59603" lon="1.93095">
        <ele>126</ele>
        <time>2025-12-29T11:57:39Z</time>
      </trkpt>
      <trkpt lat="48.596" lon="1.93094">
        <ele>126.2</ele>
        <time>2025-12-29T11:57:41Z</time>
      </trkpt>
      <trkpt lat="48.59597" lon="1.93093">
        <ele>126.2</ele>
        <time>2025-12-29T11:57:43Z</time>
      </trkpt>
      <trkpt lat="48.59595" lon="1.93092">
        <ele>126.2</ele>
        <time>2025-12-29T11:57:45Z</time>
      </trkpt>
      <trkpt lat="48.59593" lon="1.93089">
        <ele>126.2</ele>
        <time>2025-12-29T11:57:47Z</time>
      </trkpt>
      <trkpt lat="48.59592" lon="1.93086">
        <ele>126.2</ele>
        <time>2025-12-29T11:57:49Z</time>
      </trkpt>
      <trkpt lat="48.59591" lon="1.93083">
        <ele>126.2</ele>
        <time>2025-12-29T11:57:51Z</time>
      </trkpt>
      <trkpt lat="48.5959" lon="1.9308">
        <ele>126.2</ele>
        <time>2025-12-29T11:57:53Z</time>
      </trkpt>
      <trkpt lat="48.5959" lon="1.93076">
        <ele>126.2</ele>
        <time>2025-12-29T11:57:55Z</time>
      </trkpt>
      <trkpt lat="48.5959" lon="1.93071">
        <ele>126.2</ele>
        <time>2025-12-29T11:57:57Z</time>
      </trkpt>
      <trkpt lat="48.59589" lon="1.93067">
        <ele>126.2</ele>
        <time>2025-12-29T11:57:59Z</time>
      </trkpt>
      <trkpt lat="48.59588" lon="1.93064">
        <ele>126.4</ele>
        <time>2025-12-29T11:58:00Z</time>
      </trkpt>
      <trkpt lat="48.59588" lon="1.93062">
        <ele>126.4</ele>
        <time>2025-12-29T11:58:01Z</time>
      </trkpt>
      <trkpt lat="48.59587" lon="1.93059">
        <ele>126.4</ele>
        <time>2025-12-29T11:58:02Z</time>
      </trkpt>
      <trkpt lat="48.59586" lon="1.93056">
        <ele>126.4</ele>
        <time>2025-12-29T11:58:03Z</time>
      </trkpt>
      <trkpt lat="48.59585" lon="1.93052">
        <ele>126.4</ele>
        <time>2025-12-29T11:58:04Z</time>
      </trkpt>
      <trkpt lat="48.59584" lon="1.93049">
        <ele>126.4</ele>
        <time>2025-12-29T11:58:05Z</time>
      </trkpt>
      <trkpt lat="48.59583" lon="1.93045">
        <ele>126.4</ele>
        <time>2025-12-29T11:58:06Z</time>
      </trkpt>
      <trkpt lat="48.59583" lon="1.93043">
        <ele>126.4</ele>
        <time>2025-12-29T11:58:07Z</time>
      </trkpt>
      <trkpt lat="48.59582" lon="1.93038">
        <ele>126.4</ele>
        <time>2025-12-29T11:58:09Z</time>
      </trkpt>
      <trkpt lat="48.59582" lon="1.93035">
        <ele>126.4</ele>
        <time>2025-12-29T11:58:11Z</time>
      </trkpt>
      <trkpt lat="48.5958" lon="1.93032">
        <ele>126.4</ele>
        <time>2025-12-29T11:58:13Z</time>
      </trkpt>
      <trkpt lat="48.59579" lon="1.9303">
        <ele>126.4</ele>
        <time>2025-12-29T11:58:15Z</time>
      </trkpt>
      <trkpt lat="48.59576" lon="1.93026">
        <ele>126.4</ele>
        <time>2025-12-29T11:58:17Z</time>
      </trkpt>
      <trkpt lat="48.59575" lon="1.93023">
        <ele>126.4</ele>
        <time>2025-12-29T11:58:18Z</time>
      </trkpt>
      <trkpt lat="48.59574" lon="1.93021">
        <ele>126.4</ele>
        <time>2025-12-29T11:58:19Z</time>
      </trkpt>
      <trkpt lat="48.59572" lon="1.93017">
        <ele>126.2</ele>
        <time>2025-12-29T11:58:21Z</time>
      </trkpt>
      <trkpt lat="48.59572" lon="1.93014">
        <ele>126.2</ele>
        <time>2025-12-29T11:58:23Z</time>
      </trkpt>
      <trkpt lat="48.5957" lon="1.93011">
        <ele>126</ele>
        <time>2025-12-29T11:58:25Z</time>
      </trkpt>
      <trkpt lat="48.59568" lon="1.93008">
        <ele>126</ele>
        <time>2025-12-29T11:58:27Z</time>
      </trkpt>
      <trkpt lat="48.59567" lon="1.93006">
        <ele>125.8</ele>
        <time>2025-12-29T11:58:28Z</time>
      </trkpt>
      <trkpt lat="48.59564" lon="1.93001">
        <ele>125.8</ele>
        <time>2025-12-29T11:58:30Z</time>
      </trkpt>
      <trkpt lat="48.59563" lon="1.92996">
        <ele>125.6</ele>
        <time>2025-12-29T11:58:32Z</time>
      </trkpt>
      <trkpt lat="48.59562" lon="1.92992">
        <ele>125.6</ele>
        <time>2025-12-29T11:58:34Z</time>
      </trkpt>
      <trkpt lat="48.59562" lon="1.92989">
        <ele>125.4</ele>
        <time>2025-12-29T11:58:36Z</time>
      </trkpt>
      <trkpt lat="48.59561" lon="1.92985">
        <ele>125.4</ele>
        <time>2025-12-29T11:58:38Z</time>
      </trkpt>
      <trkpt lat="48.59559" lon="1.92981">
        <ele>125.2</ele>
        <time>2025-12-29T11:58:40Z</time>
      </trkpt>
      <trkpt lat="48.59557" lon="1.92977">
        <ele>125.2</ele>
        <time>2025-12-29T11:58:42Z</time>
      </trkpt>
      <trkpt lat="48.59555" lon="1.92974">
        <ele>125</ele>
        <time>2025-12-29T11:58:44Z</time>
      </trkpt>
      <trkpt lat="48.59553" lon="1.92971">
        <ele>124.8</ele>
        <time>2025-12-29T11:58:46Z</time>
      </trkpt>
      <trkpt lat="48.59551" lon="1.92967">
        <ele>124.8</ele>
        <time>2025-12-29T11:58:48Z</time>
      </trkpt>
      <trkpt lat="48.5955" lon="1.92965">
        <ele>124.6</ele>
        <time>2025-12-29T11:58:49Z</time>
      </trkpt>
      <trkpt lat="48.5955" lon="1.92962">
        <ele>124.6</ele>
        <time>2025-12-29T11:58:50Z</time>
      </trkpt>
      <trkpt lat="48.59549" lon="1.92959">
        <ele>124.4</ele>
        <time>2025-12-29T11:58:51Z</time>
      </trkpt>
      <trkpt lat="48.59548" lon="1.92954">
        <ele>124.4</ele>
        <time>2025-12-29T11:58:53Z</time>
      </trkpt>
      <trkpt lat="48.59548" lon="1.9295">
        <ele>124.2</ele>
        <time>2025-12-29T11:58:55Z</time>
      </trkpt>
      <trkpt lat="48.59547" lon="1.92947">
        <ele>124</ele>
        <time>2025-12-29T11:58:57Z</time>
      </trkpt>
      <trkpt lat="48.59546" lon="1.92944">
        <ele>124</ele>
        <time>2025-12-29T11:58:59Z</time>
      </trkpt>
      <trkpt lat="48.59544" lon="1.92942">
        <ele>124</ele>
        <time>2025-12-29T11:59:01Z</time>
      </trkpt>
      <trkpt lat="48.59542" lon="1.92939">
        <ele>124</ele>
        <time>2025-12-29T11:59:03Z</time>
      </trkpt>
      <trkpt lat="48.59541" lon="1.92937">
        <ele>124</ele>
        <time>2025-12-29T11:59:05Z</time>
      </trkpt>
      <trkpt lat="48.5954" lon="1.92933">
        <ele>124.2</ele>
        <time>2025-12-29T11:59:07Z</time>
      </trkpt>
      <trkpt lat="48.5954" lon="1.9293">
        <ele>124.2</ele>
        <time>2025-12-29T11:59:09Z</time>
      </trkpt>
      <trkpt lat="48.59539" lon="1.92927">
        <ele>124.4</ele>
        <time>2025-12-29T11:59:11Z</time>
      </trkpt>
      <trkpt lat="48.59538" lon="1.92924">
        <ele>124.4</ele>
        <time>2025-12-29T11:59:13Z</time>
      </trkpt>
      <trkpt lat="48.59536" lon="1.9292">
        <ele>124.6</ele>
        <time>2025-12-29T11:59:15Z</time>
      </trkpt>
      <trkpt lat="48.59535" lon="1.92916">
        <ele>124.6</ele>
        <time>2025-12-29T11:59:17Z</time>
      </trkpt>
      <trkpt lat="48.59533" lon="1.92911">
        <ele>124.8</ele>
        <time>2025-12-29T11:59:19Z</time>
      </trkpt>
      <trkpt lat="48.59532" lon="1.92908">
        <ele>124.8</ele>
        <time>2025-12-29T11:59:20Z</time>
      </trkpt>
      <trkpt lat="48.59531" lon="1.92904">
        <ele>124.8</ele>
        <time>2025-12-29T11:59:22Z</time>
      </trkpt>
      <trkpt lat="48.5953" lon="1.92899">
        <ele>125</ele>
        <time>2025-12-29T11:59:24Z</time>
      </trkpt>
      <trkpt lat="48.5953" lon="1.92896">
        <ele>125</ele>
        <time>2025-12-29T11:59:26Z</time>
      </trkpt>
      <trkpt lat="48.5953" lon="1.92893">
        <ele>125.2</ele>
        <time>2025-12-29T11:59:28Z</time>
      </trkpt>
      <trkpt lat="48.5953" lon="1.9289">
        <ele>125.2</ele>
        <time>2025-12-29T11:59:30Z</time>
      </trkpt>
      <trkpt lat="48.5953" lon="1.92885">
        <ele>125.4</ele>
        <time>2025-12-29T11:59:32Z</time>
      </trkpt>
      <trkpt lat="48.5953" lon="1.9288">
        <ele>125.4</ele>
        <time>2025-12-29T11:59:34Z</time>
      </trkpt>
      <trkpt lat="48.59528" lon="1.92877">
        <ele>125.4</ele>
        <time>2025-12-29T11:59:35Z</time>
      </trkpt>
      <trkpt lat="48.59526" lon="1.92874">
        <ele>125.4</ele>
        <time>2025-12-29T11:59:36Z</time>
      </trkpt>
      <trkpt lat="48.59523" lon="1.92871">
        <ele>125.4</ele>
        <time>2025-12-29T11:59:37Z</time>
      </trkpt>
      <trkpt lat="48.59519" lon="1.92868">
        <ele>125.6</ele>
        <time>2025-12-29T11:59:38Z</time>
      </trkpt>
      <trkpt lat="48.59515" lon="1.92864">
        <ele>125.6</ele>
        <time>2025-12-29T11:59:39Z</time>
      </trkpt>
      <trkpt lat="48.5951" lon="1.92861">
        <ele>125.6</ele>
        <time>2025-12-29T11:59:40Z</time>
      </trkpt>
      <trkpt lat="48.59507" lon="1.92857">
        <ele>125.6</ele>
        <time>2025-12-29T11:59:41Z</time>
      </trkpt>
      <trkpt lat="48.59504" lon="1.92854">
        <ele>125.8</ele>
        <time>2025-12-29T11:59:42Z</time>
      </trkpt>
      <trkpt lat="48.59502" lon="1.92852">
        <ele>125.8</ele>
        <time>2025-12-29T11:59:43Z</time>
      </trkpt>
      <trkpt lat="48.595" lon="1.92848">
        <ele>126</ele>
        <time>2025-12-29T11:59:45Z</time>
      </trkpt>
      <trkpt lat="48.59499" lon="1.92846">
        <ele>126</ele>
        <time>2025-12-29T11:59:47Z</time>
      </trkpt>
      <trkpt lat="48.59499" lon="1.92843">
        <ele>126.6</ele>
        <time>2025-12-29T11:59:51Z</time>
      </trkpt>
      <trkpt lat="48.59501" lon="1.92844">
        <ele>127</ele>
        <time>2025-12-29T11:59:57Z</time>
      </trkpt>
      <trkpt lat="48.59503" lon="1.92844">
        <ele>127.2</ele>
        <time>2025-12-29T12:00:00Z</time>
      </trkpt>
      <trkpt lat="48.59502" lon="1.9284">
        <ele>127.4</ele>
        <time>2025-12-29T12:00:04Z</time>
      </trkpt>
      <trkpt lat="48.59501" lon="1.92838">
        <ele>127.4</ele>
        <time>2025-12-29T12:00:06Z</time>
      </trkpt>
      <trkpt lat="48.595" lon="1.92834">
        <ele>127.8</ele>
        <time>2025-12-29T12:00:09Z</time>
      </trkpt>
      <trkpt lat="48.59501" lon="1.9283">
        <ele>128</ele>
        <time>2025-12-29T12:00:11Z</time>
      </trkpt>
      <trkpt lat="48.59501" lon="1.92826">
        <ele>128.2</ele>
        <time>2025-12-29T12:00:13Z</time>
      </trkpt>
      <trkpt lat="48.595" lon="1.92823">
        <ele>128.4</ele>
        <time>2025-12-29T12:00:15Z</time>
      </trkpt>
      <trkpt lat="48.59499" lon="1.9282">
        <ele>128.6</ele>
        <time>2025-12-29T12:00:17Z</time>
      </trkpt>
      <trkpt lat="48.59497" lon="1.92817">
        <ele>128.8</ele>
        <time>2025-12-29T12:00:19Z</time>
      </trkpt>
      <trkpt lat="48.59496" lon="1.92814">
        <ele>129</ele>
        <time>2025-12-29T12:00:21Z</time>
      </trkpt>
      <trkpt lat="48.59494" lon="1.92812">
        <ele>129.2</ele>
        <time>2025-12-29T12:00:23Z</time>
      </trkpt>
      <trkpt lat="48.59492" lon="1.92809">
        <ele>129.4</ele>
        <time>2025-12-29T12:00:25Z</time>
      </trkpt>
      <trkpt lat="48.59491" lon="1.92806">
        <ele>129.6</ele>
        <time>2025-12-29T12:00:27Z</time>
      </trkpt>
      <trkpt lat="48.59491" lon="1.92802">
        <ele>129.8</ele>
        <time>2025-12-29T12:00:29Z</time>
      </trkpt>
      <trkpt lat="48.5949" lon="1.92797">
        <ele>130</ele>
        <time>2025-12-29T12:00:31Z</time>
      </trkpt>
      <trkpt lat="48.5949" lon="1.92792">
        <ele>130.4</ele>
        <time>2025-12-29T12:00:33Z</time>
      </trkpt>
      <trkpt lat="48.59489" lon="1.92788">
        <ele>130.6</ele>
        <time>2025-12-29T12:00:35Z</time>
      </trkpt>
      <trkpt lat="48.59487" lon="1.92783">
        <ele>130.8</ele>
        <time>2025-12-29T12:00:37Z</time>
      </trkpt>
      <trkpt lat="48.59486" lon="1.9278">
        <ele>131.2</ele>
        <time>2025-12-29T12:00:39Z</time>
      </trkpt>
      <trkpt lat="48.59484" lon="1.92776">
        <ele>131.4</ele>
        <time>2025-12-29T12:00:41Z</time>
      </trkpt>
      <trkpt lat="48.59481" lon="1.92772">
        <ele>131.6</ele>
        <time>2025-12-29T12:00:43Z</time>
      </trkpt>
      <trkpt lat="48.59478" lon="1.92768">
        <ele>131.8</ele>
        <time>2025-12-29T12:00:45Z</time>
      </trkpt>
      <trkpt lat="48.59477" lon="1.92766">
        <ele>132.2</ele>
        <time>2025-12-29T12:00:47Z</time>
      </trkpt>
      <trkpt lat="48.59476" lon="1.92762">
        <ele>132.4</ele>
        <time>2025-12-29T12:00:49Z</time>
      </trkpt>
      <trkpt lat="48.59475" lon="1.92757">
        <ele>132.6</ele>
        <time>2025-12-29T12:00:51Z</time>
      </trkpt>
      <trkpt lat="48.59474" lon="1.92753">
        <ele>132.8</ele>
        <time>2025-12-29T12:00:53Z</time>
      </trkpt>
      <trkpt lat="48.59473" lon="1.9275">
        <ele>133</ele>
        <time>2025-12-29T12:00:55Z</time>
      </trkpt>
      <trkpt lat="48.59471" lon="1.92747">
        <ele>133.2</ele>
        <time>2025-12-29T12:00:57Z</time>
      </trkpt>
      <trkpt lat="48.5947" lon="1.92744">
        <ele>133.4</ele>
        <time>2025-12-29T12:00:59Z</time>
      </trkpt>
      <trkpt lat="48.59469" lon="1.92742">
        <ele>133.6</ele>
        <time>2025-12-29T12:01:01Z</time>
      </trkpt>
      <trkpt lat="48.59467" lon="1.9274">
        <ele>133.8</ele>
        <time>2025-12-29T12:01:03Z</time>
      </trkpt>
      <trkpt lat="48.59465" lon="1.92737">
        <ele>134</ele>
        <time>2025-12-29T12:01:05Z</time>
      </trkpt>
      <trkpt lat="48.59463" lon="1.92734">
        <ele>134.2</ele>
        <time>2025-12-29T12:01:07Z</time>
      </trkpt>
      <trkpt lat="48.59462" lon="1.92731">
        <ele>134.4</ele>
        <time>2025-12-29T12:01:09Z</time>
      </trkpt>
      <trkpt lat="48.5946" lon="1.92727">
        <ele>134.6</ele>
        <time>2025-12-29T12:01:11Z</time>
      </trkpt>
      <trkpt lat="48.59459" lon="1.92724">
        <ele>134.8</ele>
        <time>2025-12-29T12:01:14Z</time>
      </trkpt>
      <trkpt lat="48.59457" lon="1.92721">
        <ele>135</ele>
        <time>2025-12-29T12:01:16Z</time>
      </trkpt>
      <trkpt lat="48.59457" lon="1.92718">
        <ele>135</ele>
        <time>2025-12-29T12:01:17Z</time>
      </trkpt>
      <trkpt lat="48.59458" lon="1.92715">
        <ele>135</ele>
        <time>2025-12-29T12:01:19Z</time>
      </trkpt>
      <trkpt lat="48.59459" lon="1.92712">
        <ele>135.2</ele>
        <time>2025-12-29T12:01:21Z</time>
      </trkpt>
      <trkpt lat="48.5946" lon="1.92708">
        <ele>135.2</ele>
        <time>2025-12-29T12:01:23Z</time>
      </trkpt>
      <trkpt lat="48.59459" lon="1.92705">
        <ele>135.2</ele>
        <time>2025-12-29T12:01:25Z</time>
      </trkpt>
      <trkpt lat="48.59457" lon="1.92703">
        <ele>135.4</ele>
        <time>2025-12-29T12:01:28Z</time>
      </trkpt>
      <trkpt lat="48.59455" lon="1.92699">
        <ele>135.4</ele>
        <time>2025-12-29T12:01:31Z</time>
      </trkpt>
      <trkpt lat="48.59453" lon="1.92695">
        <ele>135.6</ele>
        <time>2025-12-29T12:01:33Z</time>
      </trkpt>
      <trkpt lat="48.59452" lon="1.92689">
        <ele>135.6</ele>
        <time>2025-12-29T12:01:35Z</time>
      </trkpt>
      <trkpt lat="48.59451" lon="1.92681">
        <ele>135.6</ele>
        <time>2025-12-29T12:01:37Z</time>
      </trkpt>
      <trkpt lat="48.59449" lon="1.92676">
        <ele>135.8</ele>
        <time>2025-12-29T12:01:39Z</time>
      </trkpt>
      <trkpt lat="48.59448" lon="1.92672">
        <ele>135.8</ele>
        <time>2025-12-29T12:01:41Z</time>
      </trkpt>
      <trkpt lat="48.59446" lon="1.92667">
        <ele>136</ele>
        <time>2025-12-29T12:01:43Z</time>
      </trkpt>
      <trkpt lat="48.59445" lon="1.92665">
        <ele>136</ele>
        <time>2025-12-29T12:01:44Z</time>
      </trkpt>
      <trkpt lat="48.59443" lon="1.92661">
        <ele>136</ele>
        <time>2025-12-29T12:01:47Z</time>
      </trkpt>
      <trkpt lat="48.59442" lon="1.92657">
        <ele>136</ele>
        <time>2025-12-29T12:01:49Z</time>
      </trkpt>
      <trkpt lat="48.59441" lon="1.92651">
        <ele>136.2</ele>
        <time>2025-12-29T12:01:51Z</time>
      </trkpt>
      <trkpt lat="48.5944" lon="1.92648">
        <ele>136.2</ele>
        <time>2025-12-29T12:01:53Z</time>
      </trkpt>
      <trkpt lat="48.59439" lon="1.92646">
        <ele>136.2</ele>
        <time>2025-12-29T12:01:55Z</time>
      </trkpt>
      <trkpt lat="48.59438" lon="1.92643">
        <ele>136.2</ele>
        <time>2025-12-29T12:01:58Z</time>
      </trkpt>
      <trkpt lat="48.59436" lon="1.92641">
        <ele>136.2</ele>
        <time>2025-12-29T12:02:00Z</time>
      </trkpt>
      <trkpt lat="48.59434" lon="1.9264">
        <ele>136.2</ele>
        <time>2025-12-29T12:02:02Z</time>
      </trkpt>
      <trkpt lat="48.59431" lon="1.92638">
        <ele>136</ele>
        <time>2025-12-29T12:02:04Z</time>
      </trkpt>
      <trkpt lat="48.59428" lon="1.92635">
        <ele>136</ele>
        <time>2025-12-29T12:02:06Z</time>
      </trkpt>
      <trkpt lat="48.59427" lon="1.92634">
        <ele>136</ele>
        <time>2025-12-29T12:02:07Z</time>
      </trkpt>
      <trkpt lat="48.59425" lon="1.92632">
        <ele>136</ele>
        <time>2025-12-29T12:02:08Z</time>
      </trkpt>
      <trkpt lat="48.59424" lon="1.92628">
        <ele>135.8</ele>
        <time>2025-12-29T12:02:10Z</time>
      </trkpt>
      <trkpt lat="48.59423" lon="1.92623">
        <ele>135.8</ele>
        <time>2025-12-29T12:02:12Z</time>
      </trkpt>
      <trkpt lat="48.59423" lon="1.92618">
        <ele>135.6</ele>
        <time>2025-12-29T12:02:15Z</time>
      </trkpt>
      <trkpt lat="48.59422" lon="1.92614">
        <ele>135.4</ele>
        <time>2025-12-29T12:02:17Z</time>
      </trkpt>
      <trkpt lat="48.5942" lon="1.92611">
        <ele>135.2</ele>
        <time>2025-12-29T12:02:19Z</time>
      </trkpt>
      <trkpt lat="48.5939" lon="1.92464">
        <ele>136</ele>
        <time>2025-12-29T12:03:33Z</time>
      </trkpt>
      <trkpt lat="48.59392" lon="1.9246">
        <ele>136.8</ele>
        <time>2025-12-29T12:03:35Z</time>
      </trkpt>
      <trkpt lat="48.59393" lon="1.92457">
        <ele>137.4</ele>
        <time>2025-12-29T12:03:37Z</time>
      </trkpt>
      <trkpt lat="48.59391" lon="1.92453">
        <ele>138</ele>
        <time>2025-12-29T12:03:39Z</time>
      </trkpt>
      <trkpt lat="48.5939" lon="1.9245">
        <ele>138.6</ele>
        <time>2025-12-29T12:03:41Z</time>
      </trkpt>
      <trkpt lat="48.5939" lon="1.92447">
        <ele>139.2</ele>
        <time>2025-12-29T12:03:43Z</time>
      </trkpt>
      <trkpt lat="48.59391" lon="1.92443">
        <ele>139.6</ele>
        <time>2025-12-29T12:03:45Z</time>
      </trkpt>
      <trkpt lat="48.59392" lon="1.92438">
        <ele>140</ele>
        <time>2025-12-29T12:03:47Z</time>
      </trkpt>
      <trkpt lat="48.59393" lon="1.92435">
        <ele>140.2</ele>
        <time>2025-12-29T12:03:48Z</time>
      </trkpt>
      <trkpt lat="48.59393" lon="1.92433">
        <ele>140.4</ele>
        <time>2025-12-29T12:03:49Z</time>
      </trkpt>
      <trkpt lat="48.59394" lon="1.9243">
        <ele>140.6</ele>
        <time>2025-12-29T12:03:50Z</time>
      </trkpt>
      <trkpt lat="48.59395" lon="1.92426">
        <ele>140.6</ele>
        <time>2025-12-29T12:03:51Z</time>
      </trkpt>
      <trkpt lat="48.59396" lon="1.92423">
        <ele>140.8</ele>
        <time>2025-12-29T12:03:52Z</time>
      </trkpt>
      <trkpt lat="48.59396" lon="1.9242">
        <ele>141</ele>
        <time>2025-12-29T12:03:53Z</time>
      </trkpt>
      <trkpt lat="48.59397" lon="1.92416">
        <ele>141.2</ele>
        <time>2025-12-29T12:03:54Z</time>
      </trkpt>
      <trkpt lat="48.59398" lon="1.92413">
        <ele>141.4</ele>
        <time>2025-12-29T12:03:55Z</time>
      </trkpt>
      <trkpt lat="48.59399" lon="1.9241">
        <ele>141.6</ele>
        <time>2025-12-29T12:03:56Z</time>
      </trkpt>
      <trkpt lat="48.594" lon="1.92407">
        <ele>141.8</ele>
        <time>2025-12-29T12:03:57Z</time>
      </trkpt>
      <trkpt lat="48.59401" lon="1.92404">
        <ele>142</ele>
        <time>2025-12-29T12:03:58Z</time>
      </trkpt>
      <trkpt lat="48.59401" lon="1.924">
        <ele>142.2</ele>
        <time>2025-12-29T12:03:59Z</time>
      </trkpt>
      <trkpt lat="48.59401" lon="1.92397">
        <ele>142.4</ele>
        <time>2025-12-29T12:04:00Z</time>
      </trkpt>
      <trkpt lat="48.59401" lon="1.92394">
        <ele>142.6</ele>
        <time>2025-12-29T12:04:01Z</time>
      </trkpt>
      <trkpt lat="48.59401" lon="1.92389">
        <ele>143</ele>
        <time>2025-12-29T12:04:03Z</time>
      </trkpt>
      <trkpt lat="48.594" lon="1.92385">
        <ele>143.4</ele>
        <time>2025-12-29T12:04:05Z</time>
      </trkpt>
      <trkpt lat="48.59399" lon="1.92381">
        <ele>143.8</ele>
        <time>2025-12-29T12:04:07Z</time>
      </trkpt>
      <trkpt lat="48.59397" lon="1.92377">
        <ele>144.2</ele>
        <time>2025-12-29T12:04:09Z</time>
      </trkpt>
      <trkpt lat="48.59395" lon="1.92374">
        <ele>144.6</ele>
        <time>2025-12-29T12:04:11Z</time>
      </trkpt>
      <trkpt lat="48.59394" lon="1.92372">
        <ele>145</ele>
        <time>2025-12-29T12:04:12Z</time>
      </trkpt>
      <trkpt lat="48.59393" lon="1.92367">
        <ele>145.4</ele>
        <time>2025-12-29T12:04:14Z</time>
      </trkpt>
      <trkpt lat="48.59393" lon="1.92362">
        <ele>145.8</ele>
        <time>2025-12-29T12:04:16Z</time>
      </trkpt>
      <trkpt lat="48.59393" lon="1.92358">
        <ele>146.2</ele>
        <time>2025-12-29T12:04:18Z</time>
      </trkpt>
      <trkpt lat="48.59395" lon="1.92356">
        <ele>146.4</ele>
        <time>2025-12-29T12:04:19Z</time>
      </trkpt>
      <trkpt lat="48.59397" lon="1.92352">
        <ele>146.8</ele>
        <time>2025-12-29T12:04:21Z</time>
      </trkpt>
      <trkpt lat="48.59371" lon="1.92314">
        <ele>150</ele>
        <time>2025-12-29T12:04:49Z</time>
      </trkpt>
      <trkpt lat="48.59369" lon="1.92312">
        <ele>150.2</ele>
        <time>2025-12-29T12:04:51Z</time>
      </trkpt>
      <trkpt lat="48.59368" lon="1.9231">
        <ele>150.2</ele>
        <time>2025-12-29T12:04:53Z</time>
      </trkpt>
      <trkpt lat="48.59366" lon="1.92307">
        <ele>150.4</ele>
        <time>2025-12-29T12:04:56Z</time>
      </trkpt>
      <trkpt lat="48.59365" lon="1.92303">
        <ele>150.4</ele>
        <time>2025-12-29T12:04:58Z</time>
      </trkpt>
      <trkpt lat="48.59364" lon="1.92299">
        <ele>150.6</ele>
        <time>2025-12-29T12:05:00Z</time>
      </trkpt>
      <trkpt lat="48.59363" lon="1.92294">
        <ele>150.6</ele>
        <time>2025-12-29T12:05:02Z</time>
      </trkpt>
      <trkpt lat="48.59361" lon="1.9229">
        <ele>150.6</ele>
        <time>2025-12-29T12:05:04Z</time>
      </trkpt>
      <trkpt lat="48.5936" lon="1.92288">
        <ele>150.6</ele>
        <time>2025-12-29T12:05:05Z</time>
      </trkpt>
      <trkpt lat="48.59358" lon="1.92284">
        <ele>150.8</ele>
        <time>2025-12-29T12:05:07Z</time>
      </trkpt>
      <trkpt lat="48.59356" lon="1.92281">
        <ele>150.8</ele>
        <time>2025-12-29T12:05:09Z</time>
      </trkpt>
      <trkpt lat="48.59354" lon="1.92279">
        <ele>150.8</ele>
        <time>2025-12-29T12:05:11Z</time>
      </trkpt>
      <trkpt lat="48.59352" lon="1.92277">
        <ele>150.8</ele>
        <time>2025-12-29T12:05:13Z</time>
      </trkpt>
      <trkpt lat="48.59351" lon="1.92275">
        <ele>150.6</ele>
        <time>2025-12-29T12:05:15Z</time>
      </trkpt>
      <trkpt lat="48.5935" lon="1.92272">
        <ele>150.6</ele>
        <time>2025-12-29T12:05:17Z</time>
      </trkpt>
      <trkpt lat="48.59349" lon="1.9227">
        <ele>150.4</ele>
        <time>2025-12-29T12:05:19Z</time>
      </trkpt>
      <trkpt lat="48.59349" lon="1.92266">
        <ele>150.2</ele>
        <time>2025-12-29T12:05:21Z</time>
      </trkpt>
      <trkpt lat="48.59348" lon="1.92262">
        <ele>150.2</ele>
        <time>2025-12-29T12:05:23Z</time>
      </trkpt>
      <trkpt lat="48.59348" lon="1.92258">
        <ele>150</ele>
        <time>2025-12-29T12:05:25Z</time>
      </trkpt>
      <trkpt lat="48.59339" lon="1.92231">
        <ele>149.8</ele>
        <time>2025-12-29T12:05:43Z</time>
      </trkpt>
      <trkpt lat="48.5934" lon="1.92227">
        <ele>149.8</ele>
        <time>2025-12-29T12:05:45Z</time>
      </trkpt>
      <trkpt lat="48.5934" lon="1.92223">
        <ele>149.6</ele>
        <time>2025-12-29T12:05:47Z</time>
      </trkpt>
      <trkpt lat="48.59341" lon="1.92219">
        <ele>149.6</ele>
        <time>2025-12-29T12:05:49Z</time>
      </trkpt>
      <trkpt lat="48.5934" lon="1.92216">
        <ele>149.4</ele>
        <time>2025-12-29T12:05:51Z</time>
      </trkpt>
      <trkpt lat="48.5934" lon="1.92212">
        <ele>149.4</ele>
        <time>2025-12-29T12:05:53Z</time>
      </trkpt>
      <trkpt lat="48.59339" lon="1.92208">
        <ele>149.2</ele>
        <time>2025-12-29T12:05:55Z</time>
      </trkpt>
      <trkpt lat="48.59339" lon="1.92204">
        <ele>149</ele>
        <time>2025-12-29T12:05:57Z</time>
      </trkpt>
      <trkpt lat="48.59338" lon="1.92201">
        <ele>149</ele>
        <time>2025-12-29T12:05:59Z</time>
      </trkpt>
      <trkpt lat="48.59338" lon="1.92198">
        <ele>148.8</ele>
        <time>2025-12-29T12:06:01Z</time>
      </trkpt>
      <trkpt lat="48.59338" lon="1.92194">
        <ele>148.6</ele>
        <time>2025-12-29T12:06:03Z</time>
      </trkpt>
      <trkpt lat="48.59338" lon="1.9219">
        <ele>148.6</ele>
        <time>2025-12-29T12:06:05Z</time>
      </trkpt>
      <trkpt lat="48.59338" lon="1.92185">
        <ele>148.4</ele>
        <time>2025-12-29T12:06:07Z</time>
      </trkpt>
      <trkpt lat="48.59338" lon="1.92181">
        <ele>148.4</ele>
        <time>2025-12-29T12:06:09Z</time>
      </trkpt>
      <trkpt lat="48.59337" lon="1.92178">
        <ele>148.4</ele>
        <time>2025-12-29T12:06:11Z</time>
      </trkpt>
      <trkpt lat="48.59336" lon="1.92174">
        <ele>148.4</ele>
        <time>2025-12-29T12:06:13Z</time>
      </trkpt>
      <trkpt lat="48.59335" lon="1.9217">
        <ele>148.4</ele>
        <time>2025-12-29T12:06:15Z</time>
      </trkpt>
      <trkpt lat="48.59334" lon="1.92166">
        <ele>148.4</ele>
        <time>2025-12-29T12:06:17Z</time>
      </trkpt>
      <trkpt lat="48.59333" lon="1.92162">
        <ele>148.6</ele>
        <time>2025-12-29T12:06:19Z</time>
      </trkpt>
      <trkpt lat="48.59332" lon="1.92158">
        <ele>148.6</ele>
        <time>2025-12-29T12:06:21Z</time>
      </trkpt>
      <trkpt lat="48.5933" lon="1.92155">
        <ele>148.6</ele>
        <time>2025-12-29T12:06:23Z</time>
      </trkpt>
      <trkpt lat="48.5933" lon="1.92151">
        <ele>148.6</ele>
        <time>2025-12-29T12:06:25Z</time>
      </trkpt>
      <trkpt lat="48.5933" lon="1.92147">
        <ele>148.6</ele>
        <time>2025-12-29T12:06:27Z</time>
      </trkpt>
      <trkpt lat="48.5933" lon="1.92143">
        <ele>148.4</ele>
        <time>2025-12-29T12:06:29Z</time>
      </trkpt>
      <trkpt lat="48.59331" lon="1.92138">
        <ele>148.4</ele>
        <time>2025-12-29T12:06:31Z</time>
      </trkpt>
      <trkpt lat="48.59331" lon="1.92133">
        <ele>148.4</ele>
        <time>2025-12-29T12:06:33Z</time>
      </trkpt>
      <trkpt lat="48.5933" lon="1.92129">
        <ele>148.2</ele>
        <time>2025-12-29T12:06:35Z</time>
      </trkpt>
      <trkpt lat="48.5933" lon="1.92124">
        <ele>148.2</ele>
        <time>2025-12-29T12:06:37Z</time>
      </trkpt>
      <trkpt lat="48.59329" lon="1.92119">
        <ele>148</ele>
        <time>2025-12-29T12:06:39Z</time>
      </trkpt>
      <trkpt lat="48.59329" lon="1.92116">
        <ele>148</ele>
        <time>2025-12-29T12:06:40Z</time>
      </trkpt>
      <trkpt lat="48.59329" lon="1.92112">
        <ele>148</ele>
        <time>2025-12-29T12:06:41Z</time>
      </trkpt>
      <trkpt lat="48.59329" lon="1.92109">
        <ele>148</ele>
        <time>2025-12-29T12:06:42Z</time>
      </trkpt>
      <trkpt lat="48.59329" lon="1.92105">
        <ele>148</ele>
        <time>2025-12-29T12:06:43Z</time>
      </trkpt>
      <trkpt lat="48.5933" lon="1.92101">
        <ele>148</ele>
        <time>2025-12-29T12:06:44Z</time>
      </trkpt>
      <trkpt lat="48.5933" lon="1.92098">
        <ele>148</ele>
        <time>2025-12-29T12:06:45Z</time>
      </trkpt>
      <trkpt lat="48.5933" lon="1.92095">
        <ele>148</ele>
        <time>2025-12-29T12:06:46Z</time>
      </trkpt>
      <trkpt lat="48.5933" lon="1.9209">
        <ele>148</ele>
        <time>2025-12-29T12:06:48Z</time>
      </trkpt>
      <trkpt lat="48.59329" lon="1.92085">
        <ele>148</ele>
        <time>2025-12-29T12:06:50Z</time>
      </trkpt>
      <trkpt lat="48.59328" lon="1.92081">
        <ele>148</ele>
        <time>2025-12-29T12:06:52Z</time>
      </trkpt>
      <trkpt lat="48.59328" lon="1.92077">
        <ele>147.8</ele>
        <time>2025-12-29T12:06:54Z</time>
      </trkpt>
      <trkpt lat="48.59328" lon="1.92072">
        <ele>147.8</ele>
        <time>2025-12-29T12:06:56Z</time>
      </trkpt>
      <trkpt lat="48.59328" lon="1.92067">
        <ele>147.8</ele>
        <time>2025-12-29T12:06:58Z</time>
      </trkpt>
      <trkpt lat="48.59329" lon="1.92064">
        <ele>147.8</ele>
        <time>2025-12-29T12:06:59Z</time>
      </trkpt>
      <trkpt lat="48.59329" lon="1.92061">
        <ele>147.8</ele>
        <time>2025-12-29T12:07:00Z</time>
      </trkpt>
      <trkpt lat="48.5933" lon="1.92058">
        <ele>147.8</ele>
        <time>2025-12-29T12:07:01Z</time>
      </trkpt>
      <trkpt lat="48.5933" lon="1.92055">
        <ele>147.8</ele>
        <time>2025-12-29T12:07:02Z</time>
      </trkpt>
      <trkpt lat="48.5933" lon="1.9205">
        <ele>147.8</ele>
        <time>2025-12-29T12:07:04Z</time>
      </trkpt>
      <trkpt lat="48.59328" lon="1.92046">
        <ele>147.6</ele>
        <time>2025-12-29T12:07:06Z</time>
      </trkpt>
      <trkpt lat="48.59328" lon="1.92042">
        <ele>147.6</ele>
        <time>2025-12-29T12:07:08Z</time>
      </trkpt>
      <trkpt lat="48.59327" lon="1.92037">
        <ele>147.6</ele>
        <time>2025-12-29T12:07:10Z</time>
      </trkpt>
      <trkpt lat="48.59326" lon="1.92035">
        <ele>147.4</ele>
        <time>2025-12-29T12:07:11Z</time>
      </trkpt>
      <trkpt lat="48.59325" lon="1.9203">
        <ele>147.4</ele>
        <time>2025-12-29T12:07:13Z</time>
      </trkpt>
      <trkpt lat="48.59323" lon="1.92028">
        <ele>147.4</ele>
        <time>2025-12-29T12:07:15Z</time>
      </trkpt>
      <trkpt lat="48.59322" lon="1.92025">
        <ele>147.2</ele>
        <time>2025-12-29T12:07:16Z</time>
      </trkpt>
      <trkpt lat="48.5932" lon="1.92023">
        <ele>147.2</ele>
        <time>2025-12-29T12:07:17Z</time>
      </trkpt>
      <trkpt lat="48.59318" lon="1.92021">
        <ele>147.2</ele>
        <time>2025-12-29T12:07:18Z</time>
      </trkpt>
      <trkpt lat="48.59316" lon="1.92015">
        <ele>147</ele>
        <time>2025-12-29T12:07:19Z</time>
      </trkpt>
      <trkpt lat="48.59316" lon="1.92012">
        <ele>147</ele>
        <time>2025-12-29T12:07:20Z</time>
      </trkpt>
      <trkpt lat="48.59316" lon="1.92008">
        <ele>147</ele>
        <time>2025-12-29T12:07:21Z</time>
      </trkpt>
      <trkpt lat="48.59317" lon="1.92005">
        <ele>146.8</ele>
        <time>2025-12-29T12:07:22Z</time>
      </trkpt>
      <trkpt lat="48.59317" lon="1.92002">
        <ele>146.8</ele>
        <time>2025-12-29T12:07:23Z</time>
      </trkpt>
      <trkpt lat="48.59318" lon="1.91998">
        <ele>146.8</ele>
        <time>2025-12-29T12:07:25Z</time>
      </trkpt>
      <trkpt lat="48.59317" lon="1.91993">
        <ele>146.6</ele>
        <time>2025-12-29T12:07:27Z</time>
      </trkpt>
      <trkpt lat="48.59316" lon="1.91988">
        <ele>146.6</ele>
        <time>2025-12-29T12:07:29Z</time>
      </trkpt>
      <trkpt lat="48.59315" lon="1.91985">
        <ele>146.6</ele>
        <time>2025-12-29T12:07:31Z</time>
      </trkpt>
      <trkpt lat="48.59314" lon="1.91982">
        <ele>146.8</ele>
        <time>2025-12-29T12:07:33Z</time>
      </trkpt>
      <trkpt lat="48.59312" lon="1.91979">
        <ele>146.8</ele>
        <time>2025-12-29T12:07:35Z</time>
      </trkpt>
      <trkpt lat="48.59311" lon="1.91976">
        <ele>147</ele>
        <time>2025-12-29T12:07:38Z</time>
      </trkpt>
      <trkpt lat="48.5931" lon="1.91972">
        <ele>147.2</ele>
        <time>2025-12-29T12:07:40Z</time>
      </trkpt>
      <trkpt lat="48.5931" lon="1.91969">
        <ele>147.2</ele>
        <time>2025-12-29T12:07:42Z</time>
      </trkpt>
      <trkpt lat="48.59309" lon="1.91966">
        <ele>147.4</ele>
        <time>2025-12-29T12:07:44Z</time>
      </trkpt>
      <trkpt lat="48.59308" lon="1.91962">
        <ele>147.6</ele>
        <time>2025-12-29T12:07:46Z</time>
      </trkpt>
      <trkpt lat="48.59308" lon="1.91958">
        <ele>147.8</ele>
        <time>2025-12-29T12:07:48Z</time>
      </trkpt>
      <trkpt lat="48.59308" lon="1.91954">
        <ele>148</ele>
        <time>2025-12-29T12:07:50Z</time>
      </trkpt>
      <trkpt lat="48.59307" lon="1.91949">
        <ele>148.2</ele>
        <time>2025-12-29T12:07:52Z</time>
      </trkpt>
      <trkpt lat="48.59307" lon="1.91944">
        <ele>148.4</ele>
        <time>2025-12-29T12:07:54Z</time>
      </trkpt>
      <trkpt lat="48.59306" lon="1.91939">
        <ele>148.6</ele>
        <time>2025-12-29T12:07:56Z</time>
      </trkpt>
      <trkpt lat="48.59306" lon="1.91935">
        <ele>148.8</ele>
        <time>2025-12-29T12:07:58Z</time>
      </trkpt>
      <trkpt lat="48.59306" lon="1.91931">
        <ele>148.8</ele>
        <time>2025-12-29T12:08:00Z</time>
      </trkpt>
      <trkpt lat="48.59307" lon="1.91927">
        <ele>149</ele>
        <time>2025-12-29T12:08:02Z</time>
      </trkpt>
      <trkpt lat="48.5931" lon="1.91925">
        <ele>149</ele>
        <time>2025-12-29T12:08:04Z</time>
      </trkpt>
      <trkpt lat="48.59312" lon="1.91923">
        <ele>149</ele>
        <time>2025-12-29T12:08:05Z</time>
      </trkpt>
      <trkpt lat="48.59314" lon="1.91922">
        <ele>149.2</ele>
        <time>2025-12-29T12:08:06Z</time>
      </trkpt>
      <trkpt lat="48.59317" lon="1.91922">
        <ele>149.2</ele>
        <time>2025-12-29T12:08:07Z</time>
      </trkpt>
      <trkpt lat="48.59319" lon="1.91921">
        <ele>149.2</ele>
        <time>2025-12-29T12:08:08Z</time>
      </trkpt>
      <trkpt lat="48.59322" lon="1.9192">
        <ele>149.2</ele>
        <time>2025-12-29T12:08:09Z</time>
      </trkpt>
      <trkpt lat="48.59324" lon="1.9192">
        <ele>149.2</ele>
        <time>2025-12-29T12:08:10Z</time>
      </trkpt>
      <trkpt lat="48.59327" lon="1.91919">
        <ele>149.2</ele>
        <time>2025-12-29T12:08:11Z</time>
      </trkpt>
      <trkpt lat="48.59329" lon="1.91918">
        <ele>149.4</ele>
        <time>2025-12-29T12:08:12Z</time>
      </trkpt>
      <trkpt lat="48.59332" lon="1.91918">
        <ele>149.4</ele>
        <time>2025-12-29T12:08:13Z</time>
      </trkpt>
      <trkpt lat="48.59334" lon="1.91917">
        <ele>149.4</ele>
        <time>2025-12-29T12:08:14Z</time>
      </trkpt>
      <trkpt lat="48.59336" lon="1.91916">
        <ele>149.4</ele>
        <time>2025-12-29T12:08:15Z</time>
      </trkpt>
      <trkpt lat="48.59338" lon="1.91915">
        <ele>149.4</ele>
        <time>2025-12-29T12:08:16Z</time>
      </trkpt>
      <trkpt lat="48.5934" lon="1.91914">
        <ele>149.4</ele>
        <time>2025-12-29T12:08:17Z</time>
      </trkpt>
      <trkpt lat="48.59342" lon="1.91913">
        <ele>149.4</ele>
        <time>2025-12-29T12:08:18Z</time>
      </trkpt>
      <trkpt lat="48.59344" lon="1.91911">
        <ele>149.4</ele>
        <time>2025-12-29T12:08:19Z</time>
      </trkpt>
      <trkpt lat="48.59347" lon="1.9191">
        <ele>149.4</ele>
        <time>2025-12-29T12:08:20Z</time>
      </trkpt>
      <trkpt lat="48.5935" lon="1.91909">
        <ele>149.2</ele>
        <time>2025-12-29T12:08:21Z</time>
      </trkpt>
      <trkpt lat="48.59353" lon="1.91908">
        <ele>149.2</ele>
        <time>2025-12-29T12:08:22Z</time>
      </trkpt>
      <trkpt lat="48.59356" lon="1.91907">
        <ele>149.2</ele>
        <time>2025-12-29T12:08:23Z</time>
      </trkpt>
      <trkpt lat="48.59359" lon="1.91906">
        <ele>149.2</ele>
        <time>2025-12-29T12:08:24Z</time>
      </trkpt>
      <trkpt lat="48.59362" lon="1.91905">
        <ele>149</ele>
        <time>2025-12-29T12:08:25Z</time>
      </trkpt>
      <trkpt lat="48.59365" lon="1.91904">
        <ele>149</ele>
        <time>2025-12-29T12:08:26Z</time>
      </trkpt>
      <trkpt lat="48.59367" lon="1.91903">
        <ele>149</ele>
        <time>2025-12-29T12:08:27Z</time>
      </trkpt>
      <trkpt lat="48.59369" lon="1.91902">
        <ele>149</ele>
        <time>2025-12-29T12:08:28Z</time>
      </trkpt>
      <trkpt lat="48.59371" lon="1.91901">
        <ele>148.8</ele>
        <time>2025-12-29T12:08:29Z</time>
      </trkpt>
      <trkpt lat="48.59373" lon="1.919">
        <ele>148.8</ele>
        <time>2025-12-29T12:08:30Z</time>
      </trkpt>
      <trkpt lat="48.59375" lon="1.91899">
        <ele>148.8</ele>
        <time>2025-12-29T12:08:31Z</time>
      </trkpt>
      <trkpt lat="48.59378" lon="1.91898">
        <ele>148.8</ele>
        <time>2025-12-29T12:08:32Z</time>
      </trkpt>
      <trkpt lat="48.5938" lon="1.91897">
        <ele>148.6</ele>
        <time>2025-12-29T12:08:33Z</time>
      </trkpt>
      <trkpt lat="48.59383" lon="1.91896">
        <ele>148.6</ele>
        <time>2025-12-29T12:08:34Z</time>
      </trkpt>
      <trkpt lat="48.59386" lon="1.91895">
        <ele>148.6</ele>
        <time>2025-12-29T12:08:35Z</time>
      </trkpt>
      <trkpt lat="48.59388" lon="1.91894">
        <ele>148.6</ele>
        <time>2025-12-29T12:08:36Z</time>
      </trkpt>
      <trkpt lat="48.59392" lon="1.91893">
        <ele>148.4</ele>
        <time>2025-12-29T12:08:37Z</time>
      </trkpt>
      <trkpt lat="48.59395" lon="1.91893">
        <ele>148.4</ele>
        <time>2025-12-29T12:08:38Z</time>
      </trkpt>
      <trkpt lat="48.59399" lon="1.91892">
        <ele>148.4</ele>
        <time>2025-12-29T12:08:39Z</time>
      </trkpt>
      <trkpt lat="48.59403" lon="1.91891">
        <ele>148.4</ele>
        <time>2025-12-29T12:08:40Z</time>
      </trkpt>
      <trkpt lat="48.59406" lon="1.9189">
        <ele>148.4</ele>
        <time>2025-12-29T12:08:41Z</time>
      </trkpt>
      <trkpt lat="48.59409" lon="1.9189">
        <ele>148.4</ele>
        <time>2025-12-29T12:08:42Z</time>
      </trkpt>
      <trkpt lat="48.59412" lon="1.91889">
        <ele>148.4</ele>
        <time>2025-12-29T12:08:43Z</time>
      </trkpt>
      <trkpt lat="48.59415" lon="1.91888">
        <ele>148.4</ele>
        <time>2025-12-29T12:08:44Z</time>
      </trkpt>
      <trkpt lat="48.59419" lon="1.91887">
        <ele>148.4</ele>
        <time>2025-12-29T12:08:45Z</time>
      </trkpt>
      <trkpt lat="48.59422" lon="1.91886">
        <ele>148.4</ele>
        <time>2025-12-29T12:08:46Z</time>
      </trkpt>
      <trkpt lat="48.59425" lon="1.91884">
        <ele>148.2</ele>
        <time>2025-12-29T12:08:47Z</time>
      </trkpt>
      <trkpt lat="48.59427" lon="1.91883">
        <ele>148.2</ele>
        <time>2025-12-29T12:08:48Z</time>
      </trkpt>
      <trkpt lat="48.5943" lon="1.91882">
        <ele>148.2</ele>
        <time>2025-12-29T12:08:49Z</time>
      </trkpt>
      <trkpt lat="48.59433" lon="1.9188">
        <ele>148.2</ele>
        <time>2025-12-29T12:08:50Z</time>
      </trkpt>
      <trkpt lat="48.59435" lon="1.91879">
        <ele>148.4</ele>
        <time>2025-12-29T12:08:51Z</time>
      </trkpt>
      <trkpt lat="48.59437" lon="1.91878">
        <ele>148.4</ele>
        <time>2025-12-29T12:08:52Z</time>
      </trkpt>
      <trkpt lat="48.59439" lon="1.91877">
        <ele>148.4</ele>
        <time>2025-12-29T12:08:53Z</time>
      </trkpt>
      <trkpt lat="48.59441" lon="1.91877">
        <ele>148.4</ele>
        <time>2025-12-29T12:08:54Z</time>
      </trkpt>
      <trkpt lat="48.59444" lon="1.91876">
        <ele>148.4</ele>
        <time>2025-12-29T12:08:56Z</time>
      </trkpt>
      <trkpt lat="48.59447" lon="1.91874">
        <ele>148.4</ele>
        <time>2025-12-29T12:08:58Z</time>
      </trkpt>
      <trkpt lat="48.59449" lon="1.91872">
        <ele>148.6</ele>
        <time>2025-12-29T12:09:00Z</time>
      </trkpt>
      <trkpt lat="48.59451" lon="1.91871">
        <ele>148.6</ele>
        <time>2025-12-29T12:09:02Z</time>
      </trkpt>
      <trkpt lat="48.59453" lon="1.9187">
        <ele>148.8</ele>
        <time>2025-12-29T12:09:04Z</time>
      </trkpt>
      <trkpt lat="48.59455" lon="1.91869">
        <ele>149</ele>
        <time>2025-12-29T12:09:07Z</time>
      </trkpt>
      <trkpt lat="48.59457" lon="1.91867">
        <ele>149</ele>
        <time>2025-12-29T12:09:09Z</time>
      </trkpt>
      <trkpt lat="48.59459" lon="1.91866">
        <ele>149</ele>
        <time>2025-12-29T12:09:11Z</time>
      </trkpt>
      <trkpt lat="48.59461" lon="1.91864">
        <ele>149.2</ele>
        <time>2025-12-29T12:09:13Z</time>
      </trkpt>
      <trkpt lat="48.59464" lon="1.91862">
        <ele>149.4</ele>
        <time>2025-12-29T12:09:15Z</time>
      </trkpt>
      <trkpt lat="48.59467" lon="1.9186">
        <ele>149.6</ele>
        <time>2025-12-29T12:09:17Z</time>
      </trkpt>
      <trkpt lat="48.59469" lon="1.91859">
        <ele>149.8</ele>
        <time>2025-12-29T12:09:19Z</time>
      </trkpt>
      <trkpt lat="48.5947" lon="1.91857">
        <ele>149.8</ele>
        <time>2025-12-29T12:09:21Z</time>
      </trkpt>
      <trkpt lat="48.59472" lon="1.91854">
        <ele>150</ele>
        <time>2025-12-29T12:09:23Z</time>
      </trkpt>
      <trkpt lat="48.59474" lon="1.91852">
        <ele>150</ele>
        <time>2025-12-29T12:09:25Z</time>
      </trkpt>
      <trkpt lat="48.59476" lon="1.91848">
        <ele>150.2</ele>
        <time>2025-12-29T12:09:27Z</time>
      </trkpt>
      <trkpt lat="48.59478" lon="1.91845">
        <ele>150.4</ele>
        <time>2025-12-29T12:09:29Z</time>
      </trkpt>
      <trkpt lat="48.59481" lon="1.91843">
        <ele>150.4</ele>
        <time>2025-12-29T12:09:31Z</time>
      </trkpt>
      <trkpt lat="48.59483" lon="1.91841">
        <ele>150.6</ele>
        <time>2025-12-29T12:09:33Z</time>
      </trkpt>
      <trkpt lat="48.59486" lon="1.9184">
        <ele>150.8</ele>
        <time>2025-12-29T12:09:35Z</time>
      </trkpt>
      <trkpt lat="48.59488" lon="1.91838">
        <ele>151</ele>
        <time>2025-12-29T12:09:37Z</time>
      </trkpt>
      <trkpt lat="48.59489" lon="1.91836">
        <ele>151.2</ele>
        <time>2025-12-29T12:09:41Z</time>
      </trkpt>
      <trkpt lat="48.5949" lon="1.91833">
        <ele>151.4</ele>
        <time>2025-12-29T12:09:43Z</time>
      </trkpt>
      <trkpt lat="48.59491" lon="1.91831">
        <ele>151.8</ele>
        <time>2025-12-29T12:09:46Z</time>
      </trkpt>
      <trkpt lat="48.59493" lon="1.91828">
        <ele>151.8</ele>
        <time>2025-12-29T12:09:48Z</time>
      </trkpt>
      <trkpt lat="48.59496" lon="1.91826">
        <ele>152</ele>
        <time>2025-12-29T12:09:50Z</time>
      </trkpt>
      <trkpt lat="48.59498" lon="1.91823">
        <ele>152</ele>
        <time>2025-12-29T12:09:52Z</time>
      </trkpt>
      <trkpt lat="48.595" lon="1.91822">
        <ele>152</ele>
        <time>2025-12-29T12:09:53Z</time>
      </trkpt>
      <trkpt lat="48.59503" lon="1.91819">
        <ele>152</ele>
        <time>2025-12-29T12:09:55Z</time>
      </trkpt>
      <trkpt lat="48.59506" lon="1.91816">
        <ele>152</ele>
        <time>2025-12-29T12:09:57Z</time>
      </trkpt>
      <trkpt lat="48.59508" lon="1.91813">
        <ele>152</ele>
        <time>2025-12-29T12:09:59Z</time>
      </trkpt>
      <trkpt lat="48.59511" lon="1.9181">
        <ele>152</ele>
        <time>2025-12-29T12:10:01Z</time>
      </trkpt>
      <trkpt lat="48.59512" lon="1.91807">
        <ele>152</ele>
        <time>2025-12-29T12:10:03Z</time>
      </trkpt>
      <trkpt lat="48.59514" lon="1.91805">
        <ele>152</ele>
        <time>2025-12-29T12:10:05Z</time>
      </trkpt>
      <trkpt lat="48.59516" lon="1.91803">
        <ele>152</ele>
        <time>2025-12-29T12:10:08Z</time>
      </trkpt>
      <trkpt lat="48.59518" lon="1.91801">
        <ele>152</ele>
        <time>2025-12-29T12:10:10Z</time>
      </trkpt>
      <trkpt lat="48.5952" lon="1.91799">
        <ele>152</ele>
        <time>2025-12-29T12:10:11Z</time>
      </trkpt>
      <trkpt lat="48.59522" lon="1.91796">
        <ele>151.8</ele>
        <time>2025-12-29T12:10:14Z</time>
      </trkpt>
      <trkpt lat="48.59524" lon="1.91794">
        <ele>151.8</ele>
        <time>2025-12-29T12:10:16Z</time>
      </trkpt>
      <trkpt lat="48.59525" lon="1.91791">
        <ele>151.6</ele>
        <time>2025-12-29T12:10:18Z</time>
      </trkpt>
      <trkpt lat="48.59527" lon="1.91788">
        <ele>151.4</ele>
        <time>2025-12-29T12:10:20Z</time>
      </trkpt>
      <trkpt lat="48.59529" lon="1.91785">
        <ele>151.2</ele>
        <time>2025-12-29T12:10:22Z</time>
      </trkpt>
      <trkpt lat="48.59532" lon="1.91784">
        <ele>151.2</ele>
        <time>2025-12-29T12:10:24Z</time>
      </trkpt>
      <trkpt lat="48.59533" lon="1.91783">
        <ele>151</ele>
        <time>2025-12-29T12:10:26Z</time>
      </trkpt>
      <trkpt lat="48.59536" lon="1.91781">
        <ele>150.8</ele>
        <time>2025-12-29T12:10:30Z</time>
      </trkpt>
      <trkpt lat="48.59538" lon="1.91779">
        <ele>150.6</ele>
        <time>2025-12-29T12:10:32Z</time>
      </trkpt>
      <trkpt lat="48.5954" lon="1.91777">
        <ele>150.6</ele>
        <time>2025-12-29T12:10:33Z</time>
      </trkpt>
      <trkpt lat="48.59542" lon="1.91776">
        <ele>150.4</ele>
        <time>2025-12-29T12:10:34Z</time>
      </trkpt>
      <trkpt lat="48.59544" lon="1.91774">
        <ele>150.4</ele>
        <time>2025-12-29T12:10:36Z</time>
      </trkpt>
      <trkpt lat="48.59548" lon="1.91771">
        <ele>150.2</ele>
        <time>2025-12-29T12:10:38Z</time>
      </trkpt>
      <trkpt lat="48.5955" lon="1.91768">
        <ele>150</ele>
        <time>2025-12-29T12:10:40Z</time>
      </trkpt>
      <trkpt lat="48.59552" lon="1.91767">
        <ele>150</ele>
        <time>2025-12-29T12:10:41Z</time>
      </trkpt>
      <trkpt lat="48.59554" lon="1.91764">
        <ele>150</ele>
        <time>2025-12-29T12:10:43Z</time>
      </trkpt>
      <trkpt lat="48.59556" lon="1.91762">
        <ele>149.8</ele>
        <time>2025-12-29T12:10:45Z</time>
      </trkpt>
      <trkpt lat="48.59557" lon="1.91761">
        <ele>149.8</ele>
        <time>2025-12-29T12:10:46Z</time>
      </trkpt>
      <trkpt lat="48.5956" lon="1.91758">
        <ele>149.6</ele>
        <time>2025-12-29T12:10:48Z</time>
      </trkpt>
      <trkpt lat="48.59562" lon="1.91754">
        <ele>149.6</ele>
        <time>2025-12-29T12:10:50Z</time>
      </trkpt>
      <trkpt lat="48.59563" lon="1.91751">
        <ele>149.4</ele>
        <time>2025-12-29T12:10:52Z</time>
      </trkpt>
      <trkpt lat="48.59564" lon="1.91748">
        <ele>149.2</ele>
        <time>2025-12-29T12:10:54Z</time>
      </trkpt>
      <trkpt lat="48.59565" lon="1.91744">
        <ele>149.2</ele>
        <time>2025-12-29T12:10:56Z</time>
      </trkpt>
      <trkpt lat="48.59566" lon="1.9174">
        <ele>149</ele>
        <time>2025-12-29T12:10:58Z</time>
      </trkpt>
      <trkpt lat="48.59567" lon="1.91737">
        <ele>148.8</ele>
        <time>2025-12-29T12:11:00Z</time>
      </trkpt>
      <trkpt lat="48.59569" lon="1.91735">
        <ele>148.6</ele>
        <time>2025-12-29T12:11:02Z</time>
      </trkpt>
      <trkpt lat="48.5957" lon="1.91732">
        <ele>148.4</ele>
        <time>2025-12-29T12:11:04Z</time>
      </trkpt>
      <trkpt lat="48.59572" lon="1.9173">
        <ele>148</ele>
        <time>2025-12-29T12:11:06Z</time>
      </trkpt>
      <trkpt lat="48.59574" lon="1.91727">
        <ele>147.8</ele>
        <time>2025-12-29T12:11:08Z</time>
      </trkpt>
      <trkpt lat="48.59576" lon="1.91724">
        <ele>147.4</ele>
        <time>2025-12-29T12:11:10Z</time>
      </trkpt>
      <trkpt lat="48.59578" lon="1.91721">
        <ele>147.2</ele>
        <time>2025-12-29T12:11:12Z</time>
      </trkpt>
      <trkpt lat="48.5958" lon="1.91719">
        <ele>147</ele>
        <time>2025-12-29T12:11:13Z</time>
      </trkpt>
      <trkpt lat="48.59582" lon="1.91717">
        <ele>146.6</ele>
        <time>2025-12-29T12:11:15Z</time>
      </trkpt>
      <trkpt lat="48.59584" lon="1.91715">
        <ele>146.4</ele>
        <time>2025-12-29T12:11:17Z</time>
      </trkpt>
      <trkpt lat="48.59585" lon="1.91712">
        <ele>146.2</ele>
        <time>2025-12-29T12:11:19Z</time>
      </trkpt>
      <trkpt lat="48.59587" lon="1.91709">
        <ele>146</ele>
        <time>2025-12-29T12:11:21Z</time>
      </trkpt>
      <trkpt lat="48.59588" lon="1.91707">
        <ele>145.6</ele>
        <time>2025-12-29T12:11:23Z</time>
      </trkpt>
      <trkpt lat="48.59589" lon="1.91704">
        <ele>145.2</ele>
        <time>2025-12-29T12:11:26Z</time>
      </trkpt>
      <trkpt lat="48.5959" lon="1.91701">
        <ele>145</ele>
        <time>2025-12-29T12:11:28Z</time>
      </trkpt>
      <trkpt lat="48.59591" lon="1.91699">
        <ele>144.8</ele>
        <time>2025-12-29T12:11:30Z</time>
      </trkpt>
      <trkpt lat="48.59593" lon="1.91698">
        <ele>144.6</ele>
        <time>2025-12-29T12:11:32Z</time>
      </trkpt>
      <trkpt lat="48.59595" lon="1.91696">
        <ele>144.2</ele>
        <time>2025-12-29T12:11:35Z</time>
      </trkpt>
      <trkpt lat="48.59597" lon="1.91694">
        <ele>144</ele>
        <time>2025-12-29T12:11:38Z</time>
      </trkpt>
      <trkpt lat="48.596" lon="1.91693">
        <ele>143.8</ele>
        <time>2025-12-29T12:11:40Z</time>
      </trkpt>
      <trkpt lat="48.59602" lon="1.91691">
        <ele>143.6</ele>
        <time>2025-12-29T12:11:42Z</time>
      </trkpt>
      <trkpt lat="48.59604" lon="1.91689">
        <ele>143.4</ele>
        <time>2025-12-29T12:11:45Z</time>
      </trkpt>
      <trkpt lat="48.59605" lon="1.91686">
        <ele>143.2</ele>
        <time>2025-12-29T12:11:47Z</time>
      </trkpt>
      <trkpt lat="48.59608" lon="1.91683">
        <ele>143</ele>
        <time>2025-12-29T12:11:49Z</time>
      </trkpt>
      <trkpt lat="48.59609" lon="1.91681">
        <ele>143</ele>
        <time>2025-12-29T12:11:50Z</time>
      </trkpt>
      <trkpt lat="48.59611" lon="1.91679">
        <ele>142.8</ele>
        <time>2025-12-29T12:11:51Z</time>
      </trkpt>
      <trkpt lat="48.59613" lon="1.91675">
        <ele>142.8</ele>
        <time>2025-12-29T12:11:53Z</time>
      </trkpt>
      <trkpt lat="48.59615" lon="1.9167">
        <ele>142.6</ele>
        <time>2025-12-29T12:11:55Z</time>
      </trkpt>
      <trkpt lat="48.59617" lon="1.91667">
        <ele>142.6</ele>
        <time>2025-12-29T12:11:57Z</time>
      </trkpt>
      <trkpt lat="48.59618" lon="1.91664">
        <ele>142.6</ele>
        <time>2025-12-29T12:11:59Z</time>
      </trkpt>
      <trkpt lat="48.59621" lon="1.91662">
        <ele>142.6</ele>
        <time>2025-12-29T12:12:01Z</time>
      </trkpt>
      <trkpt lat="48.59623" lon="1.91661">
        <ele>142.8</ele>
        <time>2025-12-29T12:12:03Z</time>
      </trkpt>
      <trkpt lat="48.59625" lon="1.91659">
        <ele>142.8</ele>
        <time>2025-12-29T12:12:05Z</time>
      </trkpt>
      <trkpt lat="48.59628" lon="1.91656">
        <ele>142.8</ele>
        <time>2025-12-29T12:12:07Z</time>
      </trkpt>
      <trkpt lat="48.5963" lon="1.91654">
        <ele>143</ele>
        <time>2025-12-29T12:12:09Z</time>
      </trkpt>
      <trkpt lat="48.59633" lon="1.91651">
        <ele>143</ele>
        <time>2025-12-29T12:12:11Z</time>
      </trkpt>
      <trkpt lat="48.59636" lon="1.91648">
        <ele>143.2</ele>
        <time>2025-12-29T12:12:13Z</time>
      </trkpt>
      <trkpt lat="48.59638" lon="1.91646">
        <ele>143.2</ele>
        <time>2025-12-29T12:12:14Z</time>
      </trkpt>
      <trkpt lat="48.59641" lon="1.91643">
        <ele>143.2</ele>
        <time>2025-12-29T12:12:16Z</time>
      </trkpt>
      <trkpt lat="48.59643" lon="1.9164">
        <ele>143.2</ele>
        <time>2025-12-29T12:12:18Z</time>
      </trkpt>
      <trkpt lat="48.59645" lon="1.91637">
        <ele>143.2</ele>
        <time>2025-12-29T12:12:20Z</time>
      </trkpt>
      <trkpt lat="48.59647" lon="1.91635">
        <ele>143.2</ele>
        <time>2025-12-29T12:12:21Z</time>
      </trkpt>
      <trkpt lat="48.59649" lon="1.91632">
        <ele>143</ele>
        <time>2025-12-29T12:12:23Z</time>
      </trkpt>
      <trkpt lat="48.59651" lon="1.91631">
        <ele>143</ele>
        <time>2025-12-29T12:12:25Z</time>
      </trkpt>
      <trkpt lat="48.59653" lon="1.91629">
        <ele>143</ele>
        <time>2025-12-29T12:12:27Z</time>
      </trkpt>
      <trkpt lat="48.59655" lon="1.91628">
        <ele>142.8</ele>
        <time>2025-12-29T12:12:29Z</time>
      </trkpt>
      <trkpt lat="48.59657" lon="1.91626">
        <ele>142.6</ele>
        <time>2025-12-29T12:12:31Z</time>
      </trkpt>
      <trkpt lat="48.59659" lon="1.91623">
        <ele>142.6</ele>
        <time>2025-12-29T12:12:33Z</time>
      </trkpt>
      <trkpt lat="48.59661" lon="1.9162">
        <ele>142.6</ele>
        <time>2025-12-29T12:12:35Z</time>
      </trkpt>
      <trkpt lat="48.59663" lon="1.91617">
        <ele>142.4</ele>
        <time>2025-12-29T12:12:37Z</time>
      </trkpt>
      <trkpt lat="48.59666" lon="1.91615">
        <ele>142.2</ele>
        <time>2025-12-29T12:12:39Z</time>
      </trkpt>
      <trkpt lat="48.59669" lon="1.91614">
        <ele>141.8</ele>
        <time>2025-12-29T12:12:41Z</time>
      </trkpt>
      <trkpt lat="48.59672" lon="1.91612">
        <ele>141.6</ele>
        <time>2025-12-29T12:12:43Z</time>
      </trkpt>
      <trkpt lat="48.59675" lon="1.9161">
        <ele>141.4</ele>
        <time>2025-12-29T12:12:45Z</time>
      </trkpt>
      <trkpt lat="48.59677" lon="1.91608">
        <ele>141.2</ele>
        <time>2025-12-29T12:12:47Z</time>
      </trkpt>
      <trkpt lat="48.59679" lon="1.91605">
        <ele>140.8</ele>
        <time>2025-12-29T12:12:49Z</time>
      </trkpt>
      <trkpt lat="48.59681" lon="1.91603">
        <ele>140.4</ele>
        <time>2025-12-29T12:12:51Z</time>
      </trkpt>
      <trkpt lat="48.59683" lon="1.916">
        <ele>140.2</ele>
        <time>2025-12-29T12:12:53Z</time>
      </trkpt>
      <trkpt lat="48.59685" lon="1.91597">
        <ele>139.8</ele>
        <time>2025-12-29T12:12:55Z</time>
      </trkpt>
      <trkpt lat="48.59687" lon="1.91595">
        <ele>139.6</ele>
        <time>2025-12-29T12:12:57Z</time>
      </trkpt>
      <trkpt lat="48.59689" lon="1.91593">
        <ele>139.2</ele>
        <time>2025-12-29T12:12:59Z</time>
      </trkpt>
      <trkpt lat="48.59692" lon="1.91591">
        <ele>139.2</ele>
        <time>2025-12-29T12:13:01Z</time>
      </trkpt>
      <trkpt lat="48.59693" lon="1.91589">
        <ele>139</ele>
        <time>2025-12-29T12:13:03Z</time>
      </trkpt>
      <trkpt lat="48.59695" lon="1.91587">
        <ele>138.8</ele>
        <time>2025-12-29T12:13:06Z</time>
      </trkpt>
      <trkpt lat="48.59697" lon="1.91586">
        <ele>138.8</ele>
        <time>2025-12-29T12:13:08Z</time>
      </trkpt>
      <trkpt lat="48.59699" lon="1.91583">
        <ele>138.6</ele>
        <time>2025-12-29T12:13:10Z</time>
      </trkpt>
      <trkpt lat="48.59701" lon="1.91581">
        <ele>138.6</ele>
        <time>2025-12-29T12:13:12Z</time>
      </trkpt>
      <trkpt lat="48.59702" lon="1.91578">
        <ele>138.6</ele>
        <time>2025-12-29T12:13:15Z</time>
      </trkpt>
      <trkpt lat="48.59703" lon="1.91575">
        <ele>138.6</ele>
        <time>2025-12-29T12:13:17Z</time>
      </trkpt>
      <trkpt lat="48.59705" lon="1.91573">
        <ele>138.6</ele>
        <time>2025-12-29T12:13:19Z</time>
      </trkpt>
      <trkpt lat="48.59707" lon="1.9157">
        <ele>138.6</ele>
        <time>2025-12-29T12:13:21Z</time>
      </trkpt>
      <trkpt lat="48.59708" lon="1.91569">
        <ele>138.6</ele>
        <time>2025-12-29T12:13:23Z</time>
      </trkpt>
      <trkpt lat="48.5971" lon="1.91568">
        <ele>138.8</ele>
        <time>2025-12-29T12:13:25Z</time>
      </trkpt>
      <trkpt lat="48.59713" lon="1.91568">
        <ele>138.8</ele>
        <time>2025-12-29T12:13:27Z</time>
      </trkpt>
      <trkpt lat="48.59715" lon="1.91567">
        <ele>138.8</ele>
        <time>2025-12-29T12:13:29Z</time>
      </trkpt>
      <trkpt lat="48.59718" lon="1.91567">
        <ele>139</ele>
        <time>2025-12-29T12:13:31Z</time>
      </trkpt>
      <trkpt lat="48.59721" lon="1.91566">
        <ele>139</ele>
        <time>2025-12-29T12:13:33Z</time>
      </trkpt>
      <trkpt lat="48.59723" lon="1.91565">
        <ele>139</ele>
        <time>2025-12-29T12:13:35Z</time>
      </trkpt>
      <trkpt lat="48.59725" lon="1.91563">
        <ele>139</ele>
        <time>2025-12-29T12:13:37Z</time>
      </trkpt>
      <trkpt lat="48.59728" lon="1.9156">
        <ele>138.8</ele>
        <time>2025-12-29T12:13:39Z</time>
      </trkpt>
      <trkpt lat="48.5973" lon="1.91556">
        <ele>138.8</ele>
        <time>2025-12-29T12:13:41Z</time>
      </trkpt>
      <trkpt lat="48.59732" lon="1.91554">
        <ele>138.8</ele>
        <time>2025-12-29T12:13:42Z</time>
      </trkpt>
      <trkpt lat="48.59733" lon="1.91553">
        <ele>138.8</ele>
        <time>2025-12-29T12:13:43Z</time>
      </trkpt>
      <trkpt lat="48.59735" lon="1.91551">
        <ele>138.8</ele>
        <time>2025-12-29T12:13:44Z</time>
      </trkpt>
      <trkpt lat="48.59736" lon="1.91549">
        <ele>138.8</ele>
        <time>2025-12-29T12:13:45Z</time>
      </trkpt>
      <trkpt lat="48.59739" lon="1.91547">
        <ele>138.8</ele>
        <time>2025-12-29T12:13:47Z</time>
      </trkpt>
      <trkpt lat="48.59741" lon="1.91545">
        <ele>138.8</ele>
        <time>2025-12-29T12:13:49Z</time>
      </trkpt>
      <trkpt lat="48.59743" lon="1.91543">
        <ele>138.8</ele>
        <time>2025-12-29T12:13:51Z</time>
      </trkpt>
      <trkpt lat="48.59746" lon="1.91541">
        <ele>138.8</ele>
        <time>2025-12-29T12:13:53Z</time>
      </trkpt>
      <trkpt lat="48.59748" lon="1.91539">
        <ele>138.8</ele>
        <time>2025-12-29T12:13:55Z</time>
      </trkpt>
      <trkpt lat="48.5975" lon="1.91537">
        <ele>138.8</ele>
        <time>2025-12-29T12:13:57Z</time>
      </trkpt>
      <trkpt lat="48.59753" lon="1.91535">
        <ele>138.8</ele>
        <time>2025-12-29T12:13:59Z</time>
      </trkpt>
      <trkpt lat="48.59756" lon="1.91533">
        <ele>139</ele>
        <time>2025-12-29T12:14:01Z</time>
      </trkpt>
      <trkpt lat="48.59759" lon="1.91531">
        <ele>139</ele>
        <time>2025-12-29T12:14:03Z</time>
      </trkpt>
      <trkpt lat="48.59762" lon="1.91528">
        <ele>139.2</ele>
        <time>2025-12-29T12:14:05Z</time>
      </trkpt>
      <trkpt lat="48.59765" lon="1.91526">
        <ele>139.4</ele>
        <time>2025-12-29T12:14:07Z</time>
      </trkpt>
      <trkpt lat="48.59768" lon="1.91525">
        <ele>139.6</ele>
        <time>2025-12-29T12:14:09Z</time>
      </trkpt>
      <trkpt lat="48.5977" lon="1.91524">
        <ele>139.6</ele>
        <time>2025-12-29T12:14:11Z</time>
      </trkpt>
      <trkpt lat="48.59772" lon="1.91524">
        <ele>139.8</ele>
        <time>2025-12-29T12:14:13Z</time>
      </trkpt>
      <trkpt lat="48.59774" lon="1.91523">
        <ele>140.2</ele>
        <time>2025-12-29T12:14:17Z</time>
      </trkpt>
      <trkpt lat="48.59776" lon="1.9152">
        <ele>141</ele>
        <time>2025-12-29T12:14:29Z</time>
      </trkpt>
      <trkpt lat="48.59778" lon="1.91517">
        <ele>141.2</ele>
        <time>2025-12-29T12:14:32Z</time>
      </trkpt>
      <trkpt lat="48.59781" lon="1.91516">
        <ele>141.4</ele>
        <time>2025-12-29T12:14:34Z</time>
      </trkpt>
      <trkpt lat="48.59784" lon="1.91515">
        <ele>141.6</ele>
        <time>2025-12-29T12:14:36Z</time>
      </trkpt>
      <trkpt lat="48.59786" lon="1.91513">
        <ele>141.6</ele>
        <time>2025-12-29T12:14:38Z</time>
      </trkpt>
      <trkpt lat="48.59789" lon="1.91511">
        <ele>141.8</ele>
        <time>2025-12-29T12:14:40Z</time>
      </trkpt>
      <trkpt lat="48.59791" lon="1.91509">
        <ele>141.8</ele>
        <time>2025-12-29T12:14:42Z</time>
      </trkpt>
      <trkpt lat="48.59794" lon="1.91508">
        <ele>142</ele>
        <time>2025-12-29T12:14:44Z</time>
      </trkpt>
      <trkpt lat="48.59797" lon="1.91507">
        <ele>142</ele>
        <time>2025-12-29T12:14:46Z</time>
      </trkpt>
      <trkpt lat="48.598" lon="1.91507">
        <ele>142.2</ele>
        <time>2025-12-29T12:14:48Z</time>
      </trkpt>
      <trkpt lat="48.59803" lon="1.91506">
        <ele>142.2</ele>
        <time>2025-12-29T12:14:50Z</time>
      </trkpt>
      <trkpt lat="48.59805" lon="1.91507">
        <ele>142</ele>
        <time>2025-12-29T12:14:53Z</time>
      </trkpt>
      <trkpt lat="48.59807" lon="1.91507">
        <ele>142</ele>
        <time>2025-12-29T12:14:56Z</time>
      </trkpt>
      <trkpt lat="48.5981" lon="1.91507">
        <ele>141.8</ele>
        <time>2025-12-29T12:14:59Z</time>
      </trkpt>
      <trkpt lat="48.59812" lon="1.91505">
        <ele>141.8</ele>
        <time>2025-12-29T12:15:01Z</time>
      </trkpt>
      <trkpt lat="48.59815" lon="1.91504">
        <ele>141.6</ele>
        <time>2025-12-29T12:15:03Z</time>
      </trkpt>
      <trkpt lat="48.59818" lon="1.91502">
        <ele>141.6</ele>
        <time>2025-12-29T12:15:05Z</time>
      </trkpt>
      <trkpt lat="48.5982" lon="1.91501">
        <ele>141.4</ele>
        <time>2025-12-29T12:15:07Z</time>
      </trkpt>
      <trkpt lat="48.59822" lon="1.915">
        <ele>141.2</ele>
        <time>2025-12-29T12:15:09Z</time>
      </trkpt>
      <trkpt lat="48.59824" lon="1.91498">
        <ele>141</ele>
        <time>2025-12-29T12:15:11Z</time>
      </trkpt>
      <trkpt lat="48.59826" lon="1.91496">
        <ele>141</ele>
        <time>2025-12-29T12:15:13Z</time>
      </trkpt>
      <trkpt lat="48.59828" lon="1.91494">
        <ele>140.8</ele>
        <time>2025-12-29T12:15:15Z</time>
      </trkpt>
      <trkpt lat="48.59829" lon="1.91491">
        <ele>140.8</ele>
        <time>2025-12-29T12:15:17Z</time>
      </trkpt>
      <trkpt lat="48.5983" lon="1.91488">
        <ele>140.6</ele>
        <time>2025-12-29T12:15:19Z</time>
      </trkpt>
      <trkpt lat="48.59832" lon="1.91484">
        <ele>140.6</ele>
        <time>2025-12-29T12:15:21Z</time>
      </trkpt>
      <trkpt lat="48.59833" lon="1.91482">
        <ele>140.6</ele>
        <time>2025-12-29T12:15:22Z</time>
      </trkpt>
      <trkpt lat="48.59835" lon="1.91479">
        <ele>140.4</ele>
        <time>2025-12-29T12:15:24Z</time>
      </trkpt>
      <trkpt lat="48.59837" lon="1.91476">
        <ele>140.2</ele>
        <time>2025-12-29T12:15:26Z</time>
      </trkpt>
      <trkpt lat="48.5984" lon="1.91474">
        <ele>140</ele>
        <time>2025-12-29T12:15:28Z</time>
      </trkpt>
      <trkpt lat="48.59842" lon="1.91472">
        <ele>139.8</ele>
        <time>2025-12-29T12:15:30Z</time>
      </trkpt>
      <trkpt lat="48.59844" lon="1.9147">
        <ele>139.4</ele>
        <time>2025-12-29T12:15:32Z</time>
      </trkpt>
      <trkpt lat="48.59847" lon="1.91469">
        <ele>139.2</ele>
        <time>2025-12-29T12:15:34Z</time>
      </trkpt>
      <trkpt lat="48.5985" lon="1.91468">
        <ele>139</ele>
        <time>2025-12-29T12:15:36Z</time>
      </trkpt>
      <trkpt lat="48.59852" lon="1.91466">
        <ele>138.8</ele>
        <time>2025-12-29T12:15:38Z</time>
      </trkpt>
      <trkpt lat="48.59854" lon="1.91464">
        <ele>138.6</ele>
        <time>2025-12-29T12:15:40Z</time>
      </trkpt>
      <trkpt lat="48.59856" lon="1.91461">
        <ele>138.4</ele>
        <time>2025-12-29T12:15:42Z</time>
      </trkpt>
      <trkpt lat="48.59858" lon="1.91459">
        <ele>138.4</ele>
        <time>2025-12-29T12:15:44Z</time>
      </trkpt>
      <trkpt lat="48.5986" lon="1.91457">
        <ele>138.2</ele>
        <time>2025-12-29T12:15:46Z</time>
      </trkpt>
      <trkpt lat="48.59863" lon="1.91455">
        <ele>138</ele>
        <time>2025-12-29T12:15:48Z</time>
      </trkpt>
      <trkpt lat="48.59865" lon="1.91452">
        <ele>137.8</ele>
        <time>2025-12-29T12:15:50Z</time>
      </trkpt>
      <trkpt lat="48.59867" lon="1.9145">
        <ele>137.8</ele>
        <time>2025-12-29T12:15:52Z</time>
      </trkpt>
      <trkpt lat="48.59869" lon="1.91449">
        <ele>137.6</ele>
        <time>2025-12-29T12:15:54Z</time>
      </trkpt>
      <trkpt lat="48.59872" lon="1.91447">
        <ele>137.6</ele>
        <time>2025-12-29T12:15:57Z</time>
      </trkpt>
      <trkpt lat="48.59874" lon="1.91446">
        <ele>137.4</ele>
        <time>2025-12-29T12:15:59Z</time>
      </trkpt>
      <trkpt lat="48.59876" lon="1.91445">
        <ele>137.4</ele>
        <time>2025-12-29T12:16:01Z</time>
      </trkpt>
      <trkpt lat="48.59878" lon="1.91443">
        <ele>137.2</ele>
        <time>2025-12-29T12:16:03Z</time>
      </trkpt>
      <trkpt lat="48.59881" lon="1.9144">
        <ele>137.2</ele>
        <time>2025-12-29T12:16:05Z</time>
      </trkpt>
      <trkpt lat="48.59883" lon="1.91438">
        <ele>137</ele>
        <time>2025-12-29T12:16:07Z</time>
      </trkpt>
      <trkpt lat="48.59885" lon="1.91436">
        <ele>137</ele>
        <time>2025-12-29T12:16:09Z</time>
      </trkpt>
      <trkpt lat="48.59887" lon="1.91434">
        <ele>137</ele>
        <time>2025-12-29T12:16:11Z</time>
      </trkpt>
      <trkpt lat="48.59889" lon="1.91432">
        <ele>136.8</ele>
        <time>2025-12-29T12:16:13Z</time>
      </trkpt>
      <trkpt lat="48.59892" lon="1.9143">
        <ele>136.8</ele>
        <time>2025-12-29T12:16:15Z</time>
      </trkpt>
      <trkpt lat="48.59895" lon="1.91428">
        <ele>136.6</ele>
        <time>2025-12-29T12:16:17Z</time>
      </trkpt>
      <trkpt lat="48.59898" lon="1.91425">
        <ele>136.6</ele>
        <time>2025-12-29T12:16:19Z</time>
      </trkpt>
      <trkpt lat="48.599" lon="1.91424">
        <ele>136.4</ele>
        <time>2025-12-29T12:16:20Z</time>
      </trkpt>
      <trkpt lat="48.59901" lon="1.91423">
        <ele>136.4</ele>
        <time>2025-12-29T12:16:21Z</time>
      </trkpt>
      <trkpt lat="48.59904" lon="1.91419">
        <ele>136.4</ele>
        <time>2025-12-29T12:16:23Z</time>
      </trkpt>
      <trkpt lat="48.59906" lon="1.91418">
        <ele>136.4</ele>
        <time>2025-12-29T12:16:24Z</time>
      </trkpt>
      <trkpt lat="48.59908" lon="1.91415">
        <ele>136.2</ele>
        <time>2025-12-29T12:16:26Z</time>
      </trkpt>
      <trkpt lat="48.5991" lon="1.91412">
        <ele>136.2</ele>
        <time>2025-12-29T12:16:28Z</time>
      </trkpt>
      <trkpt lat="48.59912" lon="1.9141">
        <ele>136.2</ele>
        <time>2025-12-29T12:16:30Z</time>
      </trkpt>
      <trkpt lat="48.59914" lon="1.91409">
        <ele>136.2</ele>
        <time>2025-12-29T12:16:32Z</time>
      </trkpt>
      <trkpt lat="48.59917" lon="1.91408">
        <ele>136</ele>
        <time>2025-12-29T12:16:34Z</time>
      </trkpt>
      <trkpt lat="48.59919" lon="1.91406">
        <ele>136</ele>
        <time>2025-12-29T12:16:36Z</time>
      </trkpt>
      <trkpt lat="48.59921" lon="1.91405">
        <ele>136</ele>
        <time>2025-12-29T12:16:38Z</time>
      </trkpt>
      <trkpt lat="48.59923" lon="1.91403">
        <ele>136</ele>
        <time>2025-12-29T12:16:41Z</time>
      </trkpt>
      <trkpt lat="48.59924" lon="1.914">
        <ele>136</ele>
        <time>2025-12-29T12:16:44Z</time>
      </trkpt>
      <trkpt lat="48.59925" lon="1.91397">
        <ele>136</ele>
        <time>2025-12-29T12:16:47Z</time>
      </trkpt>
      <trkpt lat="48.59927" lon="1.91395">
        <ele>136</ele>
        <time>2025-12-29T12:16:50Z</time>
      </trkpt>
      <trkpt lat="48.59928" lon="1.91392">
        <ele>136</ele>
        <time>2025-12-29T12:16:53Z</time>
      </trkpt>
      <trkpt lat="48.5993" lon="1.91391">
        <ele>136</ele>
        <time>2025-12-29T12:16:55Z</time>
      </trkpt>
      <trkpt lat="48.59932" lon="1.9139">
        <ele>136</ele>
        <time>2025-12-29T12:16:57Z</time>
      </trkpt>
      <trkpt lat="48.59935" lon="1.9139">
        <ele>136</ele>
        <time>2025-12-29T12:16:59Z</time>
      </trkpt>
      <trkpt lat="48.59937" lon="1.91391">
        <ele>136</ele>
        <time>2025-12-29T12:17:01Z</time>
      </trkpt>
      <trkpt lat="48.5994" lon="1.91391">
        <ele>136</ele>
        <time>2025-12-29T12:17:03Z</time>
      </trkpt>
      <trkpt lat="48.59943" lon="1.91392">
        <ele>136</ele>
        <time>2025-12-29T12:17:05Z</time>
      </trkpt>
      <trkpt lat="48.59945" lon="1.91393">
        <ele>136.2</ele>
        <time>2025-12-29T12:17:07Z</time>
      </trkpt>
      <trkpt lat="48.59949" lon="1.91395">
        <ele>136.2</ele>
        <time>2025-12-29T12:17:09Z</time>
      </trkpt>
      <trkpt lat="48.59952" lon="1.91397">
        <ele>136.4</ele>
        <time>2025-12-29T12:17:11Z</time>
      </trkpt>
      <trkpt lat="48.59955" lon="1.91399">
        <ele>136.4</ele>
        <time>2025-12-29T12:17:13Z</time>
      </trkpt>
      <trkpt lat="48.59959" lon="1.91401">
        <ele>136.6</ele>
        <time>2025-12-29T12:17:15Z</time>
      </trkpt>
      <trkpt lat="48.59962" lon="1.91403">
        <ele>136.6</ele>
        <time>2025-12-29T12:17:17Z</time>
      </trkpt>
      <trkpt lat="48.59965" lon="1.91406">
        <ele>136.6</ele>
        <time>2025-12-29T12:17:19Z</time>
      </trkpt>
      <trkpt lat="48.59967" lon="1.91408">
        <ele>136.6</ele>
        <time>2025-12-29T12:17:21Z</time>
      </trkpt>
      <trkpt lat="48.5997" lon="1.9141">
        <ele>136.8</ele>
        <time>2025-12-29T12:17:23Z</time>
      </trkpt>
      <trkpt lat="48.59973" lon="1.91412">
        <ele>136.8</ele>
        <time>2025-12-29T12:17:25Z</time>
      </trkpt>
      <trkpt lat="48.59975" lon="1.91413">
        <ele>136.8</ele>
        <time>2025-12-29T12:17:26Z</time>
      </trkpt>
      <trkpt lat="48.59977" lon="1.91414">
        <ele>136.8</ele>
        <time>2025-12-29T12:17:27Z</time>
      </trkpt>
      <trkpt lat="48.59979" lon="1.91416">
        <ele>136.8</ele>
        <time>2025-12-29T12:17:28Z</time>
      </trkpt>
      <trkpt lat="48.5998" lon="1.91417">
        <ele>137</ele>
        <time>2025-12-29T12:17:29Z</time>
      </trkpt>
      <trkpt lat="48.59982" lon="1.91418">
        <ele>137</ele>
        <time>2025-12-29T12:17:30Z</time>
      </trkpt>
      <trkpt lat="48.59984" lon="1.91419">
        <ele>137</ele>
        <time>2025-12-29T12:17:31Z</time>
      </trkpt>
      <trkpt lat="48.59987" lon="1.91421">
        <ele>137</ele>
        <time>2025-12-29T12:17:33Z</time>
      </trkpt>
      <trkpt lat="48.59989" lon="1.91423">
        <ele>137.2</ele>
        <time>2025-12-29T12:17:35Z</time>
      </trkpt>
      <trkpt lat="48.59991" lon="1.91426">
        <ele>137.2</ele>
        <time>2025-12-29T12:17:37Z</time>
      </trkpt>
      <trkpt lat="48.59994" lon="1.91428">
        <ele>137.4</ele>
        <time>2025-12-29T12:17:39Z</time>
      </trkpt>
      <trkpt lat="48.59996" lon="1.9143">
        <ele>137.4</ele>
        <time>2025-12-29T12:17:41Z</time>
      </trkpt>
      <trkpt lat="48.59999" lon="1.91433">
        <ele>137.4</ele>
        <time>2025-12-29T12:17:43Z</time>
      </trkpt>
      <trkpt lat="48.60001" lon="1.91435">
        <ele>137.4</ele>
        <time>2025-12-29T12:17:44Z</time>
      </trkpt>
      <trkpt lat="48.60003" lon="1.91438">
        <ele>137.4</ele>
        <time>2025-12-29T12:17:46Z</time>
      </trkpt>
      <trkpt lat="48.60005" lon="1.91441">
        <ele>137.6</ele>
        <time>2025-12-29T12:17:48Z</time>
      </trkpt>
      <trkpt lat="48.60008" lon="1.91443">
        <ele>137.6</ele>
        <time>2025-12-29T12:17:50Z</time>
      </trkpt>
      <trkpt lat="48.6001" lon="1.91445">
        <ele>137.6</ele>
        <time>2025-12-29T12:17:52Z</time>
      </trkpt>
      <trkpt lat="48.60012" lon="1.91446">
        <ele>137.8</ele>
        <time>2025-12-29T12:17:54Z</time>
      </trkpt>
      <trkpt lat="48.60015" lon="1.91448">
        <ele>137.8</ele>
        <time>2025-12-29T12:17:56Z</time>
      </trkpt>
      <trkpt lat="48.60017" lon="1.9145">
        <ele>137.8</ele>
        <time>2025-12-29T12:17:58Z</time>
      </trkpt>
      <trkpt lat="48.6002" lon="1.91453">
        <ele>137.8</ele>
        <time>2025-12-29T12:18:00Z</time>
      </trkpt>
      <trkpt lat="48.60022" lon="1.91455">
        <ele>138</ele>
        <time>2025-12-29T12:18:02Z</time>
      </trkpt>
      <trkpt lat="48.60025" lon="1.91457">
        <ele>138</ele>
        <time>2025-12-29T12:18:04Z</time>
      </trkpt>
      <trkpt lat="48.60028" lon="1.91459">
        <ele>138</ele>
        <time>2025-12-29T12:18:06Z</time>
      </trkpt>
      <trkpt lat="48.60031" lon="1.91462">
        <ele>138</ele>
        <time>2025-12-29T12:18:08Z</time>
      </trkpt>
      <trkpt lat="48.60033" lon="1.91463">
        <ele>137.8</ele>
        <time>2025-12-29T12:18:10Z</time>
      </trkpt>
      <trkpt lat="48.60035" lon="1.91466">
        <ele>137.8</ele>
        <time>2025-12-29T12:18:12Z</time>
      </trkpt>
      <trkpt lat="48.60037" lon="1.91468">
        <ele>137.6</ele>
        <time>2025-12-29T12:18:14Z</time>
      </trkpt>
      <trkpt lat="48.6004" lon="1.91471">
        <ele>137.6</ele>
        <time>2025-12-29T12:18:16Z</time>
      </trkpt>
      <trkpt lat="48.60043" lon="1.91474">
        <ele>137.4</ele>
        <time>2025-12-29T12:18:18Z</time>
      </trkpt>
      <trkpt lat="48.60046" lon="1.91476">
        <ele>137.2</ele>
        <time>2025-12-29T12:18:20Z</time>
      </trkpt>
      <trkpt lat="48.60048" lon="1.91478">
        <ele>137</ele>
        <time>2025-12-29T12:18:22Z</time>
      </trkpt>
      <trkpt lat="48.6005" lon="1.91479">
        <ele>136.8</ele>
        <time>2025-12-29T12:18:24Z</time>
      </trkpt>
      <trkpt lat="48.60052" lon="1.9148">
        <ele>136.4</ele>
        <time>2025-12-29T12:18:26Z</time>
      </trkpt>
      <trkpt lat="48.60054" lon="1.9148">
        <ele>136.2</ele>
        <time>2025-12-29T12:18:28Z</time>
      </trkpt>
      <trkpt lat="48.60057" lon="1.9148">
        <ele>136</ele>
        <time>2025-12-29T12:18:30Z</time>
      </trkpt>
      <trkpt lat="48.60059" lon="1.9148">
        <ele>135.8</ele>
        <time>2025-12-29T12:18:32Z</time>
      </trkpt>
      <trkpt lat="48.6006" lon="1.91478">
        <ele>135.4</ele>
        <time>2025-12-29T12:18:35Z</time>
      </trkpt>
      <trkpt lat="48.60062" lon="1.91477">
        <ele>135</ele>
        <time>2025-12-29T12:18:37Z</time>
      </trkpt>
      <trkpt lat="48.60064" lon="1.91475">
        <ele>134.6</ele>
        <time>2025-12-29T12:18:39Z</time>
      </trkpt>
      <trkpt lat="48.60066" lon="1.91473">
        <ele>134.2</ele>
        <time>2025-12-29T12:18:41Z</time>
      </trkpt>
      <trkpt lat="48.60068" lon="1.91471">
        <ele>133.6</ele>
        <time>2025-12-29T12:18:43Z</time>
      </trkpt>
      <trkpt lat="48.60069" lon="1.9147">
        <ele>133.2</ele>
        <time>2025-12-29T12:18:45Z</time>
      </trkpt>
      <trkpt lat="48.60071" lon="1.91468">
        <ele>132.6</ele>
        <time>2025-12-29T12:18:47Z</time>
      </trkpt>
      <trkpt lat="48.60074" lon="1.91466">
        <ele>132.2</ele>
        <time>2025-12-29T12:18:49Z</time>
      </trkpt>
      <trkpt lat="48.60076" lon="1.91465">
        <ele>132</ele>
        <time>2025-12-29T12:18:50Z</time>
      </trkpt>
      <trkpt lat="48.60078" lon="1.91461">
        <ele>131.6</ele>
        <time>2025-12-29T12:18:52Z</time>
      </trkpt>
      <trkpt lat="48.6008" lon="1.91459">
        <ele>131.2</ele>
        <time>2025-12-29T12:18:53Z</time>
      </trkpt>
      <trkpt lat="48.60081" lon="1.91457">
        <ele>131</ele>
        <time>2025-12-29T12:18:54Z</time>
      </trkpt>
      <trkpt lat="48.60083" lon="1.91455">
        <ele>130.8</ele>
        <time>2025-12-29T12:18:55Z</time>
      </trkpt>
      <trkpt lat="48.60084" lon="1.91452">
        <ele>130.6</ele>
        <time>2025-12-29T12:18:56Z</time>
      </trkpt>
      <trkpt lat="48.60085" lon="1.9145">
        <ele>130.4</ele>
        <time>2025-12-29T12:18:57Z</time>
      </trkpt>
      <trkpt lat="48.60087" lon="1.91447">
        <ele>130.2</ele>
        <time>2025-12-29T12:18:58Z</time>
      </trkpt>
      <trkpt lat="48.60088" lon="1.91444">
        <ele>130</ele>
        <time>2025-12-29T12:18:59Z</time>
      </trkpt>
      <trkpt lat="48.6009" lon="1.91441">
        <ele>130</ele>
        <time>2025-12-29T12:19:00Z</time>
      </trkpt>
      <trkpt lat="48.60091" lon="1.91438">
        <ele>129.8</ele>
        <time>2025-12-29T12:19:01Z</time>
      </trkpt>
      <trkpt lat="48.60093" lon="1.91435">
        <ele>129.6</ele>
        <time>2025-12-29T12:19:02Z</time>
      </trkpt>
      <trkpt lat="48.60094" lon="1.91432">
        <ele>129.6</ele>
        <time>2025-12-29T12:19:03Z</time>
      </trkpt>
      <trkpt lat="48.60096" lon="1.91428">
        <ele>129.4</ele>
        <time>2025-12-29T12:19:04Z</time>
      </trkpt>
      <trkpt lat="48.60098" lon="1.91425">
        <ele>129.4</ele>
        <time>2025-12-29T12:19:05Z</time>
      </trkpt>
      <trkpt lat="48.601" lon="1.91422">
        <ele>129.4</ele>
        <time>2025-12-29T12:19:06Z</time>
      </trkpt>
      <trkpt lat="48.60101" lon="1.91418">
        <ele>129.4</ele>
        <time>2025-12-29T12:19:07Z</time>
      </trkpt>
      <trkpt lat="48.60103" lon="1.91414">
        <ele>129.4</ele>
        <time>2025-12-29T12:19:08Z</time>
      </trkpt>
      <trkpt lat="48.60105" lon="1.91411">
        <ele>129.4</ele>
        <time>2025-12-29T12:19:09Z</time>
      </trkpt>
      <trkpt lat="48.60107" lon="1.91407">
        <ele>129.4</ele>
        <time>2025-12-29T12:19:10Z</time>
      </trkpt>
      <trkpt lat="48.60108" lon="1.91403">
        <ele>129.4</ele>
        <time>2025-12-29T12:19:11Z</time>
      </trkpt>
      <trkpt lat="48.6011" lon="1.91399">
        <ele>129.2</ele>
        <time>2025-12-29T12:19:12Z</time>
      </trkpt>
      <trkpt lat="48.60112" lon="1.91395">
        <ele>129.2</ele>
        <time>2025-12-29T12:19:13Z</time>
      </trkpt>
      <trkpt lat="48.60114" lon="1.91392">
        <ele>129.2</ele>
        <time>2025-12-29T12:19:14Z</time>
      </trkpt>
      <trkpt lat="48.60116" lon="1.91388">
        <ele>129.2</ele>
        <time>2025-12-29T12:19:15Z</time>
      </trkpt>
      <trkpt lat="48.60118" lon="1.91384">
        <ele>129.2</ele>
        <time>2025-12-29T12:19:16Z</time>
      </trkpt>
      <trkpt lat="48.6012" lon="1.9138">
        <ele>129.2</ele>
        <time>2025-12-29T12:19:17Z</time>
      </trkpt>
      <trkpt lat="48.60122" lon="1.91377">
        <ele>129</ele>
        <time>2025-12-29T12:19:18Z</time>
      </trkpt>
      <trkpt lat="48.60123" lon="1.91373">
        <ele>129</ele>
        <time>2025-12-29T12:19:19Z</time>
      </trkpt>
      <trkpt lat="48.60125" lon="1.91369">
        <ele>129</ele>
        <time>2025-12-29T12:19:20Z</time>
      </trkpt>
      <trkpt lat="48.60127" lon="1.91366">
        <ele>129</ele>
        <time>2025-12-29T12:19:21Z</time>
      </trkpt>
      <trkpt lat="48.60128" lon="1.91362">
        <ele>128.8</ele>
        <time>2025-12-29T12:19:22Z</time>
      </trkpt>
      <trkpt lat="48.6013" lon="1.91359">
        <ele>128.8</ele>
        <time>2025-12-29T12:19:23Z</time>
      </trkpt>
      <trkpt lat="48.60132" lon="1.91356">
        <ele>128.8</ele>
        <time>2025-12-29T12:19:24Z</time>
      </trkpt>
      <trkpt lat="48.60133" lon="1.91353">
        <ele>128.8</ele>
        <time>2025-12-29T12:19:25Z</time>
      </trkpt>
      <trkpt lat="48.60134" lon="1.91349">
        <ele>128.8</ele>
        <time>2025-12-29T12:19:26Z</time>
      </trkpt>
      <trkpt lat="48.60135" lon="1.91346">
        <ele>128.8</ele>
        <time>2025-12-29T12:19:27Z</time>
      </trkpt>
      <trkpt lat="48.60136" lon="1.91342">
        <ele>128.8</ele>
        <time>2025-12-29T12:19:28Z</time>
      </trkpt>
      <trkpt lat="48.60136" lon="1.91339">
        <ele>128.6</ele>
        <time>2025-12-29T12:19:29Z</time>
      </trkpt>
      <trkpt lat="48.60137" lon="1.91336">
        <ele>128.6</ele>
        <time>2025-12-29T12:19:30Z</time>
      </trkpt>
      <trkpt lat="48.60138" lon="1.91332">
        <ele>128.6</ele>
        <time>2025-12-29T12:19:31Z</time>
      </trkpt>
      <trkpt lat="48.60139" lon="1.91329">
        <ele>128.6</ele>
        <time>2025-12-29T12:19:32Z</time>
      </trkpt>
      <trkpt lat="48.6014" lon="1.91325">
        <ele>128.6</ele>
        <time>2025-12-29T12:19:33Z</time>
      </trkpt>
      <trkpt lat="48.60141" lon="1.91321">
        <ele>128.6</ele>
        <time>2025-12-29T12:19:34Z</time>
      </trkpt>
      <trkpt lat="48.60142" lon="1.91317">
        <ele>128.6</ele>
        <time>2025-12-29T12:19:35Z</time>
      </trkpt>
      <trkpt lat="48.60144" lon="1.91313">
        <ele>128.6</ele>
        <time>2025-12-29T12:19:36Z</time>
      </trkpt>
      <trkpt lat="48.60145" lon="1.91309">
        <ele>128.4</ele>
        <time>2025-12-29T12:19:37Z</time>
      </trkpt>
      <trkpt lat="48.60146" lon="1.91304">
        <ele>128.4</ele>
        <time>2025-12-29T12:19:38Z</time>
      </trkpt>
      <trkpt lat="48.60148" lon="1.91299">
        <ele>128.4</ele>
        <time>2025-12-29T12:19:39Z</time>
      </trkpt>
      <trkpt lat="48.60149" lon="1.91294">
        <ele>128.4</ele>
        <time>2025-12-29T12:19:40Z</time>
      </trkpt>
      <trkpt lat="48.6015" lon="1.91288">
        <ele>128.6</ele>
        <time>2025-12-29T12:19:41Z</time>
      </trkpt>
      <trkpt lat="48.60152" lon="1.91283">
        <ele>128.6</ele>
        <time>2025-12-29T12:19:42Z</time>
      </trkpt>
      <trkpt lat="48.60153" lon="1.91278">
        <ele>128.6</ele>
        <time>2025-12-29T12:19:43Z</time>
      </trkpt>
      <trkpt lat="48.60154" lon="1.91274">
        <ele>128.4</ele>
        <time>2025-12-29T12:19:44Z</time>
      </trkpt>
      <trkpt lat="48.60155" lon="1.9127">
        <ele>128.4</ele>
        <time>2025-12-29T12:19:45Z</time>
      </trkpt>
      <trkpt lat="48.60156" lon="1.91266">
        <ele>128.4</ele>
        <time>2025-12-29T12:19:46Z</time>
      </trkpt>
      <trkpt lat="48.60157" lon="1.91263">
        <ele>128.4</ele>
        <time>2025-12-29T12:19:47Z</time>
      </trkpt>
      <trkpt lat="48.60158" lon="1.9126">
        <ele>128.4</ele>
        <time>2025-12-29T12:19:48Z</time>
      </trkpt>
      <trkpt lat="48.60159" lon="1.91258">
        <ele>128.2</ele>
        <time>2025-12-29T12:19:49Z</time>
      </trkpt>
      <trkpt lat="48.60161" lon="1.91254">
        <ele>128.2</ele>
        <time>2025-12-29T12:19:51Z</time>
      </trkpt>
      <trkpt lat="48.60164" lon="1.91251">
        <ele>128.2</ele>
        <time>2025-12-29T12:19:53Z</time>
      </trkpt>
      <trkpt lat="48.60166" lon="1.91248">
        <ele>128.2</ele>
        <time>2025-12-29T12:19:55Z</time>
      </trkpt>
      <trkpt lat="48.60168" lon="1.91247">
        <ele>128.2</ele>
        <time>2025-12-29T12:19:57Z</time>
      </trkpt>
      <trkpt lat="48.60171" lon="1.91247">
        <ele>128.2</ele>
        <time>2025-12-29T12:19:59Z</time>
      </trkpt>
      <trkpt lat="48.60173" lon="1.91248">
        <ele>128.2</ele>
        <time>2025-12-29T12:20:01Z</time>
      </trkpt>
      <trkpt lat="48.60176" lon="1.9125">
        <ele>128.2</ele>
        <time>2025-12-29T12:20:03Z</time>
      </trkpt>
      <trkpt lat="48.60179" lon="1.91253">
        <ele>128.2</ele>
        <time>2025-12-29T12:20:05Z</time>
      </trkpt>
      <trkpt lat="48.60182" lon="1.91254">
        <ele>128.4</ele>
        <time>2025-12-29T12:20:07Z</time>
      </trkpt>
      <trkpt lat="48.60186" lon="1.91256">
        <ele>128.4</ele>
        <time>2025-12-29T12:20:09Z</time>
      </trkpt>
      <trkpt lat="48.60188" lon="1.91257">
        <ele>128.4</ele>
        <time>2025-12-29T12:20:10Z</time>
      </trkpt>
      <trkpt lat="48.60189" lon="1.91259">
        <ele>128.4</ele>
        <time>2025-12-29T12:20:11Z</time>
      </trkpt>
      <trkpt lat="48.60193" lon="1.91261">
        <ele>128.6</ele>
        <time>2025-12-29T12:20:13Z</time>
      </trkpt>
      <trkpt lat="48.60196" lon="1.91265">
        <ele>128.6</ele>
        <time>2025-12-29T12:20:15Z</time>
      </trkpt>
      <trkpt lat="48.60197" lon="1.91267">
        <ele>128.6</ele>
        <time>2025-12-29T12:20:16Z</time>
      </trkpt>
      <trkpt lat="48.60199" lon="1.91269">
        <ele>128.6</ele>
        <time>2025-12-29T12:20:17Z</time>
      </trkpt>
      <trkpt lat="48.60201" lon="1.91272">
        <ele>128.6</ele>
        <time>2025-12-29T12:20:18Z</time>
      </trkpt>
      <trkpt lat="48.60203" lon="1.91274">
        <ele>128.6</ele>
        <time>2025-12-29T12:20:19Z</time>
      </trkpt>
      <trkpt lat="48.60205" lon="1.91277">
        <ele>128.8</ele>
        <time>2025-12-29T12:20:20Z</time>
      </trkpt>
      <trkpt lat="48.60208" lon="1.9128">
        <ele>128.8</ele>
        <time>2025-12-29T12:20:21Z</time>
      </trkpt>
      <trkpt lat="48.60211" lon="1.91283">
        <ele>128.8</ele>
        <time>2025-12-29T12:20:22Z</time>
      </trkpt>
      <trkpt lat="48.60213" lon="1.91286">
        <ele>128.8</ele>
        <time>2025-12-29T12:20:23Z</time>
      </trkpt>
      <trkpt lat="48.60216" lon="1.91289">
        <ele>128.8</ele>
        <time>2025-12-29T12:20:24Z</time>
      </trkpt>
      <trkpt lat="48.60219" lon="1.91292">
        <ele>128.8</ele>
        <time>2025-12-29T12:20:25Z</time>
      </trkpt>
      <trkpt lat="48.60221" lon="1.91296">
        <ele>129</ele>
        <time>2025-12-29T12:20:26Z</time>
      </trkpt>
      <trkpt lat="48.60223" lon="1.91299">
        <ele>129</ele>
        <time>2025-12-29T12:20:27Z</time>
      </trkpt>
      <trkpt lat="48.60226" lon="1.91303">
        <ele>129</ele>
        <time>2025-12-29T12:20:28Z</time>
      </trkpt>
      <trkpt lat="48.60227" lon="1.91307">
        <ele>129</ele>
        <time>2025-12-29T12:20:29Z</time>
      </trkpt>
      <trkpt lat="48.60229" lon="1.91311">
        <ele>129</ele>
        <time>2025-12-29T12:20:30Z</time>
      </trkpt>
      <trkpt lat="48.60231" lon="1.91315">
        <ele>129</ele>
        <time>2025-12-29T12:20:31Z</time>
      </trkpt>
      <trkpt lat="48.60233" lon="1.9132">
        <ele>129</ele>
        <time>2025-12-29T12:20:32Z</time>
      </trkpt>
      <trkpt lat="48.60236" lon="1.91324">
        <ele>129</ele>
        <time>2025-12-29T12:20:33Z</time>
      </trkpt>
      <trkpt lat="48.60237" lon="1.91328">
        <ele>129</ele>
        <time>2025-12-29T12:20:34Z</time>
      </trkpt>
      <trkpt lat="48.60239" lon="1.91333">
        <ele>129</ele>
        <time>2025-12-29T12:20:35Z</time>
      </trkpt>
      <trkpt lat="48.60241" lon="1.91337">
        <ele>129</ele>
        <time>2025-12-29T12:20:36Z</time>
      </trkpt>
      <trkpt lat="48.60243" lon="1.91342">
        <ele>129</ele>
        <time>2025-12-29T12:20:37Z</time>
      </trkpt>
      <trkpt lat="48.60244" lon="1.91346">
        <ele>129</ele>
        <time>2025-12-29T12:20:38Z</time>
      </trkpt>
      <trkpt lat="48.60246" lon="1.91351">
        <ele>129</ele>
        <time>2025-12-29T12:20:39Z</time>
      </trkpt>
      <trkpt lat="48.60248" lon="1.91356">
        <ele>129</ele>
        <time>2025-12-29T12:20:40Z</time>
      </trkpt>
      <trkpt lat="48.6025" lon="1.9136">
        <ele>129</ele>
        <time>2025-12-29T12:20:41Z</time>
      </trkpt>
      <trkpt lat="48.60252" lon="1.91365">
        <ele>129</ele>
        <time>2025-12-29T12:20:42Z</time>
      </trkpt>
      <trkpt lat="48.60253" lon="1.9137">
        <ele>129</ele>
        <time>2025-12-29T12:20:43Z</time>
      </trkpt>
      <trkpt lat="48.60256" lon="1.91374">
        <ele>129</ele>
        <time>2025-12-29T12:20:44Z</time>
      </trkpt>
      <trkpt lat="48.60258" lon="1.91379">
        <ele>129</ele>
        <time>2025-12-29T12:20:45Z</time>
      </trkpt>
      <trkpt lat="48.6026" lon="1.91383">
        <ele>129</ele>
        <time>2025-12-29T12:20:46Z</time>
      </trkpt>
      <trkpt lat="48.60263" lon="1.91387">
        <ele>129</ele>
        <time>2025-12-29T12:20:47Z</time>
      </trkpt>
      <trkpt lat="48.60266" lon="1.91392">
        <ele>129</ele>
        <time>2025-12-29T12:20:48Z</time>
      </trkpt>
      <trkpt lat="48.60268" lon="1.91396">
        <ele>128.8</ele>
        <time>2025-12-29T12:20:49Z</time>
      </trkpt>
      <trkpt lat="48.60271" lon="1.914">
        <ele>128.8</ele>
        <time>2025-12-29T12:20:50Z</time>
      </trkpt>
      <trkpt lat="48.60274" lon="1.91405">
        <ele>128.8</ele>
        <time>2025-12-29T12:20:51Z</time>
      </trkpt>
      <trkpt lat="48.60276" lon="1.91409">
        <ele>128.8</ele>
        <time>2025-12-29T12:20:52Z</time>
      </trkpt>
      <trkpt lat="48.60279" lon="1.91414">
        <ele>128.8</ele>
        <time>2025-12-29T12:20:53Z</time>
      </trkpt>
      <trkpt lat="48.60281" lon="1.91419">
        <ele>128.8</ele>
        <time>2025-12-29T12:20:54Z</time>
      </trkpt>
      <trkpt lat="48.60283" lon="1.91423">
        <ele>128.8</ele>
        <time>2025-12-29T12:20:55Z</time>
      </trkpt>
      <trkpt lat="48.60285" lon="1.91428">
        <ele>128.8</ele>
        <time>2025-12-29T12:20:56Z</time>
      </trkpt>
      <trkpt lat="48.60286" lon="1.91433">
        <ele>128.8</ele>
        <time>2025-12-29T12:20:57Z</time>
      </trkpt>
      <trkpt lat="48.60288" lon="1.91438">
        <ele>128.6</ele>
        <time>2025-12-29T12:20:58Z</time>
      </trkpt>
      <trkpt lat="48.60289" lon="1.91442">
        <ele>128.6</ele>
        <time>2025-12-29T12:20:59Z</time>
      </trkpt>
      <trkpt lat="48.60291" lon="1.91447">
        <ele>128.6</ele>
        <time>2025-12-29T12:21:00Z</time>
      </trkpt>
      <trkpt lat="48.60293" lon="1.91452">
        <ele>128.6</ele>
        <time>2025-12-29T12:21:01Z</time>
      </trkpt>
      <trkpt lat="48.60295" lon="1.91456">
        <ele>128.4</ele>
        <time>2025-12-29T12:21:02Z</time>
      </trkpt>
      <trkpt lat="48.60297" lon="1.9146">
        <ele>128.4</ele>
        <time>2025-12-29T12:21:03Z</time>
      </trkpt>
      <trkpt lat="48.60299" lon="1.91465">
        <ele>128.4</ele>
        <time>2025-12-29T12:21:04Z</time>
      </trkpt>
      <trkpt lat="48.60301" lon="1.91468">
        <ele>128.4</ele>
        <time>2025-12-29T12:21:05Z</time>
      </trkpt>
      <trkpt lat="48.60304" lon="1.91472">
        <ele>128.2</ele>
        <time>2025-12-29T12:21:06Z</time>
      </trkpt>
      <trkpt lat="48.60307" lon="1.91476">
        <ele>128.2</ele>
        <time>2025-12-29T12:21:07Z</time>
      </trkpt>
      <trkpt lat="48.6031" lon="1.91479">
        <ele>128.2</ele>
        <time>2025-12-29T12:21:08Z</time>
      </trkpt>
      <trkpt lat="48.60313" lon="1.91483">
        <ele>128</ele>
        <time>2025-12-29T12:21:09Z</time>
      </trkpt>
      <trkpt lat="48.60316" lon="1.91486">
        <ele>128</ele>
        <time>2025-12-29T12:21:10Z</time>
      </trkpt>
      <trkpt lat="48.60319" lon="1.91489">
        <ele>128</ele>
        <time>2025-12-29T12:21:11Z</time>
      </trkpt>
      <trkpt lat="48.60322" lon="1.91493">
        <ele>128</ele>
        <time>2025-12-29T12:21:12Z</time>
      </trkpt>
      <trkpt lat="48.60325" lon="1.91496">
        <ele>127.8</ele>
        <time>2025-12-29T12:21:13Z</time>
      </trkpt>
      <trkpt lat="48.60328" lon="1.91499">
        <ele>127.8</ele>
        <time>2025-12-29T12:21:14Z</time>
      </trkpt>
      <trkpt lat="48.60331" lon="1.91502">
        <ele>127.8</ele>
        <time>2025-12-29T12:21:15Z</time>
      </trkpt>
      <trkpt lat="48.60334" lon="1.91505">
        <ele>127.8</ele>
        <time>2025-12-29T12:21:16Z</time>
      </trkpt>
      <trkpt lat="48.60336" lon="1.91507">
        <ele>127.8</ele>
        <time>2025-12-29T12:21:17Z</time>
      </trkpt>
      <trkpt lat="48.60338" lon="1.9151">
        <ele>127.6</ele>
        <time>2025-12-29T12:21:18Z</time>
      </trkpt>
      <trkpt lat="48.6034" lon="1.91513">
        <ele>127.6</ele>
        <time>2025-12-29T12:21:19Z</time>
      </trkpt>
      <trkpt lat="48.60342" lon="1.91515">
        <ele>127.6</ele>
        <time>2025-12-29T12:21:20Z</time>
      </trkpt>
      <trkpt lat="48.60344" lon="1.91518">
        <ele>127.6</ele>
        <time>2025-12-29T12:21:21Z</time>
      </trkpt>
      <trkpt lat="48.60346" lon="1.91521">
        <ele>127.4</ele>
        <time>2025-12-29T12:21:22Z</time>
      </trkpt>
      <trkpt lat="48.60348" lon="1.91524">
        <ele>127.4</ele>
        <time>2025-12-29T12:21:23Z</time>
      </trkpt>
      <trkpt lat="48.6035" lon="1.91527">
        <ele>127.4</ele>
        <time>2025-12-29T12:21:24Z</time>
      </trkpt>
      <trkpt lat="48.60352" lon="1.9153">
        <ele>127.2</ele>
        <time>2025-12-29T12:21:25Z</time>
      </trkpt>
      <trkpt lat="48.60355" lon="1.91533">
        <ele>127.2</ele>
        <time>2025-12-29T12:21:26Z</time>
      </trkpt>
      <trkpt lat="48.60358" lon="1.91536">
        <ele>127</ele>
        <time>2025-12-29T12:21:27Z</time>
      </trkpt>
      <trkpt lat="48.60361" lon="1.91539">
        <ele>127</ele>
        <time>2025-12-29T12:21:28Z</time>
      </trkpt>
      <trkpt lat="48.60364" lon="1.91542">
        <ele>127</ele>
        <time>2025-12-29T12:21:29Z</time>
      </trkpt>
      <trkpt lat="48.60367" lon="1.91545">
        <ele>126.8</ele>
        <time>2025-12-29T12:21:30Z</time>
      </trkpt>
      <trkpt lat="48.6037" lon="1.91548">
        <ele>126.8</ele>
        <time>2025-12-29T12:21:31Z</time>
      </trkpt>
      <trkpt lat="48.60373" lon="1.91552">
        <ele>126.6</ele>
        <time>2025-12-29T12:21:32Z</time>
      </trkpt>
      <trkpt lat="48.60376" lon="1.91555">
        <ele>126.6</ele>
        <time>2025-12-29T12:21:33Z</time>
      </trkpt>
      <trkpt lat="48.6038" lon="1.91558">
        <ele>126.4</ele>
        <time>2025-12-29T12:21:34Z</time>
      </trkpt>
      <trkpt lat="48.60382" lon="1.91561">
        <ele>126.4</ele>
        <time>2025-12-29T12:21:35Z</time>
      </trkpt>
      <trkpt lat="48.60385" lon="1.91564">
        <ele>126.2</ele>
        <time>2025-12-29T12:21:36Z</time>
      </trkpt>
      <trkpt lat="48.60387" lon="1.91568">
        <ele>126.2</ele>
        <time>2025-12-29T12:21:37Z</time>
      </trkpt>
      <trkpt lat="48.60389" lon="1.91571">
        <ele>126</ele>
        <time>2025-12-29T12:21:38Z</time>
      </trkpt>
      <trkpt lat="48.60392" lon="1.91574">
        <ele>126</ele>
        <time>2025-12-29T12:21:39Z</time>
      </trkpt>
      <trkpt lat="48.60394" lon="1.91577">
        <ele>126</ele>
        <time>2025-12-29T12:21:40Z</time>
      </trkpt>
      <trkpt lat="48.60396" lon="1.9158">
        <ele>125.8</ele>
        <time>2025-12-29T12:21:41Z</time>
      </trkpt>
      <trkpt lat="48.60399" lon="1.91583">
        <ele>125.8</ele>
        <time>2025-12-29T12:21:42Z</time>
      </trkpt>
      <trkpt lat="48.60401" lon="1.91586">
        <ele>125.8</ele>
        <time>2025-12-29T12:21:43Z</time>
      </trkpt>
      <trkpt lat="48.60403" lon="1.91589">
        <ele>125.6</ele>
        <time>2025-12-29T12:21:44Z</time>
      </trkpt>
      <trkpt lat="48.60405" lon="1.91592">
        <ele>125.6</ele>
        <time>2025-12-29T12:21:45Z</time>
      </trkpt>
      <trkpt lat="48.60407" lon="1.91595">
        <ele>125.6</ele>
        <time>2025-12-29T12:21:46Z</time>
      </trkpt>
      <trkpt lat="48.60409" lon="1.91598">
        <ele>125.4</ele>
        <time>2025-12-29T12:21:47Z</time>
      </trkpt>
      <trkpt lat="48.60412" lon="1.91601">
        <ele>125.4</ele>
        <time>2025-12-29T12:21:48Z</time>
      </trkpt>
      <trkpt lat="48.60414" lon="1.91605">
        <ele>125.4</ele>
        <time>2025-12-29T12:21:49Z</time>
      </trkpt>
      <trkpt lat="48.60416" lon="1.91608">
        <ele>125.4</ele>
        <time>2025-12-29T12:21:50Z</time>
      </trkpt>
      <trkpt lat="48.6042" lon="1.91611">
        <ele>125.2</ele>
        <time>2025-12-29T12:21:51Z</time>
      </trkpt>
      <trkpt lat="48.60422" lon="1.91614">
        <ele>125.2</ele>
        <time>2025-12-29T12:21:52Z</time>
      </trkpt>
      <trkpt lat="48.60424" lon="1.91616">
        <ele>125.2</ele>
        <time>2025-12-29T12:21:53Z</time>
      </trkpt>
      <trkpt lat="48.60427" lon="1.91619">
        <ele>125.2</ele>
        <time>2025-12-29T12:21:54Z</time>
      </trkpt>
      <trkpt lat="48.60429" lon="1.91621">
        <ele>125</ele>
        <time>2025-12-29T12:21:55Z</time>
      </trkpt>
      <trkpt lat="48.60432" lon="1.91622">
        <ele>125</ele>
        <time>2025-12-29T12:21:56Z</time>
      </trkpt>
      <trkpt lat="48.60434" lon="1.91624">
        <ele>125</ele>
        <time>2025-12-29T12:21:57Z</time>
      </trkpt>
      <trkpt lat="48.60436" lon="1.91624">
        <ele>124.8</ele>
        <time>2025-12-29T12:21:58Z</time>
      </trkpt>
      <trkpt lat="48.60438" lon="1.91624">
        <ele>124.8</ele>
        <time>2025-12-29T12:21:59Z</time>
      </trkpt>
      <trkpt lat="48.60441" lon="1.91624">
        <ele>124.8</ele>
        <time>2025-12-29T12:22:00Z</time>
      </trkpt>
      <trkpt lat="48.60444" lon="1.91623">
        <ele>124.8</ele>
        <time>2025-12-29T12:22:01Z</time>
      </trkpt>
      <trkpt lat="48.60446" lon="1.91623">
        <ele>124.8</ele>
        <time>2025-12-29T12:22:02Z</time>
      </trkpt>
      <trkpt lat="48.6045" lon="1.91622">
        <ele>124.6</ele>
        <time>2025-12-29T12:22:03Z</time>
      </trkpt>
      <trkpt lat="48.60453" lon="1.91622">
        <ele>124.6</ele>
        <time>2025-12-29T12:22:04Z</time>
      </trkpt>
      <trkpt lat="48.60457" lon="1.91621">
        <ele>124.6</ele>
        <time>2025-12-29T12:22:05Z</time>
      </trkpt>
      <trkpt lat="48.6046" lon="1.91621">
        <ele>124.6</ele>
        <time>2025-12-29T12:22:06Z</time>
      </trkpt>
      <trkpt lat="48.60463" lon="1.91622">
        <ele>124.4</ele>
        <time>2025-12-29T12:22:07Z</time>
      </trkpt>
      <trkpt lat="48.60466" lon="1.91623">
        <ele>124.4</ele>
        <time>2025-12-29T12:22:08Z</time>
      </trkpt>
      <trkpt lat="48.60469" lon="1.91623">
        <ele>124.4</ele>
        <time>2025-12-29T12:22:09Z</time>
      </trkpt>
      <trkpt lat="48.60473" lon="1.91624">
        <ele>124.4</ele>
        <time>2025-12-29T12:22:10Z</time>
      </trkpt>
      <trkpt lat="48.60476" lon="1.91625">
        <ele>124.2</ele>
        <time>2025-12-29T12:22:11Z</time>
      </trkpt>
      <trkpt lat="48.60479" lon="1.91626">
        <ele>123.8</ele>
        <time>2025-12-29T12:22:19Z</time>
      </trkpt>
      <trkpt lat="48.60482" lon="1.91627">
        <ele>123.8</ele>
        <time>2025-12-29T12:22:21Z</time>
      </trkpt>
      <trkpt lat="48.60485" lon="1.91628">
        <ele>123.6</ele>
        <time>2025-12-29T12:22:22Z</time>
      </trkpt>
      <trkpt lat="48.60489" lon="1.91629">
        <ele>123.6</ele>
        <time>2025-12-29T12:22:23Z</time>
      </trkpt>
      <trkpt lat="48.60511" lon="1.91641">
        <ele>123.6</ele>
        <time>2025-12-29T12:22:24Z</time>
      </trkpt>
      <trkpt lat="48.60515" lon="1.91644">
        <ele>123.6</ele>
        <time>2025-12-29T12:22:25Z</time>
      </trkpt>
      <trkpt lat="48.60517" lon="1.91645">
        <ele>123.6</ele>
        <time>2025-12-29T12:22:26Z</time>
      </trkpt>
      <trkpt lat="48.60519" lon="1.91647">
        <ele>123.4</ele>
        <time>2025-12-29T12:22:27Z</time>
      </trkpt>
      <trkpt lat="48.60521" lon="1.91648">
        <ele>123.4</ele>
        <time>2025-12-29T12:22:28Z</time>
      </trkpt>
      <trkpt lat="48.60523" lon="1.9165">
        <ele>123.4</ele>
        <time>2025-12-29T12:22:29Z</time>
      </trkpt>
      <trkpt lat="48.60526" lon="1.91652">
        <ele>123.4</ele>
        <time>2025-12-29T12:22:30Z</time>
      </trkpt>
      <trkpt lat="48.60528" lon="1.91654">
        <ele>123.2</ele>
        <time>2025-12-29T12:22:31Z</time>
      </trkpt>
      <trkpt lat="48.60531" lon="1.91657">
        <ele>123.2</ele>
        <time>2025-12-29T12:22:32Z</time>
      </trkpt>
      <trkpt lat="48.60533" lon="1.91659">
        <ele>123.2</ele>
        <time>2025-12-29T12:22:33Z</time>
      </trkpt>
      <trkpt lat="48.60535" lon="1.91662">
        <ele>123.2</ele>
        <time>2025-12-29T12:22:34Z</time>
      </trkpt>
      <trkpt lat="48.60537" lon="1.91665">
        <ele>123</ele>
        <time>2025-12-29T12:22:35Z</time>
      </trkpt>
      <trkpt lat="48.60539" lon="1.91669">
        <ele>123</ele>
        <time>2025-12-29T12:22:36Z</time>
      </trkpt>
      <trkpt lat="48.6054" lon="1.91673">
        <ele>123</ele>
        <time>2025-12-29T12:22:37Z</time>
      </trkpt>
      <trkpt lat="48.60542" lon="1.91677">
        <ele>123</ele>
        <time>2025-12-29T12:22:38Z</time>
      </trkpt>
      <trkpt lat="48.60544" lon="1.91682">
        <ele>123</ele>
        <time>2025-12-29T12:22:39Z</time>
      </trkpt>
      <trkpt lat="48.60546" lon="1.91686">
        <ele>123</ele>
        <time>2025-12-29T12:22:40Z</time>
      </trkpt>
      <trkpt lat="48.60548" lon="1.9169">
        <ele>123</ele>
        <time>2025-12-29T12:22:41Z</time>
      </trkpt>
      <trkpt lat="48.6055" lon="1.91695">
        <ele>122.8</ele>
        <time>2025-12-29T12:22:42Z</time>
      </trkpt>
      <trkpt lat="48.60552" lon="1.91699">
        <ele>122.8</ele>
        <time>2025-12-29T12:22:43Z</time>
      </trkpt>
      <trkpt lat="48.60554" lon="1.91703">
        <ele>122.8</ele>
        <time>2025-12-29T12:22:44Z</time>
      </trkpt>
      <trkpt lat="48.60557" lon="1.91707">
        <ele>122.8</ele>
        <time>2025-12-29T12:22:45Z</time>
      </trkpt>
      <trkpt lat="48.60559" lon="1.91711">
        <ele>122.8</ele>
        <time>2025-12-29T12:22:46Z</time>
      </trkpt>
      <trkpt lat="48.60562" lon="1.91715">
        <ele>122.8</ele>
        <time>2025-12-29T12:22:47Z</time>
      </trkpt>
      <trkpt lat="48.60565" lon="1.91719">
        <ele>122.8</ele>
        <time>2025-12-29T12:22:48Z</time>
      </trkpt>
      <trkpt lat="48.60567" lon="1.91723">
        <ele>122.8</ele>
        <time>2025-12-29T12:22:49Z</time>
      </trkpt>
      <trkpt lat="48.6057" lon="1.91726">
        <ele>122.8</ele>
        <time>2025-12-29T12:22:50Z</time>
      </trkpt>
      <trkpt lat="48.60572" lon="1.9173">
        <ele>122.8</ele>
        <time>2025-12-29T12:22:51Z</time>
      </trkpt>
      <trkpt lat="48.60575" lon="1.91734">
        <ele>122.8</ele>
        <time>2025-12-29T12:22:52Z</time>
      </trkpt>
      <trkpt lat="48.60577" lon="1.91737">
        <ele>122.8</ele>
        <time>2025-12-29T12:22:53Z</time>
      </trkpt>
      <trkpt lat="48.60579" lon="1.9174">
        <ele>122.8</ele>
        <time>2025-12-29T12:22:54Z</time>
      </trkpt>
      <trkpt lat="48.6058" lon="1.91743">
        <ele>122.8</ele>
        <time>2025-12-29T12:22:55Z</time>
      </trkpt>
      <trkpt lat="48.60581" lon="1.91745">
        <ele>122.8</ele>
        <time>2025-12-29T12:22:56Z</time>
      </trkpt>
      <trkpt lat="48.60583" lon="1.91747">
        <ele>122.6</ele>
        <time>2025-12-29T12:22:57Z</time>
      </trkpt>
      <trkpt lat="48.60585" lon="1.91748">
        <ele>122.6</ele>
        <time>2025-12-29T12:22:58Z</time>
      </trkpt>
      <trkpt lat="48.60587" lon="1.91749">
        <ele>122.6</ele>
        <time>2025-12-29T12:22:59Z</time>
      </trkpt>
      <trkpt lat="48.60589" lon="1.91752">
        <ele>122.6</ele>
        <time>2025-12-29T12:23:01Z</time>
      </trkpt>
      <trkpt lat="48.60593" lon="1.91753">
        <ele>122.8</ele>
        <time>2025-12-29T12:23:03Z</time>
      </trkpt>
      <trkpt lat="48.60596" lon="1.91754">
        <ele>122.8</ele>
        <time>2025-12-29T12:23:05Z</time>
      </trkpt>
      <trkpt lat="48.60598" lon="1.91755">
        <ele>122.8</ele>
        <time>2025-12-29T12:23:06Z</time>
      </trkpt>
      <trkpt lat="48.606" lon="1.91755">
        <ele>122.8</ele>
        <time>2025-12-29T12:23:07Z</time>
      </trkpt>
      <trkpt lat="48.60602" lon="1.91755">
        <ele>122.8</ele>
        <time>2025-12-29T12:23:08Z</time>
      </trkpt>
      <trkpt lat="48.60604" lon="1.91755">
        <ele>122.8</ele>
        <time>2025-12-29T12:23:10Z</time>
      </trkpt>
      <trkpt lat="48.60606" lon="1.91755">
        <ele>122.8</ele>
        <time>2025-12-29T12:23:13Z</time>
      </trkpt>
      <trkpt lat="48.60609" lon="1.91755">
        <ele>122.8</ele>
        <time>2025-12-29T12:23:15Z</time>
      </trkpt>
      <trkpt lat="48.60611" lon="1.91756">
        <ele>122.8</ele>
        <time>2025-12-29T12:23:17Z</time>
      </trkpt>
      <trkpt lat="48.60612" lon="1.91757">
        <ele>122.6</ele>
        <time>2025-12-29T12:23:19Z</time>
      </trkpt>
      <trkpt lat="48.60615" lon="1.91758">
        <ele>122.6</ele>
        <time>2025-12-29T12:23:21Z</time>
      </trkpt>
      <trkpt lat="48.60618" lon="1.91759">
        <ele>122.4</ele>
        <time>2025-12-29T12:23:23Z</time>
      </trkpt>
      <trkpt lat="48.60622" lon="1.91759">
        <ele>122.4</ele>
        <time>2025-12-29T12:23:25Z</time>
      </trkpt>
      <trkpt lat="48.60625" lon="1.91759">
        <ele>122.2</ele>
        <time>2025-12-29T12:23:27Z</time>
      </trkpt>
      <trkpt lat="48.60628" lon="1.91758">
        <ele>122</ele>
        <time>2025-12-29T12:23:30Z</time>
      </trkpt>
      <trkpt lat="48.60631" lon="1.91758">
        <ele>121.8</ele>
        <time>2025-12-29T12:23:32Z</time>
      </trkpt>
      <trkpt lat="48.60634" lon="1.91758">
        <ele>121.8</ele>
        <time>2025-12-29T12:23:33Z</time>
      </trkpt>
      <trkpt lat="48.60636" lon="1.91758">
        <ele>121.6</ele>
        <time>2025-12-29T12:23:35Z</time>
      </trkpt>
      <trkpt lat="48.60638" lon="1.91758">
        <ele>121</ele>
        <time>2025-12-29T12:23:39Z</time>
      </trkpt>
      <trkpt lat="48.6064" lon="1.91758">
        <ele>120.8</ele>
        <time>2025-12-29T12:23:41Z</time>
      </trkpt>
      <trkpt lat="48.60643" lon="1.91758">
        <ele>120.8</ele>
        <time>2025-12-29T12:23:43Z</time>
      </trkpt>
      <trkpt lat="48.60645" lon="1.91759">
        <ele>120.6</ele>
        <time>2025-12-29T12:23:45Z</time>
      </trkpt>
      <trkpt lat="48.60648" lon="1.9176">
        <ele>120.4</ele>
        <time>2025-12-29T12:23:47Z</time>
      </trkpt>
      <trkpt lat="48.6065" lon="1.91762">
        <ele>120.2</ele>
        <time>2025-12-29T12:23:49Z</time>
      </trkpt>
      <trkpt lat="48.60652" lon="1.91764">
        <ele>120.2</ele>
        <time>2025-12-29T12:23:51Z</time>
      </trkpt>
      <trkpt lat="48.60654" lon="1.91766">
        <ele>120</ele>
        <time>2025-12-29T12:23:53Z</time>
      </trkpt>
      <trkpt lat="48.60655" lon="1.91767">
        <ele>120</ele>
        <time>2025-12-29T12:23:54Z</time>
      </trkpt>
      <trkpt lat="48.60658" lon="1.9177">
        <ele>119.8</ele>
        <time>2025-12-29T12:23:56Z</time>
      </trkpt>
      <trkpt lat="48.6066" lon="1.91772">
        <ele>119.8</ele>
        <time>2025-12-29T12:23:57Z</time>
      </trkpt>
      <trkpt lat="48.60662" lon="1.91773">
        <ele>119.8</ele>
        <time>2025-12-29T12:23:58Z</time>
      </trkpt>
      <trkpt lat="48.60665" lon="1.91774">
        <ele>119.6</ele>
        <time>2025-12-29T12:24:00Z</time>
      </trkpt>
      <trkpt lat="48.60668" lon="1.91776">
        <ele>119.6</ele>
        <time>2025-12-29T12:24:02Z</time>
      </trkpt>
      <trkpt lat="48.6067" lon="1.91777">
        <ele>119.6</ele>
        <time>2025-12-29T12:24:03Z</time>
      </trkpt>
      <trkpt lat="48.60673" lon="1.91779">
        <ele>119.6</ele>
        <time>2025-12-29T12:24:05Z</time>
      </trkpt>
      <trkpt lat="48.60676" lon="1.91781">
        <ele>119.6</ele>
        <time>2025-12-29T12:24:07Z</time>
      </trkpt>
      <trkpt lat="48.60679" lon="1.91782">
        <ele>119.6</ele>
        <time>2025-12-29T12:24:09Z</time>
      </trkpt>
      <trkpt lat="48.60683" lon="1.91783">
        <ele>119.4</ele>
        <time>2025-12-29T12:24:11Z</time>
      </trkpt>
      <trkpt lat="48.60685" lon="1.91783">
        <ele>119.4</ele>
        <time>2025-12-29T12:24:13Z</time>
      </trkpt>
      <trkpt lat="48.60688" lon="1.91784">
        <ele>119.2</ele>
        <time>2025-12-29T12:24:15Z</time>
      </trkpt>
      <trkpt lat="48.6069" lon="1.91784">
        <ele>119.2</ele>
        <time>2025-12-29T12:24:17Z</time>
      </trkpt>
      <trkpt lat="48.60692" lon="1.91783">
        <ele>119.2</ele>
        <time>2025-12-29T12:24:19Z</time>
      </trkpt>
      <trkpt lat="48.60694" lon="1.91783">
        <ele>119</ele>
        <time>2025-12-29T12:24:21Z</time>
      </trkpt>
      <trkpt lat="48.60697" lon="1.91782">
        <ele>119</ele>
        <time>2025-12-29T12:24:23Z</time>
      </trkpt>
      <trkpt lat="48.607" lon="1.9178">
        <ele>118.8</ele>
        <time>2025-12-29T12:24:25Z</time>
      </trkpt>
      <trkpt lat="48.60701" lon="1.91778">
        <ele>118.8</ele>
        <time>2025-12-29T12:24:26Z</time>
      </trkpt>
      <trkpt lat="48.60704" lon="1.91776">
        <ele>118.6</ele>
        <time>2025-12-29T12:24:28Z</time>
      </trkpt>
      <trkpt lat="48.60706" lon="1.91774">
        <ele>118.4</ele>
        <time>2025-12-29T12:24:30Z</time>
      </trkpt>
      <trkpt lat="48.6071" lon="1.91771">
        <ele>118.4</ele>
        <time>2025-12-29T12:24:33Z</time>
      </trkpt>
      <trkpt lat="48.60713" lon="1.9177">
        <ele>118.2</ele>
        <time>2025-12-29T12:24:35Z</time>
      </trkpt>
      <trkpt lat="48.60716" lon="1.91769">
        <ele>118.2</ele>
        <time>2025-12-29T12:24:37Z</time>
      </trkpt>
      <trkpt lat="48.60718" lon="1.91767">
        <ele>118</ele>
        <time>2025-12-29T12:24:39Z</time>
      </trkpt>
      <trkpt lat="48.60721" lon="1.91765">
        <ele>118</ele>
        <time>2025-12-29T12:24:41Z</time>
      </trkpt>
      <trkpt lat="48.60724" lon="1.91763">
        <ele>118</ele>
        <time>2025-12-29T12:24:43Z</time>
      </trkpt>
      <trkpt lat="48.60725" lon="1.91762">
        <ele>117.8</ele>
        <time>2025-12-29T12:24:44Z</time>
      </trkpt>
      <trkpt lat="48.60728" lon="1.91759">
        <ele>117.8</ele>
        <time>2025-12-29T12:24:46Z</time>
      </trkpt>
      <trkpt lat="48.6073" lon="1.91758">
        <ele>117.8</ele>
        <time>2025-12-29T12:24:48Z</time>
      </trkpt>
      <trkpt lat="48.60732" lon="1.91756">
        <ele>117.8</ele>
        <time>2025-12-29T12:24:50Z</time>
      </trkpt>
      <trkpt lat="48.60734" lon="1.91755">
        <ele>117.6</ele>
        <time>2025-12-29T12:24:52Z</time>
      </trkpt>
      <trkpt lat="48.60736" lon="1.91752">
        <ele>117.4</ele>
        <time>2025-12-29T12:24:55Z</time>
      </trkpt>
      <trkpt lat="48.60738" lon="1.9175">
        <ele>117.4</ele>
        <time>2025-12-29T12:24:57Z</time>
      </trkpt>
      <trkpt lat="48.6074" lon="1.91748">
        <ele>117.2</ele>
        <time>2025-12-29T12:24:59Z</time>
      </trkpt>
      <trkpt lat="48.60742" lon="1.91746">
        <ele>117</ele>
        <time>2025-12-29T12:25:02Z</time>
      </trkpt>
      <trkpt lat="48.60743" lon="1.91744">
        <ele>117</ele>
        <time>2025-12-29T12:25:11Z</time>
      </trkpt>
      <trkpt lat="48.60745" lon="1.91742">
        <ele>117</ele>
        <time>2025-12-29T12:25:14Z</time>
      </trkpt>
      <trkpt lat="48.60747" lon="1.91739">
        <ele>116.8</ele>
        <time>2025-12-29T12:25:17Z</time>
      </trkpt>
      <trkpt lat="48.60749" lon="1.91737">
        <ele>117</ele>
        <time>2025-12-29T12:25:19Z</time>
      </trkpt>
      <trkpt lat="48.60751" lon="1.91735">
        <ele>117</ele>
        <time>2025-12-29T12:25:21Z</time>
      </trkpt>
      <trkpt lat="48.60753" lon="1.91732">
        <ele>117.2</ele>
        <time>2025-12-29T12:25:23Z</time>
      </trkpt>
      <trkpt lat="48.60755" lon="1.9173">
        <ele>117.2</ele>
        <time>2025-12-29T12:25:25Z</time>
      </trkpt>
      <trkpt lat="48.60757" lon="1.91728">
        <ele>117.4</ele>
        <time>2025-12-29T12:25:26Z</time>
      </trkpt>
      <trkpt lat="48.60759" lon="1.91726">
        <ele>117.4</ele>
        <time>2025-12-29T12:25:28Z</time>
      </trkpt>
      <trkpt lat="48.60763" lon="1.91723">
        <ele>117.4</ele>
        <time>2025-12-29T12:25:31Z</time>
      </trkpt>
      <trkpt lat="48.60764" lon="1.9172">
        <ele>117.6</ele>
        <time>2025-12-29T12:25:35Z</time>
      </trkpt>
      <trkpt lat="48.60762" lon="1.91719">
        <ele>117.6</ele>
        <time>2025-12-29T12:25:38Z</time>
      </trkpt>
      <trkpt lat="48.60763" lon="1.91715">
        <ele>116.8</ele>
        <time>2025-12-29T12:25:58Z</time>
      </trkpt>
      <trkpt lat="48.60766" lon="1.9171">
        <ele>116.8</ele>
        <time>2025-12-29T12:26:00Z</time>
      </trkpt>
      <trkpt lat="48.60767" lon="1.91708">
        <ele>116.8</ele>
        <time>2025-12-29T12:26:01Z</time>
      </trkpt>
      <trkpt lat="48.60769" lon="1.91706">
        <ele>116.6</ele>
        <time>2025-12-29T12:26:02Z</time>
      </trkpt>
      <trkpt lat="48.6077" lon="1.91704">
        <ele>116.6</ele>
        <time>2025-12-29T12:26:03Z</time>
      </trkpt>
      <trkpt lat="48.60772" lon="1.91702">
        <ele>116.6</ele>
        <time>2025-12-29T12:26:04Z</time>
      </trkpt>
      <trkpt lat="48.60773" lon="1.91701">
        <ele>116.6</ele>
        <time>2025-12-29T12:26:05Z</time>
      </trkpt>
      <trkpt lat="48.60776" lon="1.91699">
        <ele>116.4</ele>
        <time>2025-12-29T12:26:07Z</time>
      </trkpt>
      <trkpt lat="48.60779" lon="1.91697">
        <ele>116.4</ele>
        <time>2025-12-29T12:26:09Z</time>
      </trkpt>
      <trkpt lat="48.60783" lon="1.91694">
        <ele>116.2</ele>
        <time>2025-12-29T12:26:11Z</time>
      </trkpt>
      <trkpt lat="48.60786" lon="1.91691">
        <ele>116.2</ele>
        <time>2025-12-29T12:26:13Z</time>
      </trkpt>
      <trkpt lat="48.60788" lon="1.9169">
        <ele>116</ele>
        <time>2025-12-29T12:26:14Z</time>
      </trkpt>
      <trkpt lat="48.60789" lon="1.91688">
        <ele>116</ele>
        <time>2025-12-29T12:26:15Z</time>
      </trkpt>
      <trkpt lat="48.60791" lon="1.91687">
        <ele>116</ele>
        <time>2025-12-29T12:26:16Z</time>
      </trkpt>
      <trkpt lat="48.60792" lon="1.91685">
        <ele>115.8</ele>
        <time>2025-12-29T12:26:17Z</time>
      </trkpt>
      <trkpt lat="48.60795" lon="1.91683">
        <ele>115.6</ele>
        <time>2025-12-29T12:26:19Z</time>
      </trkpt>
      <trkpt lat="48.60797" lon="1.91682">
        <ele>115.6</ele>
        <time>2025-12-29T12:26:21Z</time>
      </trkpt>
      <trkpt lat="48.60799" lon="1.91684">
        <ele>115.4</ele>
        <time>2025-12-29T12:26:25Z</time>
      </trkpt>
      <trkpt lat="48.608" lon="1.91687">
        <ele>115.2</ele>
        <time>2025-12-29T12:26:28Z</time>
      </trkpt>
      <trkpt lat="48.60802" lon="1.91689">
        <ele>115</ele>
        <time>2025-12-29T12:26:31Z</time>
      </trkpt>
      <trkpt lat="48.60804" lon="1.91691">
        <ele>115</ele>
        <time>2025-12-29T12:26:33Z</time>
      </trkpt>
      <trkpt lat="48.60807" lon="1.91694">
        <ele>115</ele>
        <time>2025-12-29T12:26:35Z</time>
      </trkpt>
      <trkpt lat="48.60809" lon="1.91697">
        <ele>115</ele>
        <time>2025-12-29T12:26:37Z</time>
      </trkpt>
      <trkpt lat="48.60812" lon="1.91699">
        <ele>115</ele>
        <time>2025-12-29T12:26:39Z</time>
      </trkpt>
      <trkpt lat="48.60814" lon="1.917">
        <ele>115</ele>
        <time>2025-12-29T12:26:41Z</time>
      </trkpt>
      <trkpt lat="48.60816" lon="1.91701">
        <ele>115.2</ele>
        <time>2025-12-29T12:26:45Z</time>
      </trkpt>
      <trkpt lat="48.60819" lon="1.91702">
        <ele>115.6</ele>
        <time>2025-12-29T12:26:49Z</time>
      </trkpt>
      <trkpt lat="48.60821" lon="1.91703">
        <ele>115.8</ele>
        <time>2025-12-29T12:26:50Z</time>
      </trkpt>
      <trkpt lat="48.60823" lon="1.91704">
        <ele>116</ele>
        <time>2025-12-29T12:26:51Z</time>
      </trkpt>
      <trkpt lat="48.60825" lon="1.91705">
        <ele>116</ele>
        <time>2025-12-29T12:26:52Z</time>
      </trkpt>
      <trkpt lat="48.60827" lon="1.91706">
        <ele>116.2</ele>
        <time>2025-12-29T12:26:53Z</time>
      </trkpt>
      <trkpt lat="48.6083" lon="1.91708">
        <ele>116.4</ele>
        <time>2025-12-29T12:26:55Z</time>
      </trkpt>
      <trkpt lat="48.60833" lon="1.91709">
        <ele>116.6</ele>
        <time>2025-12-29T12:26:57Z</time>
      </trkpt>
      <trkpt lat="48.60834" lon="1.91711">
        <ele>116.8</ele>
        <time>2025-12-29T12:26:59Z</time>
      </trkpt>
      <trkpt lat="48.60835" lon="1.91715">
        <ele>116.8</ele>
        <time>2025-12-29T12:27:03Z</time>
      </trkpt>
      <trkpt lat="48.60836" lon="1.91718">
        <ele>117</ele>
        <time>2025-12-29T12:27:05Z</time>
      </trkpt>
      <trkpt lat="48.60837" lon="1.91722">
        <ele>117</ele>
        <time>2025-12-29T12:27:07Z</time>
      </trkpt>
      <trkpt lat="48.60839" lon="1.91724">
        <ele>117</ele>
        <time>2025-12-29T12:27:08Z</time>
      </trkpt>
      <trkpt lat="48.60841" lon="1.91726">
        <ele>117.2</ele>
        <time>2025-12-29T12:27:09Z</time>
      </trkpt>
      <trkpt lat="48.60843" lon="1.91731">
        <ele>117.2</ele>
        <time>2025-12-29T12:27:11Z</time>
      </trkpt>
      <trkpt lat="48.60845" lon="1.91734">
        <ele>117.4</ele>
        <time>2025-12-29T12:27:13Z</time>
      </trkpt>
      <trkpt lat="48.60847" lon="1.91737">
        <ele>117.6</ele>
        <time>2025-12-29T12:27:15Z</time>
      </trkpt>
      <trkpt lat="48.6085" lon="1.91739">
        <ele>117.8</ele>
        <time>2025-12-29T12:27:17Z</time>
      </trkpt>
      <trkpt lat="48.60853" lon="1.91741">
        <ele>117.8</ele>
        <time>2025-12-29T12:27:19Z</time>
      </trkpt>
      <trkpt lat="48.60855" lon="1.91744">
        <ele>118</ele>
        <time>2025-12-29T12:27:21Z</time>
      </trkpt>
      <trkpt lat="48.60856" lon="1.91748">
        <ele>118.2</ele>
        <time>2025-12-29T12:27:23Z</time>
      </trkpt>
      <trkpt lat="48.60858" lon="1.91751">
        <ele>118.4</ele>
        <time>2025-12-29T12:27:25Z</time>
      </trkpt>
      <trkpt lat="48.60859" lon="1.91755">
        <ele>118.6</ele>
        <time>2025-12-29T12:27:27Z</time>
      </trkpt>
      <trkpt lat="48.60859" lon="1.91758">
        <ele>118.8</ele>
        <time>2025-12-29T12:27:29Z</time>
      </trkpt>
      <trkpt lat="48.60859" lon="1.91762">
        <ele>118.8</ele>
        <time>2025-12-29T12:27:31Z</time>
      </trkpt>
      <trkpt lat="48.60859" lon="1.91765">
        <ele>119</ele>
        <time>2025-12-29T12:27:33Z</time>
      </trkpt>
      <trkpt lat="48.6086" lon="1.91769">
        <ele>119</ele>
        <time>2025-12-29T12:27:35Z</time>
      </trkpt>
      <trkpt lat="48.6086" lon="1.91773">
        <ele>119</ele>
        <time>2025-12-29T12:27:37Z</time>
      </trkpt>
      <trkpt lat="48.60861" lon="1.91776">
        <ele>119</ele>
        <time>2025-12-29T12:27:39Z</time>
      </trkpt>
      <trkpt lat="48.60863" lon="1.91779">
        <ele>119</ele>
        <time>2025-12-29T12:27:41Z</time>
      </trkpt>
      <trkpt lat="48.60865" lon="1.91782">
        <ele>119</ele>
        <time>2025-12-29T12:27:43Z</time>
      </trkpt>
      <trkpt lat="48.60867" lon="1.91784">
        <ele>119</ele>
        <time>2025-12-29T12:27:45Z</time>
      </trkpt>
      <trkpt lat="48.60869" lon="1.91787">
        <ele>119</ele>
        <time>2025-12-29T12:27:47Z</time>
      </trkpt>
      <trkpt lat="48.6087" lon="1.9179">
        <ele>119</ele>
        <time>2025-12-29T12:27:49Z</time>
      </trkpt>
      <trkpt lat="48.60871" lon="1.91792">
        <ele>119</ele>
        <time>2025-12-29T12:27:52Z</time>
      </trkpt>
      <trkpt lat="48.60873" lon="1.91796">
        <ele>119.2</ele>
        <time>2025-12-29T12:27:55Z</time>
      </trkpt>
      <trkpt lat="48.60874" lon="1.91798">
        <ele>119.2</ele>
        <time>2025-12-29T12:27:57Z</time>
      </trkpt>
      <trkpt lat="48.60875" lon="1.91801">
        <ele>119.2</ele>
        <time>2025-12-29T12:27:59Z</time>
      </trkpt>
      <trkpt lat="48.60877" lon="1.91803">
        <ele>119.4</ele>
        <time>2025-12-29T12:28:01Z</time>
      </trkpt>
      <trkpt lat="48.60879" lon="1.91806">
        <ele>119.4</ele>
        <time>2025-12-29T12:28:03Z</time>
      </trkpt>
      <trkpt lat="48.60882" lon="1.9181">
        <ele>119.4</ele>
        <time>2025-12-29T12:28:05Z</time>
      </trkpt>
      <trkpt lat="48.60884" lon="1.91813">
        <ele>119.2</ele>
        <time>2025-12-29T12:28:07Z</time>
      </trkpt>
      <trkpt lat="48.60887" lon="1.91817">
        <ele>119.2</ele>
        <time>2025-12-29T12:28:09Z</time>
      </trkpt>
      <trkpt lat="48.60888" lon="1.9182">
        <ele>119</ele>
        <time>2025-12-29T12:28:11Z</time>
      </trkpt>
      <trkpt lat="48.60889" lon="1.91824">
        <ele>119</ele>
        <time>2025-12-29T12:28:13Z</time>
      </trkpt>
      <trkpt lat="48.60891" lon="1.91827">
        <ele>119</ele>
        <time>2025-12-29T12:28:15Z</time>
      </trkpt>
      <trkpt lat="48.60891" lon="1.9183">
        <ele>119</ele>
        <time>2025-12-29T12:28:17Z</time>
      </trkpt>
      <trkpt lat="48.60892" lon="1.91833">
        <ele>118.8</ele>
        <time>2025-12-29T12:28:20Z</time>
      </trkpt>
      <trkpt lat="48.60893" lon="1.91837">
        <ele>118.8</ele>
        <time>2025-12-29T12:28:23Z</time>
      </trkpt>
      <trkpt lat="48.60894" lon="1.9184">
        <ele>118.8</ele>
        <time>2025-12-29T12:28:25Z</time>
      </trkpt>
      <trkpt lat="48.60895" lon="1.91842">
        <ele>118.8</ele>
        <time>2025-12-29T12:28:28Z</time>
      </trkpt>
      <trkpt lat="48.60893" lon="1.91843">
        <ele>119</ele>
        <time>2025-12-29T12:28:33Z</time>
      </trkpt>
      <trkpt lat="48.60896" lon="1.91845">
        <ele>120.6</ele>
        <time>2025-12-29T12:28:48Z</time>
      </trkpt>
      <trkpt lat="48.60898" lon="1.91846">
        <ele>121</ele>
        <time>2025-12-29T12:28:52Z</time>
      </trkpt>
      <trkpt lat="48.609" lon="1.91847">
        <ele>121.4</ele>
        <time>2025-12-29T12:28:56Z</time>
      </trkpt>
      <trkpt lat="48.60902" lon="1.91847">
        <ele>121.6</ele>
        <time>2025-12-29T12:28:58Z</time>
      </trkpt>
      <trkpt lat="48.60905" lon="1.91848">
        <ele>121.8</ele>
        <time>2025-12-29T12:29:00Z</time>
      </trkpt>
      <trkpt lat="48.60907" lon="1.91849">
        <ele>122</ele>
        <time>2025-12-29T12:29:02Z</time>
      </trkpt>
      <trkpt lat="48.60908" lon="1.91851">
        <ele>122.2</ele>
        <time>2025-12-29T12:29:04Z</time>
      </trkpt>
      <trkpt lat="48.6091" lon="1.91854">
        <ele>122.4</ele>
        <time>2025-12-29T12:29:06Z</time>
      </trkpt>
      <trkpt lat="48.60912" lon="1.91856">
        <ele>122.6</ele>
        <time>2025-12-29T12:29:08Z</time>
      </trkpt>
      <trkpt lat="48.60914" lon="1.91859">
        <ele>122.8</ele>
        <time>2025-12-29T12:29:10Z</time>
      </trkpt>
      <trkpt lat="48.60916" lon="1.91861">
        <ele>123</ele>
        <time>2025-12-29T12:29:12Z</time>
      </trkpt>
      <trkpt lat="48.60919" lon="1.91864">
        <ele>123.2</ele>
        <time>2025-12-29T12:29:14Z</time>
      </trkpt>
      <trkpt lat="48.60921" lon="1.91866">
        <ele>123.6</ele>
        <time>2025-12-29T12:29:16Z</time>
      </trkpt>
      <trkpt lat="48.60924" lon="1.91869">
        <ele>124</ele>
        <time>2025-12-29T12:29:18Z</time>
      </trkpt>
      <trkpt lat="48.60926" lon="1.91872">
        <ele>124.6</ele>
        <time>2025-12-29T12:29:20Z</time>
      </trkpt>
      <trkpt lat="48.60928" lon="1.91873">
        <ele>124.8</ele>
        <time>2025-12-29T12:29:21Z</time>
      </trkpt>
      <trkpt lat="48.6093" lon="1.91876">
        <ele>125.2</ele>
        <time>2025-12-29T12:29:23Z</time>
      </trkpt>
      <trkpt lat="48.60934" lon="1.91877">
        <ele>125.8</ele>
        <time>2025-12-29T12:29:25Z</time>
      </trkpt>
      <trkpt lat="48.60936" lon="1.91877">
        <ele>126.2</ele>
        <time>2025-12-29T12:29:26Z</time>
      </trkpt>
      <trkpt lat="48.60938" lon="1.91878">
        <ele>126.4</ele>
        <time>2025-12-29T12:29:27Z</time>
      </trkpt>
      <trkpt lat="48.6094" lon="1.91879">
        <ele>126.8</ele>
        <time>2025-12-29T12:29:28Z</time>
      </trkpt>
      <trkpt lat="48.60942" lon="1.9188">
        <ele>127</ele>
        <time>2025-12-29T12:29:29Z</time>
      </trkpt>
      <trkpt lat="48.60944" lon="1.91881">
        <ele>127.4</ele>
        <time>2025-12-29T12:29:30Z</time>
      </trkpt>
      <trkpt lat="48.60946" lon="1.91883">
        <ele>127.6</ele>
        <time>2025-12-29T12:29:31Z</time>
      </trkpt>
      <trkpt lat="48.60948" lon="1.91886">
        <ele>128.2</ele>
        <time>2025-12-29T12:29:33Z</time>
      </trkpt>
      <trkpt lat="48.60949" lon="1.91889">
        <ele>128.6</ele>
        <time>2025-12-29T12:29:35Z</time>
      </trkpt>
      <trkpt lat="48.60951" lon="1.91891">
        <ele>128.8</ele>
        <time>2025-12-29T12:29:37Z</time>
      </trkpt>
      <trkpt lat="48.60952" lon="1.91893">
        <ele>129.2</ele>
        <time>2025-12-29T12:29:42Z</time>
      </trkpt>
      <trkpt lat="48.60954" lon="1.91895">
        <ele>129.2</ele>
        <time>2025-12-29T12:29:44Z</time>
      </trkpt>
      <trkpt lat="48.60956" lon="1.91896">
        <ele>129.2</ele>
        <time>2025-12-29T12:29:46Z</time>
      </trkpt>
      <trkpt lat="48.60958" lon="1.91898">
        <ele>129.4</ele>
        <time>2025-12-29T12:29:48Z</time>
      </trkpt>
      <trkpt lat="48.60959" lon="1.91901">
        <ele>129.4</ele>
        <time>2025-12-29T12:29:51Z</time>
      </trkpt>
      <trkpt lat="48.6096" lon="1.91904">
        <ele>129.4</ele>
        <time>2025-12-29T12:29:54Z</time>
      </trkpt>
      <trkpt lat="48.60962" lon="1.91906">
        <ele>129.4</ele>
        <time>2025-12-29T12:29:56Z</time>
      </trkpt>
      <trkpt lat="48.60964" lon="1.91909">
        <ele>129.4</ele>
        <time>2025-12-29T12:29:58Z</time>
      </trkpt>
      <trkpt lat="48.60964" lon="1.91911">
        <ele>129.4</ele>
        <time>2025-12-29T12:30:00Z</time>
      </trkpt>
      <trkpt lat="48.60966" lon="1.91913">
        <ele>129.4</ele>
        <time>2025-12-29T12:30:02Z</time>
      </trkpt>
      <trkpt lat="48.60967" lon="1.91916">
        <ele>129.4</ele>
        <time>2025-12-29T12:30:05Z</time>
      </trkpt>
      <trkpt lat="48.60968" lon="1.91918">
        <ele>129.6</ele>
        <time>2025-12-29T12:30:10Z</time>
      </trkpt>
      <trkpt lat="48.60966" lon="1.91915">
        <ele>129.8</ele>
        <time>2025-12-29T12:30:20Z</time>
      </trkpt>
      <trkpt lat="48.60964" lon="1.91913">
        <ele>129.6</ele>
        <time>2025-12-29T12:30:23Z</time>
      </trkpt>
      <trkpt lat="48.60961" lon="1.91911">
        <ele>129.4</ele>
        <time>2025-12-29T12:30:25Z</time>
      </trkpt>
      <trkpt lat="48.60958" lon="1.9191">
        <ele>129.4</ele>
        <time>2025-12-29T12:30:27Z</time>
      </trkpt>
      <trkpt lat="48.60955" lon="1.91909">
        <ele>129.2</ele>
        <time>2025-12-29T12:30:29Z</time>
      </trkpt>
      <trkpt lat="48.60952" lon="1.91908">
        <ele>129</ele>
        <time>2025-12-29T12:30:31Z</time>
      </trkpt>
      <trkpt lat="48.6095" lon="1.91907">
        <ele>129.2</ele>
        <time>2025-12-29T12:30:33Z</time>
      </trkpt>
      <trkpt lat="48.60948" lon="1.91905">
        <ele>129.2</ele>
        <time>2025-12-29T12:30:35Z</time>
      </trkpt>
      <trkpt lat="48.60946" lon="1.91903">
        <ele>129.4</ele>
        <time>2025-12-29T12:30:37Z</time>
      </trkpt>
      <trkpt lat="48.60944" lon="1.91902">
        <ele>129.6</ele>
        <time>2025-12-29T12:30:39Z</time>
      </trkpt>
      <trkpt lat="48.60942" lon="1.919">
        <ele>130</ele>
        <time>2025-12-29T12:30:42Z</time>
      </trkpt>
      <trkpt lat="48.60941" lon="1.91899">
        <ele>130</ele>
        <time>2025-12-29T12:30:44Z</time>
      </trkpt>
      <trkpt lat="48.6094" lon="1.91897">
        <ele>130.2</ele>
        <time>2025-12-29T12:30:46Z</time>
      </trkpt>
      <trkpt lat="48.60939" lon="1.91894">
        <ele>130.2</ele>
        <time>2025-12-29T12:30:48Z</time>
      </trkpt>
      <trkpt lat="48.60939" lon="1.91891">
        <ele>130.2</ele>
        <time>2025-12-29T12:30:50Z</time>
      </trkpt>
      <trkpt lat="48.6094" lon="1.91887">
        <ele>130.2</ele>
        <time>2025-12-29T12:30:52Z</time>
      </trkpt>
      <trkpt lat="48.6094" lon="1.91883">
        <ele>130.2</ele>
        <time>2025-12-29T12:30:54Z</time>
      </trkpt>
      <trkpt lat="48.60941" lon="1.91879">
        <ele>130</ele>
        <time>2025-12-29T12:30:56Z</time>
      </trkpt>
      <trkpt lat="48.60941" lon="1.91875">
        <ele>130</ele>
        <time>2025-12-29T12:30:58Z</time>
      </trkpt>
      <trkpt lat="48.60941" lon="1.91871">
        <ele>130</ele>
        <time>2025-12-29T12:31:00Z</time>
      </trkpt>
      <trkpt lat="48.60942" lon="1.91867">
        <ele>129.8</ele>
        <time>2025-12-29T12:31:02Z</time>
      </trkpt>
      <trkpt lat="48.60942" lon="1.91862">
        <ele>129.6</ele>
        <time>2025-12-29T12:31:04Z</time>
      </trkpt>
      <trkpt lat="48.60943" lon="1.91859">
        <ele>129.4</ele>
        <time>2025-12-29T12:31:06Z</time>
      </trkpt>
      <trkpt lat="48.60945" lon="1.91856">
        <ele>129.2</ele>
        <time>2025-12-29T12:31:08Z</time>
      </trkpt>
      <trkpt lat="48.60946" lon="1.91853">
        <ele>129</ele>
        <time>2025-12-29T12:31:10Z</time>
      </trkpt>
      <trkpt lat="48.60948" lon="1.9185">
        <ele>128.8</ele>
        <time>2025-12-29T12:31:12Z</time>
      </trkpt>
      <trkpt lat="48.60949" lon="1.91848">
        <ele>128.6</ele>
        <time>2025-12-29T12:31:14Z</time>
      </trkpt>
      <trkpt lat="48.60951" lon="1.91844">
        <ele>128.4</ele>
        <time>2025-12-29T12:31:17Z</time>
      </trkpt>
      <trkpt lat="48.60952" lon="1.91841">
        <ele>128.4</ele>
        <time>2025-12-29T12:31:19Z</time>
      </trkpt>
      <trkpt lat="48.60952" lon="1.91836">
        <ele>128.6</ele>
        <time>2025-12-29T12:31:21Z</time>
      </trkpt>
      <trkpt lat="48.60953" lon="1.91833">
        <ele>128.6</ele>
        <time>2025-12-29T12:31:23Z</time>
      </trkpt>
      <trkpt lat="48.60955" lon="1.9183">
        <ele>128.4</ele>
        <time>2025-12-29T12:31:25Z</time>
      </trkpt>
      <trkpt lat="48.60956" lon="1.91827">
        <ele>128.2</ele>
        <time>2025-12-29T12:31:27Z</time>
      </trkpt>
      <trkpt lat="48.60958" lon="1.91825">
        <ele>128</ele>
        <time>2025-12-29T12:31:29Z</time>
      </trkpt>
      <trkpt lat="48.60959" lon="1.91823">
        <ele>128.2</ele>
        <time>2025-12-29T12:31:31Z</time>
      </trkpt>
      <trkpt lat="48.6096" lon="1.9182">
        <ele>128</ele>
        <time>2025-12-29T12:31:34Z</time>
      </trkpt>
      <trkpt lat="48.60958" lon="1.91818">
        <ele>128</ele>
        <time>2025-12-29T12:31:37Z</time>
      </trkpt>
      <trkpt lat="48.60956" lon="1.91819">
        <ele>128</ele>
        <time>2025-12-29T12:31:41Z</time>
      </trkpt>
      <trkpt lat="48.60955" lon="1.9182">
        <ele>128.2</ele>
        <time>2025-12-29T12:31:50Z</time>
      </trkpt>
      <trkpt lat="48.60956" lon="1.91823">
        <ele>128.4</ele>
        <time>2025-12-29T12:31:58Z</time>
      </trkpt>
      <trkpt lat="48.60956" lon="1.91825">
        <ele>128.2</ele>
        <time>2025-12-29T12:32:01Z</time>
      </trkpt>
      <trkpt lat="48.60955" lon="1.91829">
        <ele>127.8</ele>
        <time>2025-12-29T12:32:04Z</time>
      </trkpt>
      <trkpt lat="48.60952" lon="1.91831">
        <ele>127.6</ele>
        <time>2025-12-29T12:32:06Z</time>
      </trkpt>
      <trkpt lat="48.60951" lon="1.91833">
        <ele>127.2</ele>
        <time>2025-12-29T12:32:08Z</time>
      </trkpt>
      <trkpt lat="48.60949" lon="1.91835">
        <ele>126.8</ele>
        <time>2025-12-29T12:32:10Z</time>
      </trkpt>
      <trkpt lat="48.60948" lon="1.91838">
        <ele>126.6</ele>
        <time>2025-12-29T12:32:12Z</time>
      </trkpt>
      <trkpt lat="48.60947" lon="1.91842">
        <ele>126.2</ele>
        <time>2025-12-29T12:32:14Z</time>
      </trkpt>
      <trkpt lat="48.60946" lon="1.91845">
        <ele>125.8</ele>
        <time>2025-12-29T12:32:16Z</time>
      </trkpt>
      <trkpt lat="48.60944" lon="1.91848">
        <ele>125.4</ele>
        <time>2025-12-29T12:32:18Z</time>
      </trkpt>
      <trkpt lat="48.60943" lon="1.9185">
        <ele>125.2</ele>
        <time>2025-12-29T12:32:20Z</time>
      </trkpt>
      <trkpt lat="48.60942" lon="1.91853">
        <ele>125</ele>
        <time>2025-12-29T12:32:22Z</time>
      </trkpt>
      <trkpt lat="48.6094" lon="1.91856">
        <ele>124.6</ele>
        <time>2025-12-29T12:32:24Z</time>
      </trkpt>
      <trkpt lat="48.60939" lon="1.91859">
        <ele>124.6</ele>
        <time>2025-12-29T12:32:26Z</time>
      </trkpt>
      <trkpt lat="48.60938" lon="1.91862">
        <ele>124.4</ele>
        <time>2025-12-29T12:32:28Z</time>
      </trkpt>
      <trkpt lat="48.60937" lon="1.91865">
        <ele>124.2</ele>
        <time>2025-12-29T12:32:30Z</time>
      </trkpt>
      <trkpt lat="48.60936" lon="1.91867">
        <ele>124.2</ele>
        <time>2025-12-29T12:32:32Z</time>
      </trkpt>
      <trkpt lat="48.60934" lon="1.9187">
        <ele>124.2</ele>
        <time>2025-12-29T12:32:34Z</time>
      </trkpt>
      <trkpt lat="48.60934" lon="1.91873">
        <ele>124.4</ele>
        <time>2025-12-29T12:32:37Z</time>
      </trkpt>
      <trkpt lat="48.60932" lon="1.91869">
        <ele>124.6</ele>
        <time>2025-12-29T12:32:42Z</time>
      </trkpt>
      <trkpt lat="48.60931" lon="1.91865">
        <ele>124.6</ele>
        <time>2025-12-29T12:32:44Z</time>
      </trkpt>
      <trkpt lat="48.6093" lon="1.91862">
        <ele>124.8</ele>
        <time>2025-12-29T12:32:46Z</time>
      </trkpt>
      <trkpt lat="48.60932" lon="1.91864">
        <ele>125</ele>
        <time>2025-12-29T12:32:52Z</time>
      </trkpt>
      <trkpt lat="48.60932" lon="1.91867">
        <ele>125.2</ele>
        <time>2025-12-29T12:32:54Z</time>
      </trkpt>
      <trkpt lat="48.60933" lon="1.9187">
        <ele>125.4</ele>
        <time>2025-12-29T12:32:56Z</time>
      </trkpt>
      <trkpt lat="48.60934" lon="1.91873">
        <ele>125.8</ele>
        <time>2025-12-29T12:32:58Z</time>
      </trkpt>
      <trkpt lat="48.60934" lon="1.91875">
        <ele>126</ele>
        <time>2025-12-29T12:33:00Z</time>
      </trkpt>
      <trkpt lat="48.60936" lon="1.91878">
        <ele>126.4</ele>
        <time>2025-12-29T12:33:02Z</time>
      </trkpt>
      <trkpt lat="48.60938" lon="1.91881">
        <ele>127.2</ele>
        <time>2025-12-29T12:33:05Z</time>
      </trkpt>
      <trkpt lat="48.60939" lon="1.91884">
        <ele>127.6</ele>
        <time>2025-12-29T12:33:07Z</time>
      </trkpt>
      <trkpt lat="48.6094" lon="1.91888">
        <ele>128</ele>
        <time>2025-12-29T12:33:09Z</time>
      </trkpt>
      <trkpt lat="48.6094" lon="1.91891">
        <ele>128.4</ele>
        <time>2025-12-29T12:33:11Z</time>
      </trkpt>
      <trkpt lat="48.6094" lon="1.91894">
        <ele>128.8</ele>
        <time>2025-12-29T12:33:13Z</time>
      </trkpt>
      <trkpt lat="48.6094" lon="1.91898">
        <ele>129.4</ele>
        <time>2025-12-29T12:33:15Z</time>
      </trkpt>
      <trkpt lat="48.6094" lon="1.91901">
        <ele>130</ele>
        <time>2025-12-29T12:33:17Z</time>
      </trkpt>
      <trkpt lat="48.6094" lon="1.91904">
        <ele>130.6</ele>
        <time>2025-12-29T12:33:19Z</time>
      </trkpt>
      <trkpt lat="48.60941" lon="1.91908">
        <ele>131.2</ele>
        <time>2025-12-29T12:33:21Z</time>
      </trkpt>
      <trkpt lat="48.60941" lon="1.91911">
        <ele>131.8</ele>
        <time>2025-12-29T12:33:23Z</time>
      </trkpt>
      <trkpt lat="48.60941" lon="1.91915">
        <ele>132.4</ele>
        <time>2025-12-29T12:33:25Z</time>
      </trkpt>
      <trkpt lat="48.60941" lon="1.91919">
        <ele>132.8</ele>
        <time>2025-12-29T12:33:27Z</time>
      </trkpt>
      <trkpt lat="48.60942" lon="1.91922">
        <ele>133.2</ele>
        <time>2025-12-29T12:33:29Z</time>
      </trkpt>
      <trkpt lat="48.60943" lon="1.91926">
        <ele>133.6</ele>
        <time>2025-12-29T12:33:31Z</time>
      </trkpt>
      <trkpt lat="48.60943" lon="1.9193">
        <ele>134</ele>
        <time>2025-12-29T12:33:33Z</time>
      </trkpt>
      <trkpt lat="48.60943" lon="1.91934">
        <ele>134.2</ele>
        <time>2025-12-29T12:33:35Z</time>
      </trkpt>
      <trkpt lat="48.60943" lon="1.91939">
        <ele>134.4</ele>
        <time>2025-12-29T12:33:37Z</time>
      </trkpt>
      <trkpt lat="48.60942" lon="1.91944">
        <ele>134.4</ele>
        <time>2025-12-29T12:33:39Z</time>
      </trkpt>
      <trkpt lat="48.60941" lon="1.91948">
        <ele>134.4</ele>
        <time>2025-12-29T12:33:41Z</time>
      </trkpt>
      <trkpt lat="48.6094" lon="1.91953">
        <ele>134.4</ele>
        <time>2025-12-29T12:33:43Z</time>
      </trkpt>
      <trkpt lat="48.6094" lon="1.91957">
        <ele>134.6</ele>
        <time>2025-12-29T12:33:45Z</time>
      </trkpt>
      <trkpt lat="48.6094" lon="1.91962">
        <ele>134.8</ele>
        <time>2025-12-29T12:33:47Z</time>
      </trkpt>
      <trkpt lat="48.6094" lon="1.91965">
        <ele>135</ele>
        <time>2025-12-29T12:33:49Z</time>
      </trkpt>
      <trkpt lat="48.60941" lon="1.91969">
        <ele>135.2</ele>
        <time>2025-12-29T12:33:51Z</time>
      </trkpt>
      <trkpt lat="48.60943" lon="1.91972">
        <ele>135.4</ele>
        <time>2025-12-29T12:33:53Z</time>
      </trkpt>
      <trkpt lat="48.60944" lon="1.91975">
        <ele>135.6</ele>
        <time>2025-12-29T12:33:55Z</time>
      </trkpt>
      <trkpt lat="48.60946" lon="1.91979">
        <ele>135.6</ele>
        <time>2025-12-29T12:33:57Z</time>
      </trkpt>
      <trkpt lat="48.60946" lon="1.91982">
        <ele>135.8</ele>
        <time>2025-12-29T12:33:59Z</time>
      </trkpt>
      <trkpt lat="48.60947" lon="1.91987">
        <ele>135.8</ele>
        <time>2025-12-29T12:34:01Z</time>
      </trkpt>
      <trkpt lat="48.60948" lon="1.91991">
        <ele>136</ele>
        <time>2025-12-29T12:34:03Z</time>
      </trkpt>
      <trkpt lat="48.60948" lon="1.91996">
        <ele>136.2</ele>
        <time>2025-12-29T12:34:05Z</time>
      </trkpt>
      <trkpt lat="48.60949" lon="1.91999">
        <ele>136.4</ele>
        <time>2025-12-29T12:34:07Z</time>
      </trkpt>
      <trkpt lat="48.6095" lon="1.92003">
        <ele>136.6</ele>
        <time>2025-12-29T12:34:09Z</time>
      </trkpt>
      <trkpt lat="48.60951" lon="1.92007">
        <ele>137</ele>
        <time>2025-12-29T12:34:11Z</time>
      </trkpt>
      <trkpt lat="48.60952" lon="1.92011">
        <ele>137</ele>
        <time>2025-12-29T12:34:13Z</time>
      </trkpt>
      <trkpt lat="48.60954" lon="1.92015">
        <ele>137.2</ele>
        <time>2025-12-29T12:34:15Z</time>
      </trkpt>
      <trkpt lat="48.60956" lon="1.92019">
        <ele>137.4</ele>
        <time>2025-12-29T12:34:17Z</time>
      </trkpt>
      <trkpt lat="48.60957" lon="1.92023">
        <ele>137.6</ele>
        <time>2025-12-29T12:34:19Z</time>
      </trkpt>
      <trkpt lat="48.60958" lon="1.92026">
        <ele>137.8</ele>
        <time>2025-12-29T12:34:21Z</time>
      </trkpt>
      <trkpt lat="48.6096" lon="1.9203">
        <ele>137.8</ele>
        <time>2025-12-29T12:34:23Z</time>
      </trkpt>
      <trkpt lat="48.60961" lon="1.92033">
        <ele>137.8</ele>
        <time>2025-12-29T12:34:25Z</time>
      </trkpt>
      <trkpt lat="48.60961" lon="1.92037">
        <ele>138</ele>
        <time>2025-12-29T12:34:27Z</time>
      </trkpt>
      <trkpt lat="48.60962" lon="1.92042">
        <ele>138</ele>
        <time>2025-12-29T12:34:29Z</time>
      </trkpt>
      <trkpt lat="48.60962" lon="1.92047">
        <ele>138</ele>
        <time>2025-12-29T12:34:31Z</time>
      </trkpt>
      <trkpt lat="48.60961" lon="1.92051">
        <ele>138.2</ele>
        <time>2025-12-29T12:34:33Z</time>
      </trkpt>
      <trkpt lat="48.60961" lon="1.92055">
        <ele>138.2</ele>
        <time>2025-12-29T12:34:35Z</time>
      </trkpt>
      <trkpt lat="48.60961" lon="1.92058">
        <ele>138.4</ele>
        <time>2025-12-29T12:34:37Z</time>
      </trkpt>
      <trkpt lat="48.60961" lon="1.92062">
        <ele>138.6</ele>
        <time>2025-12-29T12:34:39Z</time>
      </trkpt>
      <trkpt lat="48.60961" lon="1.92066">
        <ele>138.8</ele>
        <time>2025-12-29T12:34:41Z</time>
      </trkpt>
      <trkpt lat="48.60962" lon="1.9207">
        <ele>138.8</ele>
        <time>2025-12-29T12:34:43Z</time>
      </trkpt>
      <trkpt lat="48.60962" lon="1.92074">
        <ele>138.8</ele>
        <time>2025-12-29T12:34:45Z</time>
      </trkpt>
      <trkpt lat="48.60962" lon="1.92078">
        <ele>138.8</ele>
        <time>2025-12-29T12:34:47Z</time>
      </trkpt>
      <trkpt lat="48.60963" lon="1.92081">
        <ele>138.8</ele>
        <time>2025-12-29T12:34:49Z</time>
      </trkpt>
      <trkpt lat="48.60964" lon="1.92085">
        <ele>138.6</ele>
        <time>2025-12-29T12:34:51Z</time>
      </trkpt>
      <trkpt lat="48.60963" lon="1.9209">
        <ele>138.6</ele>
        <time>2025-12-29T12:34:53Z</time>
      </trkpt>
      <trkpt lat="48.60962" lon="1.92094">
        <ele>138.4</ele>
        <time>2025-12-29T12:34:55Z</time>
      </trkpt>
      <trkpt lat="48.60962" lon="1.92098">
        <ele>138</ele>
        <time>2025-12-29T12:34:57Z</time>
      </trkpt>
      <trkpt lat="48.60962" lon="1.92102">
        <ele>137.8</ele>
        <time>2025-12-29T12:34:59Z</time>
      </trkpt>
      <trkpt lat="48.60962" lon="1.92106">
        <ele>137.6</ele>
        <time>2025-12-29T12:35:01Z</time>
      </trkpt>
      <trkpt lat="48.60962" lon="1.92111">
        <ele>137.4</ele>
        <time>2025-12-29T12:35:03Z</time>
      </trkpt>
      <trkpt lat="48.60964" lon="1.92116">
        <ele>137.2</ele>
        <time>2025-12-29T12:35:05Z</time>
      </trkpt>
      <trkpt lat="48.60964" lon="1.9212">
        <ele>136.8</ele>
        <time>2025-12-29T12:35:07Z</time>
      </trkpt>
      <trkpt lat="48.60966" lon="1.92125">
        <ele>136.6</ele>
        <time>2025-12-29T12:35:09Z</time>
      </trkpt>
      <trkpt lat="48.60967" lon="1.92129">
        <ele>136.4</ele>
        <time>2025-12-29T12:35:11Z</time>
      </trkpt>
      <trkpt lat="48.60968" lon="1.92134">
        <ele>136.2</ele>
        <time>2025-12-29T12:35:13Z</time>
      </trkpt>
      <trkpt lat="48.60968" lon="1.92138">
        <ele>136</ele>
        <time>2025-12-29T12:35:15Z</time>
      </trkpt>
      <trkpt lat="48.60968" lon="1.92141">
        <ele>135.8</ele>
        <time>2025-12-29T12:35:17Z</time>
      </trkpt>
      <trkpt lat="48.60967" lon="1.92145">
        <ele>135.6</ele>
        <time>2025-12-29T12:35:19Z</time>
      </trkpt>
      <trkpt lat="48.60966" lon="1.9215">
        <ele>135.4</ele>
        <time>2025-12-29T12:35:21Z</time>
      </trkpt>
      <trkpt lat="48.60966" lon="1.92154">
        <ele>135.2</ele>
        <time>2025-12-29T12:35:23Z</time>
      </trkpt>
      <trkpt lat="48.60966" lon="1.92158">
        <ele>135.2</ele>
        <time>2025-12-29T12:35:25Z</time>
      </trkpt>
      <trkpt lat="48.60966" lon="1.92162">
        <ele>135</ele>
        <time>2025-12-29T12:35:27Z</time>
      </trkpt>
      <trkpt lat="48.60967" lon="1.92165">
        <ele>135</ele>
        <time>2025-12-29T12:35:29Z</time>
      </trkpt>
      <trkpt lat="48.60968" lon="1.92169">
        <ele>135</ele>
        <time>2025-12-29T12:35:31Z</time>
      </trkpt>
      <trkpt lat="48.60968" lon="1.92173">
        <ele>135.2</ele>
        <time>2025-12-29T12:35:33Z</time>
      </trkpt>
      <trkpt lat="48.60969" lon="1.92177">
        <ele>135.2</ele>
        <time>2025-12-29T12:35:35Z</time>
      </trkpt>
      <trkpt lat="48.60969" lon="1.92181">
        <ele>135.2</ele>
        <time>2025-12-29T12:35:37Z</time>
      </trkpt>
      <trkpt lat="48.60969" lon="1.92185">
        <ele>135.2</ele>
        <time>2025-12-29T12:35:39Z</time>
      </trkpt>
      <trkpt lat="48.60969" lon="1.92189">
        <ele>135.2</ele>
        <time>2025-12-29T12:35:41Z</time>
      </trkpt>
      <trkpt lat="48.60969" lon="1.92192">
        <ele>135.2</ele>
        <time>2025-12-29T12:35:43Z</time>
      </trkpt>
      <trkpt lat="48.60969" lon="1.92196">
        <ele>135.2</ele>
        <time>2025-12-29T12:35:45Z</time>
      </trkpt>
      <trkpt lat="48.60969" lon="1.92201">
        <ele>135</ele>
        <time>2025-12-29T12:35:47Z</time>
      </trkpt>
      <trkpt lat="48.6097" lon="1.92205">
        <ele>135.2</ele>
        <time>2025-12-29T12:35:49Z</time>
      </trkpt>
      <trkpt lat="48.60971" lon="1.9221">
        <ele>135.2</ele>
        <time>2025-12-29T12:35:51Z</time>
      </trkpt>
      <trkpt lat="48.60972" lon="1.92214">
        <ele>135.2</ele>
        <time>2025-12-29T12:35:53Z</time>
      </trkpt>
      <trkpt lat="48.60972" lon="1.92218">
        <ele>135.2</ele>
        <time>2025-12-29T12:35:55Z</time>
      </trkpt>
      <trkpt lat="48.60972" lon="1.92222">
        <ele>135.4</ele>
        <time>2025-12-29T12:35:57Z</time>
      </trkpt>
      <trkpt lat="48.60972" lon="1.92226">
        <ele>135.4</ele>
        <time>2025-12-29T12:35:59Z</time>
      </trkpt>
      <trkpt lat="48.60972" lon="1.92229">
        <ele>135.6</ele>
        <time>2025-12-29T12:36:01Z</time>
      </trkpt>
      <trkpt lat="48.60972" lon="1.92233">
        <ele>135.6</ele>
        <time>2025-12-29T12:36:03Z</time>
      </trkpt>
      <trkpt lat="48.60972" lon="1.92236">
        <ele>135.6</ele>
        <time>2025-12-29T12:36:05Z</time>
      </trkpt>
      <trkpt lat="48.60971" lon="1.92241">
        <ele>135.6</ele>
        <time>2025-12-29T12:36:07Z</time>
      </trkpt>
      <trkpt lat="48.6097" lon="1.92245">
        <ele>135.6</ele>
        <time>2025-12-29T12:36:09Z</time>
      </trkpt>
      <trkpt lat="48.60969" lon="1.92249">
        <ele>135.4</ele>
        <time>2025-12-29T12:36:11Z</time>
      </trkpt>
      <trkpt lat="48.60968" lon="1.92253">
        <ele>135.4</ele>
        <time>2025-12-29T12:36:13Z</time>
      </trkpt>
      <trkpt lat="48.60968" lon="1.92258">
        <ele>135.2</ele>
        <time>2025-12-29T12:36:15Z</time>
      </trkpt>
      <trkpt lat="48.60967" lon="1.92262">
        <ele>135</ele>
        <time>2025-12-29T12:36:17Z</time>
      </trkpt>
      <trkpt lat="48.60966" lon="1.92267">
        <ele>135</ele>
        <time>2025-12-29T12:36:19Z</time>
      </trkpt>
      <trkpt lat="48.60965" lon="1.92271">
        <ele>134.8</ele>
        <time>2025-12-29T12:36:21Z</time>
      </trkpt>
      <trkpt lat="48.60964" lon="1.92275">
        <ele>134.8</ele>
        <time>2025-12-29T12:36:23Z</time>
      </trkpt>
      <trkpt lat="48.60962" lon="1.92278">
        <ele>134.8</ele>
        <time>2025-12-29T12:36:24Z</time>
      </trkpt>
      <trkpt lat="48.60961" lon="1.92282">
        <ele>134.6</ele>
        <time>2025-12-29T12:36:26Z</time>
      </trkpt>
      <trkpt lat="48.60961" lon="1.92286">
        <ele>134.4</ele>
        <time>2025-12-29T12:36:28Z</time>
      </trkpt>
      <trkpt lat="48.60962" lon="1.92291">
        <ele>134.4</ele>
        <time>2025-12-29T12:36:30Z</time>
      </trkpt>
      <trkpt lat="48.60962" lon="1.92295">
        <ele>134.4</ele>
        <time>2025-12-29T12:36:32Z</time>
      </trkpt>
      <trkpt lat="48.60963" lon="1.92299">
        <ele>134.4</ele>
        <time>2025-12-29T12:36:34Z</time>
      </trkpt>
      <trkpt lat="48.60963" lon="1.92302">
        <ele>134.6</ele>
        <time>2025-12-29T12:36:36Z</time>
      </trkpt>
      <trkpt lat="48.60963" lon="1.92306">
        <ele>134.8</ele>
        <time>2025-12-29T12:36:38Z</time>
      </trkpt>
      <trkpt lat="48.60962" lon="1.92311">
        <ele>134.8</ele>
        <time>2025-12-29T12:36:40Z</time>
      </trkpt>
      <trkpt lat="48.60962" lon="1.92316">
        <ele>134.8</ele>
        <time>2025-12-29T12:36:42Z</time>
      </trkpt>
      <trkpt lat="48.60961" lon="1.92321">
        <ele>135</ele>
        <time>2025-12-29T12:36:44Z</time>
      </trkpt>
      <trkpt lat="48.6096" lon="1.92325">
        <ele>135</ele>
        <time>2025-12-29T12:36:46Z</time>
      </trkpt>
      <trkpt lat="48.60959" lon="1.92329">
        <ele>135.2</ele>
        <time>2025-12-29T12:36:48Z</time>
      </trkpt>
      <trkpt lat="48.60958" lon="1.92333">
        <ele>135.4</ele>
        <time>2025-12-29T12:36:50Z</time>
      </trkpt>
      <trkpt lat="48.60959" lon="1.92337">
        <ele>135.6</ele>
        <time>2025-12-29T12:36:52Z</time>
      </trkpt>
      <trkpt lat="48.60959" lon="1.92341">
        <ele>136</ele>
        <time>2025-12-29T12:36:54Z</time>
      </trkpt>
      <trkpt lat="48.60959" lon="1.92345">
        <ele>136.2</ele>
        <time>2025-12-29T12:36:56Z</time>
      </trkpt>
      <trkpt lat="48.60959" lon="1.92348">
        <ele>136.4</ele>
        <time>2025-12-29T12:36:58Z</time>
      </trkpt>
      <trkpt lat="48.60958" lon="1.92352">
        <ele>136.8</ele>
        <time>2025-12-29T12:37:00Z</time>
      </trkpt>
      <trkpt lat="48.60957" lon="1.92355">
        <ele>137</ele>
        <time>2025-12-29T12:37:02Z</time>
      </trkpt>
      <trkpt lat="48.60957" lon="1.92359">
        <ele>137.4</ele>
        <time>2025-12-29T12:37:04Z</time>
      </trkpt>
      <trkpt lat="48.60956" lon="1.92362">
        <ele>137.8</ele>
        <time>2025-12-29T12:37:06Z</time>
      </trkpt>
      <trkpt lat="48.60956" lon="1.92365">
        <ele>138</ele>
        <time>2025-12-29T12:37:08Z</time>
      </trkpt>
      <trkpt lat="48.60956" lon="1.92368">
        <ele>138.4</ele>
        <time>2025-12-29T12:37:10Z</time>
      </trkpt>
      <trkpt lat="48.60955" lon="1.92372">
        <ele>138.8</ele>
        <time>2025-12-29T12:37:12Z</time>
      </trkpt>
      <trkpt lat="48.60954" lon="1.92376">
        <ele>139.2</ele>
        <time>2025-12-29T12:37:14Z</time>
      </trkpt>
      <trkpt lat="48.60953" lon="1.9238">
        <ele>139.4</ele>
        <time>2025-12-29T12:37:16Z</time>
      </trkpt>
      <trkpt lat="48.60951" lon="1.92385">
        <ele>139.8</ele>
        <time>2025-12-29T12:37:18Z</time>
      </trkpt>
      <trkpt lat="48.6095" lon="1.92388">
        <ele>140</ele>
        <time>2025-12-29T12:37:19Z</time>
      </trkpt>
      <trkpt lat="48.60948" lon="1.92392">
        <ele>140.2</ele>
        <time>2025-12-29T12:37:21Z</time>
      </trkpt>
      <trkpt lat="48.60947" lon="1.92395">
        <ele>140.4</ele>
        <time>2025-12-29T12:37:22Z</time>
      </trkpt>
      <trkpt lat="48.60945" lon="1.92397">
        <ele>140.4</ele>
        <time>2025-12-29T12:37:23Z</time>
      </trkpt>
      <trkpt lat="48.60943" lon="1.92399">
        <ele>140.6</ele>
        <time>2025-12-29T12:37:24Z</time>
      </trkpt>
      <trkpt lat="48.60941" lon="1.92401">
        <ele>140.6</ele>
        <time>2025-12-29T12:37:25Z</time>
      </trkpt>
      <trkpt lat="48.6094" lon="1.92403">
        <ele>140.6</ele>
        <time>2025-12-29T12:37:26Z</time>
      </trkpt>
      <trkpt lat="48.60939" lon="1.92405">
        <ele>140.8</ele>
        <time>2025-12-29T12:37:27Z</time>
      </trkpt>
      <trkpt lat="48.60937" lon="1.9241">
        <ele>140.6</ele>
        <time>2025-12-29T12:37:29Z</time>
      </trkpt>
      <trkpt lat="48.60935" lon="1.92414">
        <ele>140.6</ele>
        <time>2025-12-29T12:37:31Z</time>
      </trkpt>
      <trkpt lat="48.60934" lon="1.92416">
        <ele>140.4</ele>
        <time>2025-12-29T12:37:32Z</time>
      </trkpt>
      <trkpt lat="48.60933" lon="1.92421">
        <ele>140.2</ele>
        <time>2025-12-29T12:37:34Z</time>
      </trkpt>
      <trkpt lat="48.60932" lon="1.92425">
        <ele>140</ele>
        <time>2025-12-29T12:37:36Z</time>
      </trkpt>
      <trkpt lat="48.60931" lon="1.92429">
        <ele>139.8</ele>
        <time>2025-12-29T12:37:38Z</time>
      </trkpt>
      <trkpt lat="48.60929" lon="1.92433">
        <ele>139.6</ele>
        <time>2025-12-29T12:37:40Z</time>
      </trkpt>
      <trkpt lat="48.60927" lon="1.92437">
        <ele>139.4</ele>
        <time>2025-12-29T12:37:42Z</time>
      </trkpt>
      <trkpt lat="48.60924" lon="1.92441">
        <ele>139</ele>
        <time>2025-12-29T12:37:44Z</time>
      </trkpt>
      <trkpt lat="48.60923" lon="1.92443">
        <ele>139</ele>
        <time>2025-12-29T12:37:45Z</time>
      </trkpt>
      <trkpt lat="48.60921" lon="1.92448">
        <ele>138.6</ele>
        <time>2025-12-29T12:37:47Z</time>
      </trkpt>
      <trkpt lat="48.6092" lon="1.92452">
        <ele>138.4</ele>
        <time>2025-12-29T12:37:49Z</time>
      </trkpt>
      <trkpt lat="48.60918" lon="1.92456">
        <ele>138</ele>
        <time>2025-12-29T12:37:51Z</time>
      </trkpt>
      <trkpt lat="48.60917" lon="1.9246">
        <ele>137.6</ele>
        <time>2025-12-29T12:37:53Z</time>
      </trkpt>
      <trkpt lat="48.60916" lon="1.92464">
        <ele>137.2</ele>
        <time>2025-12-29T12:37:55Z</time>
      </trkpt>
      <trkpt lat="48.60915" lon="1.92468">
        <ele>137</ele>
        <time>2025-12-29T12:37:57Z</time>
      </trkpt>
      <trkpt lat="48.60914" lon="1.92472">
        <ele>136.6</ele>
        <time>2025-12-29T12:37:59Z</time>
      </trkpt>
      <trkpt lat="48.60914" lon="1.92476">
        <ele>136.2</ele>
        <time>2025-12-29T12:38:01Z</time>
      </trkpt>
      <trkpt lat="48.60913" lon="1.92479">
        <ele>135.8</ele>
        <time>2025-12-29T12:38:03Z</time>
      </trkpt>
      <trkpt lat="48.60912" lon="1.92483">
        <ele>135.6</ele>
        <time>2025-12-29T12:38:05Z</time>
      </trkpt>
      <trkpt lat="48.60911" lon="1.92486">
        <ele>135.6</ele>
        <time>2025-12-29T12:38:07Z</time>
      </trkpt>
      <trkpt lat="48.6091" lon="1.9249">
        <ele>135.4</ele>
        <time>2025-12-29T12:38:09Z</time>
      </trkpt>
      <trkpt lat="48.60909" lon="1.92494">
        <ele>135.2</ele>
        <time>2025-12-29T12:38:11Z</time>
      </trkpt>
      <trkpt lat="48.60908" lon="1.92498">
        <ele>135.2</ele>
        <time>2025-12-29T12:38:13Z</time>
      </trkpt>
      <trkpt lat="48.60907" lon="1.92502">
        <ele>135.2</ele>
        <time>2025-12-29T12:38:15Z</time>
      </trkpt>
      <trkpt lat="48.60906" lon="1.92506">
        <ele>135</ele>
        <time>2025-12-29T12:38:17Z</time>
      </trkpt>
      <trkpt lat="48.60906" lon="1.92509">
        <ele>135</ele>
        <time>2025-12-29T12:38:19Z</time>
      </trkpt>
      <trkpt lat="48.60905" lon="1.92512">
        <ele>134.8</ele>
        <time>2025-12-29T12:38:21Z</time>
      </trkpt>
      <trkpt lat="48.60906" lon="1.92516">
        <ele>134.6</ele>
        <time>2025-12-29T12:38:23Z</time>
      </trkpt>
      <trkpt lat="48.60905" lon="1.9252">
        <ele>134.4</ele>
        <time>2025-12-29T12:38:25Z</time>
      </trkpt>
      <trkpt lat="48.60904" lon="1.92525">
        <ele>134.2</ele>
        <time>2025-12-29T12:38:27Z</time>
      </trkpt>
      <trkpt lat="48.60903" lon="1.92527">
        <ele>134.2</ele>
        <time>2025-12-29T12:38:28Z</time>
      </trkpt>
      <trkpt lat="48.60902" lon="1.92532">
        <ele>134</ele>
        <time>2025-12-29T12:38:30Z</time>
      </trkpt>
      <trkpt lat="48.609" lon="1.92537">
        <ele>133.8</ele>
        <time>2025-12-29T12:38:32Z</time>
      </trkpt>
      <trkpt lat="48.609" lon="1.9254">
        <ele>133.8</ele>
        <time>2025-12-29T12:38:34Z</time>
      </trkpt>
      <trkpt lat="48.60899" lon="1.92543">
        <ele>133.6</ele>
        <time>2025-12-29T12:38:36Z</time>
      </trkpt>
      <trkpt lat="48.60898" lon="1.92547">
        <ele>133.6</ele>
        <time>2025-12-29T12:38:38Z</time>
      </trkpt>
      <trkpt lat="48.60898" lon="1.9255">
        <ele>133.6</ele>
        <time>2025-12-29T12:38:40Z</time>
      </trkpt>
      <trkpt lat="48.60898" lon="1.92554">
        <ele>133.6</ele>
        <time>2025-12-29T12:38:42Z</time>
      </trkpt>
      <trkpt lat="48.60896" lon="1.92557">
        <ele>133.6</ele>
        <time>2025-12-29T12:38:44Z</time>
      </trkpt>
      <trkpt lat="48.60896" lon="1.92561">
        <ele>133.4</ele>
        <time>2025-12-29T12:38:46Z</time>
      </trkpt>
      <trkpt lat="48.60895" lon="1.92565">
        <ele>133.4</ele>
        <time>2025-12-29T12:38:48Z</time>
      </trkpt>
      <trkpt lat="48.60894" lon="1.92569">
        <ele>133.4</ele>
        <time>2025-12-29T12:38:50Z</time>
      </trkpt>
      <trkpt lat="48.60893" lon="1.92573">
        <ele>133.2</ele>
        <time>2025-12-29T12:38:52Z</time>
      </trkpt>
      <trkpt lat="48.60892" lon="1.92576">
        <ele>133.2</ele>
        <time>2025-12-29T12:38:54Z</time>
      </trkpt>
      <trkpt lat="48.60891" lon="1.92579">
        <ele>133</ele>
        <time>2025-12-29T12:38:56Z</time>
      </trkpt>
      <trkpt lat="48.60889" lon="1.92583">
        <ele>132.8</ele>
        <time>2025-12-29T12:38:58Z</time>
      </trkpt>
      <trkpt lat="48.60887" lon="1.92587">
        <ele>132.6</ele>
        <time>2025-12-29T12:39:00Z</time>
      </trkpt>
      <trkpt lat="48.60885" lon="1.92591">
        <ele>132.2</ele>
        <time>2025-12-29T12:39:02Z</time>
      </trkpt>
      <trkpt lat="48.60884" lon="1.92595">
        <ele>132.2</ele>
        <time>2025-12-29T12:39:04Z</time>
      </trkpt>
      <trkpt lat="48.60883" lon="1.92599">
        <ele>132</ele>
        <time>2025-12-29T12:39:06Z</time>
      </trkpt>
      <trkpt lat="48.60882" lon="1.92602">
        <ele>132</ele>
        <time>2025-12-29T12:39:08Z</time>
      </trkpt>
      <trkpt lat="48.60881" lon="1.92606">
        <ele>131.8</ele>
        <time>2025-12-29T12:39:10Z</time>
      </trkpt>
      <trkpt lat="48.6088" lon="1.9261">
        <ele>131.8</ele>
        <time>2025-12-29T12:39:12Z</time>
      </trkpt>
      <trkpt lat="48.60879" lon="1.92615">
        <ele>131.6</ele>
        <time>2025-12-29T12:39:14Z</time>
      </trkpt>
      <trkpt lat="48.60878" lon="1.92619">
        <ele>131.6</ele>
        <time>2025-12-29T12:39:16Z</time>
      </trkpt>
      <trkpt lat="48.60878" lon="1.92624">
        <ele>131.6</ele>
        <time>2025-12-29T12:39:18Z</time>
      </trkpt>
      <trkpt lat="48.60878" lon="1.92628">
        <ele>131.4</ele>
        <time>2025-12-29T12:39:20Z</time>
      </trkpt>
      <trkpt lat="48.60879" lon="1.92631">
        <ele>131.4</ele>
        <time>2025-12-29T12:39:22Z</time>
      </trkpt>
      <trkpt lat="48.60881" lon="1.92633">
        <ele>131.2</ele>
        <time>2025-12-29T12:39:24Z</time>
      </trkpt>
      <trkpt lat="48.60882" lon="1.92635">
        <ele>131</ele>
        <time>2025-12-29T12:39:26Z</time>
      </trkpt>
      <trkpt lat="48.60884" lon="1.92637">
        <ele>130.8</ele>
        <time>2025-12-29T12:39:28Z</time>
      </trkpt>
      <trkpt lat="48.60886" lon="1.92638">
        <ele>130.4</ele>
        <time>2025-12-29T12:39:31Z</time>
      </trkpt>
      <trkpt lat="48.60889" lon="1.92637">
        <ele>130.2</ele>
        <time>2025-12-29T12:39:34Z</time>
      </trkpt>
      <trkpt lat="48.60891" lon="1.92637">
        <ele>130</ele>
        <time>2025-12-29T12:39:36Z</time>
      </trkpt>
      <trkpt lat="48.60893" lon="1.92636">
        <ele>130</ele>
        <time>2025-12-29T12:39:38Z</time>
      </trkpt>
      <trkpt lat="48.60895" lon="1.92637">
        <ele>130</ele>
        <time>2025-12-29T12:39:40Z</time>
      </trkpt>
      <trkpt lat="48.60898" lon="1.92638">
        <ele>130</ele>
        <time>2025-12-29T12:39:42Z</time>
      </trkpt>
      <trkpt lat="48.609" lon="1.92639">
        <ele>129.8</ele>
        <time>2025-12-29T12:39:46Z</time>
      </trkpt>
      <trkpt lat="48.60902" lon="1.92639">
        <ele>129.6</ele>
        <time>2025-12-29T12:39:49Z</time>
      </trkpt>
      <trkpt lat="48.60904" lon="1.92639">
        <ele>129.4</ele>
        <time>2025-12-29T12:39:51Z</time>
      </trkpt>
      <trkpt lat="48.60906" lon="1.9264">
        <ele>129.6</ele>
        <time>2025-12-29T12:39:53Z</time>
      </trkpt>
      <trkpt lat="48.60908" lon="1.9264">
        <ele>129.6</ele>
        <time>2025-12-29T12:39:55Z</time>
      </trkpt>
      <trkpt lat="48.60911" lon="1.92642">
        <ele>129.8</ele>
        <time>2025-12-29T12:39:57Z</time>
      </trkpt>
      <trkpt lat="48.60914" lon="1.92643">
        <ele>129.8</ele>
        <time>2025-12-29T12:39:59Z</time>
      </trkpt>
      <trkpt lat="48.60916" lon="1.92643">
        <ele>130</ele>
        <time>2025-12-29T12:40:01Z</time>
      </trkpt>
      <trkpt lat="48.60918" lon="1.92642">
        <ele>130.2</ele>
        <time>2025-12-29T12:40:03Z</time>
      </trkpt>
      <trkpt lat="48.6092" lon="1.92641">
        <ele>130.2</ele>
        <time>2025-12-29T12:40:05Z</time>
      </trkpt>
      <trkpt lat="48.60922" lon="1.9264">
        <ele>130.4</ele>
        <time>2025-12-29T12:40:07Z</time>
      </trkpt>
      <trkpt lat="48.60924" lon="1.92639">
        <ele>130.6</ele>
        <time>2025-12-29T12:40:09Z</time>
      </trkpt>
      <trkpt lat="48.60926" lon="1.92639">
        <ele>130.8</ele>
        <time>2025-12-29T12:40:11Z</time>
      </trkpt>
      <trkpt lat="48.60928" lon="1.92639">
        <ele>130.8</ele>
        <time>2025-12-29T12:40:13Z</time>
      </trkpt>
      <trkpt lat="48.60931" lon="1.9264">
        <ele>130.8</ele>
        <time>2025-12-29T12:40:15Z</time>
      </trkpt>
      <trkpt lat="48.60934" lon="1.92641">
        <ele>130.8</ele>
        <time>2025-12-29T12:40:17Z</time>
      </trkpt>
      <trkpt lat="48.60937" lon="1.92642">
        <ele>130.8</ele>
        <time>2025-12-29T12:40:19Z</time>
      </trkpt>
      <trkpt lat="48.6094" lon="1.92642">
        <ele>131</ele>
        <time>2025-12-29T12:40:21Z</time>
      </trkpt>
      <trkpt lat="48.60942" lon="1.92642">
        <ele>131</ele>
        <time>2025-12-29T12:40:23Z</time>
      </trkpt>
      <trkpt lat="48.60946" lon="1.92642">
        <ele>131.2</ele>
        <time>2025-12-29T12:40:25Z</time>
      </trkpt>
      <trkpt lat="48.60948" lon="1.92642">
        <ele>131.4</ele>
        <time>2025-12-29T12:40:27Z</time>
      </trkpt>
      <trkpt lat="48.60951" lon="1.92642">
        <ele>131.6</ele>
        <time>2025-12-29T12:40:29Z</time>
      </trkpt>
      <trkpt lat="48.60954" lon="1.92642">
        <ele>131.8</ele>
        <time>2025-12-29T12:40:31Z</time>
      </trkpt>
      <trkpt lat="48.60956" lon="1.92641">
        <ele>132</ele>
        <time>2025-12-29T12:40:33Z</time>
      </trkpt>
      <trkpt lat="48.60958" lon="1.92641">
        <ele>132.2</ele>
        <time>2025-12-29T12:40:35Z</time>
      </trkpt>
      <trkpt lat="48.60961" lon="1.92641">
        <ele>132.2</ele>
        <time>2025-12-29T12:40:37Z</time>
      </trkpt>
      <trkpt lat="48.60964" lon="1.92641">
        <ele>132.4</ele>
        <time>2025-12-29T12:40:39Z</time>
      </trkpt>
      <trkpt lat="48.60966" lon="1.9264">
        <ele>132.4</ele>
        <time>2025-12-29T12:40:41Z</time>
      </trkpt>
      <trkpt lat="48.60969" lon="1.9264">
        <ele>132.6</ele>
        <time>2025-12-29T12:40:43Z</time>
      </trkpt>
      <trkpt lat="48.60972" lon="1.9264">
        <ele>132.8</ele>
        <time>2025-12-29T12:40:45Z</time>
      </trkpt>
      <trkpt lat="48.60973" lon="1.9264">
        <ele>133</ele>
        <time>2025-12-29T12:40:47Z</time>
      </trkpt>
      <trkpt lat="48.60976" lon="1.92641">
        <ele>133</ele>
        <time>2025-12-29T12:40:49Z</time>
      </trkpt>
      <trkpt lat="48.60978" lon="1.92641">
        <ele>133.2</ele>
        <time>2025-12-29T12:40:51Z</time>
      </trkpt>
      <trkpt lat="48.6098" lon="1.9264">
        <ele>133.4</ele>
        <time>2025-12-29T12:40:54Z</time>
      </trkpt>
      <trkpt lat="48.60982" lon="1.92638">
        <ele>133.6</ele>
        <time>2025-12-29T12:40:57Z</time>
      </trkpt>
      <trkpt lat="48.60985" lon="1.92637">
        <ele>133.8</ele>
        <time>2025-12-29T12:41:02Z</time>
      </trkpt>
      <trkpt lat="48.60987" lon="1.92636">
        <ele>134.2</ele>
        <time>2025-12-29T12:41:05Z</time>
      </trkpt>
      <trkpt lat="48.60989" lon="1.92636">
        <ele>134.6</ele>
        <time>2025-12-29T12:41:07Z</time>
      </trkpt>
      <trkpt lat="48.60991" lon="1.92635">
        <ele>135</ele>
        <time>2025-12-29T12:41:09Z</time>
      </trkpt>
      <trkpt lat="48.60993" lon="1.92634">
        <ele>135.4</ele>
        <time>2025-12-29T12:41:11Z</time>
      </trkpt>
      <trkpt lat="48.60996" lon="1.92633">
        <ele>136</ele>
        <time>2025-12-29T12:41:14Z</time>
      </trkpt>
      <trkpt lat="48.60998" lon="1.92632">
        <ele>136.4</ele>
        <time>2025-12-29T12:41:16Z</time>
      </trkpt>
      <trkpt lat="48.61" lon="1.92632">
        <ele>136.8</ele>
        <time>2025-12-29T12:41:18Z</time>
      </trkpt>
      <trkpt lat="48.61003" lon="1.92632">
        <ele>137</ele>
        <time>2025-12-29T12:41:20Z</time>
      </trkpt>
      <trkpt lat="48.61005" lon="1.92631">
        <ele>137.2</ele>
        <time>2025-12-29T12:41:22Z</time>
      </trkpt>
      <trkpt lat="48.61007" lon="1.92631">
        <ele>137.4</ele>
        <time>2025-12-29T12:41:23Z</time>
      </trkpt>
      <trkpt lat="48.61009" lon="1.92631">
        <ele>137.4</ele>
        <time>2025-12-29T12:41:24Z</time>
      </trkpt>
      <trkpt lat="48.61011" lon="1.92631">
        <ele>137.6</ele>
        <time>2025-12-29T12:41:25Z</time>
      </trkpt>
      <trkpt lat="48.61013" lon="1.9263">
        <ele>137.8</ele>
        <time>2025-12-29T12:41:26Z</time>
      </trkpt>
      <trkpt lat="48.61015" lon="1.9263">
        <ele>137.8</ele>
        <time>2025-12-29T12:41:27Z</time>
      </trkpt>
      <trkpt lat="48.61018" lon="1.9263">
        <ele>138</ele>
        <time>2025-12-29T12:41:29Z</time>
      </trkpt>
      <trkpt lat="48.61021" lon="1.92628">
        <ele>138.2</ele>
        <time>2025-12-29T12:41:31Z</time>
      </trkpt>
      <trkpt lat="48.61023" lon="1.92626">
        <ele>138.4</ele>
        <time>2025-12-29T12:41:33Z</time>
      </trkpt>
      <trkpt lat="48.61026" lon="1.92622">
        <ele>138.8</ele>
        <time>2025-12-29T12:41:35Z</time>
      </trkpt>
      <trkpt lat="48.61028" lon="1.92619">
        <ele>139.4</ele>
        <time>2025-12-29T12:41:37Z</time>
      </trkpt>
      <trkpt lat="48.6103" lon="1.92616">
        <ele>139.8</ele>
        <time>2025-12-29T12:41:39Z</time>
      </trkpt>
      <trkpt lat="48.61032" lon="1.92615">
        <ele>140</ele>
        <time>2025-12-29T12:41:41Z</time>
      </trkpt>
      <trkpt lat="48.61035" lon="1.92614">
        <ele>140.2</ele>
        <time>2025-12-29T12:41:43Z</time>
      </trkpt>
      <trkpt lat="48.61038" lon="1.92614">
        <ele>140.4</ele>
        <time>2025-12-29T12:41:45Z</time>
      </trkpt>
      <trkpt lat="48.61041" lon="1.92613">
        <ele>140.6</ele>
        <time>2025-12-29T12:41:47Z</time>
      </trkpt>
      <trkpt lat="48.61043" lon="1.92612">
        <ele>140.8</ele>
        <time>2025-12-29T12:41:49Z</time>
      </trkpt>
      <trkpt lat="48.61045" lon="1.9261">
        <ele>140.8</ele>
        <time>2025-12-29T12:41:51Z</time>
      </trkpt>
      <trkpt lat="48.61047" lon="1.92608">
        <ele>140.8</ele>
        <time>2025-12-29T12:41:53Z</time>
      </trkpt>
      <trkpt lat="48.6105" lon="1.92606">
        <ele>141</ele>
        <time>2025-12-29T12:41:55Z</time>
      </trkpt>
      <trkpt lat="48.61052" lon="1.92604">
        <ele>141</ele>
        <time>2025-12-29T12:41:57Z</time>
      </trkpt>
      <trkpt lat="48.61055" lon="1.92603">
        <ele>141.2</ele>
        <time>2025-12-29T12:41:59Z</time>
      </trkpt>
      <trkpt lat="48.61057" lon="1.92602">
        <ele>141.2</ele>
        <time>2025-12-29T12:42:01Z</time>
      </trkpt>
      <trkpt lat="48.61059" lon="1.92601">
        <ele>141.2</ele>
        <time>2025-12-29T12:42:03Z</time>
      </trkpt>
      <trkpt lat="48.61061" lon="1.92599">
        <ele>141.2</ele>
        <time>2025-12-29T12:42:05Z</time>
      </trkpt>
      <trkpt lat="48.61063" lon="1.92598">
        <ele>141.2</ele>
        <time>2025-12-29T12:42:07Z</time>
      </trkpt>
      <trkpt lat="48.61065" lon="1.92597">
        <ele>141</ele>
        <time>2025-12-29T12:42:09Z</time>
      </trkpt>
      <trkpt lat="48.61067" lon="1.92596">
        <ele>141</ele>
        <time>2025-12-29T12:42:11Z</time>
      </trkpt>
      <trkpt lat="48.61069" lon="1.92595">
        <ele>141</ele>
        <time>2025-12-29T12:42:13Z</time>
      </trkpt>
      <trkpt lat="48.61071" lon="1.92593">
        <ele>141</ele>
        <time>2025-12-29T12:42:15Z</time>
      </trkpt>
      <trkpt lat="48.61074" lon="1.92592">
        <ele>140.8</ele>
        <time>2025-12-29T12:42:17Z</time>
      </trkpt>
      <trkpt lat="48.61076" lon="1.92591">
        <ele>140.8</ele>
        <time>2025-12-29T12:42:19Z</time>
      </trkpt>
      <trkpt lat="48.61079" lon="1.92591">
        <ele>140.8</ele>
        <time>2025-12-29T12:42:21Z</time>
      </trkpt>
      <trkpt lat="48.61081" lon="1.92589">
        <ele>140.8</ele>
        <time>2025-12-29T12:42:23Z</time>
      </trkpt>
      <trkpt lat="48.61083" lon="1.92587">
        <ele>140.8</ele>
        <time>2025-12-29T12:42:25Z</time>
      </trkpt>
      <trkpt lat="48.61085" lon="1.92585">
        <ele>140.6</ele>
        <time>2025-12-29T12:42:27Z</time>
      </trkpt>
      <trkpt lat="48.61087" lon="1.92584">
        <ele>140.6</ele>
        <time>2025-12-29T12:42:29Z</time>
      </trkpt>
      <trkpt lat="48.6109" lon="1.92583">
        <ele>140.6</ele>
        <time>2025-12-29T12:42:31Z</time>
      </trkpt>
      <trkpt lat="48.61092" lon="1.92581">
        <ele>140.6</ele>
        <time>2025-12-29T12:42:33Z</time>
      </trkpt>
      <trkpt lat="48.61094" lon="1.92579">
        <ele>140.8</ele>
        <time>2025-12-29T12:42:35Z</time>
      </trkpt>
      <trkpt lat="48.61096" lon="1.92577">
        <ele>141</ele>
        <time>2025-12-29T12:42:37Z</time>
      </trkpt>
      <trkpt lat="48.61099" lon="1.92575">
        <ele>141.2</ele>
        <time>2025-12-29T12:42:39Z</time>
      </trkpt>
      <trkpt lat="48.61101" lon="1.92574">
        <ele>141.6</ele>
        <time>2025-12-29T12:42:41Z</time>
      </trkpt>
      <trkpt lat="48.61104" lon="1.92572">
        <ele>142</ele>
        <time>2025-12-29T12:42:43Z</time>
      </trkpt>
      <trkpt lat="48.61107" lon="1.92572">
        <ele>142.4</ele>
        <time>2025-12-29T12:42:45Z</time>
      </trkpt>
      <trkpt lat="48.61109" lon="1.92572">
        <ele>142.8</ele>
        <time>2025-12-29T12:42:47Z</time>
      </trkpt>
      <trkpt lat="48.61111" lon="1.92571">
        <ele>143.4</ele>
        <time>2025-12-29T12:42:49Z</time>
      </trkpt>
      <trkpt lat="48.61112" lon="1.9257">
        <ele>143.8</ele>
        <time>2025-12-29T12:42:51Z</time>
      </trkpt>
      <trkpt lat="48.61114" lon="1.92569">
        <ele>144</ele>
        <time>2025-12-29T12:42:53Z</time>
      </trkpt>
      <trkpt lat="48.61116" lon="1.92569">
        <ele>144.4</ele>
        <time>2025-12-29T12:42:55Z</time>
      </trkpt>
      <trkpt lat="48.61118" lon="1.92569">
        <ele>144.8</ele>
        <time>2025-12-29T12:42:57Z</time>
      </trkpt>
      <trkpt lat="48.6112" lon="1.92569">
        <ele>145.2</ele>
        <time>2025-12-29T12:42:59Z</time>
      </trkpt>
      <trkpt lat="48.61123" lon="1.9257">
        <ele>145.4</ele>
        <time>2025-12-29T12:43:01Z</time>
      </trkpt>
      <trkpt lat="48.61125" lon="1.9257">
        <ele>145.6</ele>
        <time>2025-12-29T12:43:03Z</time>
      </trkpt>
      <trkpt lat="48.61127" lon="1.9257">
        <ele>145.8</ele>
        <time>2025-12-29T12:43:05Z</time>
      </trkpt>
      <trkpt lat="48.6113" lon="1.9257">
        <ele>146</ele>
        <time>2025-12-29T12:43:07Z</time>
      </trkpt>
      <trkpt lat="48.61133" lon="1.9257">
        <ele>146.4</ele>
        <time>2025-12-29T12:43:09Z</time>
      </trkpt>
      <trkpt lat="48.61135" lon="1.92569">
        <ele>146.8</ele>
        <time>2025-12-29T12:43:11Z</time>
      </trkpt>
      <trkpt lat="48.61138" lon="1.92569">
        <ele>147</ele>
        <time>2025-12-29T12:43:13Z</time>
      </trkpt>
      <trkpt lat="48.61141" lon="1.92569">
        <ele>147.4</ele>
        <time>2025-12-29T12:43:15Z</time>
      </trkpt>
      <trkpt lat="48.61143" lon="1.92568">
        <ele>147.8</ele>
        <time>2025-12-29T12:43:17Z</time>
      </trkpt>
      <trkpt lat="48.61146" lon="1.92569">
        <ele>148.2</ele>
        <time>2025-12-29T12:43:19Z</time>
      </trkpt>
      <trkpt lat="48.61148" lon="1.9257">
        <ele>148.8</ele>
        <time>2025-12-29T12:43:21Z</time>
      </trkpt>
      <trkpt lat="48.61151" lon="1.92571">
        <ele>149.2</ele>
        <time>2025-12-29T12:43:23Z</time>
      </trkpt>
      <trkpt lat="48.61153" lon="1.92572">
        <ele>149.8</ele>
        <time>2025-12-29T12:43:25Z</time>
      </trkpt>
      <trkpt lat="48.61156" lon="1.92573">
        <ele>150.2</ele>
        <time>2025-12-29T12:43:27Z</time>
      </trkpt>
      <trkpt lat="48.61158" lon="1.92575">
        <ele>150.6</ele>
        <time>2025-12-29T12:43:29Z</time>
      </trkpt>
      <trkpt lat="48.61159" lon="1.92577">
        <ele>151</ele>
        <time>2025-12-29T12:43:31Z</time>
      </trkpt>
      <trkpt lat="48.61161" lon="1.9258">
        <ele>151.4</ele>
        <time>2025-12-29T12:43:33Z</time>
      </trkpt>
      <trkpt lat="48.61163" lon="1.92583">
        <ele>151.8</ele>
        <time>2025-12-29T12:43:35Z</time>
      </trkpt>
      <trkpt lat="48.61166" lon="1.92585">
        <ele>152.4</ele>
        <time>2025-12-29T12:43:37Z</time>
      </trkpt>
      <trkpt lat="48.61168" lon="1.92586">
        <ele>152.8</ele>
        <time>2025-12-29T12:43:39Z</time>
      </trkpt>
      <trkpt lat="48.61169" lon="1.92589">
        <ele>153.4</ele>
        <time>2025-12-29T12:43:42Z</time>
      </trkpt>
      <trkpt lat="48.61171" lon="1.92591">
        <ele>153.8</ele>
        <time>2025-12-29T12:43:44Z</time>
      </trkpt>
      <trkpt lat="48.61172" lon="1.92594">
        <ele>154</ele>
        <time>2025-12-29T12:43:46Z</time>
      </trkpt>
      <trkpt lat="48.61174" lon="1.92596">
        <ele>154.4</ele>
        <time>2025-12-29T12:43:48Z</time>
      </trkpt>
      <trkpt lat="48.61176" lon="1.92598">
        <ele>154.8</ele>
        <time>2025-12-29T12:43:50Z</time>
      </trkpt>
      <trkpt lat="48.61178" lon="1.926">
        <ele>155.2</ele>
        <time>2025-12-29T12:43:52Z</time>
      </trkpt>
      <trkpt lat="48.61179" lon="1.92603">
        <ele>155.8</ele>
        <time>2025-12-29T12:43:54Z</time>
      </trkpt>
      <trkpt lat="48.61182" lon="1.92606">
        <ele>156</ele>
        <time>2025-12-29T12:43:56Z</time>
      </trkpt>
      <trkpt lat="48.61184" lon="1.92607">
        <ele>156.2</ele>
        <time>2025-12-29T12:43:57Z</time>
      </trkpt>
      <trkpt lat="48.61187" lon="1.9261">
        <ele>156.6</ele>
        <time>2025-12-29T12:43:59Z</time>
      </trkpt>
      <trkpt lat="48.61189" lon="1.92612">
        <ele>156.8</ele>
        <time>2025-12-29T12:44:01Z</time>
      </trkpt>
      <trkpt lat="48.61192" lon="1.92615">
        <ele>157</ele>
        <time>2025-12-29T12:44:03Z</time>
      </trkpt>
      <trkpt lat="48.61195" lon="1.92618">
        <ele>157</ele>
        <time>2025-12-29T12:44:05Z</time>
      </trkpt>
      <trkpt lat="48.61196" lon="1.9262">
        <ele>157.2</ele>
        <time>2025-12-29T12:44:07Z</time>
      </trkpt>
      <trkpt lat="48.61197" lon="1.92623">
        <ele>157.2</ele>
        <time>2025-12-29T12:44:09Z</time>
      </trkpt>
      <trkpt lat="48.61199" lon="1.92625">
        <ele>157.4</ele>
        <time>2025-12-29T12:44:11Z</time>
      </trkpt>
      <trkpt lat="48.61202" lon="1.92627">
        <ele>157.6</ele>
        <time>2025-12-29T12:44:13Z</time>
      </trkpt>
      <trkpt lat="48.61204" lon="1.9263">
        <ele>157.8</ele>
        <time>2025-12-29T12:44:15Z</time>
      </trkpt>
      <trkpt lat="48.61207" lon="1.92632">
        <ele>158</ele>
        <time>2025-12-29T12:44:17Z</time>
      </trkpt>
      <trkpt lat="48.61209" lon="1.92633">
        <ele>158.2</ele>
        <time>2025-12-29T12:44:19Z</time>
      </trkpt>
      <trkpt lat="48.61212" lon="1.92634">
        <ele>158.4</ele>
        <time>2025-12-29T12:44:21Z</time>
      </trkpt>
      <trkpt lat="48.61214" lon="1.92635">
        <ele>158.6</ele>
        <time>2025-12-29T12:44:23Z</time>
      </trkpt>
      <trkpt lat="48.61217" lon="1.92636">
        <ele>158.8</ele>
        <time>2025-12-29T12:44:25Z</time>
      </trkpt>
      <trkpt lat="48.6122" lon="1.92637">
        <ele>159</ele>
        <time>2025-12-29T12:44:27Z</time>
      </trkpt>
      <trkpt lat="48.61223" lon="1.92638">
        <ele>159.2</ele>
        <time>2025-12-29T12:44:29Z</time>
      </trkpt>
      <trkpt lat="48.61226" lon="1.92639">
        <ele>159.4</ele>
        <time>2025-12-29T12:44:31Z</time>
      </trkpt>
      <trkpt lat="48.61229" lon="1.9264">
        <ele>159.6</ele>
        <time>2025-12-29T12:44:33Z</time>
      </trkpt>
      <trkpt lat="48.61232" lon="1.92642">
        <ele>159.8</ele>
        <time>2025-12-29T12:44:35Z</time>
      </trkpt>
      <trkpt lat="48.61235" lon="1.92644">
        <ele>160</ele>
        <time>2025-12-29T12:44:37Z</time>
      </trkpt>
      <trkpt lat="48.61237" lon="1.92646">
        <ele>160</ele>
        <time>2025-12-29T12:44:39Z</time>
      </trkpt>
      <trkpt lat="48.61239" lon="1.92648">
        <ele>160.2</ele>
        <time>2025-12-29T12:44:41Z</time>
      </trkpt>
      <trkpt lat="48.61241" lon="1.92649">
        <ele>160.4</ele>
        <time>2025-12-29T12:44:43Z</time>
      </trkpt>
      <trkpt lat="48.61243" lon="1.9265">
        <ele>160.4</ele>
        <time>2025-12-29T12:44:45Z</time>
      </trkpt>
      <trkpt lat="48.61245" lon="1.92652">
        <ele>160.4</ele>
        <time>2025-12-29T12:44:47Z</time>
      </trkpt>
      <trkpt lat="48.61248" lon="1.92653">
        <ele>160.4</ele>
        <time>2025-12-29T12:44:49Z</time>
      </trkpt>
      <trkpt lat="48.6125" lon="1.92655">
        <ele>160.4</ele>
        <time>2025-12-29T12:44:51Z</time>
      </trkpt>
      <trkpt lat="48.61253" lon="1.92658">
        <ele>160.4</ele>
        <time>2025-12-29T12:44:53Z</time>
      </trkpt>
      <trkpt lat="48.61255" lon="1.92661">
        <ele>160.6</ele>
        <time>2025-12-29T12:44:55Z</time>
      </trkpt>
      <trkpt lat="48.61257" lon="1.92664">
        <ele>160.6</ele>
        <time>2025-12-29T12:44:57Z</time>
      </trkpt>
      <trkpt lat="48.61258" lon="1.92667">
        <ele>160.8</ele>
        <time>2025-12-29T12:44:59Z</time>
      </trkpt>
      <trkpt lat="48.6126" lon="1.92669">
        <ele>161.6</ele>
        <time>2025-12-29T12:45:06Z</time>
      </trkpt>
      <trkpt lat="48.6126" lon="1.92671">
        <ele>161.8</ele>
        <time>2025-12-29T12:45:11Z</time>
      </trkpt>
      <trkpt lat="48.61262" lon="1.92674">
        <ele>162</ele>
        <time>2025-12-29T12:45:13Z</time>
      </trkpt>
      <trkpt lat="48.61264" lon="1.92676">
        <ele>162</ele>
        <time>2025-12-29T12:45:15Z</time>
      </trkpt>
      <trkpt lat="48.61266" lon="1.92678">
        <ele>162.2</ele>
        <time>2025-12-29T12:45:17Z</time>
      </trkpt>
      <trkpt lat="48.61267" lon="1.92679">
        <ele>162.2</ele>
        <time>2025-12-29T12:45:19Z</time>
      </trkpt>
      <trkpt lat="48.61269" lon="1.92681">
        <ele>162.2</ele>
        <time>2025-12-29T12:45:21Z</time>
      </trkpt>
      <trkpt lat="48.61271" lon="1.92683">
        <ele>162.2</ele>
        <time>2025-12-29T12:45:23Z</time>
      </trkpt>
      <trkpt lat="48.61273" lon="1.92685">
        <ele>162.2</ele>
        <time>2025-12-29T12:45:25Z</time>
      </trkpt>
      <trkpt lat="48.61275" lon="1.92687">
        <ele>162</ele>
        <time>2025-12-29T12:45:27Z</time>
      </trkpt>
      <trkpt lat="48.61277" lon="1.92687">
        <ele>161.8</ele>
        <time>2025-12-29T12:45:29Z</time>
      </trkpt>
      <trkpt lat="48.61279" lon="1.92688">
        <ele>161.6</ele>
        <time>2025-12-29T12:45:31Z</time>
      </trkpt>
      <trkpt lat="48.61281" lon="1.9269">
        <ele>161.6</ele>
        <time>2025-12-29T12:45:33Z</time>
      </trkpt>
      <trkpt lat="48.61283" lon="1.92693">
        <ele>161.4</ele>
        <time>2025-12-29T12:45:35Z</time>
      </trkpt>
      <trkpt lat="48.61285" lon="1.92695">
        <ele>161.4</ele>
        <time>2025-12-29T12:45:37Z</time>
      </trkpt>
      <trkpt lat="48.61286" lon="1.92698">
        <ele>161.6</ele>
        <time>2025-12-29T12:45:39Z</time>
      </trkpt>
      <trkpt lat="48.61288" lon="1.927">
        <ele>161.6</ele>
        <time>2025-12-29T12:45:41Z</time>
      </trkpt>
      <trkpt lat="48.61291" lon="1.92703">
        <ele>161.6</ele>
        <time>2025-12-29T12:45:43Z</time>
      </trkpt>
      <trkpt lat="48.61293" lon="1.92705">
        <ele>161.6</ele>
        <time>2025-12-29T12:45:45Z</time>
      </trkpt>
      <trkpt lat="48.61295" lon="1.92708">
        <ele>161.6</ele>
        <time>2025-12-29T12:45:47Z</time>
      </trkpt>
      <trkpt lat="48.61298" lon="1.92709">
        <ele>161.6</ele>
        <time>2025-12-29T12:45:49Z</time>
      </trkpt>
      <trkpt lat="48.61299" lon="1.92711">
        <ele>161.6</ele>
        <time>2025-12-29T12:45:51Z</time>
      </trkpt>
      <trkpt lat="48.61301" lon="1.92713">
        <ele>161.4</ele>
        <time>2025-12-29T12:45:53Z</time>
      </trkpt>
      <trkpt lat="48.61303" lon="1.92716">
        <ele>161.4</ele>
        <time>2025-12-29T12:45:55Z</time>
      </trkpt>
      <trkpt lat="48.61305" lon="1.92719">
        <ele>161.4</ele>
        <time>2025-12-29T12:45:57Z</time>
      </trkpt>
      <trkpt lat="48.61307" lon="1.92721">
        <ele>161.4</ele>
        <time>2025-12-29T12:45:59Z</time>
      </trkpt>
      <trkpt lat="48.61309" lon="1.92724">
        <ele>161.6</ele>
        <time>2025-12-29T12:46:01Z</time>
      </trkpt>
      <trkpt lat="48.61312" lon="1.92726">
        <ele>161.8</ele>
        <time>2025-12-29T12:46:03Z</time>
      </trkpt>
      <trkpt lat="48.61314" lon="1.92727">
        <ele>161.8</ele>
        <time>2025-12-29T12:46:05Z</time>
      </trkpt>
      <trkpt lat="48.61316" lon="1.92729">
        <ele>162</ele>
        <time>2025-12-29T12:46:07Z</time>
      </trkpt>
      <trkpt lat="48.61317" lon="1.9273">
        <ele>162.2</ele>
        <time>2025-12-29T12:46:09Z</time>
      </trkpt>
      <trkpt lat="48.61319" lon="1.92731">
        <ele>162.2</ele>
        <time>2025-12-29T12:46:11Z</time>
      </trkpt>
      <trkpt lat="48.61321" lon="1.92733">
        <ele>162.2</ele>
        <time>2025-12-29T12:46:13Z</time>
      </trkpt>
      <trkpt lat="48.61323" lon="1.92734">
        <ele>162.2</ele>
        <time>2025-12-29T12:46:16Z</time>
      </trkpt>
      <trkpt lat="48.61325" lon="1.92736">
        <ele>162.2</ele>
        <time>2025-12-29T12:46:19Z</time>
      </trkpt>
      <trkpt lat="48.61327" lon="1.92737">
        <ele>162.2</ele>
        <time>2025-12-29T12:46:21Z</time>
      </trkpt>
      <trkpt lat="48.61329" lon="1.92738">
        <ele>162.4</ele>
        <time>2025-12-29T12:46:23Z</time>
      </trkpt>
      <trkpt lat="48.61331" lon="1.9274">
        <ele>162.6</ele>
        <time>2025-12-29T12:46:25Z</time>
      </trkpt>
      <trkpt lat="48.61333" lon="1.92741">
        <ele>162.8</ele>
        <time>2025-12-29T12:46:27Z</time>
      </trkpt>
      <trkpt lat="48.61336" lon="1.92742">
        <ele>163</ele>
        <time>2025-12-29T12:46:29Z</time>
      </trkpt>
      <trkpt lat="48.61339" lon="1.92744">
        <ele>163</ele>
        <time>2025-12-29T12:46:31Z</time>
      </trkpt>
      <trkpt lat="48.61341" lon="1.92747">
        <ele>162.8</ele>
        <time>2025-12-29T12:46:33Z</time>
      </trkpt>
      <trkpt lat="48.61343" lon="1.92749">
        <ele>162.6</ele>
        <time>2025-12-29T12:46:34Z</time>
      </trkpt>
      <trkpt lat="48.61345" lon="1.92752">
        <ele>162.4</ele>
        <time>2025-12-29T12:46:36Z</time>
      </trkpt>
      <trkpt lat="48.61347" lon="1.92753">
        <ele>162.4</ele>
        <time>2025-12-29T12:46:38Z</time>
      </trkpt>
      <trkpt lat="48.61349" lon="1.92755">
        <ele>162.4</ele>
        <time>2025-12-29T12:46:40Z</time>
      </trkpt>
      <trkpt lat="48.61352" lon="1.92756">
        <ele>162.6</ele>
        <time>2025-12-29T12:46:42Z</time>
      </trkpt>
      <trkpt lat="48.61355" lon="1.92758">
        <ele>162.6</ele>
        <time>2025-12-29T12:46:44Z</time>
      </trkpt>
      <trkpt lat="48.61356" lon="1.92759">
        <ele>162.8</ele>
        <time>2025-12-29T12:46:46Z</time>
      </trkpt>
      <trkpt lat="48.61358" lon="1.92761">
        <ele>163</ele>
        <time>2025-12-29T12:46:48Z</time>
      </trkpt>
      <trkpt lat="48.6136" lon="1.92762">
        <ele>163</ele>
        <time>2025-12-29T12:46:50Z</time>
      </trkpt>
      <trkpt lat="48.61362" lon="1.92765">
        <ele>163</ele>
        <time>2025-12-29T12:46:52Z</time>
      </trkpt>
      <trkpt lat="48.61364" lon="1.92767">
        <ele>163</ele>
        <time>2025-12-29T12:46:54Z</time>
      </trkpt>
      <trkpt lat="48.61367" lon="1.9277">
        <ele>163</ele>
        <time>2025-12-29T12:46:56Z</time>
      </trkpt>
      <trkpt lat="48.61369" lon="1.92772">
        <ele>163</ele>
        <time>2025-12-29T12:46:58Z</time>
      </trkpt>
      <trkpt lat="48.61371" lon="1.92775">
        <ele>163</ele>
        <time>2025-12-29T12:47:00Z</time>
      </trkpt>
      <trkpt lat="48.61372" lon="1.92777">
        <ele>163</ele>
        <time>2025-12-29T12:47:02Z</time>
      </trkpt>
      <trkpt lat="48.61373" lon="1.92779">
        <ele>163.2</ele>
        <time>2025-12-29T12:47:04Z</time>
      </trkpt>
      <trkpt lat="48.61375" lon="1.92781">
        <ele>163.2</ele>
        <time>2025-12-29T12:47:06Z</time>
      </trkpt>
      <trkpt lat="48.61378" lon="1.92782">
        <ele>163.2</ele>
        <time>2025-12-29T12:47:09Z</time>
      </trkpt>
      <trkpt lat="48.6138" lon="1.92782">
        <ele>163</ele>
        <time>2025-12-29T12:47:11Z</time>
      </trkpt>
      <trkpt lat="48.61383" lon="1.92783">
        <ele>162.8</ele>
        <time>2025-12-29T12:47:13Z</time>
      </trkpt>
      <trkpt lat="48.61386" lon="1.92784">
        <ele>162.8</ele>
        <time>2025-12-29T12:47:15Z</time>
      </trkpt>
      <trkpt lat="48.61388" lon="1.92787">
        <ele>162.6</ele>
        <time>2025-12-29T12:47:17Z</time>
      </trkpt>
      <trkpt lat="48.61391" lon="1.92789">
        <ele>162.4</ele>
        <time>2025-12-29T12:47:19Z</time>
      </trkpt>
      <trkpt lat="48.61393" lon="1.9279">
        <ele>162.4</ele>
        <time>2025-12-29T12:47:21Z</time>
      </trkpt>
      <trkpt lat="48.61395" lon="1.92792">
        <ele>162.2</ele>
        <time>2025-12-29T12:47:23Z</time>
      </trkpt>
      <trkpt lat="48.61397" lon="1.92792">
        <ele>161.8</ele>
        <time>2025-12-29T12:47:25Z</time>
      </trkpt>
      <trkpt lat="48.614" lon="1.92793">
        <ele>161.6</ele>
        <time>2025-12-29T12:47:27Z</time>
      </trkpt>
      <trkpt lat="48.61402" lon="1.92794">
        <ele>161.4</ele>
        <time>2025-12-29T12:47:29Z</time>
      </trkpt>
      <trkpt lat="48.61404" lon="1.92795">
        <ele>161.2</ele>
        <time>2025-12-29T12:47:31Z</time>
      </trkpt>
      <trkpt lat="48.61406" lon="1.92796">
        <ele>161</ele>
        <time>2025-12-29T12:47:33Z</time>
      </trkpt>
      <trkpt lat="48.61409" lon="1.92798">
        <ele>160.8</ele>
        <time>2025-12-29T12:47:35Z</time>
      </trkpt>
      <trkpt lat="48.61411" lon="1.928">
        <ele>160.6</ele>
        <time>2025-12-29T12:47:37Z</time>
      </trkpt>
      <trkpt lat="48.61413" lon="1.92801">
        <ele>160.6</ele>
        <time>2025-12-29T12:47:39Z</time>
      </trkpt>
      <trkpt lat="48.61416" lon="1.92803">
        <ele>160.6</ele>
        <time>2025-12-29T12:47:41Z</time>
      </trkpt>
      <trkpt lat="48.61419" lon="1.92804">
        <ele>160.6</ele>
        <time>2025-12-29T12:47:43Z</time>
      </trkpt>
      <trkpt lat="48.61421" lon="1.92806">
        <ele>160.6</ele>
        <time>2025-12-29T12:47:45Z</time>
      </trkpt>
      <trkpt lat="48.61423" lon="1.92809">
        <ele>160.6</ele>
        <time>2025-12-29T12:47:47Z</time>
      </trkpt>
      <trkpt lat="48.61425" lon="1.92811">
        <ele>160.8</ele>
        <time>2025-12-29T12:47:49Z</time>
      </trkpt>
      <trkpt lat="48.61427" lon="1.92812">
        <ele>161</ele>
        <time>2025-12-29T12:47:51Z</time>
      </trkpt>
      <trkpt lat="48.61429" lon="1.92814">
        <ele>161.2</ele>
        <time>2025-12-29T12:47:53Z</time>
      </trkpt>
      <trkpt lat="48.61431" lon="1.92814">
        <ele>161.4</ele>
        <time>2025-12-29T12:47:55Z</time>
      </trkpt>
      <trkpt lat="48.61433" lon="1.92815">
        <ele>161.4</ele>
        <time>2025-12-29T12:47:57Z</time>
      </trkpt>
      <trkpt lat="48.61435" lon="1.92817">
        <ele>161.4</ele>
        <time>2025-12-29T12:47:59Z</time>
      </trkpt>
      <trkpt lat="48.61437" lon="1.92819">
        <ele>161.4</ele>
        <time>2025-12-29T12:48:01Z</time>
      </trkpt>
      <trkpt lat="48.61439" lon="1.92822">
        <ele>161.6</ele>
        <time>2025-12-29T12:48:03Z</time>
      </trkpt>
      <trkpt lat="48.6144" lon="1.92825">
        <ele>162</ele>
        <time>2025-12-29T12:48:07Z</time>
      </trkpt>
      <trkpt lat="48.61441" lon="1.92828">
        <ele>162</ele>
        <time>2025-12-29T12:48:10Z</time>
      </trkpt>
      <trkpt lat="48.61442" lon="1.9283">
        <ele>162</ele>
        <time>2025-12-29T12:48:12Z</time>
      </trkpt>
      <trkpt lat="48.61444" lon="1.92832">
        <ele>162.2</ele>
        <time>2025-12-29T12:48:14Z</time>
      </trkpt>
      <trkpt lat="48.61446" lon="1.92834">
        <ele>162.4</ele>
        <time>2025-12-29T12:48:16Z</time>
      </trkpt>
      <trkpt lat="48.61448" lon="1.92836">
        <ele>162.6</ele>
        <time>2025-12-29T12:48:18Z</time>
      </trkpt>
      <trkpt lat="48.6145" lon="1.92838">
        <ele>162.6</ele>
        <time>2025-12-29T12:48:20Z</time>
      </trkpt>
      <trkpt lat="48.61451" lon="1.9284">
        <ele>162.8</ele>
        <time>2025-12-29T12:48:22Z</time>
      </trkpt>
      <trkpt lat="48.61454" lon="1.92842">
        <ele>162.8</ele>
        <time>2025-12-29T12:48:24Z</time>
      </trkpt>
      <trkpt lat="48.61456" lon="1.92844">
        <ele>163</ele>
        <time>2025-12-29T12:48:26Z</time>
      </trkpt>
      <trkpt lat="48.61459" lon="1.92844">
        <ele>163.2</ele>
        <time>2025-12-29T12:48:28Z</time>
      </trkpt>
      <trkpt lat="48.61461" lon="1.92845">
        <ele>163.6</ele>
        <time>2025-12-29T12:48:30Z</time>
      </trkpt>
      <trkpt lat="48.61464" lon="1.92845">
        <ele>163.8</ele>
        <time>2025-12-29T12:48:32Z</time>
      </trkpt>
      <trkpt lat="48.61466" lon="1.92846">
        <ele>164.2</ele>
        <time>2025-12-29T12:48:34Z</time>
      </trkpt>
      <trkpt lat="48.61469" lon="1.92847">
        <ele>164.4</ele>
        <time>2025-12-29T12:48:36Z</time>
      </trkpt>
      <trkpt lat="48.61472" lon="1.92849">
        <ele>164.6</ele>
        <time>2025-12-29T12:48:38Z</time>
      </trkpt>
      <trkpt lat="48.61476" lon="1.92851">
        <ele>164.8</ele>
        <time>2025-12-29T12:48:40Z</time>
      </trkpt>
      <trkpt lat="48.61479" lon="1.92853">
        <ele>165.2</ele>
        <time>2025-12-29T12:48:42Z</time>
      </trkpt>
      <trkpt lat="48.61481" lon="1.92854">
        <ele>165.2</ele>
        <time>2025-12-29T12:48:43Z</time>
      </trkpt>
      <trkpt lat="48.61484" lon="1.92855">
        <ele>165.6</ele>
        <time>2025-12-29T12:48:45Z</time>
      </trkpt>
      <trkpt lat="48.61488" lon="1.92856">
        <ele>166</ele>
        <time>2025-12-29T12:48:47Z</time>
      </trkpt>
      <trkpt lat="48.6149" lon="1.92857">
        <ele>166.4</ele>
        <time>2025-12-29T12:48:49Z</time>
      </trkpt>
      <trkpt lat="48.61492" lon="1.92859">
        <ele>166.8</ele>
        <time>2025-12-29T12:48:51Z</time>
      </trkpt>
      <trkpt lat="48.61493" lon="1.92861">
        <ele>167.2</ele>
        <time>2025-12-29T12:48:53Z</time>
      </trkpt>
      <trkpt lat="48.61494" lon="1.92863">
        <ele>167.8</ele>
        <time>2025-12-29T12:48:56Z</time>
      </trkpt>
      <trkpt lat="48.61496" lon="1.92864">
        <ele>168.2</ele>
        <time>2025-12-29T12:48:58Z</time>
      </trkpt>
      <trkpt lat="48.61499" lon="1.92866">
        <ele>168.6</ele>
        <time>2025-12-29T12:49:00Z</time>
      </trkpt>
      <trkpt lat="48.61501" lon="1.92869">
        <ele>168.8</ele>
        <time>2025-12-29T12:49:02Z</time>
      </trkpt>
      <trkpt lat="48.61504" lon="1.92871">
        <ele>169</ele>
        <time>2025-12-29T12:49:04Z</time>
      </trkpt>
      <trkpt lat="48.61506" lon="1.92872">
        <ele>169.4</ele>
        <time>2025-12-29T12:49:06Z</time>
      </trkpt>
      <trkpt lat="48.61509" lon="1.92874">
        <ele>169.6</ele>
        <time>2025-12-29T12:49:08Z</time>
      </trkpt>
      <trkpt lat="48.61511" lon="1.92876">
        <ele>169.8</ele>
        <time>2025-12-29T12:49:10Z</time>
      </trkpt>
      <trkpt lat="48.61513" lon="1.92879">
        <ele>170</ele>
        <time>2025-12-29T12:49:12Z</time>
      </trkpt>
      <trkpt lat="48.61514" lon="1.92881">
        <ele>170.2</ele>
        <time>2025-12-29T12:49:14Z</time>
      </trkpt>
      <trkpt lat="48.61516" lon="1.92883">
        <ele>170.4</ele>
        <time>2025-12-29T12:49:16Z</time>
      </trkpt>
      <trkpt lat="48.61519" lon="1.92884">
        <ele>170.6</ele>
        <time>2025-12-29T12:49:18Z</time>
      </trkpt>
      <trkpt lat="48.61521" lon="1.92884">
        <ele>170.8</ele>
        <time>2025-12-29T12:49:19Z</time>
      </trkpt>
      <trkpt lat="48.61523" lon="1.92885">
        <ele>170.8</ele>
        <time>2025-12-29T12:49:20Z</time>
      </trkpt>
      <trkpt lat="48.61524" lon="1.92886">
        <ele>171</ele>
        <time>2025-12-29T12:49:21Z</time>
      </trkpt>
      <trkpt lat="48.61527" lon="1.92887">
        <ele>171.2</ele>
        <time>2025-12-29T12:49:22Z</time>
      </trkpt>
      <trkpt lat="48.61529" lon="1.92887">
        <ele>171.2</ele>
        <time>2025-12-29T12:49:23Z</time>
      </trkpt>
      <trkpt lat="48.61531" lon="1.92888">
        <ele>171.4</ele>
        <time>2025-12-29T12:49:24Z</time>
      </trkpt>
      <trkpt lat="48.61532" lon="1.92889">
        <ele>171.4</ele>
        <time>2025-12-29T12:49:25Z</time>
      </trkpt>
      <trkpt lat="48.61534" lon="1.9289">
        <ele>171.6</ele>
        <time>2025-12-29T12:49:26Z</time>
      </trkpt>
      <trkpt lat="48.61538" lon="1.92893">
        <ele>171.8</ele>
        <time>2025-12-29T12:49:28Z</time>
      </trkpt>
      <trkpt lat="48.6154" lon="1.92895">
        <ele>172</ele>
        <time>2025-12-29T12:49:30Z</time>
      </trkpt>
      <trkpt lat="48.61542" lon="1.92896">
        <ele>172.2</ele>
        <time>2025-12-29T12:49:32Z</time>
      </trkpt>
      <trkpt lat="48.61544" lon="1.92898">
        <ele>172.2</ele>
        <time>2025-12-29T12:49:34Z</time>
      </trkpt>
      <trkpt lat="48.61546" lon="1.929">
        <ele>172.2</ele>
        <time>2025-12-29T12:49:36Z</time>
      </trkpt>
      <trkpt lat="48.61548" lon="1.92901">
        <ele>172.2</ele>
        <time>2025-12-29T12:49:38Z</time>
      </trkpt>
      <trkpt lat="48.6155" lon="1.92903">
        <ele>172</ele>
        <time>2025-12-29T12:49:41Z</time>
      </trkpt>
      <trkpt lat="48.61552" lon="1.92905">
        <ele>171.8</ele>
        <time>2025-12-29T12:49:43Z</time>
      </trkpt>
      <trkpt lat="48.61554" lon="1.92906">
        <ele>171.8</ele>
        <time>2025-12-29T12:49:45Z</time>
      </trkpt>
      <trkpt lat="48.61558" lon="1.92908">
        <ele>171.6</ele>
        <time>2025-12-29T12:49:47Z</time>
      </trkpt>
      <trkpt lat="48.6156" lon="1.92909">
        <ele>171.4</ele>
        <time>2025-12-29T12:49:48Z</time>
      </trkpt>
      <trkpt lat="48.61563" lon="1.9291">
        <ele>171.4</ele>
        <time>2025-12-29T12:49:50Z</time>
      </trkpt>
      <trkpt lat="48.61566" lon="1.92911">
        <ele>171.2</ele>
        <time>2025-12-29T12:49:52Z</time>
      </trkpt>
      <trkpt lat="48.61569" lon="1.92912">
        <ele>171</ele>
        <time>2025-12-29T12:49:54Z</time>
      </trkpt>
      <trkpt lat="48.61571" lon="1.92912">
        <ele>171</ele>
        <time>2025-12-29T12:49:56Z</time>
      </trkpt>
      <trkpt lat="48.61573" lon="1.92912">
        <ele>171</ele>
        <time>2025-12-29T12:49:58Z</time>
      </trkpt>
      <trkpt lat="48.61576" lon="1.92912">
        <ele>171</ele>
        <time>2025-12-29T12:50:00Z</time>
      </trkpt>
      <trkpt lat="48.61579" lon="1.92913">
        <ele>171</ele>
        <time>2025-12-29T12:50:02Z</time>
      </trkpt>
      <trkpt lat="48.61581" lon="1.92913">
        <ele>171</ele>
        <time>2025-12-29T12:50:04Z</time>
      </trkpt>
      <trkpt lat="48.61583" lon="1.92913">
        <ele>171</ele>
        <time>2025-12-29T12:50:06Z</time>
      </trkpt>
      <trkpt lat="48.61586" lon="1.92914">
        <ele>171.2</ele>
        <time>2025-12-29T12:50:08Z</time>
      </trkpt>
      <trkpt lat="48.61588" lon="1.92913">
        <ele>171.4</ele>
        <time>2025-12-29T12:50:10Z</time>
      </trkpt>
      <trkpt lat="48.61591" lon="1.92913">
        <ele>171.4</ele>
        <time>2025-12-29T12:50:12Z</time>
      </trkpt>
      <trkpt lat="48.61594" lon="1.92914">
        <ele>171.6</ele>
        <time>2025-12-29T12:50:14Z</time>
      </trkpt>
      <trkpt lat="48.61596" lon="1.92914">
        <ele>171.6</ele>
        <time>2025-12-29T12:50:15Z</time>
      </trkpt>
      <trkpt lat="48.61598" lon="1.92914">
        <ele>171.6</ele>
        <time>2025-12-29T12:50:16Z</time>
      </trkpt>
      <trkpt lat="48.616" lon="1.92915">
        <ele>171.6</ele>
        <time>2025-12-29T12:50:17Z</time>
      </trkpt>
      <trkpt lat="48.61602" lon="1.92916">
        <ele>171.6</ele>
        <time>2025-12-29T12:50:18Z</time>
      </trkpt>
      <trkpt lat="48.61604" lon="1.92916">
        <ele>171.6</ele>
        <time>2025-12-29T12:50:19Z</time>
      </trkpt>
      <trkpt lat="48.61605" lon="1.92917">
        <ele>171.4</ele>
        <time>2025-12-29T12:50:20Z</time>
      </trkpt>
      <trkpt lat="48.61609" lon="1.92918">
        <ele>171.4</ele>
        <time>2025-12-29T12:50:22Z</time>
      </trkpt>
      <trkpt lat="48.61612" lon="1.92919">
        <ele>171.4</ele>
        <time>2025-12-29T12:50:24Z</time>
      </trkpt>
      <trkpt lat="48.61614" lon="1.9292">
        <ele>171.4</ele>
        <time>2025-12-29T12:50:25Z</time>
      </trkpt>
      <trkpt lat="48.61617" lon="1.92921">
        <ele>171.2</ele>
        <time>2025-12-29T12:50:27Z</time>
      </trkpt>
      <trkpt lat="48.6162" lon="1.92923">
        <ele>171.2</ele>
        <time>2025-12-29T12:50:29Z</time>
      </trkpt>
      <trkpt lat="48.61624" lon="1.92925">
        <ele>171.2</ele>
        <time>2025-12-29T12:50:31Z</time>
      </trkpt>
      <trkpt lat="48.61627" lon="1.92927">
        <ele>171.2</ele>
        <time>2025-12-29T12:50:33Z</time>
      </trkpt>
      <trkpt lat="48.61629" lon="1.92928">
        <ele>171.2</ele>
        <time>2025-12-29T12:50:35Z</time>
      </trkpt>
      <trkpt lat="48.61632" lon="1.92929">
        <ele>171.4</ele>
        <time>2025-12-29T12:50:37Z</time>
      </trkpt>
      <trkpt lat="48.61635" lon="1.9293">
        <ele>171.4</ele>
        <time>2025-12-29T12:50:39Z</time>
      </trkpt>
      <trkpt lat="48.61638" lon="1.92931">
        <ele>171.6</ele>
        <time>2025-12-29T12:50:41Z</time>
      </trkpt>
      <trkpt lat="48.61641" lon="1.92933">
        <ele>171.8</ele>
        <time>2025-12-29T12:50:43Z</time>
      </trkpt>
      <trkpt lat="48.61643" lon="1.92935">
        <ele>171.8</ele>
        <time>2025-12-29T12:50:45Z</time>
      </trkpt>
      <trkpt lat="48.61645" lon="1.92939">
        <ele>172</ele>
        <time>2025-12-29T12:50:47Z</time>
      </trkpt>
      <trkpt lat="48.61647" lon="1.92942">
        <ele>172.2</ele>
        <time>2025-12-29T12:50:49Z</time>
      </trkpt>
      <trkpt lat="48.6165" lon="1.92946">
        <ele>172.4</ele>
        <time>2025-12-29T12:50:51Z</time>
      </trkpt>
      <trkpt lat="48.61651" lon="1.92949">
        <ele>172.6</ele>
        <time>2025-12-29T12:50:53Z</time>
      </trkpt>
      <trkpt lat="48.61652" lon="1.92952">
        <ele>172.6</ele>
        <time>2025-12-29T12:50:55Z</time>
      </trkpt>
      <trkpt lat="48.61653" lon="1.92956">
        <ele>172.8</ele>
        <time>2025-12-29T12:50:57Z</time>
      </trkpt>
      <trkpt lat="48.61654" lon="1.9296">
        <ele>172.8</ele>
        <time>2025-12-29T12:50:59Z</time>
      </trkpt>
      <trkpt lat="48.61655" lon="1.92963">
        <ele>173</ele>
        <time>2025-12-29T12:51:01Z</time>
      </trkpt>
      <trkpt lat="48.61655" lon="1.92966">
        <ele>173</ele>
        <time>2025-12-29T12:51:03Z</time>
      </trkpt>
      <trkpt lat="48.61656" lon="1.92969">
        <ele>173.4</ele>
        <time>2025-12-29T12:51:06Z</time>
      </trkpt>
      <trkpt lat="48.61658" lon="1.92971">
        <ele>173.6</ele>
        <time>2025-12-29T12:51:08Z</time>
      </trkpt>
      <trkpt lat="48.6166" lon="1.92974">
        <ele>174</ele>
        <time>2025-12-29T12:51:10Z</time>
      </trkpt>
      <trkpt lat="48.61662" lon="1.92977">
        <ele>174.2</ele>
        <time>2025-12-29T12:51:12Z</time>
      </trkpt>
      <trkpt lat="48.61663" lon="1.9298">
        <ele>174.4</ele>
        <time>2025-12-29T12:51:14Z</time>
      </trkpt>
      <trkpt lat="48.61664" lon="1.92984">
        <ele>174.6</ele>
        <time>2025-12-29T12:51:16Z</time>
      </trkpt>
      <trkpt lat="48.61664" lon="1.92988">
        <ele>174.8</ele>
        <time>2025-12-29T12:51:18Z</time>
      </trkpt>
      <trkpt lat="48.61665" lon="1.92992">
        <ele>174.8</ele>
        <time>2025-12-29T12:51:20Z</time>
      </trkpt>
      <trkpt lat="48.61666" lon="1.92997">
        <ele>174.6</ele>
        <time>2025-12-29T12:51:22Z</time>
      </trkpt>
      <trkpt lat="48.61666" lon="1.93001">
        <ele>174.4</ele>
        <time>2025-12-29T12:51:24Z</time>
      </trkpt>
      <trkpt lat="48.61667" lon="1.93004">
        <ele>174.4</ele>
        <time>2025-12-29T12:51:26Z</time>
      </trkpt>
      <trkpt lat="48.61668" lon="1.93008">
        <ele>174.2</ele>
        <time>2025-12-29T12:51:28Z</time>
      </trkpt>
      <trkpt lat="48.61668" lon="1.93012">
        <ele>174</ele>
        <time>2025-12-29T12:51:30Z</time>
      </trkpt>
      <trkpt lat="48.61668" lon="1.93017">
        <ele>173.8</ele>
        <time>2025-12-29T12:51:32Z</time>
      </trkpt>
      <trkpt lat="48.61668" lon="1.93022">
        <ele>173.8</ele>
        <time>2025-12-29T12:51:34Z</time>
      </trkpt>
      <trkpt lat="48.61668" lon="1.93027">
        <ele>173.6</ele>
        <time>2025-12-29T12:51:36Z</time>
      </trkpt>
      <trkpt lat="48.61668" lon="1.93032">
        <ele>173.4</ele>
        <time>2025-12-29T12:51:38Z</time>
      </trkpt>
      <trkpt lat="48.61669" lon="1.93037">
        <ele>173.4</ele>
        <time>2025-12-29T12:51:40Z</time>
      </trkpt>
      <trkpt lat="48.6167" lon="1.93041">
        <ele>173.4</ele>
        <time>2025-12-29T12:51:42Z</time>
      </trkpt>
      <trkpt lat="48.61671" lon="1.93045">
        <ele>173.2</ele>
        <time>2025-12-29T12:51:44Z</time>
      </trkpt>
      <trkpt lat="48.61671" lon="1.93049">
        <ele>173</ele>
        <time>2025-12-29T12:51:46Z</time>
      </trkpt>
      <trkpt lat="48.61671" lon="1.93052">
        <ele>172.8</ele>
        <time>2025-12-29T12:51:48Z</time>
      </trkpt>
      <trkpt lat="48.61671" lon="1.93055">
        <ele>172.6</ele>
        <time>2025-12-29T12:51:50Z</time>
      </trkpt>
      <trkpt lat="48.61671" lon="1.93058">
        <ele>172.4</ele>
        <time>2025-12-29T12:51:52Z</time>
      </trkpt>
      <trkpt lat="48.6167" lon="1.93061">
        <ele>172.2</ele>
        <time>2025-12-29T12:51:54Z</time>
      </trkpt>
      <trkpt lat="48.6167" lon="1.93064">
        <ele>171.6</ele>
        <time>2025-12-29T12:51:56Z</time>
      </trkpt>
      <trkpt lat="48.6167" lon="1.93067">
        <ele>171.2</ele>
        <time>2025-12-29T12:51:58Z</time>
      </trkpt>
      <trkpt lat="48.61671" lon="1.93072">
        <ele>170.8</ele>
        <time>2025-12-29T12:52:00Z</time>
      </trkpt>
      <trkpt lat="48.61671" lon="1.93077">
        <ele>170.6</ele>
        <time>2025-12-29T12:52:02Z</time>
      </trkpt>
      <trkpt lat="48.61671" lon="1.93082">
        <ele>170.4</ele>
        <time>2025-12-29T12:52:04Z</time>
      </trkpt>
      <trkpt lat="48.61672" lon="1.93087">
        <ele>170.2</ele>
        <time>2025-12-29T12:52:06Z</time>
      </trkpt>
      <trkpt lat="48.61673" lon="1.93092">
        <ele>169.8</ele>
        <time>2025-12-29T12:52:08Z</time>
      </trkpt>
      <trkpt lat="48.61673" lon="1.93097">
        <ele>169.6</ele>
        <time>2025-12-29T12:52:10Z</time>
      </trkpt>
      <trkpt lat="48.61673" lon="1.93102">
        <ele>169.4</ele>
        <time>2025-12-29T12:52:12Z</time>
      </trkpt>
      <trkpt lat="48.61674" lon="1.93106">
        <ele>169.4</ele>
        <time>2025-12-29T12:52:14Z</time>
      </trkpt>
      <trkpt lat="48.61675" lon="1.93112">
        <ele>169.4</ele>
        <time>2025-12-29T12:52:17Z</time>
      </trkpt>
      <trkpt lat="48.61676" lon="1.93116">
        <ele>169.2</ele>
        <time>2025-12-29T12:52:19Z</time>
      </trkpt>
      <trkpt lat="48.61675" lon="1.93119">
        <ele>169.2</ele>
        <time>2025-12-29T12:52:21Z</time>
      </trkpt>
      <trkpt lat="48.61675" lon="1.93123">
        <ele>169.2</ele>
        <time>2025-12-29T12:52:23Z</time>
      </trkpt>
      <trkpt lat="48.61674" lon="1.93128">
        <ele>169.2</ele>
        <time>2025-12-29T12:52:25Z</time>
      </trkpt>
      <trkpt lat="48.61674" lon="1.93132">
        <ele>169.2</ele>
        <time>2025-12-29T12:52:27Z</time>
      </trkpt>
      <trkpt lat="48.61674" lon="1.93136">
        <ele>169.4</ele>
        <time>2025-12-29T12:52:29Z</time>
      </trkpt>
      <trkpt lat="48.61675" lon="1.9314">
        <ele>169.6</ele>
        <time>2025-12-29T12:52:31Z</time>
      </trkpt>
      <trkpt lat="48.61675" lon="1.93144">
        <ele>169.6</ele>
        <time>2025-12-29T12:52:33Z</time>
      </trkpt>
      <trkpt lat="48.61675" lon="1.93148">
        <ele>169.6</ele>
        <time>2025-12-29T12:52:35Z</time>
      </trkpt>
      <trkpt lat="48.61675" lon="1.93152">
        <ele>169.4</ele>
        <time>2025-12-29T12:52:37Z</time>
      </trkpt>
      <trkpt lat="48.61676" lon="1.93157">
        <ele>169.4</ele>
        <time>2025-12-29T12:52:39Z</time>
      </trkpt>
      <trkpt lat="48.61676" lon="1.93161">
        <ele>169.6</ele>
        <time>2025-12-29T12:52:41Z</time>
      </trkpt>
      <trkpt lat="48.61677" lon="1.93166">
        <ele>169.6</ele>
        <time>2025-12-29T12:52:43Z</time>
      </trkpt>
      <trkpt lat="48.61678" lon="1.9317">
        <ele>169.6</ele>
        <time>2025-12-29T12:52:45Z</time>
      </trkpt>
      <trkpt lat="48.61679" lon="1.93175">
        <ele>169.8</ele>
        <time>2025-12-29T12:52:47Z</time>
      </trkpt>
      <trkpt lat="48.61681" lon="1.93179">
        <ele>169.8</ele>
        <time>2025-12-29T12:52:49Z</time>
      </trkpt>
      <trkpt lat="48.61682" lon="1.93184">
        <ele>169.8</ele>
        <time>2025-12-29T12:52:51Z</time>
      </trkpt>
      <trkpt lat="48.61683" lon="1.93188">
        <ele>169.8</ele>
        <time>2025-12-29T12:52:53Z</time>
      </trkpt>
      <trkpt lat="48.61684" lon="1.93192">
        <ele>169.6</ele>
        <time>2025-12-29T12:52:55Z</time>
      </trkpt>
      <trkpt lat="48.61684" lon="1.93196">
        <ele>169.4</ele>
        <time>2025-12-29T12:52:57Z</time>
      </trkpt>
      <trkpt lat="48.61684" lon="1.932">
        <ele>169.4</ele>
        <time>2025-12-29T12:52:59Z</time>
      </trkpt>
      <trkpt lat="48.61684" lon="1.93204">
        <ele>169.2</ele>
        <time>2025-12-29T12:53:01Z</time>
      </trkpt>
      <trkpt lat="48.61685" lon="1.93208">
        <ele>169.2</ele>
        <time>2025-12-29T12:53:03Z</time>
      </trkpt>
      <trkpt lat="48.61685" lon="1.93211">
        <ele>169.2</ele>
        <time>2025-12-29T12:53:05Z</time>
      </trkpt>
      <trkpt lat="48.61684" lon="1.93214">
        <ele>169.2</ele>
        <time>2025-12-29T12:53:07Z</time>
      </trkpt>
      <trkpt lat="48.61684" lon="1.93218">
        <ele>169.4</ele>
        <time>2025-12-29T12:53:09Z</time>
      </trkpt>
      <trkpt lat="48.61684" lon="1.93223">
        <ele>169.4</ele>
        <time>2025-12-29T12:53:11Z</time>
      </trkpt>
      <trkpt lat="48.61683" lon="1.93228">
        <ele>169.6</ele>
        <time>2025-12-29T12:53:13Z</time>
      </trkpt>
      <trkpt lat="48.61683" lon="1.93231">
        <ele>169.6</ele>
        <time>2025-12-29T12:53:14Z</time>
      </trkpt>
      <trkpt lat="48.61682" lon="1.93235">
        <ele>169.8</ele>
        <time>2025-12-29T12:53:15Z</time>
      </trkpt>
      <trkpt lat="48.61682" lon="1.93238">
        <ele>169.8</ele>
        <time>2025-12-29T12:53:16Z</time>
      </trkpt>
      <trkpt lat="48.61681" lon="1.93242">
        <ele>170</ele>
        <time>2025-12-29T12:53:17Z</time>
      </trkpt>
      <trkpt lat="48.61681" lon="1.93246">
        <ele>170.2</ele>
        <time>2025-12-29T12:53:18Z</time>
      </trkpt>
      <trkpt lat="48.6168" lon="1.93251">
        <ele>170.4</ele>
        <time>2025-12-29T12:53:19Z</time>
      </trkpt>
      <trkpt lat="48.6168" lon="1.93255">
        <ele>170.4</ele>
        <time>2025-12-29T12:53:20Z</time>
      </trkpt>
      <trkpt lat="48.61679" lon="1.9326">
        <ele>170.6</ele>
        <time>2025-12-29T12:53:21Z</time>
      </trkpt>
      <trkpt lat="48.61679" lon="1.93264">
        <ele>170.6</ele>
        <time>2025-12-29T12:53:22Z</time>
      </trkpt>
      <trkpt lat="48.61678" lon="1.93269">
        <ele>170.8</ele>
        <time>2025-12-29T12:53:23Z</time>
      </trkpt>
      <trkpt lat="48.61678" lon="1.93274">
        <ele>170.8</ele>
        <time>2025-12-29T12:53:24Z</time>
      </trkpt>
      <trkpt lat="48.61677" lon="1.93279">
        <ele>171</ele>
        <time>2025-12-29T12:53:25Z</time>
      </trkpt>
      <trkpt lat="48.61677" lon="1.93285">
        <ele>171</ele>
        <time>2025-12-29T12:53:26Z</time>
      </trkpt>
      <trkpt lat="48.61677" lon="1.9329">
        <ele>171</ele>
        <time>2025-12-29T12:53:27Z</time>
      </trkpt>
      <trkpt lat="48.61676" lon="1.93296">
        <ele>171.2</ele>
        <time>2025-12-29T12:53:28Z</time>
      </trkpt>
      <trkpt lat="48.61676" lon="1.93301">
        <ele>171.2</ele>
        <time>2025-12-29T12:53:29Z</time>
      </trkpt>
      <trkpt lat="48.61676" lon="1.93307">
        <ele>171.2</ele>
        <time>2025-12-29T12:53:30Z</time>
      </trkpt>
      <trkpt lat="48.61675" lon="1.93313">
        <ele>171.4</ele>
        <time>2025-12-29T12:53:31Z</time>
      </trkpt>
      <trkpt lat="48.61675" lon="1.93319">
        <ele>171.4</ele>
        <time>2025-12-29T12:53:32Z</time>
      </trkpt>
      <trkpt lat="48.61675" lon="1.93326">
        <ele>171.4</ele>
        <time>2025-12-29T12:53:33Z</time>
      </trkpt>
      <trkpt lat="48.61675" lon="1.93332">
        <ele>171.4</ele>
        <time>2025-12-29T12:53:34Z</time>
      </trkpt>
      <trkpt lat="48.61676" lon="1.93339">
        <ele>171.6</ele>
        <time>2025-12-29T12:53:35Z</time>
      </trkpt>
      <trkpt lat="48.61676" lon="1.93345">
        <ele>171.6</ele>
        <time>2025-12-29T12:53:36Z</time>
      </trkpt>
      <trkpt lat="48.61676" lon="1.93352">
        <ele>171.6</ele>
        <time>2025-12-29T12:53:37Z</time>
      </trkpt>
      <trkpt lat="48.61676" lon="1.93358">
        <ele>171.8</ele>
        <time>2025-12-29T12:53:38Z</time>
      </trkpt>
      <trkpt lat="48.61676" lon="1.93364">
        <ele>171.8</ele>
        <time>2025-12-29T12:53:39Z</time>
      </trkpt>
      <trkpt lat="48.61676" lon="1.9337">
        <ele>172</ele>
        <time>2025-12-29T12:53:40Z</time>
      </trkpt>
      <trkpt lat="48.61675" lon="1.93376">
        <ele>172</ele>
        <time>2025-12-29T12:53:41Z</time>
      </trkpt>
      <trkpt lat="48.61675" lon="1.93382">
        <ele>172</ele>
        <time>2025-12-29T12:53:42Z</time>
      </trkpt>
      <trkpt lat="48.61675" lon="1.93388">
        <ele>172</ele>
        <time>2025-12-29T12:53:43Z</time>
      </trkpt>
      <trkpt lat="48.61674" lon="1.93394">
        <ele>171.8</ele>
        <time>2025-12-29T12:53:44Z</time>
      </trkpt>
      <trkpt lat="48.61673" lon="1.934">
        <ele>171.8</ele>
        <time>2025-12-29T12:53:45Z</time>
      </trkpt>
      <trkpt lat="48.61673" lon="1.93406">
        <ele>171.8</ele>
        <time>2025-12-29T12:53:46Z</time>
      </trkpt>
      <trkpt lat="48.61673" lon="1.93413">
        <ele>171.8</ele>
        <time>2025-12-29T12:53:47Z</time>
      </trkpt>
      <trkpt lat="48.61672" lon="1.93419">
        <ele>171.8</ele>
        <time>2025-12-29T12:53:48Z</time>
      </trkpt>
      <trkpt lat="48.61671" lon="1.93425">
        <ele>171.8</ele>
        <time>2025-12-29T12:53:49Z</time>
      </trkpt>
      <trkpt lat="48.61671" lon="1.93432">
        <ele>171.8</ele>
        <time>2025-12-29T12:53:50Z</time>
      </trkpt>
      <trkpt lat="48.61671" lon="1.93438">
        <ele>171.8</ele>
        <time>2025-12-29T12:53:51Z</time>
      </trkpt>
      <trkpt lat="48.61671" lon="1.93444">
        <ele>171.8</ele>
        <time>2025-12-29T12:53:52Z</time>
      </trkpt>
      <trkpt lat="48.61671" lon="1.93449">
        <ele>171.8</ele>
        <time>2025-12-29T12:53:53Z</time>
      </trkpt>
      <trkpt lat="48.61671" lon="1.93455">
        <ele>172</ele>
        <time>2025-12-29T12:53:54Z</time>
      </trkpt>
      <trkpt lat="48.61671" lon="1.93461">
        <ele>172</ele>
        <time>2025-12-29T12:53:55Z</time>
      </trkpt>
      <trkpt lat="48.61671" lon="1.93466">
        <ele>172</ele>
        <time>2025-12-29T12:53:56Z</time>
      </trkpt>
      <trkpt lat="48.6167" lon="1.93472">
        <ele>172</ele>
        <time>2025-12-29T12:53:57Z</time>
      </trkpt>
      <trkpt lat="48.6167" lon="1.93477">
        <ele>172</ele>
        <time>2025-12-29T12:53:58Z</time>
      </trkpt>
      <trkpt lat="48.61669" lon="1.93483">
        <ele>171.8</ele>
        <time>2025-12-29T12:53:59Z</time>
      </trkpt>
      <trkpt lat="48.61668" lon="1.93488">
        <ele>171.8</ele>
        <time>2025-12-29T12:54:00Z</time>
      </trkpt>
      <trkpt lat="48.61668" lon="1.93493">
        <ele>171.8</ele>
        <time>2025-12-29T12:54:01Z</time>
      </trkpt>
      <trkpt lat="48.61667" lon="1.93498">
        <ele>171.8</ele>
        <time>2025-12-29T12:54:02Z</time>
      </trkpt>
      <trkpt lat="48.61667" lon="1.93502">
        <ele>171.8</ele>
        <time>2025-12-29T12:54:03Z</time>
      </trkpt>
      <trkpt lat="48.61666" lon="1.93507">
        <ele>171.6</ele>
        <time>2025-12-29T12:54:04Z</time>
      </trkpt>
      <trkpt lat="48.61665" lon="1.93511">
        <ele>171.6</ele>
        <time>2025-12-29T12:54:05Z</time>
      </trkpt>
      <trkpt lat="48.61664" lon="1.93515">
        <ele>171.8</ele>
        <time>2025-12-29T12:54:06Z</time>
      </trkpt>
      <trkpt lat="48.61663" lon="1.9352">
        <ele>171.8</ele>
        <time>2025-12-29T12:54:07Z</time>
      </trkpt>
      <trkpt lat="48.61663" lon="1.93524">
        <ele>171.8</ele>
        <time>2025-12-29T12:54:08Z</time>
      </trkpt>
      <trkpt lat="48.61662" lon="1.93529">
        <ele>171.8</ele>
        <time>2025-12-29T12:54:09Z</time>
      </trkpt>
      <trkpt lat="48.61661" lon="1.93534">
        <ele>171.6</ele>
        <time>2025-12-29T12:54:10Z</time>
      </trkpt>
      <trkpt lat="48.61661" lon="1.93539">
        <ele>171.6</ele>
        <time>2025-12-29T12:54:11Z</time>
      </trkpt>
      <trkpt lat="48.61661" lon="1.93545">
        <ele>171.6</ele>
        <time>2025-12-29T12:54:12Z</time>
      </trkpt>
      <trkpt lat="48.6166" lon="1.93551">
        <ele>171.6</ele>
        <time>2025-12-29T12:54:13Z</time>
      </trkpt>
      <trkpt lat="48.61659" lon="1.93556">
        <ele>171.6</ele>
        <time>2025-12-29T12:54:14Z</time>
      </trkpt>
      <trkpt lat="48.61659" lon="1.93562">
        <ele>171.6</ele>
        <time>2025-12-29T12:54:15Z</time>
      </trkpt>
      <trkpt lat="48.61657" lon="1.93567">
        <ele>171.6</ele>
        <time>2025-12-29T12:54:16Z</time>
      </trkpt>
      <trkpt lat="48.61656" lon="1.93573">
        <ele>171.6</ele>
        <time>2025-12-29T12:54:17Z</time>
      </trkpt>
      <trkpt lat="48.61655" lon="1.93579">
        <ele>171.4</ele>
        <time>2025-12-29T12:54:18Z</time>
      </trkpt>
      <trkpt lat="48.61653" lon="1.93584">
        <ele>171.4</ele>
        <time>2025-12-29T12:54:19Z</time>
      </trkpt>
      <trkpt lat="48.61652" lon="1.93591">
        <ele>171.4</ele>
        <time>2025-12-29T12:54:20Z</time>
      </trkpt>
      <trkpt lat="48.6165" lon="1.93596">
        <ele>171.4</ele>
        <time>2025-12-29T12:54:21Z</time>
      </trkpt>
      <trkpt lat="48.61648" lon="1.93602">
        <ele>171.2</ele>
        <time>2025-12-29T12:54:22Z</time>
      </trkpt>
      <trkpt lat="48.61646" lon="1.93608">
        <ele>171</ele>
        <time>2025-12-29T12:54:23Z</time>
      </trkpt>
      <trkpt lat="48.61644" lon="1.93613">
        <ele>171</ele>
        <time>2025-12-29T12:54:24Z</time>
      </trkpt>
      <trkpt lat="48.61642" lon="1.93618">
        <ele>170.8</ele>
        <time>2025-12-29T12:54:25Z</time>
      </trkpt>
      <trkpt lat="48.61641" lon="1.93623">
        <ele>170.6</ele>
        <time>2025-12-29T12:54:26Z</time>
      </trkpt>
      <trkpt lat="48.61639" lon="1.93628">
        <ele>170.6</ele>
        <time>2025-12-29T12:54:27Z</time>
      </trkpt>
      <trkpt lat="48.61638" lon="1.93632">
        <ele>170.4</ele>
        <time>2025-12-29T12:54:28Z</time>
      </trkpt>
      <trkpt lat="48.61637" lon="1.93637">
        <ele>170.2</ele>
        <time>2025-12-29T12:54:29Z</time>
      </trkpt>
      <trkpt lat="48.61636" lon="1.93641">
        <ele>170.2</ele>
        <time>2025-12-29T12:54:30Z</time>
      </trkpt>
      <trkpt lat="48.61635" lon="1.93646">
        <ele>170</ele>
        <time>2025-12-29T12:54:31Z</time>
      </trkpt>
      <trkpt lat="48.61635" lon="1.93649">
        <ele>170</ele>
        <time>2025-12-29T12:54:32Z</time>
      </trkpt>
      <trkpt lat="48.61633" lon="1.93653">
        <ele>170</ele>
        <time>2025-12-29T12:54:33Z</time>
      </trkpt>
      <trkpt lat="48.61632" lon="1.93657">
        <ele>169.8</ele>
        <time>2025-12-29T12:54:34Z</time>
      </trkpt>
      <trkpt lat="48.6163" lon="1.93662">
        <ele>169.8</ele>
        <time>2025-12-29T12:54:35Z</time>
      </trkpt>
      <trkpt lat="48.61629" lon="1.93666">
        <ele>169.6</ele>
        <time>2025-12-29T12:54:36Z</time>
      </trkpt>
      <trkpt lat="48.61627" lon="1.93671">
        <ele>169.6</ele>
        <time>2025-12-29T12:54:37Z</time>
      </trkpt>
      <trkpt lat="48.61625" lon="1.93676">
        <ele>169.4</ele>
        <time>2025-12-29T12:54:38Z</time>
      </trkpt>
      <trkpt lat="48.61623" lon="1.9368">
        <ele>169.4</ele>
        <time>2025-12-29T12:54:39Z</time>
      </trkpt>
      <trkpt lat="48.61621" lon="1.93685">
        <ele>169.2</ele>
        <time>2025-12-29T12:54:40Z</time>
      </trkpt>
      <trkpt lat="48.6162" lon="1.93689">
        <ele>169.2</ele>
        <time>2025-12-29T12:54:41Z</time>
      </trkpt>
      <trkpt lat="48.61619" lon="1.93694">
        <ele>169</ele>
        <time>2025-12-29T12:54:42Z</time>
      </trkpt>
      <trkpt lat="48.61617" lon="1.93697">
        <ele>169</ele>
        <time>2025-12-29T12:54:43Z</time>
      </trkpt>
      <trkpt lat="48.61616" lon="1.93701">
        <ele>168.8</ele>
        <time>2025-12-29T12:54:44Z</time>
      </trkpt>
      <trkpt lat="48.61614" lon="1.93704">
        <ele>168.8</ele>
        <time>2025-12-29T12:54:45Z</time>
      </trkpt>
      <trkpt lat="48.61613" lon="1.93707">
        <ele>168.6</ele>
        <time>2025-12-29T12:54:46Z</time>
      </trkpt>
      <trkpt lat="48.61611" lon="1.93709">
        <ele>168.6</ele>
        <time>2025-12-29T12:54:47Z</time>
      </trkpt>
      <trkpt lat="48.61609" lon="1.93712">
        <ele>168.4</ele>
        <time>2025-12-29T12:54:48Z</time>
      </trkpt>
      <trkpt lat="48.61607" lon="1.93716">
        <ele>168.4</ele>
        <time>2025-12-29T12:54:49Z</time>
      </trkpt>
      <trkpt lat="48.61605" lon="1.93719">
        <ele>168.4</ele>
        <time>2025-12-29T12:54:50Z</time>
      </trkpt>
      <trkpt lat="48.61603" lon="1.93722">
        <ele>168.2</ele>
        <time>2025-12-29T12:54:51Z</time>
      </trkpt>
      <trkpt lat="48.61601" lon="1.93725">
        <ele>168.2</ele>
        <time>2025-12-29T12:54:52Z</time>
      </trkpt>
      <trkpt lat="48.61599" lon="1.93728">
        <ele>168.2</ele>
        <time>2025-12-29T12:54:53Z</time>
      </trkpt>
      <trkpt lat="48.61598" lon="1.93731">
        <ele>168.2</ele>
        <time>2025-12-29T12:54:54Z</time>
      </trkpt>
      <trkpt lat="48.61597" lon="1.93734">
        <ele>168</ele>
        <time>2025-12-29T12:54:55Z</time>
      </trkpt>
      <trkpt lat="48.61596" lon="1.93736">
        <ele>168</ele>
        <time>2025-12-29T12:54:56Z</time>
      </trkpt>
      <trkpt lat="48.61594" lon="1.93739">
        <ele>168</ele>
        <time>2025-12-29T12:54:57Z</time>
      </trkpt>
      <trkpt lat="48.61592" lon="1.93742">
        <ele>168</ele>
        <time>2025-12-29T12:54:58Z</time>
      </trkpt>
      <trkpt lat="48.6159" lon="1.93746">
        <ele>168</ele>
        <time>2025-12-29T12:54:59Z</time>
      </trkpt>
      <trkpt lat="48.61587" lon="1.93749">
        <ele>168</ele>
        <time>2025-12-29T12:55:00Z</time>
      </trkpt>
      <trkpt lat="48.61585" lon="1.93753">
        <ele>168</ele>
        <time>2025-12-29T12:55:01Z</time>
      </trkpt>
      <trkpt lat="48.61583" lon="1.93756">
        <ele>168</ele>
        <time>2025-12-29T12:55:02Z</time>
      </trkpt>
      <trkpt lat="48.61581" lon="1.93759">
        <ele>168</ele>
        <time>2025-12-29T12:55:03Z</time>
      </trkpt>
      <trkpt lat="48.61579" lon="1.93763">
        <ele>168</ele>
        <time>2025-12-29T12:55:04Z</time>
      </trkpt>
      <trkpt lat="48.61577" lon="1.93766">
        <ele>168</ele>
        <time>2025-12-29T12:55:05Z</time>
      </trkpt>
      <trkpt lat="48.61575" lon="1.93769">
        <ele>168</ele>
        <time>2025-12-29T12:55:06Z</time>
      </trkpt>
      <trkpt lat="48.61573" lon="1.93772">
        <ele>168</ele>
        <time>2025-12-29T12:55:07Z</time>
      </trkpt>
      <trkpt lat="48.61571" lon="1.93776">
        <ele>168</ele>
        <time>2025-12-29T12:55:08Z</time>
      </trkpt>
      <trkpt lat="48.61569" lon="1.93779">
        <ele>168</ele>
        <time>2025-12-29T12:55:09Z</time>
      </trkpt>
      <trkpt lat="48.61568" lon="1.93782">
        <ele>168</ele>
        <time>2025-12-29T12:55:10Z</time>
      </trkpt>
      <trkpt lat="48.61566" lon="1.93786">
        <ele>168</ele>
        <time>2025-12-29T12:55:11Z</time>
      </trkpt>
      <trkpt lat="48.61565" lon="1.93789">
        <ele>168</ele>
        <time>2025-12-29T12:55:12Z</time>
      </trkpt>
      <trkpt lat="48.61564" lon="1.93793">
        <ele>168</ele>
        <time>2025-12-29T12:55:13Z</time>
      </trkpt>
      <trkpt lat="48.61562" lon="1.93797">
        <ele>168</ele>
        <time>2025-12-29T12:55:14Z</time>
      </trkpt>
      <trkpt lat="48.6156" lon="1.938">
        <ele>168</ele>
        <time>2025-12-29T12:55:15Z</time>
      </trkpt>
      <trkpt lat="48.61558" lon="1.93804">
        <ele>168</ele>
        <time>2025-12-29T12:55:16Z</time>
      </trkpt>
      <trkpt lat="48.61556" lon="1.93808">
        <ele>167.8</ele>
        <time>2025-12-29T12:55:17Z</time>
      </trkpt>
      <trkpt lat="48.61554" lon="1.93813">
        <ele>167.8</ele>
        <time>2025-12-29T12:55:18Z</time>
      </trkpt>
      <trkpt lat="48.61552" lon="1.93817">
        <ele>167.8</ele>
        <time>2025-12-29T12:55:19Z</time>
      </trkpt>
      <trkpt lat="48.6155" lon="1.93822">
        <ele>167.8</ele>
        <time>2025-12-29T12:55:20Z</time>
      </trkpt>
      <trkpt lat="48.61548" lon="1.93826">
        <ele>167.8</ele>
        <time>2025-12-29T12:55:21Z</time>
      </trkpt>
      <trkpt lat="48.61545" lon="1.93831">
        <ele>167.8</ele>
        <time>2025-12-29T12:55:22Z</time>
      </trkpt>
      <trkpt lat="48.61542" lon="1.93836">
        <ele>168</ele>
        <time>2025-12-29T12:55:23Z</time>
      </trkpt>
      <trkpt lat="48.6154" lon="1.93841">
        <ele>168</ele>
        <time>2025-12-29T12:55:24Z</time>
      </trkpt>
      <trkpt lat="48.61537" lon="1.93846">
        <ele>168</ele>
        <time>2025-12-29T12:55:25Z</time>
      </trkpt>
      <trkpt lat="48.61534" lon="1.93851">
        <ele>168</ele>
        <time>2025-12-29T12:55:26Z</time>
      </trkpt>
      <trkpt lat="48.61532" lon="1.93856">
        <ele>168</ele>
        <time>2025-12-29T12:55:27Z</time>
      </trkpt>
      <trkpt lat="48.61529" lon="1.93861">
        <ele>168</ele>
        <time>2025-12-29T12:55:28Z</time>
      </trkpt>
      <trkpt lat="48.61526" lon="1.93866">
        <ele>168.2</ele>
        <time>2025-12-29T12:55:29Z</time>
      </trkpt>
      <trkpt lat="48.61523" lon="1.93871">
        <ele>168.2</ele>
        <time>2025-12-29T12:55:30Z</time>
      </trkpt>
      <trkpt lat="48.6152" lon="1.93876">
        <ele>168.2</ele>
        <time>2025-12-29T12:55:31Z</time>
      </trkpt>
      <trkpt lat="48.61517" lon="1.93881">
        <ele>168.2</ele>
        <time>2025-12-29T12:55:32Z</time>
      </trkpt>
      <trkpt lat="48.61514" lon="1.93886">
        <ele>168.2</ele>
        <time>2025-12-29T12:55:33Z</time>
      </trkpt>
      <trkpt lat="48.61511" lon="1.93892">
        <ele>168.2</ele>
        <time>2025-12-29T12:55:34Z</time>
      </trkpt>
      <trkpt lat="48.61508" lon="1.93898">
        <ele>168.4</ele>
        <time>2025-12-29T12:55:35Z</time>
      </trkpt>
      <trkpt lat="48.61506" lon="1.93904">
        <ele>168.4</ele>
        <time>2025-12-29T12:55:36Z</time>
      </trkpt>
      <trkpt lat="48.61503" lon="1.9391">
        <ele>168.4</ele>
        <time>2025-12-29T12:55:37Z</time>
      </trkpt>
      <trkpt lat="48.615" lon="1.93916">
        <ele>168.4</ele>
        <time>2025-12-29T12:55:38Z</time>
      </trkpt>
      <trkpt lat="48.61498" lon="1.93922">
        <ele>168.4</ele>
        <time>2025-12-29T12:55:39Z</time>
      </trkpt>
      <trkpt lat="48.61495" lon="1.93928">
        <ele>168.6</ele>
        <time>2025-12-29T12:55:40Z</time>
      </trkpt>
      <trkpt lat="48.61492" lon="1.93933">
        <ele>168.6</ele>
        <time>2025-12-29T12:55:41Z</time>
      </trkpt>
      <trkpt lat="48.6149" lon="1.93938">
        <ele>168.6</ele>
        <time>2025-12-29T12:55:42Z</time>
      </trkpt>
      <trkpt lat="48.61488" lon="1.93942">
        <ele>168.8</ele>
        <time>2025-12-29T12:55:43Z</time>
      </trkpt>
      <trkpt lat="48.61487" lon="1.93945">
        <ele>168.8</ele>
        <time>2025-12-29T12:55:44Z</time>
      </trkpt>
      <trkpt lat="48.61485" lon="1.93948">
        <ele>168.8</ele>
        <time>2025-12-29T12:55:45Z</time>
      </trkpt>
      <trkpt lat="48.61484" lon="1.93952">
        <ele>168.8</ele>
        <time>2025-12-29T12:55:46Z</time>
      </trkpt>
      <trkpt lat="48.61482" lon="1.93955">
        <ele>169</ele>
        <time>2025-12-29T12:55:47Z</time>
      </trkpt>
      <trkpt lat="48.6148" lon="1.93958">
        <ele>169</ele>
        <time>2025-12-29T12:55:48Z</time>
      </trkpt>
      <trkpt lat="48.61478" lon="1.93962">
        <ele>169</ele>
        <time>2025-12-29T12:55:49Z</time>
      </trkpt>
      <trkpt lat="48.61476" lon="1.93966">
        <ele>169</ele>
        <time>2025-12-29T12:55:50Z</time>
      </trkpt>
      <trkpt lat="48.61474" lon="1.9397">
        <ele>169.2</ele>
        <time>2025-12-29T12:55:51Z</time>
      </trkpt>
      <trkpt lat="48.61472" lon="1.93974">
        <ele>169.2</ele>
        <time>2025-12-29T12:55:52Z</time>
      </trkpt>
      <trkpt lat="48.61469" lon="1.93978">
        <ele>169.2</ele>
        <time>2025-12-29T12:55:53Z</time>
      </trkpt>
      <trkpt lat="48.61467" lon="1.93983">
        <ele>169.2</ele>
        <time>2025-12-29T12:55:54Z</time>
      </trkpt>
      <trkpt lat="48.61465" lon="1.93987">
        <ele>169.2</ele>
        <time>2025-12-29T12:55:55Z</time>
      </trkpt>
      <trkpt lat="48.61463" lon="1.93992">
        <ele>169.4</ele>
        <time>2025-12-29T12:55:56Z</time>
      </trkpt>
      <trkpt lat="48.61461" lon="1.93997">
        <ele>169.4</ele>
        <time>2025-12-29T12:55:57Z</time>
      </trkpt>
      <trkpt lat="48.61459" lon="1.94002">
        <ele>169.4</ele>
        <time>2025-12-29T12:55:58Z</time>
      </trkpt>
      <trkpt lat="48.61457" lon="1.94007">
        <ele>169.4</ele>
        <time>2025-12-29T12:55:59Z</time>
      </trkpt>
      <trkpt lat="48.61454" lon="1.94012">
        <ele>169.4</ele>
        <time>2025-12-29T12:56:00Z</time>
      </trkpt>
      <trkpt lat="48.61452" lon="1.94017">
        <ele>169.6</ele>
        <time>2025-12-29T12:56:01Z</time>
      </trkpt>
      <trkpt lat="48.61449" lon="1.94022">
        <ele>169.6</ele>
        <time>2025-12-29T12:56:02Z</time>
      </trkpt>
      <trkpt lat="48.61447" lon="1.94027">
        <ele>169.6</ele>
        <time>2025-12-29T12:56:03Z</time>
      </trkpt>
      <trkpt lat="48.61444" lon="1.94031">
        <ele>169.6</ele>
        <time>2025-12-29T12:56:04Z</time>
      </trkpt>
      <trkpt lat="48.61442" lon="1.94036">
        <ele>169.6</ele>
        <time>2025-12-29T12:56:05Z</time>
      </trkpt>
      <trkpt lat="48.6144" lon="1.9404">
        <ele>169.6</ele>
        <time>2025-12-29T12:56:06Z</time>
      </trkpt>
      <trkpt lat="48.61438" lon="1.94044">
        <ele>169.8</ele>
        <time>2025-12-29T12:56:07Z</time>
      </trkpt>
      <trkpt lat="48.61436" lon="1.94048">
        <ele>169.8</ele>
        <time>2025-12-29T12:56:08Z</time>
      </trkpt>
      <trkpt lat="48.61434" lon="1.94052">
        <ele>169.8</ele>
        <time>2025-12-29T12:56:09Z</time>
      </trkpt>
      <trkpt lat="48.61432" lon="1.94055">
        <ele>169.8</ele>
        <time>2025-12-29T12:56:10Z</time>
      </trkpt>
      <trkpt lat="48.6143" lon="1.94058">
        <ele>169.8</ele>
        <time>2025-12-29T12:56:11Z</time>
      </trkpt>
      <trkpt lat="48.61428" lon="1.94062">
        <ele>169.8</ele>
        <time>2025-12-29T12:56:12Z</time>
      </trkpt>
      <trkpt lat="48.61426" lon="1.94065">
        <ele>169.6</ele>
        <time>2025-12-29T12:56:13Z</time>
      </trkpt>
      <trkpt lat="48.61423" lon="1.94069">
        <ele>169.6</ele>
        <time>2025-12-29T12:56:14Z</time>
      </trkpt>
      <trkpt lat="48.6142" lon="1.94073">
        <ele>169.6</ele>
        <time>2025-12-29T12:56:15Z</time>
      </trkpt>
      <trkpt lat="48.61418" lon="1.94077">
        <ele>169.8</ele>
        <time>2025-12-29T12:56:16Z</time>
      </trkpt>
      <trkpt lat="48.61415" lon="1.94082">
        <ele>169.8</ele>
        <time>2025-12-29T12:56:17Z</time>
      </trkpt>
      <trkpt lat="48.61413" lon="1.94087">
        <ele>169.8</ele>
        <time>2025-12-29T12:56:18Z</time>
      </trkpt>
      <trkpt lat="48.61411" lon="1.94091">
        <ele>169.6</ele>
        <time>2025-12-29T12:56:19Z</time>
      </trkpt>
      <trkpt lat="48.61409" lon="1.94096">
        <ele>169.6</ele>
        <time>2025-12-29T12:56:20Z</time>
      </trkpt>
      <trkpt lat="48.61406" lon="1.94101">
        <ele>169.6</ele>
        <time>2025-12-29T12:56:21Z</time>
      </trkpt>
      <trkpt lat="48.61404" lon="1.94105">
        <ele>169.6</ele>
        <time>2025-12-29T12:56:22Z</time>
      </trkpt>
      <trkpt lat="48.61402" lon="1.9411">
        <ele>169.6</ele>
        <time>2025-12-29T12:56:23Z</time>
      </trkpt>
      <trkpt lat="48.614" lon="1.94114">
        <ele>169.6</ele>
        <time>2025-12-29T12:56:24Z</time>
      </trkpt>
      <trkpt lat="48.61398" lon="1.94118">
        <ele>169.6</ele>
        <time>2025-12-29T12:56:25Z</time>
      </trkpt>
      <trkpt lat="48.61397" lon="1.94122">
        <ele>169.4</ele>
        <time>2025-12-29T12:56:26Z</time>
      </trkpt>
      <trkpt lat="48.61396" lon="1.94125">
        <ele>169.4</ele>
        <time>2025-12-29T12:56:27Z</time>
      </trkpt>
      <trkpt lat="48.61395" lon="1.94129">
        <ele>169.4</ele>
        <time>2025-12-29T12:56:28Z</time>
      </trkpt>
      <trkpt lat="48.61395" lon="1.94132">
        <ele>169.4</ele>
        <time>2025-12-29T12:56:29Z</time>
      </trkpt>
      <trkpt lat="48.61393" lon="1.94137">
        <ele>169.4</ele>
        <time>2025-12-29T12:56:31Z</time>
      </trkpt>
      <trkpt lat="48.61392" lon="1.94142">
        <ele>169.4</ele>
        <time>2025-12-29T12:56:33Z</time>
      </trkpt>
      <trkpt lat="48.61391" lon="1.94146">
        <ele>169.2</ele>
        <time>2025-12-29T12:56:35Z</time>
      </trkpt>
      <trkpt lat="48.61389" lon="1.94151">
        <ele>169.4</ele>
        <time>2025-12-29T12:56:37Z</time>
      </trkpt>
      <trkpt lat="48.61389" lon="1.94155">
        <ele>169.4</ele>
        <time>2025-12-29T12:56:39Z</time>
      </trkpt>
      <trkpt lat="48.61389" lon="1.9416">
        <ele>169.4</ele>
        <time>2025-12-29T12:56:41Z</time>
      </trkpt>
      <trkpt lat="48.61389" lon="1.94166">
        <ele>169.4</ele>
        <time>2025-12-29T12:56:43Z</time>
      </trkpt>
      <trkpt lat="48.61388" lon="1.9417">
        <ele>169.4</ele>
        <time>2025-12-29T12:56:45Z</time>
      </trkpt>
      <trkpt lat="48.61387" lon="1.94175">
        <ele>169.4</ele>
        <time>2025-12-29T12:56:47Z</time>
      </trkpt>
      <trkpt lat="48.61386" lon="1.94178">
        <ele>169.2</ele>
        <time>2025-12-29T12:56:48Z</time>
      </trkpt>
      <trkpt lat="48.61385" lon="1.9418">
        <ele>169.2</ele>
        <time>2025-12-29T12:56:49Z</time>
      </trkpt>
      <trkpt lat="48.61385" lon="1.94183">
        <ele>169.2</ele>
        <time>2025-12-29T12:56:50Z</time>
      </trkpt>
      <trkpt lat="48.61384" lon="1.94186">
        <ele>169</ele>
        <time>2025-12-29T12:56:51Z</time>
      </trkpt>
      <trkpt lat="48.61384" lon="1.94189">
        <ele>168.8</ele>
        <time>2025-12-29T12:56:52Z</time>
      </trkpt>
      <trkpt lat="48.61383" lon="1.94192">
        <ele>168.8</ele>
        <time>2025-12-29T12:56:53Z</time>
      </trkpt>
      <trkpt lat="48.61383" lon="1.94195">
        <ele>168.6</ele>
        <time>2025-12-29T12:56:54Z</time>
      </trkpt>
      <trkpt lat="48.61382" lon="1.94198">
        <ele>168.6</ele>
        <time>2025-12-29T12:56:55Z</time>
      </trkpt>
      <trkpt lat="48.61382" lon="1.94202">
        <ele>168.4</ele>
        <time>2025-12-29T12:56:56Z</time>
      </trkpt>
      <trkpt lat="48.61381" lon="1.94206">
        <ele>168.4</ele>
        <time>2025-12-29T12:56:57Z</time>
      </trkpt>
      <trkpt lat="48.61381" lon="1.9421">
        <ele>168.2</ele>
        <time>2025-12-29T12:56:58Z</time>
      </trkpt>
      <trkpt lat="48.6138" lon="1.94213">
        <ele>168</ele>
        <time>2025-12-29T12:56:59Z</time>
      </trkpt>
      <trkpt lat="48.61379" lon="1.94216">
        <ele>168</ele>
        <time>2025-12-29T12:57:00Z</time>
      </trkpt>
      <trkpt lat="48.61378" lon="1.94219">
        <ele>167.8</ele>
        <time>2025-12-29T12:57:01Z</time>
      </trkpt>
      <trkpt lat="48.61377" lon="1.94222">
        <ele>167.6</ele>
        <time>2025-12-29T12:57:02Z</time>
      </trkpt>
      <trkpt lat="48.61376" lon="1.94226">
        <ele>167.4</ele>
        <time>2025-12-29T12:57:03Z</time>
      </trkpt>
      <trkpt lat="48.61375" lon="1.94229">
        <ele>167.4</ele>
        <time>2025-12-29T12:57:04Z</time>
      </trkpt>
      <trkpt lat="48.61375" lon="1.94232">
        <ele>167.2</ele>
        <time>2025-12-29T12:57:05Z</time>
      </trkpt>
      <trkpt lat="48.61374" lon="1.94237">
        <ele>167</ele>
        <time>2025-12-29T12:57:07Z</time>
      </trkpt>
      <trkpt lat="48.61374" lon="1.94241">
        <ele>166.6</ele>
        <time>2025-12-29T12:57:09Z</time>
      </trkpt>
      <trkpt lat="48.61375" lon="1.94245">
        <ele>166.4</ele>
        <time>2025-12-29T12:57:11Z</time>
      </trkpt>
      <trkpt lat="48.61374" lon="1.94248">
        <ele>166.2</ele>
        <time>2025-12-29T12:57:13Z</time>
      </trkpt>
      <trkpt lat="48.61372" lon="1.94252">
        <ele>165.8</ele>
        <time>2025-12-29T12:57:15Z</time>
      </trkpt>
      <trkpt lat="48.61369" lon="1.94257">
        <ele>165.6</ele>
        <time>2025-12-29T12:57:17Z</time>
      </trkpt>
      <trkpt lat="48.61368" lon="1.94262">
        <ele>165.2</ele>
        <time>2025-12-29T12:57:19Z</time>
      </trkpt>
      <trkpt lat="48.61368" lon="1.94265">
        <ele>165</ele>
        <time>2025-12-29T12:57:20Z</time>
      </trkpt>
      <trkpt lat="48.61369" lon="1.94268">
        <ele>164.8</ele>
        <time>2025-12-29T12:57:21Z</time>
      </trkpt>
      <trkpt lat="48.61369" lon="1.94272">
        <ele>164.6</ele>
        <time>2025-12-29T12:57:22Z</time>
      </trkpt>
      <trkpt lat="48.6137" lon="1.94276">
        <ele>164.4</ele>
        <time>2025-12-29T12:57:23Z</time>
      </trkpt>
      <trkpt lat="48.6137" lon="1.94279">
        <ele>164.2</ele>
        <time>2025-12-29T12:57:24Z</time>
      </trkpt>
      <trkpt lat="48.61371" lon="1.94283">
        <ele>164.2</ele>
        <time>2025-12-29T12:57:25Z</time>
      </trkpt>
      <trkpt lat="48.61372" lon="1.94287">
        <ele>163.8</ele>
        <time>2025-12-29T12:57:27Z</time>
      </trkpt>
      <trkpt lat="48.61373" lon="1.94291">
        <ele>163.4</ele>
        <time>2025-12-29T12:57:29Z</time>
      </trkpt>
      <trkpt lat="48.61374" lon="1.94295">
        <ele>163.2</ele>
        <time>2025-12-29T12:57:31Z</time>
      </trkpt>
      <trkpt lat="48.61374" lon="1.94299">
        <ele>162.6</ele>
        <time>2025-12-29T12:57:34Z</time>
      </trkpt>
      <trkpt lat="48.61374" lon="1.94302">
        <ele>162.2</ele>
        <time>2025-12-29T12:57:36Z</time>
      </trkpt>
      <trkpt lat="48.61373" lon="1.94305">
        <ele>162</ele>
        <time>2025-12-29T12:57:38Z</time>
      </trkpt>
      <trkpt lat="48.61372" lon="1.94308">
        <ele>161.8</ele>
        <time>2025-12-29T12:57:39Z</time>
      </trkpt>
      <trkpt lat="48.61371" lon="1.9431">
        <ele>161.6</ele>
        <time>2025-12-29T12:57:40Z</time>
      </trkpt>
      <trkpt lat="48.61371" lon="1.94313">
        <ele>161.4</ele>
        <time>2025-12-29T12:57:41Z</time>
      </trkpt>
      <trkpt lat="48.61371" lon="1.94316">
        <ele>161.2</ele>
        <time>2025-12-29T12:57:42Z</time>
      </trkpt>
      <trkpt lat="48.61371" lon="1.94319">
        <ele>161</ele>
        <time>2025-12-29T12:57:43Z</time>
      </trkpt>
      <trkpt lat="48.61371" lon="1.94324">
        <ele>160.6</ele>
        <time>2025-12-29T12:57:45Z</time>
      </trkpt>
      <trkpt lat="48.6137" lon="1.94328">
        <ele>160</ele>
        <time>2025-12-29T12:57:47Z</time>
      </trkpt>
      <trkpt lat="48.61367" lon="1.94331">
        <ele>159.6</ele>
        <time>2025-12-29T12:57:49Z</time>
      </trkpt>
      <trkpt lat="48.61366" lon="1.94334">
        <ele>159.2</ele>
        <time>2025-12-29T12:57:50Z</time>
      </trkpt>
      <trkpt lat="48.61364" lon="1.94336">
        <ele>159</ele>
        <time>2025-12-29T12:57:51Z</time>
      </trkpt>
      <trkpt lat="48.61363" lon="1.94339">
        <ele>158.8</ele>
        <time>2025-12-29T12:57:52Z</time>
      </trkpt>
      <trkpt lat="48.61361" lon="1.94342">
        <ele>158.4</ele>
        <time>2025-12-29T12:57:53Z</time>
      </trkpt>
      <trkpt lat="48.61359" lon="1.94344">
        <ele>158.2</ele>
        <time>2025-12-29T12:57:54Z</time>
      </trkpt>
      <trkpt lat="48.61357" lon="1.94346">
        <ele>158</ele>
        <time>2025-12-29T12:57:55Z</time>
      </trkpt>
      <trkpt lat="48.61355" lon="1.94348">
        <ele>157.8</ele>
        <time>2025-12-29T12:57:56Z</time>
      </trkpt>
      <trkpt lat="48.61354" lon="1.94352">
        <ele>157.4</ele>
        <time>2025-12-29T12:57:58Z</time>
      </trkpt>
      <trkpt lat="48.61354" lon="1.94356">
        <ele>157</ele>
        <time>2025-12-29T12:58:00Z</time>
      </trkpt>
      <trkpt lat="48.61355" lon="1.9436">
        <ele>156.6</ele>
        <time>2025-12-29T12:58:02Z</time>
      </trkpt>
      <trkpt lat="48.61355" lon="1.94364">
        <ele>156.2</ele>
        <time>2025-12-29T12:58:05Z</time>
      </trkpt>
      <trkpt lat="48.61356" lon="1.94366">
        <ele>155.8</ele>
        <time>2025-12-29T12:58:07Z</time>
      </trkpt>
      <trkpt lat="48.61357" lon="1.9437">
        <ele>155.6</ele>
        <time>2025-12-29T12:58:09Z</time>
      </trkpt>
      <trkpt lat="48.61357" lon="1.94373">
        <ele>155.4</ele>
        <time>2025-12-29T12:58:11Z</time>
      </trkpt>
      <trkpt lat="48.61357" lon="1.94377">
        <ele>155.2</ele>
        <time>2025-12-29T12:58:13Z</time>
      </trkpt>
      <trkpt lat="48.61357" lon="1.9438">
        <ele>155</ele>
        <time>2025-12-29T12:58:15Z</time>
      </trkpt>
      <trkpt lat="48.61356" lon="1.94384">
        <ele>155</ele>
        <time>2025-12-29T12:58:17Z</time>
      </trkpt>
      <trkpt lat="48.61356" lon="1.94387">
        <ele>154.8</ele>
        <time>2025-12-29T12:58:19Z</time>
      </trkpt>
      <trkpt lat="48.61355" lon="1.9439">
        <ele>154.6</ele>
        <time>2025-12-29T12:58:21Z</time>
      </trkpt>
      <trkpt lat="48.61355" lon="1.94394">
        <ele>154.6</ele>
        <time>2025-12-29T12:58:23Z</time>
      </trkpt>
      <trkpt lat="48.61355" lon="1.94398">
        <ele>154.6</ele>
        <time>2025-12-29T12:58:25Z</time>
      </trkpt>
      <trkpt lat="48.61355" lon="1.94401">
        <ele>154.4</ele>
        <time>2025-12-29T12:58:27Z</time>
      </trkpt>
      <trkpt lat="48.61355" lon="1.94405">
        <ele>154.4</ele>
        <time>2025-12-29T12:58:29Z</time>
      </trkpt>
      <trkpt lat="48.61355" lon="1.94408">
        <ele>154.2</ele>
        <time>2025-12-29T12:58:31Z</time>
      </trkpt>
      <trkpt lat="48.61355" lon="1.94412">
        <ele>153.8</ele>
        <time>2025-12-29T12:58:33Z</time>
      </trkpt>
      <trkpt lat="48.61355" lon="1.94415">
        <ele>153.6</ele>
        <time>2025-12-29T12:58:35Z</time>
      </trkpt>
      <trkpt lat="48.61355" lon="1.94419">
        <ele>153.4</ele>
        <time>2025-12-29T12:58:37Z</time>
      </trkpt>
      <trkpt lat="48.61354" lon="1.94423">
        <ele>153.4</ele>
        <time>2025-12-29T12:58:39Z</time>
      </trkpt>
      <trkpt lat="48.61353" lon="1.94427">
        <ele>153.2</ele>
        <time>2025-12-29T12:58:41Z</time>
      </trkpt>
      <trkpt lat="48.61351" lon="1.94432">
        <ele>153</ele>
        <time>2025-12-29T12:58:43Z</time>
      </trkpt>
      <trkpt lat="48.6135" lon="1.94436">
        <ele>152.8</ele>
        <time>2025-12-29T12:58:45Z</time>
      </trkpt>
      <trkpt lat="48.61349" lon="1.9444">
        <ele>152.6</ele>
        <time>2025-12-29T12:58:47Z</time>
      </trkpt>
      <trkpt lat="48.61348" lon="1.94444">
        <ele>152.6</ele>
        <time>2025-12-29T12:58:49Z</time>
      </trkpt>
      <trkpt lat="48.61347" lon="1.94447">
        <ele>152.4</ele>
        <time>2025-12-29T12:58:51Z</time>
      </trkpt>
      <trkpt lat="48.61345" lon="1.94451">
        <ele>152.2</ele>
        <time>2025-12-29T12:58:53Z</time>
      </trkpt>
      <trkpt lat="48.61345" lon="1.94454">
        <ele>152</ele>
        <time>2025-12-29T12:58:55Z</time>
      </trkpt>
      <trkpt lat="48.61343" lon="1.94458">
        <ele>152</ele>
        <time>2025-12-29T12:58:57Z</time>
      </trkpt>
      <trkpt lat="48.61343" lon="1.94461">
        <ele>151.8</ele>
        <time>2025-12-29T12:58:59Z</time>
      </trkpt>
      <trkpt lat="48.61343" lon="1.94464">
        <ele>151.8</ele>
        <time>2025-12-29T12:59:01Z</time>
      </trkpt>
      <trkpt lat="48.61343" lon="1.94467">
        <ele>151.6</ele>
        <time>2025-12-29T12:59:03Z</time>
      </trkpt>
      <trkpt lat="48.61342" lon="1.94471">
        <ele>151.4</ele>
        <time>2025-12-29T12:59:05Z</time>
      </trkpt>
      <trkpt lat="48.61341" lon="1.94476">
        <ele>151.2</ele>
        <time>2025-12-29T12:59:07Z</time>
      </trkpt>
      <trkpt lat="48.6134" lon="1.94478">
        <ele>151</ele>
        <time>2025-12-29T12:59:08Z</time>
      </trkpt>
      <trkpt lat="48.61338" lon="1.94483">
        <ele>150.8</ele>
        <time>2025-12-29T12:59:10Z</time>
      </trkpt>
      <trkpt lat="48.61336" lon="1.94487">
        <ele>150.6</ele>
        <time>2025-12-29T12:59:12Z</time>
      </trkpt>
      <trkpt lat="48.61335" lon="1.94492">
        <ele>150.4</ele>
        <time>2025-12-29T12:59:14Z</time>
      </trkpt>
      <trkpt lat="48.61334" lon="1.94494">
        <ele>150.2</ele>
        <time>2025-12-29T12:59:15Z</time>
      </trkpt>
      <trkpt lat="48.61332" lon="1.94499">
        <ele>150</ele>
        <time>2025-12-29T12:59:17Z</time>
      </trkpt>
      <trkpt lat="48.6133" lon="1.94503">
        <ele>149.8</ele>
        <time>2025-12-29T12:59:19Z</time>
      </trkpt>
      <trkpt lat="48.61329" lon="1.94508">
        <ele>149.4</ele>
        <time>2025-12-29T12:59:21Z</time>
      </trkpt>
      <trkpt lat="48.61329" lon="1.94512">
        <ele>149.2</ele>
        <time>2025-12-29T12:59:23Z</time>
      </trkpt>
      <trkpt lat="48.61329" lon="1.94517">
        <ele>149</ele>
        <time>2025-12-29T12:59:25Z</time>
      </trkpt>
      <trkpt lat="48.6133" lon="1.94521">
        <ele>148.8</ele>
        <time>2025-12-29T12:59:27Z</time>
      </trkpt>
      <trkpt lat="48.61331" lon="1.94524">
        <ele>148.6</ele>
        <time>2025-12-29T12:59:29Z</time>
      </trkpt>
      <trkpt lat="48.61332" lon="1.94527">
        <ele>148.4</ele>
        <time>2025-12-29T12:59:31Z</time>
      </trkpt>
      <trkpt lat="48.61333" lon="1.9453">
        <ele>148.2</ele>
        <time>2025-12-29T12:59:33Z</time>
      </trkpt>
      <trkpt lat="48.61335" lon="1.94532">
        <ele>148</ele>
        <time>2025-12-29T12:59:35Z</time>
      </trkpt>
      <trkpt lat="48.61337" lon="1.94534">
        <ele>148</ele>
        <time>2025-12-29T12:59:37Z</time>
      </trkpt>
      <trkpt lat="48.61339" lon="1.94536">
        <ele>147.8</ele>
        <time>2025-12-29T12:59:39Z</time>
      </trkpt>
      <trkpt lat="48.61341" lon="1.94539">
        <ele>147.8</ele>
        <time>2025-12-29T12:59:41Z</time>
      </trkpt>
      <trkpt lat="48.61343" lon="1.94542">
        <ele>147.8</ele>
        <time>2025-12-29T12:59:43Z</time>
      </trkpt>
      <trkpt lat="48.61344" lon="1.94544">
        <ele>147.8</ele>
        <time>2025-12-29T12:59:45Z</time>
      </trkpt>
      <trkpt lat="48.61346" lon="1.94545">
        <ele>147.8</ele>
        <time>2025-12-29T12:59:47Z</time>
      </trkpt>
      <trkpt lat="48.61348" lon="1.94547">
        <ele>147.8</ele>
        <time>2025-12-29T12:59:50Z</time>
      </trkpt>
      <trkpt lat="48.6135" lon="1.9455">
        <ele>147.8</ele>
        <time>2025-12-29T12:59:53Z</time>
      </trkpt>
      <trkpt lat="48.61352" lon="1.94553">
        <ele>147.8</ele>
        <time>2025-12-29T12:59:55Z</time>
      </trkpt>
      <trkpt lat="48.61353" lon="1.94555">
        <ele>147.6</ele>
        <time>2025-12-29T12:59:57Z</time>
      </trkpt>
      <trkpt lat="48.61355" lon="1.94558">
        <ele>147.6</ele>
        <time>2025-12-29T12:59:59Z</time>
      </trkpt>
      <trkpt lat="48.61356" lon="1.94561">
        <ele>147.6</ele>
        <time>2025-12-29T13:00:01Z</time>
      </trkpt>
      <trkpt lat="48.61358" lon="1.94564">
        <ele>147.4</ele>
        <time>2025-12-29T13:00:03Z</time>
      </trkpt>
      <trkpt lat="48.61361" lon="1.94567">
        <ele>147.4</ele>
        <time>2025-12-29T13:00:05Z</time>
      </trkpt>
      <trkpt lat="48.61363" lon="1.9457">
        <ele>147.4</ele>
        <time>2025-12-29T13:00:07Z</time>
      </trkpt>
      <trkpt lat="48.61366" lon="1.94572">
        <ele>147.4</ele>
        <time>2025-12-29T13:00:09Z</time>
      </trkpt>
      <trkpt lat="48.61368" lon="1.94573">
        <ele>147.4</ele>
        <time>2025-12-29T13:00:11Z</time>
      </trkpt>
      <trkpt lat="48.6137" lon="1.94575">
        <ele>147.4</ele>
        <time>2025-12-29T13:00:13Z</time>
      </trkpt>
      <trkpt lat="48.61372" lon="1.94577">
        <ele>147.6</ele>
        <time>2025-12-29T13:00:15Z</time>
      </trkpt>
      <trkpt lat="48.61374" lon="1.94579">
        <ele>147.6</ele>
        <time>2025-12-29T13:00:17Z</time>
      </trkpt>
      <trkpt lat="48.61377" lon="1.94582">
        <ele>147.6</ele>
        <time>2025-12-29T13:00:19Z</time>
      </trkpt>
      <trkpt lat="48.61379" lon="1.94584">
        <ele>147.4</ele>
        <time>2025-12-29T13:00:21Z</time>
      </trkpt>
      <trkpt lat="48.61381" lon="1.94587">
        <ele>147.4</ele>
        <time>2025-12-29T13:00:23Z</time>
      </trkpt>
      <trkpt lat="48.61384" lon="1.94589">
        <ele>147.2</ele>
        <time>2025-12-29T13:00:25Z</time>
      </trkpt>
      <trkpt lat="48.61386" lon="1.94591">
        <ele>147.2</ele>
        <time>2025-12-29T13:00:27Z</time>
      </trkpt>
      <trkpt lat="48.61388" lon="1.94594">
        <ele>147.2</ele>
        <time>2025-12-29T13:00:29Z</time>
      </trkpt>
      <trkpt lat="48.61389" lon="1.94596">
        <ele>147.2</ele>
        <time>2025-12-29T13:00:31Z</time>
      </trkpt>
      <trkpt lat="48.61391" lon="1.94599">
        <ele>147.2</ele>
        <time>2025-12-29T13:00:33Z</time>
      </trkpt>
      <trkpt lat="48.61393" lon="1.94603">
        <ele>147.2</ele>
        <time>2025-12-29T13:00:35Z</time>
      </trkpt>
      <trkpt lat="48.61394" lon="1.94607">
        <ele>147</ele>
        <time>2025-12-29T13:00:37Z</time>
      </trkpt>
      <trkpt lat="48.61395" lon="1.94611">
        <ele>147</ele>
        <time>2025-12-29T13:00:39Z</time>
      </trkpt>
      <trkpt lat="48.61395" lon="1.94616">
        <ele>147</ele>
        <time>2025-12-29T13:00:41Z</time>
      </trkpt>
      <trkpt lat="48.61395" lon="1.9462">
        <ele>147.2</ele>
        <time>2025-12-29T13:00:43Z</time>
      </trkpt>
      <trkpt lat="48.61393" lon="1.94624">
        <ele>147.2</ele>
        <time>2025-12-29T13:00:45Z</time>
      </trkpt>
      <trkpt lat="48.61391" lon="1.94627">
        <ele>147.4</ele>
        <time>2025-12-29T13:00:47Z</time>
      </trkpt>
      <trkpt lat="48.61388" lon="1.94629">
        <ele>147.6</ele>
        <time>2025-12-29T13:00:49Z</time>
      </trkpt>
      <trkpt lat="48.61387" lon="1.9463">
        <ele>147.6</ele>
        <time>2025-12-29T13:00:50Z</time>
      </trkpt>
      <trkpt lat="48.61384" lon="1.94631">
        <ele>147.8</ele>
        <time>2025-12-29T13:00:52Z</time>
      </trkpt>
      <trkpt lat="48.61382" lon="1.94632">
        <ele>148.2</ele>
        <time>2025-12-29T13:00:54Z</time>
      </trkpt>
      <trkpt lat="48.6138" lon="1.94633">
        <ele>149.2</ele>
        <time>2025-12-29T13:01:02Z</time>
      </trkpt>
      <trkpt lat="48.61377" lon="1.94633">
        <ele>149.4</ele>
        <time>2025-12-29T13:01:04Z</time>
      </trkpt>
      <trkpt lat="48.61375" lon="1.94633">
        <ele>149.6</ele>
        <time>2025-12-29T13:01:06Z</time>
      </trkpt>
      <trkpt lat="48.61373" lon="1.94634">
        <ele>149.8</ele>
        <time>2025-12-29T13:01:08Z</time>
      </trkpt>
      <trkpt lat="48.61371" lon="1.94637">
        <ele>149.8</ele>
        <time>2025-12-29T13:01:11Z</time>
      </trkpt>
      <trkpt lat="48.61369" lon="1.94638">
        <ele>150</ele>
        <time>2025-12-29T13:01:13Z</time>
      </trkpt>
      <trkpt lat="48.61365" lon="1.94639">
        <ele>150.2</ele>
        <time>2025-12-29T13:01:16Z</time>
      </trkpt>
      <trkpt lat="48.61364" lon="1.9464">
        <ele>150.6</ele>
        <time>2025-12-29T13:01:18Z</time>
      </trkpt>
      <trkpt lat="48.61362" lon="1.9464">
        <ele>150.8</ele>
        <time>2025-12-29T13:01:21Z</time>
      </trkpt>
      <trkpt lat="48.61359" lon="1.94642">
        <ele>151</ele>
        <time>2025-12-29T13:01:24Z</time>
      </trkpt>
      <trkpt lat="48.61356" lon="1.94643">
        <ele>151.2</ele>
        <time>2025-12-29T13:01:26Z</time>
      </trkpt>
      <trkpt lat="48.61354" lon="1.94644">
        <ele>151.2</ele>
        <time>2025-12-29T13:01:28Z</time>
      </trkpt>
      <trkpt lat="48.61352" lon="1.94645">
        <ele>151</ele>
        <time>2025-12-29T13:01:30Z</time>
      </trkpt>
      <trkpt lat="48.6135" lon="1.94646">
        <ele>150.6</ele>
        <time>2025-12-29T13:01:32Z</time>
      </trkpt>
      <trkpt lat="48.61348" lon="1.94647">
        <ele>150.4</ele>
        <time>2025-12-29T13:01:34Z</time>
      </trkpt>
      <trkpt lat="48.61345" lon="1.94649">
        <ele>150.2</ele>
        <time>2025-12-29T13:01:37Z</time>
      </trkpt>
      <trkpt lat="48.61343" lon="1.9465">
        <ele>149.8</ele>
        <time>2025-12-29T13:01:40Z</time>
      </trkpt>
      <trkpt lat="48.6134" lon="1.94652">
        <ele>149.4</ele>
        <time>2025-12-29T13:01:43Z</time>
      </trkpt>
      <trkpt lat="48.61338" lon="1.94653">
        <ele>149.2</ele>
        <time>2025-12-29T13:01:45Z</time>
      </trkpt>
      <trkpt lat="48.61335" lon="1.94655">
        <ele>149</ele>
        <time>2025-12-29T13:01:47Z</time>
      </trkpt>
      <trkpt lat="48.61332" lon="1.94657">
        <ele>148.8</ele>
        <time>2025-12-29T13:01:49Z</time>
      </trkpt>
      <trkpt lat="48.61329" lon="1.94658">
        <ele>148.4</ele>
        <time>2025-12-29T13:01:51Z</time>
      </trkpt>
      <trkpt lat="48.61326" lon="1.9466">
        <ele>148.2</ele>
        <time>2025-12-29T13:01:53Z</time>
      </trkpt>
      <trkpt lat="48.61323" lon="1.94661">
        <ele>148</ele>
        <time>2025-12-29T13:01:55Z</time>
      </trkpt>
      <trkpt lat="48.61321" lon="1.94662">
        <ele>147.6</ele>
        <time>2025-12-29T13:01:57Z</time>
      </trkpt>
      <trkpt lat="48.61319" lon="1.94663">
        <ele>147.4</ele>
        <time>2025-12-29T13:01:59Z</time>
      </trkpt>
      <trkpt lat="48.61316" lon="1.94664">
        <ele>147</ele>
        <time>2025-12-29T13:02:02Z</time>
      </trkpt>
      <trkpt lat="48.61314" lon="1.94666">
        <ele>147</ele>
        <time>2025-12-29T13:02:04Z</time>
      </trkpt>
      <trkpt lat="48.61311" lon="1.94668">
        <ele>146.8</ele>
        <time>2025-12-29T13:02:06Z</time>
      </trkpt>
      <trkpt lat="48.61309" lon="1.94669">
        <ele>146.8</ele>
        <time>2025-12-29T13:02:07Z</time>
      </trkpt>
      <trkpt lat="48.61307" lon="1.9467">
        <ele>146.6</ele>
        <time>2025-12-29T13:02:08Z</time>
      </trkpt>
      <trkpt lat="48.61304" lon="1.94671">
        <ele>146.6</ele>
        <time>2025-12-29T13:02:09Z</time>
      </trkpt>
      <trkpt lat="48.61301" lon="1.94672">
        <ele>146.4</ele>
        <time>2025-12-29T13:02:11Z</time>
      </trkpt>
      <trkpt lat="48.61299" lon="1.94673">
        <ele>146.4</ele>
        <time>2025-12-29T13:02:12Z</time>
      </trkpt>
      <trkpt lat="48.61296" lon="1.94674">
        <ele>146.2</ele>
        <time>2025-12-29T13:02:14Z</time>
      </trkpt>
      <trkpt lat="48.61294" lon="1.94675">
        <ele>146</ele>
        <time>2025-12-29T13:02:16Z</time>
      </trkpt>
      <trkpt lat="48.61292" lon="1.94676">
        <ele>145.8</ele>
        <time>2025-12-29T13:02:18Z</time>
      </trkpt>
      <trkpt lat="48.6129" lon="1.94678">
        <ele>145.6</ele>
        <time>2025-12-29T13:02:20Z</time>
      </trkpt>
      <trkpt lat="48.61288" lon="1.94679">
        <ele>145.4</ele>
        <time>2025-12-29T13:02:22Z</time>
      </trkpt>
      <trkpt lat="48.61286" lon="1.9468">
        <ele>145.2</ele>
        <time>2025-12-29T13:02:25Z</time>
      </trkpt>
      <trkpt lat="48.61284" lon="1.94681">
        <ele>145</ele>
        <time>2025-12-29T13:02:27Z</time>
      </trkpt>
      <trkpt lat="48.61282" lon="1.94682">
        <ele>145</ele>
        <time>2025-12-29T13:02:29Z</time>
      </trkpt>
      <trkpt lat="48.61279" lon="1.94683">
        <ele>144.6</ele>
        <time>2025-12-29T13:02:31Z</time>
      </trkpt>
      <trkpt lat="48.61277" lon="1.94684">
        <ele>144.4</ele>
        <time>2025-12-29T13:02:33Z</time>
      </trkpt>
      <trkpt lat="48.61275" lon="1.94685">
        <ele>144.2</ele>
        <time>2025-12-29T13:02:35Z</time>
      </trkpt>
      <trkpt lat="48.61272" lon="1.94686">
        <ele>143.8</ele>
        <time>2025-12-29T13:02:37Z</time>
      </trkpt>
      <trkpt lat="48.6127" lon="1.94687">
        <ele>143.6</ele>
        <time>2025-12-29T13:02:39Z</time>
      </trkpt>
      <trkpt lat="48.61268" lon="1.94688">
        <ele>143.4</ele>
        <time>2025-12-29T13:02:41Z</time>
      </trkpt>
      <trkpt lat="48.61265" lon="1.9469">
        <ele>143.2</ele>
        <time>2025-12-29T13:02:43Z</time>
      </trkpt>
      <trkpt lat="48.61262" lon="1.94692">
        <ele>143</ele>
        <time>2025-12-29T13:02:45Z</time>
      </trkpt>
      <trkpt lat="48.6126" lon="1.94693">
        <ele>142.8</ele>
        <time>2025-12-29T13:02:47Z</time>
      </trkpt>
      <trkpt lat="48.61257" lon="1.94694">
        <ele>142.6</ele>
        <time>2025-12-29T13:02:49Z</time>
      </trkpt>
      <trkpt lat="48.61254" lon="1.94696">
        <ele>142.4</ele>
        <time>2025-12-29T13:02:51Z</time>
      </trkpt>
      <trkpt lat="48.61252" lon="1.94696">
        <ele>142.2</ele>
        <time>2025-12-29T13:02:53Z</time>
      </trkpt>
      <trkpt lat="48.6125" lon="1.94697">
        <ele>142</ele>
        <time>2025-12-29T13:02:55Z</time>
      </trkpt>
      <trkpt lat="48.61248" lon="1.94697">
        <ele>141.8</ele>
        <time>2025-12-29T13:02:57Z</time>
      </trkpt>
      <trkpt lat="48.61246" lon="1.94698">
        <ele>141.6</ele>
        <time>2025-12-29T13:03:00Z</time>
      </trkpt>
      <trkpt lat="48.61244" lon="1.947">
        <ele>141.4</ele>
        <time>2025-12-29T13:03:03Z</time>
      </trkpt>
      <trkpt lat="48.61242" lon="1.94702">
        <ele>141</ele>
        <time>2025-12-29T13:03:06Z</time>
      </trkpt>
      <trkpt lat="48.61239" lon="1.94703">
        <ele>140.6</ele>
        <time>2025-12-29T13:03:09Z</time>
      </trkpt>
      <trkpt lat="48.61237" lon="1.94703">
        <ele>140.2</ele>
        <time>2025-12-29T13:03:11Z</time>
      </trkpt>
      <trkpt lat="48.61236" lon="1.94704">
        <ele>139.8</ele>
        <time>2025-12-29T13:03:14Z</time>
      </trkpt>
      <trkpt lat="48.61233" lon="1.94704">
        <ele>139.8</ele>
        <time>2025-12-29T13:03:17Z</time>
      </trkpt>
      <trkpt lat="48.6123" lon="1.94705">
        <ele>139.6</ele>
        <time>2025-12-29T13:03:19Z</time>
      </trkpt>
      <trkpt lat="48.61226" lon="1.94707">
        <ele>139.6</ele>
        <time>2025-12-29T13:03:21Z</time>
      </trkpt>
      <trkpt lat="48.61223" lon="1.94708">
        <ele>139.6</ele>
        <time>2025-12-29T13:03:23Z</time>
      </trkpt>
      <trkpt lat="48.6122" lon="1.94709">
        <ele>139.6</ele>
        <time>2025-12-29T13:03:25Z</time>
      </trkpt>
      <trkpt lat="48.61218" lon="1.9471">
        <ele>139.6</ele>
        <time>2025-12-29T13:03:27Z</time>
      </trkpt>
      <trkpt lat="48.61215" lon="1.94712">
        <ele>139.8</ele>
        <time>2025-12-29T13:03:29Z</time>
      </trkpt>
      <trkpt lat="48.61212" lon="1.94713">
        <ele>139.8</ele>
        <time>2025-12-29T13:03:31Z</time>
      </trkpt>
      <trkpt lat="48.61209" lon="1.94715">
        <ele>139.8</ele>
        <time>2025-12-29T13:03:33Z</time>
      </trkpt>
      <trkpt lat="48.61206" lon="1.94716">
        <ele>139.8</ele>
        <time>2025-12-29T13:03:35Z</time>
      </trkpt>
      <trkpt lat="48.61204" lon="1.94717">
        <ele>139.8</ele>
        <time>2025-12-29T13:03:37Z</time>
      </trkpt>
      <trkpt lat="48.61202" lon="1.94718">
        <ele>140</ele>
        <time>2025-12-29T13:03:39Z</time>
      </trkpt>
      <trkpt lat="48.612" lon="1.94719">
        <ele>140</ele>
        <time>2025-12-29T13:03:41Z</time>
      </trkpt>
      <trkpt lat="48.61198" lon="1.9472">
        <ele>140.2</ele>
        <time>2025-12-29T13:03:43Z</time>
      </trkpt>
      <trkpt lat="48.61195" lon="1.94721">
        <ele>140.4</ele>
        <time>2025-12-29T13:03:45Z</time>
      </trkpt>
      <trkpt lat="48.61191" lon="1.94722">
        <ele>140.4</ele>
        <time>2025-12-29T13:03:47Z</time>
      </trkpt>
      <trkpt lat="48.61189" lon="1.94723">
        <ele>140.4</ele>
        <time>2025-12-29T13:03:48Z</time>
      </trkpt>
      <trkpt lat="48.61186" lon="1.94725">
        <ele>140.4</ele>
        <time>2025-12-29T13:03:50Z</time>
      </trkpt>
      <trkpt lat="48.61182" lon="1.94727">
        <ele>140.2</ele>
        <time>2025-12-29T13:03:52Z</time>
      </trkpt>
      <trkpt lat="48.6118" lon="1.94727">
        <ele>140.2</ele>
        <time>2025-12-29T13:03:53Z</time>
      </trkpt>
      <trkpt lat="48.61176" lon="1.94728">
        <ele>139.8</ele>
        <time>2025-12-29T13:03:55Z</time>
      </trkpt>
      <trkpt lat="48.61173" lon="1.9473">
        <ele>139.6</ele>
        <time>2025-12-29T13:03:57Z</time>
      </trkpt>
      <trkpt lat="48.61171" lon="1.94731">
        <ele>139.4</ele>
        <time>2025-12-29T13:03:59Z</time>
      </trkpt>
      <trkpt lat="48.61169" lon="1.94732">
        <ele>139</ele>
        <time>2025-12-29T13:04:01Z</time>
      </trkpt>
      <trkpt lat="48.61166" lon="1.94734">
        <ele>138.8</ele>
        <time>2025-12-29T13:04:03Z</time>
      </trkpt>
      <trkpt lat="48.61164" lon="1.94736">
        <ele>138.6</ele>
        <time>2025-12-29T13:04:05Z</time>
      </trkpt>
      <trkpt lat="48.61162" lon="1.94738">
        <ele>138.6</ele>
        <time>2025-12-29T13:04:07Z</time>
      </trkpt>
      <trkpt lat="48.61159" lon="1.94739">
        <ele>138.6</ele>
        <time>2025-12-29T13:04:09Z</time>
      </trkpt>
      <trkpt lat="48.61156" lon="1.94739">
        <ele>138.4</ele>
        <time>2025-12-29T13:04:11Z</time>
      </trkpt>
      <trkpt lat="48.61153" lon="1.9474">
        <ele>138.4</ele>
        <time>2025-12-29T13:04:13Z</time>
      </trkpt>
      <trkpt lat="48.61151" lon="1.94741">
        <ele>138.4</ele>
        <time>2025-12-29T13:04:15Z</time>
      </trkpt>
      <trkpt lat="48.61149" lon="1.94742">
        <ele>138.2</ele>
        <time>2025-12-29T13:04:17Z</time>
      </trkpt>
      <trkpt lat="48.61146" lon="1.94743">
        <ele>138</ele>
        <time>2025-12-29T13:04:19Z</time>
      </trkpt>
      <trkpt lat="48.61144" lon="1.94744">
        <ele>138</ele>
        <time>2025-12-29T13:04:20Z</time>
      </trkpt>
      <trkpt lat="48.61141" lon="1.94745">
        <ele>137.8</ele>
        <time>2025-12-29T13:04:21Z</time>
      </trkpt>
      <trkpt lat="48.61139" lon="1.94746">
        <ele>137.8</ele>
        <time>2025-12-29T13:04:22Z</time>
      </trkpt>
      <trkpt lat="48.61135" lon="1.94748">
        <ele>137.6</ele>
        <time>2025-12-29T13:04:23Z</time>
      </trkpt>
      <trkpt lat="48.61132" lon="1.9475">
        <ele>137.6</ele>
        <time>2025-12-29T13:04:24Z</time>
      </trkpt>
      <trkpt lat="48.61129" lon="1.94752">
        <ele>137.6</ele>
        <time>2025-12-29T13:04:25Z</time>
      </trkpt>
      <trkpt lat="48.61127" lon="1.94755">
        <ele>137.4</ele>
        <time>2025-12-29T13:04:26Z</time>
      </trkpt>
      <trkpt lat="48.61124" lon="1.94757">
        <ele>137.4</ele>
        <time>2025-12-29T13:04:27Z</time>
      </trkpt>
      <trkpt lat="48.61122" lon="1.94758">
        <ele>137.4</ele>
        <time>2025-12-29T13:04:28Z</time>
      </trkpt>
      <trkpt lat="48.6112" lon="1.9476">
        <ele>137.4</ele>
        <time>2025-12-29T13:04:29Z</time>
      </trkpt>
      <trkpt lat="48.61118" lon="1.94761">
        <ele>137.4</ele>
        <time>2025-12-29T13:04:30Z</time>
      </trkpt>
      <trkpt lat="48.61116" lon="1.94762">
        <ele>137.4</ele>
        <time>2025-12-29T13:04:31Z</time>
      </trkpt>
      <trkpt lat="48.61114" lon="1.94763">
        <ele>137.4</ele>
        <time>2025-12-29T13:04:32Z</time>
      </trkpt>
      <trkpt lat="48.61111" lon="1.94764">
        <ele>137.2</ele>
        <time>2025-12-29T13:04:34Z</time>
      </trkpt>
      <trkpt lat="48.61108" lon="1.94763">
        <ele>137</ele>
        <time>2025-12-29T13:04:36Z</time>
      </trkpt>
      <trkpt lat="48.61107" lon="1.94763">
        <ele>137</ele>
        <time>2025-12-29T13:04:38Z</time>
      </trkpt>
      <trkpt lat="48.61105" lon="1.94762">
        <ele>136.8</ele>
        <time>2025-12-29T13:04:41Z</time>
      </trkpt>
      <trkpt lat="48.61102" lon="1.94763">
        <ele>136.4</ele>
        <time>2025-12-29T13:04:45Z</time>
      </trkpt>
      <trkpt lat="48.611" lon="1.94765">
        <ele>136.4</ele>
        <time>2025-12-29T13:04:47Z</time>
      </trkpt>
      <trkpt lat="48.61097" lon="1.94767">
        <ele>136.4</ele>
        <time>2025-12-29T13:04:49Z</time>
      </trkpt>
      <trkpt lat="48.61094" lon="1.94769">
        <ele>136.2</ele>
        <time>2025-12-29T13:04:51Z</time>
      </trkpt>
      <trkpt lat="48.61092" lon="1.9477">
        <ele>136.2</ele>
        <time>2025-12-29T13:04:53Z</time>
      </trkpt>
      <trkpt lat="48.61091" lon="1.9477">
        <ele>135.8</ele>
        <time>2025-12-29T13:04:56Z</time>
      </trkpt>
      <trkpt lat="48.61088" lon="1.94771">
        <ele>135.6</ele>
        <time>2025-12-29T13:04:59Z</time>
      </trkpt>
      <trkpt lat="48.61085" lon="1.94772">
        <ele>135.4</ele>
        <time>2025-12-29T13:05:01Z</time>
      </trkpt>
      <trkpt lat="48.61083" lon="1.94773">
        <ele>135</ele>
        <time>2025-12-29T13:05:04Z</time>
      </trkpt>
      <trkpt lat="48.61081" lon="1.94773">
        <ele>135</ele>
        <time>2025-12-29T13:05:06Z</time>
      </trkpt>
      <trkpt lat="48.61079" lon="1.94775">
        <ele>134.8</ele>
        <time>2025-12-29T13:05:08Z</time>
      </trkpt>
      <trkpt lat="48.61076" lon="1.94776">
        <ele>134.8</ele>
        <time>2025-12-29T13:05:10Z</time>
      </trkpt>
      <trkpt lat="48.61073" lon="1.94778">
        <ele>134.8</ele>
        <time>2025-12-29T13:05:12Z</time>
      </trkpt>
      <trkpt lat="48.6107" lon="1.94779">
        <ele>134.8</ele>
        <time>2025-12-29T13:05:14Z</time>
      </trkpt>
      <trkpt lat="48.61067" lon="1.9478">
        <ele>134.6</ele>
        <time>2025-12-29T13:05:16Z</time>
      </trkpt>
      <trkpt lat="48.61065" lon="1.94781">
        <ele>134.6</ele>
        <time>2025-12-29T13:05:18Z</time>
      </trkpt>
      <trkpt lat="48.61061" lon="1.94783">
        <ele>134.6</ele>
        <time>2025-12-29T13:05:20Z</time>
      </trkpt>
      <trkpt lat="48.61059" lon="1.94784">
        <ele>134.6</ele>
        <time>2025-12-29T13:05:22Z</time>
      </trkpt>
      <trkpt lat="48.61056" lon="1.94785">
        <ele>134.6</ele>
        <time>2025-12-29T13:05:24Z</time>
      </trkpt>
      <trkpt lat="48.61053" lon="1.94787">
        <ele>134.6</ele>
        <time>2025-12-29T13:05:26Z</time>
      </trkpt>
      <trkpt lat="48.61051" lon="1.94787">
        <ele>134.4</ele>
        <time>2025-12-29T13:05:28Z</time>
      </trkpt>
      <trkpt lat="48.61048" lon="1.94788">
        <ele>134.4</ele>
        <time>2025-12-29T13:05:30Z</time>
      </trkpt>
      <trkpt lat="48.61046" lon="1.94789">
        <ele>134.4</ele>
        <time>2025-12-29T13:05:31Z</time>
      </trkpt>
      <trkpt lat="48.61043" lon="1.9479">
        <ele>134.4</ele>
        <time>2025-12-29T13:05:33Z</time>
      </trkpt>
      <trkpt lat="48.61041" lon="1.9479">
        <ele>134.4</ele>
        <time>2025-12-29T13:05:34Z</time>
      </trkpt>
      <trkpt lat="48.61039" lon="1.94791">
        <ele>134.2</ele>
        <time>2025-12-29T13:05:35Z</time>
      </trkpt>
      <trkpt lat="48.61037" lon="1.94791">
        <ele>134.2</ele>
        <time>2025-12-29T13:05:36Z</time>
      </trkpt>
      <trkpt lat="48.61034" lon="1.94792">
        <ele>134.2</ele>
        <time>2025-12-29T13:05:38Z</time>
      </trkpt>
      <trkpt lat="48.61031" lon="1.94792">
        <ele>134.2</ele>
        <time>2025-12-29T13:05:40Z</time>
      </trkpt>
      <trkpt lat="48.61029" lon="1.94793">
        <ele>134.2</ele>
        <time>2025-12-29T13:05:42Z</time>
      </trkpt>
      <trkpt lat="48.61027" lon="1.94793">
        <ele>134</ele>
        <time>2025-12-29T13:05:44Z</time>
      </trkpt>
      <trkpt lat="48.61024" lon="1.94794">
        <ele>133.8</ele>
        <time>2025-12-29T13:05:46Z</time>
      </trkpt>
      <trkpt lat="48.61022" lon="1.94794">
        <ele>133.6</ele>
        <time>2025-12-29T13:05:48Z</time>
      </trkpt>
      <trkpt lat="48.6102" lon="1.94794">
        <ele>133.4</ele>
        <time>2025-12-29T13:05:50Z</time>
      </trkpt>
      <trkpt lat="48.61017" lon="1.94795">
        <ele>133</ele>
        <time>2025-12-29T13:05:52Z</time>
      </trkpt>
      <trkpt lat="48.61014" lon="1.94795">
        <ele>132.8</ele>
        <time>2025-12-29T13:05:54Z</time>
      </trkpt>
      <trkpt lat="48.61012" lon="1.94796">
        <ele>132.6</ele>
        <time>2025-12-29T13:05:56Z</time>
      </trkpt>
      <trkpt lat="48.61009" lon="1.94797">
        <ele>132.2</ele>
        <time>2025-12-29T13:05:58Z</time>
      </trkpt>
      <trkpt lat="48.61006" lon="1.94798">
        <ele>131.8</ele>
        <time>2025-12-29T13:06:00Z</time>
      </trkpt>
      <trkpt lat="48.61004" lon="1.94798">
        <ele>131.4</ele>
        <time>2025-12-29T13:06:02Z</time>
      </trkpt>
      <trkpt lat="48.61001" lon="1.94799">
        <ele>131</ele>
        <time>2025-12-29T13:06:04Z</time>
      </trkpt>
      <trkpt lat="48.60998" lon="1.94799">
        <ele>130.6</ele>
        <time>2025-12-29T13:06:06Z</time>
      </trkpt>
      <trkpt lat="48.60996" lon="1.94801">
        <ele>130.4</ele>
        <time>2025-12-29T13:06:08Z</time>
      </trkpt>
      <trkpt lat="48.60993" lon="1.94803">
        <ele>130.2</ele>
        <time>2025-12-29T13:06:10Z</time>
      </trkpt>
      <trkpt lat="48.6099" lon="1.94805">
        <ele>129.8</ele>
        <time>2025-12-29T13:06:12Z</time>
      </trkpt>
      <trkpt lat="48.60987" lon="1.94806">
        <ele>129.2</ele>
        <time>2025-12-29T13:06:14Z</time>
      </trkpt>
      <trkpt lat="48.60985" lon="1.94806">
        <ele>128.8</ele>
        <time>2025-12-29T13:06:16Z</time>
      </trkpt>
      <trkpt lat="48.60983" lon="1.94805">
        <ele>128.4</ele>
        <time>2025-12-29T13:06:19Z</time>
      </trkpt>
      <trkpt lat="48.60981" lon="1.94806">
        <ele>128.2</ele>
        <time>2025-12-29T13:06:21Z</time>
      </trkpt>
      <trkpt lat="48.60978" lon="1.94807">
        <ele>128</ele>
        <time>2025-12-29T13:06:23Z</time>
      </trkpt>
      <trkpt lat="48.60976" lon="1.94808">
        <ele>127.8</ele>
        <time>2025-12-29T13:06:24Z</time>
      </trkpt>
      <trkpt lat="48.60974" lon="1.94808">
        <ele>127.6</ele>
        <time>2025-12-29T13:06:25Z</time>
      </trkpt>
      <trkpt lat="48.60972" lon="1.94809">
        <ele>127.6</ele>
        <time>2025-12-29T13:06:26Z</time>
      </trkpt>
      <trkpt lat="48.6097" lon="1.9481">
        <ele>127.4</ele>
        <time>2025-12-29T13:06:27Z</time>
      </trkpt>
      <trkpt lat="48.60967" lon="1.94811">
        <ele>127</ele>
        <time>2025-12-29T13:06:29Z</time>
      </trkpt>
      <trkpt lat="48.60965" lon="1.94811">
        <ele>126.8</ele>
        <time>2025-12-29T13:06:31Z</time>
      </trkpt>
      <trkpt lat="48.60963" lon="1.94811">
        <ele>126.6</ele>
        <time>2025-12-29T13:06:33Z</time>
      </trkpt>
      <trkpt lat="48.6096" lon="1.94812">
        <ele>126.4</ele>
        <time>2025-12-29T13:06:35Z</time>
      </trkpt>
      <trkpt lat="48.60958" lon="1.94812">
        <ele>125.8</ele>
        <time>2025-12-29T13:06:37Z</time>
      </trkpt>
      <trkpt lat="48.60955" lon="1.94813">
        <ele>125.6</ele>
        <time>2025-12-29T13:06:39Z</time>
      </trkpt>
      <trkpt lat="48.60953" lon="1.94813">
        <ele>125.4</ele>
        <time>2025-12-29T13:06:40Z</time>
      </trkpt>
      <trkpt lat="48.60948" lon="1.94814">
        <ele>124.8</ele>
        <time>2025-12-29T13:06:43Z</time>
      </trkpt>
      <trkpt lat="48.60945" lon="1.94814">
        <ele>124.4</ele>
        <time>2025-12-29T13:06:45Z</time>
      </trkpt>
      <trkpt lat="48.60943" lon="1.94815">
        <ele>123.8</ele>
        <time>2025-12-29T13:06:47Z</time>
      </trkpt>
      <trkpt lat="48.6094" lon="1.94815">
        <ele>123.4</ele>
        <time>2025-12-29T13:06:49Z</time>
      </trkpt>
      <trkpt lat="48.60939" lon="1.94816">
        <ele>123.4</ele>
        <time>2025-12-29T13:06:50Z</time>
      </trkpt>
      <trkpt lat="48.60937" lon="1.94817">
        <ele>123.2</ele>
        <time>2025-12-29T13:06:51Z</time>
      </trkpt>
      <trkpt lat="48.60934" lon="1.94818">
        <ele>123</ele>
        <time>2025-12-29T13:06:52Z</time>
      </trkpt>
      <trkpt lat="48.60931" lon="1.9482">
        <ele>122.6</ele>
        <time>2025-12-29T13:06:54Z</time>
      </trkpt>
      <trkpt lat="48.60929" lon="1.94821">
        <ele>122.2</ele>
        <time>2025-12-29T13:06:56Z</time>
      </trkpt>
      <trkpt lat="48.60926" lon="1.94821">
        <ele>121.6</ele>
        <time>2025-12-29T13:07:00Z</time>
      </trkpt>
      <trkpt lat="48.60924" lon="1.94821">
        <ele>121</ele>
        <time>2025-12-29T13:07:04Z</time>
      </trkpt>
      <trkpt lat="48.60922" lon="1.94822">
        <ele>120.8</ele>
        <time>2025-12-29T13:07:06Z</time>
      </trkpt>
      <trkpt lat="48.60919" lon="1.94823">
        <ele>120.6</ele>
        <time>2025-12-29T13:07:08Z</time>
      </trkpt>
      <trkpt lat="48.60916" lon="1.94824">
        <ele>120.6</ele>
        <time>2025-12-29T13:07:10Z</time>
      </trkpt>
      <trkpt lat="48.60914" lon="1.94824">
        <ele>120.6</ele>
        <time>2025-12-29T13:07:12Z</time>
      </trkpt>
      <trkpt lat="48.60911" lon="1.94826">
        <ele>120.4</ele>
        <time>2025-12-29T13:07:14Z</time>
      </trkpt>
      <trkpt lat="48.60909" lon="1.94826">
        <ele>120.4</ele>
        <time>2025-12-29T13:07:15Z</time>
      </trkpt>
      <trkpt lat="48.60906" lon="1.94828">
        <ele>120.2</ele>
        <time>2025-12-29T13:07:17Z</time>
      </trkpt>
      <trkpt lat="48.60902" lon="1.94829">
        <ele>120</ele>
        <time>2025-12-29T13:07:19Z</time>
      </trkpt>
      <trkpt lat="48.60899" lon="1.9483">
        <ele>119.8</ele>
        <time>2025-12-29T13:07:21Z</time>
      </trkpt>
      <trkpt lat="48.60897" lon="1.9483">
        <ele>119.6</ele>
        <time>2025-12-29T13:07:22Z</time>
      </trkpt>
      <trkpt lat="48.60894" lon="1.9483">
        <ele>119.2</ele>
        <time>2025-12-29T13:07:24Z</time>
      </trkpt>
      <trkpt lat="48.60892" lon="1.94831">
        <ele>119</ele>
        <time>2025-12-29T13:07:25Z</time>
      </trkpt>
      <trkpt lat="48.60889" lon="1.94831">
        <ele>118.8</ele>
        <time>2025-12-29T13:07:26Z</time>
      </trkpt>
      <trkpt lat="48.60886" lon="1.94831">
        <ele>118.6</ele>
        <time>2025-12-29T13:07:28Z</time>
      </trkpt>
      <trkpt lat="48.60883" lon="1.94832">
        <ele>118.4</ele>
        <time>2025-12-29T13:07:29Z</time>
      </trkpt>
      <trkpt lat="48.60881" lon="1.94832">
        <ele>118.2</ele>
        <time>2025-12-29T13:07:30Z</time>
      </trkpt>
      <trkpt lat="48.60878" lon="1.94832">
        <ele>118</ele>
        <time>2025-12-29T13:07:32Z</time>
      </trkpt>
      <trkpt lat="48.60875" lon="1.94832">
        <ele>117.6</ele>
        <time>2025-12-29T13:07:34Z</time>
      </trkpt>
      <trkpt lat="48.60873" lon="1.94833">
        <ele>117.6</ele>
        <time>2025-12-29T13:07:36Z</time>
      </trkpt>
      <trkpt lat="48.6087" lon="1.94833">
        <ele>117.4</ele>
        <time>2025-12-29T13:07:38Z</time>
      </trkpt>
      <trkpt lat="48.60868" lon="1.94834">
        <ele>117.2</ele>
        <time>2025-12-29T13:07:40Z</time>
      </trkpt>
      <trkpt lat="48.60865" lon="1.94835">
        <ele>117.2</ele>
        <time>2025-12-29T13:07:42Z</time>
      </trkpt>
      <trkpt lat="48.60863" lon="1.94836">
        <ele>117</ele>
        <time>2025-12-29T13:07:44Z</time>
      </trkpt>
      <trkpt lat="48.60861" lon="1.94837">
        <ele>116.8</ele>
        <time>2025-12-29T13:07:46Z</time>
      </trkpt>
      <trkpt lat="48.60858" lon="1.94837">
        <ele>116.8</ele>
        <time>2025-12-29T13:07:48Z</time>
      </trkpt>
      <trkpt lat="48.60856" lon="1.94838">
        <ele>116.8</ele>
        <time>2025-12-29T13:07:50Z</time>
      </trkpt>
      <trkpt lat="48.60854" lon="1.94838">
        <ele>116.8</ele>
        <time>2025-12-29T13:07:52Z</time>
      </trkpt>
      <trkpt lat="48.60852" lon="1.9484">
        <ele>116.8</ele>
        <time>2025-12-29T13:07:55Z</time>
      </trkpt>
      <trkpt lat="48.6085" lon="1.94841">
        <ele>117</ele>
        <time>2025-12-29T13:07:57Z</time>
      </trkpt>
      <trkpt lat="48.60847" lon="1.94843">
        <ele>117</ele>
        <time>2025-12-29T13:07:59Z</time>
      </trkpt>
      <trkpt lat="48.60844" lon="1.94845">
        <ele>117</ele>
        <time>2025-12-29T13:08:01Z</time>
      </trkpt>
      <trkpt lat="48.60843" lon="1.94846">
        <ele>117.2</ele>
        <time>2025-12-29T13:08:02Z</time>
      </trkpt>
      <trkpt lat="48.60841" lon="1.94847">
        <ele>117.2</ele>
        <time>2025-12-29T13:08:03Z</time>
      </trkpt>
      <trkpt lat="48.60839" lon="1.94848">
        <ele>117.2</ele>
        <time>2025-12-29T13:08:04Z</time>
      </trkpt>
      <trkpt lat="48.60835" lon="1.9485">
        <ele>117.2</ele>
        <time>2025-12-29T13:08:06Z</time>
      </trkpt>
      <trkpt lat="48.60833" lon="1.94851">
        <ele>117.2</ele>
        <time>2025-12-29T13:08:08Z</time>
      </trkpt>
      <trkpt lat="48.6083" lon="1.94853">
        <ele>117.2</ele>
        <time>2025-12-29T13:08:10Z</time>
      </trkpt>
      <trkpt lat="48.60828" lon="1.94854">
        <ele>117.2</ele>
        <time>2025-12-29T13:08:13Z</time>
      </trkpt>
      <trkpt lat="48.60826" lon="1.94854">
        <ele>117</ele>
        <time>2025-12-29T13:08:22Z</time>
      </trkpt>
      <trkpt lat="48.60825" lon="1.94856">
        <ele>119.2</ele>
        <time>2025-12-29T13:08:57Z</time>
      </trkpt>
      <trkpt lat="48.60822" lon="1.94858">
        <ele>119.6</ele>
        <time>2025-12-29T13:09:01Z</time>
      </trkpt>
      <trkpt lat="48.60819" lon="1.94861">
        <ele>119.6</ele>
        <time>2025-12-29T13:09:03Z</time>
      </trkpt>
      <trkpt lat="48.60817" lon="1.94862">
        <ele>119.6</ele>
        <time>2025-12-29T13:09:04Z</time>
      </trkpt>
      <trkpt lat="48.60815" lon="1.94863">
        <ele>119.6</ele>
        <time>2025-12-29T13:09:05Z</time>
      </trkpt>
      <trkpt lat="48.60813" lon="1.94865">
        <ele>119.6</ele>
        <time>2025-12-29T13:09:06Z</time>
      </trkpt>
      <trkpt lat="48.60811" lon="1.94867">
        <ele>119.4</ele>
        <time>2025-12-29T13:09:08Z</time>
      </trkpt>
      <trkpt lat="48.60809" lon="1.94868">
        <ele>119.4</ele>
        <time>2025-12-29T13:09:10Z</time>
      </trkpt>
      <trkpt lat="48.60807" lon="1.94869">
        <ele>119.2</ele>
        <time>2025-12-29T13:09:12Z</time>
      </trkpt>
      <trkpt lat="48.60805" lon="1.94871">
        <ele>119</ele>
        <time>2025-12-29T13:09:14Z</time>
      </trkpt>
      <trkpt lat="48.60803" lon="1.94873">
        <ele>118.8</ele>
        <time>2025-12-29T13:09:16Z</time>
      </trkpt>
      <trkpt lat="48.60799" lon="1.94875">
        <ele>118.8</ele>
        <time>2025-12-29T13:09:18Z</time>
      </trkpt>
      <trkpt lat="48.60797" lon="1.94877">
        <ele>119</ele>
        <time>2025-12-29T13:09:20Z</time>
      </trkpt>
      <trkpt lat="48.60795" lon="1.94879">
        <ele>118.8</ele>
        <time>2025-12-29T13:09:22Z</time>
      </trkpt>
      <trkpt lat="48.60793" lon="1.9488">
        <ele>118.8</ele>
        <time>2025-12-29T13:09:24Z</time>
      </trkpt>
      <trkpt lat="48.60789" lon="1.94882">
        <ele>118.6</ele>
        <time>2025-12-29T13:09:26Z</time>
      </trkpt>
      <trkpt lat="48.60787" lon="1.94883">
        <ele>118.6</ele>
        <time>2025-12-29T13:09:28Z</time>
      </trkpt>
      <trkpt lat="48.60783" lon="1.94884">
        <ele>118.6</ele>
        <time>2025-12-29T13:09:30Z</time>
      </trkpt>
      <trkpt lat="48.60781" lon="1.94885">
        <ele>118.6</ele>
        <time>2025-12-29T13:09:32Z</time>
      </trkpt>
      <trkpt lat="48.60779" lon="1.94886">
        <ele>118.6</ele>
        <time>2025-12-29T13:09:34Z</time>
      </trkpt>
      <trkpt lat="48.60777" lon="1.94887">
        <ele>118.6</ele>
        <time>2025-12-29T13:09:36Z</time>
      </trkpt>
      <trkpt lat="48.60775" lon="1.94888">
        <ele>118.8</ele>
        <time>2025-12-29T13:09:38Z</time>
      </trkpt>
      <trkpt lat="48.60773" lon="1.9489">
        <ele>119</ele>
        <time>2025-12-29T13:09:40Z</time>
      </trkpt>
      <trkpt lat="48.60771" lon="1.94892">
        <ele>119</ele>
        <time>2025-12-29T13:09:42Z</time>
      </trkpt>
      <trkpt lat="48.60769" lon="1.94894">
        <ele>119.4</ele>
        <time>2025-12-29T13:09:45Z</time>
      </trkpt>
      <trkpt lat="48.60767" lon="1.94896">
        <ele>119.6</ele>
        <time>2025-12-29T13:09:47Z</time>
      </trkpt>
      <trkpt lat="48.60765" lon="1.94897">
        <ele>119.8</ele>
        <time>2025-12-29T13:09:49Z</time>
      </trkpt>
      <trkpt lat="48.60762" lon="1.94899">
        <ele>120</ele>
        <time>2025-12-29T13:09:51Z</time>
      </trkpt>
      <trkpt lat="48.60759" lon="1.94901">
        <ele>120.2</ele>
        <time>2025-12-29T13:09:53Z</time>
      </trkpt>
      <trkpt lat="48.60756" lon="1.94903">
        <ele>120.4</ele>
        <time>2025-12-29T13:09:55Z</time>
      </trkpt>
      <trkpt lat="48.60754" lon="1.94906">
        <ele>120.6</ele>
        <time>2025-12-29T13:09:57Z</time>
      </trkpt>
      <trkpt lat="48.60751" lon="1.94908">
        <ele>120.8</ele>
        <time>2025-12-29T13:09:59Z</time>
      </trkpt>
      <trkpt lat="48.60748" lon="1.9491">
        <ele>121</ele>
        <time>2025-12-29T13:10:01Z</time>
      </trkpt>
      <trkpt lat="48.60746" lon="1.94911">
        <ele>121</ele>
        <time>2025-12-29T13:10:03Z</time>
      </trkpt>
      <trkpt lat="48.60744" lon="1.94912">
        <ele>121.2</ele>
        <time>2025-12-29T13:10:05Z</time>
      </trkpt>
      <trkpt lat="48.60742" lon="1.94913">
        <ele>121.2</ele>
        <time>2025-12-29T13:10:08Z</time>
      </trkpt>
      <trkpt lat="48.6074" lon="1.94914">
        <ele>121.4</ele>
        <time>2025-12-29T13:10:10Z</time>
      </trkpt>
      <trkpt lat="48.60738" lon="1.94915">
        <ele>121.4</ele>
        <time>2025-12-29T13:10:12Z</time>
      </trkpt>
      <trkpt lat="48.60736" lon="1.94916">
        <ele>121.4</ele>
        <time>2025-12-29T13:10:13Z</time>
      </trkpt>
      <trkpt lat="48.60733" lon="1.94918">
        <ele>121.6</ele>
        <time>2025-12-29T13:10:15Z</time>
      </trkpt>
      <trkpt lat="48.6073" lon="1.9492">
        <ele>121.4</ele>
        <time>2025-12-29T13:10:17Z</time>
      </trkpt>
      <trkpt lat="48.60728" lon="1.94921">
        <ele>121.4</ele>
        <time>2025-12-29T13:10:19Z</time>
      </trkpt>
      <trkpt lat="48.60726" lon="1.94923">
        <ele>121.4</ele>
        <time>2025-12-29T13:10:22Z</time>
      </trkpt>
      <trkpt lat="48.60724" lon="1.94925">
        <ele>121.6</ele>
        <time>2025-12-29T13:10:24Z</time>
      </trkpt>
      <trkpt lat="48.60721" lon="1.94926">
        <ele>121.6</ele>
        <time>2025-12-29T13:10:26Z</time>
      </trkpt>
      <trkpt lat="48.60718" lon="1.94928">
        <ele>121.6</ele>
        <time>2025-12-29T13:10:28Z</time>
      </trkpt>
      <trkpt lat="48.60716" lon="1.9493">
        <ele>121.6</ele>
        <time>2025-12-29T13:10:30Z</time>
      </trkpt>
      <trkpt lat="48.60714" lon="1.94931">
        <ele>121.6</ele>
        <time>2025-12-29T13:10:32Z</time>
      </trkpt>
      <trkpt lat="48.60712" lon="1.94933">
        <ele>121.4</ele>
        <time>2025-12-29T13:10:34Z</time>
      </trkpt>
      <trkpt lat="48.6071" lon="1.94934">
        <ele>121.6</ele>
        <time>2025-12-29T13:10:36Z</time>
      </trkpt>
      <trkpt lat="48.60708" lon="1.94936">
        <ele>121.4</ele>
        <time>2025-12-29T13:10:40Z</time>
      </trkpt>
      <trkpt lat="48.60706" lon="1.94937">
        <ele>121.4</ele>
        <time>2025-12-29T13:10:45Z</time>
      </trkpt>
      <trkpt lat="48.60704" lon="1.94938">
        <ele>121.2</ele>
        <time>2025-12-29T13:10:51Z</time>
      </trkpt>
      <trkpt lat="48.60701" lon="1.94938">
        <ele>121</ele>
        <time>2025-12-29T13:10:53Z</time>
      </trkpt>
      <trkpt lat="48.60699" lon="1.94939">
        <ele>121</ele>
        <time>2025-12-29T13:10:55Z</time>
      </trkpt>
      <trkpt lat="48.60696" lon="1.94939">
        <ele>120.8</ele>
        <time>2025-12-29T13:10:57Z</time>
      </trkpt>
      <trkpt lat="48.60692" lon="1.94939">
        <ele>120.6</ele>
        <time>2025-12-29T13:11:00Z</time>
      </trkpt>
      <trkpt lat="48.6069" lon="1.9494">
        <ele>119.4</ele>
        <time>2025-12-29T13:11:10Z</time>
      </trkpt>
    </trkseg>
  </trk>
</gpx>